# Wetter Temperatur Luftdruck Luftfeuchtigkeit Sichtweite Windgeschwindigkeit Windrichtung Zeit
1 Clouds 8 1023 61 10000 10.8 320 12:56 22.04.2021
2 Clouds 8 1023 61 10000 10.8 320 12:37 22.04.2021
3 Clouds 8 1023 61 10000 10.8 320 12:37 22.04.2021
4 Clouds 8 1022 65 10000 9.77 330 12:19 22.04.2021
5 Clouds 8 1022 65 10000 9.77 330 11:43 22.04.2021
6 Clouds 8 1022 61 10000 10.8 320 11:22 22.04.2021
7 Clouds 8 1022 61 10000 10.8 320 10:43 22.04.2021
8 Clouds 8 1021 65 10000 9.77 320 10:21 22.04.2021
9 Clouds 7 1021 65 10000 9.77 320 09:41 22.04.2021
10 Clouds 7 1021 65 10000 8.23 330 09:19 22.04.2021
11 Clouds 7 1021 65 10000 8.23 330 08:38 22.04.2021
12 Clouds 7 1020 70 10000 9.77 320 08:18 22.04.2021
13 Clouds 6 1020 70 10000 9.77 320 07:37 22.04.2021
14 Clouds 6 1019 65 10000 9.26 320 07:18 22.04.2021
15 Clouds 6 1019 65 10000 9.26 320 06:23 22.04.2021
16 Clouds 6 1019 61 10000 8.23 320 05:25 22.04.2021
17 Clouds 6 1019 61 10000 8.23 320 03:25 22.04.2021
18 Clear 6 1019 65 10000 8.23 330 00:45 22.04.2021
19 Clear 6 1019 56 10000 9.26 330 23:44 21.04.2021
20 Clouds 6 1019 52 10000 9.26 330 23:23 21.04.2021
21 Clouds 6 1019 52 10000 8.75 330 22:41 21.04.2021
22 Clouds 6 1019 56 10000 9.26 330 22:23 21.04.2021
23 Clouds 7 1019 56 10000 9.26 330 21:42 21.04.2021
24 Clouds 7 1019 56 10000 8.75 330 21:23 21.04.2021
25 Clouds 7 1019 56 10000 8.75 330 20:42 21.04.2021
26 Clouds 7 1018 53 10000 8.75 340 20:19 21.04.2021
27 Clouds 8 1018 53 10000 8.75 340 19:42 21.04.2021
28 Clouds 8 1018 53 10000 8.23 330 19:23 21.04.2021
29 Clouds 8 1018 53 10000 8.23 330 18:45 21.04.2021
30 Clouds 8 1018 61 10000 8.75 330 18:26 21.04.2021
31 Clouds 8 1018 61 10000 8.75 330 17:47 21.04.2021
32 Clouds 8 1018 57 10000 9.77 320 17:24 21.04.2021
33 Clouds 9 1018 57 10000 9.77 320 16:48 21.04.2021
34 Clouds 9 1017 57 10000 9.77 320 15:59 21.04.2021
35 Clouds 9 1017 57 10000 9.77 320 15:40 21.04.2021
36 Clouds 9 1017 57 10000 9.26 330 14:55 21.04.2021
37 Clouds 9 1017 57 10000 9.26 330 14:36 21.04.2021
38 Clouds 9 1017 53 10000 9.26 320 14:18 21.04.2021
39 Clouds 9 1017 53 10000 9.26 320 13:40 21.04.2021
40 Clouds 8 1017 61 10000 7.72 340 13:20 21.04.2021
41 Clouds 9 1017 71 10000 7.2 340 12:30 21.04.2021
42 Clouds 8 1017 71 10000 7.2 340 11:50 21.04.2021
43 Clouds 8 1017 76 10000 7.2 330 11:29 21.04.2021
44 Clouds 8 1016 81 10000 5.66 340 10:51 21.04.2021
45 Clouds 8 1016 81 10000 5.66 340 10:33 21.04.2021
46 Clouds 8 1016 87 6000 6.17 340 09:51 21.04.2021
47 Clouds 8 1016 87 6000 6.17 330 09:19 21.04.2021
48 Clouds 8 1016 87 6000 6.17 330 08:40 21.04.2021
49 Clouds 8 1016 87 7000 3.09 310 08:20 21.04.2021
50 Fog 7 1015 87 10000 1.54 300 07:31 21.04.2021
51 Fog 6 1015 87 10000 1.54 300 06:56 21.04.2021
52 Clouds 6 1015 87 10000 1.03 270 05:22 21.04.2021
53 Clear 7 1016 75 10000 0.51 340 01:32 21.04.2021
54 Clear 8 1016 61 10000 2.57 360 23:51 20.04.2021
55 Clear 8 1017 49 10000 3.09 20 23:25 20.04.2021
56 Clear 8 1017 49 10000 3.09 20 22:41 20.04.2021
57 Clear 8 1017 46 10000 3.09 10 22:21 20.04.2021
58 Clear 9 1017 46 10000 3.09 10 21:47 20.04.2021
59 Clear 9 1016 40 10000 3.09 350 21:25 20.04.2021
60 Clear 11 1016 40 10000 3.09 350 20:44 20.04.2021
61 Clear 11 1016 37 10000 3.6 360 20:24 20.04.2021
62 Clear 12 1016 37 10000 3.6 360 19:57 20.04.2021
63 Clear 12 1016 37 10000 3.6 360 19:39 20.04.2021
64 Clouds 14 1016 38 10000 5.14 360 19:21 20.04.2021
65 Clouds 14 1016 38 10000 5.14 360 18:35 20.04.2021
66 Clouds 15 1016 38 10000 3.09 10 17:46 20.04.2021
67 Clouds 16 1016 33 10000 3.6 50 17:28 20.04.2021
68 Clouds 16 1016 33 10000 3.6 50 16:49 20.04.2021
69 Clouds 16 1017 33 10000 3.09 40 15:53 20.04.2021
70 Clouds 15 1017 33 10000 4.12 70 15:29 20.04.2021
71 Clouds 15 1017 33 10000 4.12 70 14:58 20.04.2021
72 Clouds 15 1017 33 10000 4.12 70 14:33 20.04.2021
73 Clear 15 1018 38 10000 4.12 60 13:48 20.04.2021
74 Clear 14 1018 41 10000 4.12 80 13:22 20.04.2021
75 Clear 14 1018 41 10000 4.12 80 12:44 20.04.2021
76 Clear 13 1018 47 10000 3.09 70 12:20 20.04.2021
77 Clear 13 1018 47 10000 3.09 70 11:44 20.04.2021
78 Clear 11 1018 54 10000 3.09 70 11:21 20.04.2021
79 Clear 11 1018 54 10000 3.09 70 10:44 20.04.2021
80 Clear 9 1018 61 10000 3.6 80 10:23 20.04.2021
81 Clear 10 1018 61 10000 3.6 80 09:36 20.04.2021
82 Clear 8 1018 76 10000 2.57 70 08:56 20.04.2021
83 Fog 7 1018 81 10000 2.57 70 08:22 20.04.2021
84 Fog 5 1018 81 10000 2.57 70 07:47 20.04.2021
85 Fog 6 1018 81 10000 3.09 60 06:47 20.04.2021
86 Fog 7 1019 81 10000 3.09 70 05:40 20.04.2021
87 Clear 7 1019 81 10000 3.09 70 04:42 20.04.2021
88 Clear 8 1020 65 10000 1.54 60 01:57 20.04.2021
89 Clear 8 1020 75 10000 1.03 50 00:38 20.04.2021
90 Clear 9 1020 76 10000 2.06 60 23:37 19.04.2021
91 Clear 9 1020 76 10000 3.09 60 22:58 19.04.2021
92 Clear 9 1020 76 10000 3.09 60 22:36 19.04.2021
93 Clouds 9 1020 81 10000 0.51 0 21:51 19.04.2021
94 Clouds 9 1020 76 10000 2.57 340 21:33 19.04.2021
95 Clouds 9 1020 76 10000 2.57 340 20:56 19.04.2021
96 Clouds 9 1020 76 10000 2.57 340 20:38 19.04.2021
97 Clouds 10 1020 62 10000 3.6 350 20:19 19.04.2021
98 Clouds 9 1020 62 10000 3.6 350 19:41 19.04.2021
99 Clouds 10 1020 55 10000 3.6 350 19:23 19.04.2021
100 Clouds 11 1020 55 10000 3.6 350 18:47 19.04.2021
101 Clouds 11 1020 51 10000 2.57 60 18:22 19.04.2021
102 Clouds 11 1020 51 10000 2.57 60 17:54 19.04.2021
103 Clouds 11 1020 44 10000 3.09 70 17:29 19.04.2021
104 Clouds 10 1020 44 10000 3.09 70 16:51 19.04.2021
105 Clouds 10 1020 44 10000 3.09 70 16:33 19.04.2021
106 Clouds 11 1021 58 10000 3.09 40 15:55 19.04.2021
107 Clouds 11 1021 67 10000 3.09 80 15:30 19.04.2021
108 Clouds 14 1021 67 10000 3.09 80 14:55 19.04.2021
109 Clouds 12 1021 67 10000 3.09 80 14:36 19.04.2021
110 Clouds 12 1022 76 10000 3.6 70 13:54 19.04.2021
111 Clouds 12 1022 82 8000 4.12 70 13:30 19.04.2021
112 Clouds 10 1022 82 8000 4.12 70 12:56 19.04.2021
113 Clouds 10 1022 87 7000 3.6 80 12:38 19.04.2021
114 Clouds 10 1022 87 6000 4.12 70 12:19 19.04.2021
115 Mist 9 1022 93 2500 3.09 80 11:51 19.04.2021
116 Mist 8 1022 93 2200 3.6 80 11:20 19.04.2021
117 Mist 9 1022 93 2200 3.6 80 10:44 19.04.2021
118 Mist 9 1022 100 1200 3.6 90 10:20 19.04.2021
119 Mist 9 1022 100 1200 3.6 90 09:48 19.04.2021
120 Mist 9 1022 93 1000 3.6 90 09:26 19.04.2021
121 Fog 7 1022 93 700 4.12 90 08:45 19.04.2021
122 Mist 7 1022 93 3000 4.12 90 08:22 19.04.2021
123 Fog 6 1022 93 7000 3.6 70 07:45 19.04.2021
124 Fog 6 1022 93 9000 3.09 70 07:18 19.04.2021
125 Clouds 7 1021 93 10000 3.09 60 05:43 19.04.2021
126 Clouds 8 1022 93 10000 2.06 70 02:34 19.04.2021
127 Clouds 8 1022 87 10000 1.03 100 00:45 19.04.2021
128 Clouds 8 1022 76 10000 2.57 70 23:22 18.04.2021
129 Clouds 8 1022 76 10000 2.57 70 22:58 18.04.2021
130 Clouds 8 1022 76 10000 2.57 70 22:40 18.04.2021
131 Clouds 8 1022 76 10000 3.09 40 22:22 18.04.2021
132 Clouds 9 1021 71 10000 3.09 10 21:29 18.04.2021
133 Clouds 9 1021 71 10000 3.09 10 21:29 18.04.2021
134 Clouds 9 1021 71 10000 3.09 10 20:56 18.04.2021
135 Clouds 9 1021 71 10000 3.09 10 20:37 18.04.2021
136 Clouds 10 1021 62 10000 3.09 10 20:19 18.04.2021
137 Clouds 10 1021 62 10000 3.09 10 19:44 18.04.2021
138 Clouds 11 1021 54 10000 3.6 360 19:21 18.04.2021
139 Clouds 11 1021 54 10000 3.6 360 18:46 18.04.2021
140 Clouds 11 1021 51 10000 3.6 360 18:27 18.04.2021
141 Clouds 11 1021 51 10000 3.6 360 17:49 18.04.2021
142 Clouds 11 1021 47 10000 4.63 20 17:29 18.04.2021
143 Clouds 12 1021 47 10000 4.63 20 16:54 18.04.2021
144 Clouds 12 1021 47 10000 4.63 20 16:35 18.04.2021
145 Clouds 12 1021 47 10000 5.14 40 15:51 18.04.2021
146 Clouds 12 1021 51 10000 5.66 60 15:30 18.04.2021
147 Clouds 15 1021 51 10000 5.66 60 14:58 18.04.2021
148 Clouds 15 1021 51 10000 5.66 60 14:39 18.04.2021
149 Clouds 11 1022 51 10000 5.14 60 14:18 18.04.2021
150 Clouds 11 1022 51 10000 5.14 60 13:44 18.04.2021
151 Clouds 10 1022 50 10000 5.14 50 13:24 18.04.2021
152 Clouds 11 1022 50 10000 5.14 50 12:35 18.04.2021
153 Clouds 10 1022 54 10000 5.14 50 11:52 18.04.2021
154 Clouds 10 1022 57 10000 6.17 60 11:27 18.04.2021
155 Clouds 10 1022 57 10000 6.17 60 10:54 18.04.2021
156 Clouds 10 1022 57 10000 6.17 60 10:35 18.04.2021
157 Clouds 10 1023 61 10000 5.14 60 09:58 18.04.2021
158 Clouds 9 1023 61 10000 5.14 60 09:39 18.04.2021
159 Clouds 9 1023 61 10000 5.14 60 09:39 18.04.2021
160 Clouds 9 1023 71 10000 4.12 50 09:19 18.04.2021
161 Clouds 7 1023 71 10000 4.12 50 08:41 18.04.2021
162 Clouds 7 1022 70 10000 3.6 60 08:19 18.04.2021
163 Clouds 7 1022 70 10000 3.6 60 07:39 18.04.2021
164 Clouds 6 1022 75 10000 3.09 30 05:48 18.04.2021
165 Clouds 6 1022 76 10000 3.6 40 05:26 18.04.2021
166 Clouds 6 1023 75 10000 2.57 60 04:30 18.04.2021
167 Clouds 6 1023 75 10000 2.57 50 02:23 18.04.2021
168 Clouds 6 1024 75 10000 3.09 50 00:41 18.04.2021
169 Clouds 6 1023 70 10000 1.54 70 23:46 17.04.2021
170 Clouds 6 1023 75 10000 1.03 50 23:22 17.04.2021
171 Clouds 7 1023 75 10000 1.03 50 22:43 17.04.2021
172 Clouds 7 1023 76 10000 2.57 20 22:21 17.04.2021
173 Clouds 7 1023 76 10000 2.57 20 21:41 17.04.2021
174 Clouds 7 1023 71 10000 3.09 350 21:21 17.04.2021
175 Clouds 9 1023 62 10000 4.12 350 20:29 17.04.2021
176 Clouds 9 1023 62 10000 4.12 350 19:46 17.04.2021
177 Clouds 9 1023 62 10000 4.12 350 19:46 17.04.2021
178 Clouds 9 1022 54 10000 4.12 350 19:23 17.04.2021
179 Clouds 9 1022 54 10000 4.12 350 18:59 17.04.2021
180 Clouds 9 1022 54 10000 4.12 350 18:40 17.04.2021
181 Clouds 9 1023 47 10000 4.12 330 18:20 17.04.2021
182 Clouds 10 1023 47 10000 4.12 330 17:41 17.04.2021
183 Clouds 10 1023 47 10000 3.09 360 16:56 17.04.2021
184 Clouds 10 1023 47 10000 3.09 360 16:34 17.04.2021
185 Clouds 11 1023 50 10000 3.6 10 15:56 17.04.2021
186 Clouds 9 1024 54 10000 4.12 10 14:51 17.04.2021
187 Clouds 9 1024 54 10000 4.12 10 14:33 17.04.2021
188 Clouds 9 1024 54 10000 4.12 10 14:33 17.04.2021
189 Clouds 9 1024 53 10000 5.66 360 13:59 17.04.2021
190 Clouds 9 1024 53 10000 5.66 360 13:40 17.04.2021
191 Clouds 8 1024 57 10000 4.63 20 12:42 17.04.2021
192 Clouds 8 1025 61 10000 4.63 350 12:22 17.04.2021
193 Clouds 8 1025 61 10000 4.63 350 11:50 17.04.2021
194 Clouds 8 1025 66 10000 4.63 20 11:31 17.04.2021
195 Clouds 8 1025 66 10000 4.63 20 10:48 17.04.2021
196 Clouds 8 1025 76 10000 5.14 350 10:29 17.04.2021
197 Clouds 7 1025 76 10000 5.14 350 09:44 17.04.2021
198 Clouds 7 1025 75 10000 3.6 350 08:42 17.04.2021
199 Clouds 6 1025 75 10000 3.09 340 08:24 17.04.2021
200 Clouds 5 1026 75 10000 2.57 350 07:20 17.04.2021
201 Clouds 5 1026 93 10000 1.54 20 03:59 17.04.2021
202 Clouds 5 1026 93 10000 1.54 20 03:39 17.04.2021
203 Clouds 6 1027 87 10000 2.57 360 00:51 17.04.2021
204 Clouds 6 1027 81 10000 2.57 350 00:29 17.04.2021
205 Clouds 6 1027 81 10000 2.57 350 23:52 16.04.2021
206 Clouds 6 1027 81 10000 2.57 350 23:32 16.04.2021
207 Clouds 7 1027 75 10000 3.09 360 22:51 16.04.2021
208 Clouds 7 1027 65 10000 4.63 360 22:22 16.04.2021
209 Clouds 7 1027 65 10000 4.63 360 21:54 16.04.2021
210 Clouds 7 1027 65 10000 4.63 360 21:35 16.04.2021
211 Clouds 8 1027 61 10000 5.14 360 20:54 16.04.2021
212 Clouds 8 1027 49 10000 5.66 360 20:29 16.04.2021
213 Clouds 8 1027 49 10000 5.66 360 19:55 16.04.2021
214 Clouds 9 1027 49 10000 5.66 360 19:37 16.04.2021
215 Clouds 9 1027 50 10000 6.69 340 18:47 16.04.2021
216 Clouds 9 1027 32 10000 5.14 40 18:21 16.04.2021
217 Clouds 9 1027 32 10000 5.14 40 17:46 16.04.2021
218 Clouds 9 1027 35 10000 6.17 40 17:19 16.04.2021
219 Clouds 9 1027 35 10000 6.17 40 16:44 16.04.2021
220 Clouds 9 1027 35 10000 6.17 40 16:44 16.04.2021
221 Clouds 9 1028 35 10000 5.14 50 16:25 16.04.2021
222 Clouds 9 1028 35 10000 5.14 50 15:52 16.04.2021
223 Clouds 9 1028 35 10000 7.2 40 15:28 16.04.2021
224 Clouds 9 1028 35 10000 7.2 40 14:43 16.04.2021
225 Clouds 8 1028 43 10000 5.14 50 14:20 16.04.2021
226 Clouds 8 1028 43 10000 5.14 50 13:54 16.04.2021
227 Clouds 8 1028 49 10000 6.17 60 13:21 16.04.2021
228 Clouds 8 1028 49 10000 6.17 60 12:51 16.04.2021
229 Clouds 8 1029 66 10000 4.63 60 12:29 16.04.2021
230 Clouds 8 1029 66 10000 4.63 60 11:58 16.04.2021
231 Clouds 8 1029 70 10000 4.63 40 11:27 16.04.2021
232 Clouds 8 1029 70 10000 4.63 40 10:59 16.04.2021
233 Clouds 8 1029 70 10000 4.63 40 10:39 16.04.2021
234 Clouds 7 1028 70 10000 4.63 40 10:19 16.04.2021
235 Clouds 7 1028 70 10000 4.63 40 09:43 16.04.2021
236 Clouds 7 1028 70 10000 3.6 20 09:20 16.04.2021
237 Clouds 6 1028 70 10000 3.6 20 08:42 16.04.2021
238 Clouds 6 1028 75 10000 2.57 10 08:18 16.04.2021
239 Clouds 5 1028 75 10000 2.57 10 07:37 16.04.2021
240 Clouds 5 1028 75 10000 2.57 360 06:59 16.04.2021
241 Clouds 5 1028 75 10000 2.57 10 06:24 16.04.2021
242 Clouds 5 1029 70 10000 2.57 360 04:23 16.04.2021
243 Clouds 5 1029 75 10000 2.06 10 01:38 16.04.2021
244 Clouds 6 1030 70 10000 3.09 360 00:42 16.04.2021
245 Clouds 5 1030 75 10000 2.06 10 00:20 16.04.2021
246 Clouds 5 1030 75 10000 2.06 10 23:45 15.04.2021
247 Clouds 5 1030 75 10000 2.06 10 23:25 15.04.2021
248 Clouds 6 1030 81 10000 2.06 360 22:47 15.04.2021
249 Clouds 6 1030 75 10000 2.57 360 22:23 15.04.2021
250 Clouds 6 1030 75 10000 2.57 360 21:43 15.04.2021
251 Clouds 6 1030 65 10000 3.09 350 21:24 15.04.2021
252 Clouds 7 1030 65 10000 3.09 350 20:47 15.04.2021
253 Clouds 7 1030 61 10000 4.63 360 20:25 15.04.2021
254 Clouds 7 1030 61 10000 4.63 360 19:47 15.04.2021
255 Clouds 7 1030 57 10000 5.14 360 19:28 15.04.2021
256 Clouds 7 1030 57 10000 5.14 360 18:59 15.04.2021
257 Clouds 8 1030 57 10000 5.14 360 18:37 15.04.2021
258 Clouds 8 1030 49 10000 4.63 360 18:18 15.04.2021
259 Clouds 8 1030 49 10000 4.63 360 17:44 15.04.2021
260 Clouds 8 1030 43 10000 5.14 360 17:24 15.04.2021
261 Clouds 8 1030 43 10000 5.14 360 16:43 15.04.2021
262 Clouds 8 1030 46 10000 5.14 350 16:24 15.04.2021
263 Clouds 8 1030 46 10000 5.14 350 15:47 15.04.2021
264 Clouds 8 1031 46 10000 5.14 10 15:27 15.04.2021
265 Clouds 8 1031 46 10000 5.14 10 14:43 15.04.2021
266 Clouds 8 1031 43 10000 4.12 20 14:25 15.04.2021
267 Clouds 8 1031 43 10000 4.12 20 13:48 15.04.2021
268 Clouds 8 1031 42 10000 4.12 30 13:25 15.04.2021
269 Clouds 8 1031 42 10000 4.12 30 12:49 15.04.2021
270 Clouds 8 1031 49 10000 4.12 40 12:26 15.04.2021
271 Clouds 7 1031 49 10000 4.12 40 11:48 15.04.2021
272 Clouds 6 1031 65 10000 3.6 50 11:27 15.04.2021
273 Clouds 6 1031 65 10000 3.6 50 11:27 15.04.2021
274 Clouds 6 1031 65 10000 3.6 50 10:58 15.04.2021
275 Clouds 6 1031 65 10000 3.6 50 10:39 15.04.2021
276 Clouds 5 1031 75 10000 3.6 50 10:20 15.04.2021
277 Clouds 4 1031 81 10000 2.06 60 09:30 15.04.2021
278 Clouds 5 1031 81 10000 2.06 60 08:53 15.04.2021
279 Clouds 5 1031 87 10000 2.06 50 08:30 15.04.2021
280 Clouds 3 1030 93 10000 1.54 60 07:36 15.04.2021
281 Clouds 3 1030 93 10000 1.54 60 06:56 15.04.2021
282 Clouds 3 1030 93 10000 1.54 60 06:35 15.04.2021
283 Clouds 4 1030 87 10000 1.54 60 04:55 15.04.2021
284 Clouds 4 1029 93 10000 1.54 60 03:59 15.04.2021
285 Clouds 4 1029 87 10000 1.54 360 23:59 14.04.2021
286 Clouds 4 1029 87 10000 1.03 340 23:32 14.04.2021
287 Clouds 5 1029 81 10000 2.06 340 22:57 14.04.2021
288 Clouds 5 1029 81 10000 2.06 340 22:37 14.04.2021
289 Clouds 5 1029 81 10000 1.54 330 22:19 14.04.2021
290 Clouds 5 1029 81 10000 1.54 330 21:40 14.04.2021
291 Clouds 5 1029 75 10000 2.06 320 21:22 14.04.2021
292 Clouds 5 1029 75 10000 2.06 320 20:39 14.04.2021
293 Clouds 5 1029 70 10000 4.12 330 20:20 14.04.2021
294 Clouds 5 1029 70 10000 4.12 330 19:44 14.04.2021
295 Clouds 5 1029 65 10000 5.66 340 19:19 14.04.2021
296 Clouds 7 1029 65 10000 5.66 340 18:50 14.04.2021
297 Clouds 7 1029 61 10000 6.69 330 18:19 14.04.2021
298 Clouds 5 1029 61 10000 6.69 330 17:55 14.04.2021
299 Clouds 5 1029 61 10000 7.2 330 17:24 14.04.2021
300 Clouds 7 1029 61 10000 7.2 330 16:48 14.04.2021
301 Clouds 7 1029 61 10000 6.69 320 16:24 14.04.2021
302 Clouds 7 1029 61 10000 6.69 320 15:41 14.04.2021
303 Clouds 7 1029 81 10000 3.6 350 15:22 14.04.2021
304 Clouds 7 1029 81 10000 3.6 350 14:44 14.04.2021
305 Clouds 7 1029 65 10000 7.72 320 14:23 14.04.2021
306 Clouds 7 1029 65 10000 7.72 340 13:53 14.04.2021
307 Clouds 7 1030 81 10000 5.14 340 13:00 14.04.2021
308 Clouds 5 1030 81 10000 5.14 340 12:36 14.04.2021
309 Clouds 5 1030 81 10000 5.14 340 12:36 14.04.2021
310 Rain 7 1030 65 10000 6.17 330 11:43 14.04.2021
311 Clouds 7 1030 81 10000 8.75 300 11:24 14.04.2021
312 Clouds 7 1029 70 10000 6.17 320 10:38 14.04.2021
313 Clouds 7 1029 70 10000 6.17 320 09:59 14.04.2021
314 Clouds 7 1029 70 10000 6.17 320 09:41 14.04.2021
315 Clouds 6 1030 81 10000 2.06 270 09:20 14.04.2021
316 Clouds 4 1030 81 10000 2.06 270 08:34 14.04.2021
317 Clouds 4 1029 80 10000 4.12 20 07:58 14.04.2021
318 Clouds 4 1029 87 9000 4.63 320 06:48 14.04.2021
319 Clouds 5 1029 81 10000 3.6 330 06:23 14.04.2021
320 Clouds 4 1029 87 10000 4.12 310 04:34 14.04.2021
321 Clouds 4 1029 87 10000 3.6 310 01:42 14.04.2021
322 Clouds 4 1029 87 10000 3.6 310 01:42 14.04.2021
323 Clouds 4 1029 87 10000 3.6 310 01:42 14.04.2021
324 Clouds 5 1030 81 10000 3.09 320 00:37 14.04.2021
325 Clouds 5 1030 81 10000 3.6 310 23:46 13.04.2021
326 Clouds 5 1029 81 10000 5.14 320 23:21 13.04.2021
327 Clouds 5 1029 81 10000 5.14 320 22:41 13.04.2021
328 Clouds 5 1030 75 10000 5.14 330 22:19 13.04.2021
329 Clouds 5 1029 81 10000 4.63 290 21:45 13.04.2021
330 Clouds 5 1029 75 10000 6.69 300 21:27 13.04.2021
331 Clouds 6 1029 75 10000 6.69 300 20:42 13.04.2021
332 Clouds 7 1029 70 10000 6.17 310 20:21 13.04.2021
333 Clouds 7 1029 70 10000 6.17 310 19:48 13.04.2021
334 Clouds 7 1029 70 10000 9.26 310 19:24 13.04.2021
335 Clouds 7 1029 70 10000 9.26 310 18:40 13.04.2021
336 Clouds 8 1029 65 10000 9.26 310 17:56 13.04.2021
337 Clouds 8 1029 65 10000 9.26 310 17:36 13.04.2021
338 Clouds 7 1029 70 10000 10.29 300 17:18 13.04.2021
339 Clouds 6 1029 70 10000 10.29 300 16:43 13.04.2021
340 Clouds 8 1028 61 10000 10.29 300 16:20 13.04.2021
341 Clouds 8 1028 61 10000 10.29 300 15:44 13.04.2021
342 Clouds 8 1028 61 10000 10.29 300 15:44 13.04.2021
343 Clouds 8 1029 70 10000 9.77 300 15:22 13.04.2021
344 Clouds 8 1029 70 10000 9.77 300 14:46 13.04.2021
345 Clouds 8 1028 65 10000 10.29 300 14:19 13.04.2021
346 Clouds 8 1028 65 10000 10.29 300 13:45 13.04.2021
347 Clouds 8 1028 70 10000 10.29 300 13:24 13.04.2021
348 Clouds 8 1028 70 10000 10.29 300 12:56 13.04.2021
349 Clouds 8 1028 70 10000 9.77 300 12:28 13.04.2021
350 Clouds 7 1028 70 10000 9.77 300 11:56 13.04.2021
351 Clouds 7 1028 75 10000 8.23 300 11:30 13.04.2021
352 Clouds 7 1028 75 10000 8.23 300 11:30 13.04.2021
353 Clouds 6 1028 75 10000 8.23 300 10:53 13.04.2021
354 Clouds 6 1028 81 10000 7.2 300 10:21 13.04.2021
355 Clouds 6 1028 81 10000 7.2 300 10:21 13.04.2021
356 Clouds 6 1028 81 10000 7.2 300 09:57 13.04.2021
357 Clouds 6 1028 81 10000 7.2 300 09:36 13.04.2021
358 Clouds 5 1027 81 10000 7.2 290 08:57 13.04.2021
359 Clouds 5 1027 81 10000 7.2 290 08:38 13.04.2021
360 Clouds 5 1026 81 10000 6.17 280 08:20 13.04.2021
361 Clouds 5 1026 81 10000 6.17 280 07:36 13.04.2021
362 Clouds 5 1026 93 10000 3.6 240 06:31 13.04.2021
363 Clear 4 1026 87 10000 5.14 260 04:49 13.04.2021
364 Clouds 5 1026 87 10000 4.12 250 02:25 13.04.2021
365 Clouds 4 1025 81 10000 4.12 230 00:26 13.04.2021
366 Clouds 5 1025 81 10000 4.12 230 23:48 12.04.2021
367 Clouds 5 1025 81 10000 3.6 240 23:25 12.04.2021
368 Clouds 5 1025 81 10000 3.6 240 22:39 12.04.2021
369 Clouds 5 1025 70 10000 6.69 260 22:18 12.04.2021
370 Clouds 5 1025 70 10000 6.69 260 21:45 12.04.2021
371 Clouds 5 1025 70 10000 5.66 260 21:19 12.04.2021
372 Clouds 5 1025 70 10000 5.66 260 20:41 12.04.2021
373 Clouds 5 1024 65 10000 8.23 280 20:22 12.04.2021
374 Clouds 5 1024 65 10000 8.23 280 20:22 12.04.2021
375 Clouds 6 1024 65 10000 8.23 280 19:55 12.04.2021
376 Clouds 6 1024 65 10000 8.23 280 19:37 12.04.2021
377 Clouds 6 1024 65 10000 9.77 280 19:18 12.04.2021
378 Clouds 6 1024 65 10000 9.77 280 18:44 12.04.2021
379 Clouds 7 1024 65 10000 8.75 280 18:25 12.04.2021
380 Clouds 5 1024 65 10000 8.75 280 17:43 12.04.2021
381 Clouds 5 1023 65 10000 8.23 290 17:23 12.04.2021
382 Clouds 7 1023 65 10000 8.23 290 16:47 12.04.2021
383 Clouds 7 1023 61 10000 8.23 290 16:27 12.04.2021
384 Clouds 7 1023 61 10000 8.23 290 15:49 12.04.2021
385 Clouds 7 1023 56 10000 6.17 260 15:31 12.04.2021
386 Clouds 7 1023 56 10000 6.17 260 14:53 12.04.2021
387 Clouds 7 1023 56 10000 6.17 260 14:35 12.04.2021
388 Clouds 7 1023 61 10000 6.69 270 13:49 12.04.2021
389 Clouds 7 1023 56 10000 8.23 260 13:29 12.04.2021
390 Clouds 6 1023 61 10000 5.66 260 12:51 12.04.2021
391 Clouds 6 1022 70 10000 5.66 260 12:27 12.04.2021
392 Clouds 6 1022 70 10000 5.66 260 11:59 12.04.2021
393 Clouds 6 1022 81 10000 3.6 270 11:24 12.04.2021
394 Clouds 5 1022 81 5000 9.26 280 10:47 12.04.2021
395 Clouds 5 1021 81 10000 5.66 250 10:27 12.04.2021
396 Clouds 4 1021 81 10000 5.66 250 09:50 12.04.2021
397 Clouds 4 1021 75 10000 5.66 290 09:20 12.04.2021
398 Rain 4 1021 75 10000 5.66 290 08:39 12.04.2021
399 Clouds 3 1020 81 10000 5.14 290 07:42 12.04.2021
400 Clouds 3 1020 75 10000 5.14 290 07:21 12.04.2021
401 Clouds 3 1019 75 10000 6.69 300 06:25 12.04.2021
402 Clouds 4 1019 75 10000 6.69 300 05:41 12.04.2021
403 Clouds 4 1018 81 10000 6.17 300 01:40 12.04.2021
404 Clouds 4 1018 81 10000 6.17 300 01:40 12.04.2021
405 Clouds 4 1016 75 10000 5.66 320 00:26 12.04.2021
406 Clouds 4 1016 75 10000 5.66 320 23:49 11.04.2021
407 Clouds 4 1016 75 10000 6.17 310 23:30 11.04.2021
408 Clouds 4 1016 75 10000 6.17 310 22:48 11.04.2021
409 Clouds 4 1015 81 10000 6.17 310 22:26 11.04.2021
410 Clouds 4 1015 81 10000 6.17 310 21:50 11.04.2021
411 Clouds 4 1014 81 10000 6.17 310 21:30 11.04.2021
412 Clouds 4 1014 81 10000 6.17 310 21:30 11.04.2021
413 Clouds 4 1014 81 10000 6.17 310 20:58 11.04.2021
414 Clouds 5 1013 81 10000 7.2 310 20:31 11.04.2021
415 Clouds 5 1013 81 10000 7.2 310 19:58 11.04.2021
416 Clouds 5 1013 87 10000 6.69 310 19:39 11.04.2021
417 Clouds 5 1013 87 10000 6.69 310 19:19 11.04.2021
418 Clouds 5 1013 87 10000 6.69 310 18:45 11.04.2021
419 Clouds 5 1012 75 10000 7.72 300 18:26 11.04.2021
420 Clouds 5 1012 75 10000 7.72 300 17:49 11.04.2021
421 Clouds 5 1011 81 10000 8.75 310 17:28 11.04.2021
422 Clouds 5 1011 81 10000 8.75 310 16:53 11.04.2021
423 Clouds 4 1010 87 10000 7.72 300 16:27 11.04.2021
424 Clouds 4 1010 87 10000 7.72 300 15:58 11.04.2021
425 Clouds 4 1010 87 10000 7.72 300 15:38 11.04.2021
426 Clouds 4 1009 87 10000 7.72 290 15:20 11.04.2021
427 Clouds 4 1009 87 10000 7.72 290 14:47 11.04.2021
428 Clouds 4 1008 93 10000 7.72 280 14:18 11.04.2021
429 Clouds 4 1008 93 10000 7.72 280 13:39 11.04.2021
430 Drizzle 4 1007 93 8000 7.2 290 13:21 11.04.2021
431 Mist 4 1007 93 4500 6.69 300 12:25 11.04.2021
432 Clouds 4 1006 93 10000 6.69 250 11:53 11.04.2021
433 Clouds 4 1006 93 10000 6.69 250 11:33 11.04.2021
434 Mist 4 1005 100 5000 3.6 230 10:56 11.04.2021
435 Mist 4 1005 100 5000 3.6 230 10:38 11.04.2021
436 Mist 4 1005 100 5000 4.63 240 10:20 11.04.2021
437 Mist 4 1005 100 2000 1.54 220 09:38 11.04.2021
438 Fog 4 1005 100 900 2.57 80 09:20 11.04.2021
439 Fog 4 1005 100 900 2.57 80 08:38 11.04.2021
440 Mist 4 1005 93 3000 3.6 50 07:37 11.04.2021
441 Mist 3 1005 100 3500 4.12 70 07:18 11.04.2021
442 Mist 3 1006 100 3500 6.17 70 05:44 11.04.2021
443 Drizzle 3 1006 93 3500 6.17 70 05:21 11.04.2021
444 Clouds 3 1007 93 1700 8.23 60 04:35 11.04.2021
445 Rain 3 1009 93 4900 8.23 70 03:20 11.04.2021
446 Rain 4 1012 87 7000 8.23 80 00:49 11.04.2021
447 Rain 4 1013 87 7000 5.14 80 00:25 11.04.2021
448 Rain 5 1013 65 10000 4.63 100 23:30 10.04.2021
449 Rain 5 1013 65 10000 4.63 100 22:54 10.04.2021
450 Rain 5 1014 61 10000 4.63 40 22:25 10.04.2021
451 Rain 5 1014 61 10000 4.63 40 21:52 10.04.2021
452 Rain 5 1014 65 10000 2.57 60 21:24 10.04.2021
453 Rain 5 1014 65 10000 2.57 60 20:53 10.04.2021
454 Rain 5 1014 65 10000 4.12 40 20:32 10.04.2021
455 Rain 5 1014 65 10000 4.12 40 20:32 10.04.2021
456 Rain 6 1014 65 10000 4.12 40 19:48 10.04.2021
457 Rain 6 1015 61 10000 4.63 30 19:28 10.04.2021
458 Clouds 6 1015 61 10000 4.63 30 18:57 10.04.2021
459 Clouds 6 1015 61 10000 4.63 30 18:39 10.04.2021
460 Clouds 6 1015 56 10000 5.14 40 18:20 10.04.2021
461 Clouds 7 1015 56 10000 5.14 40 17:34 10.04.2021
462 Clouds 7 1016 49 10000 4.12 50 16:32 10.04.2021
463 Clouds 7 1016 45 10000 4.12 30 15:56 10.04.2021
464 Clouds 7 1016 45 10000 4.12 30 15:36 10.04.2021
465 Clouds 7 1017 42 10000 2.06 40 14:51 10.04.2021
466 Clouds 7 1017 42 10000 2.57 50 14:28 10.04.2021
467 Clouds 7 1017 42 10000 2.57 50 13:54 10.04.2021
468 Clouds 7 1017 42 10000 2.57 50 13:34 10.04.2021
469 Clouds 7 1017 49 10000 3.09 60 12:39 10.04.2021
470 Clouds 7 1017 52 10000 3.09 50 12:18 10.04.2021
471 Clouds 7 1017 52 10000 3.09 50 11:44 10.04.2021
472 Clouds 6 1016 56 10000 2.06 30 11:20 10.04.2021
473 Clouds 5 1016 56 10000 2.06 30 10:44 10.04.2021
474 Clouds 5 1016 65 10000 2.06 350 10:26 10.04.2021
475 Clouds 5 1015 81 10000 1.03 330 09:30 10.04.2021
476 Clouds 5 1015 81 10000 1.03 330 09:30 10.04.2021
477 Clouds 5 1015 81 10000 1.03 330 08:59 10.04.2021
478 Clouds 4 1015 81 10000 1.03 330 08:33 10.04.2021
479 Clouds 3 1014 87 10000 1.54 350 07:55 10.04.2021
480 Clouds 3 1014 87 10000 0.51 330 07:25 10.04.2021
481 Clouds 4 1013 81 10000 1.54 10 06:27 10.04.2021
482 Clouds 5 1013 81 10000 1.54 340 04:49 10.04.2021
483 Clouds 5 1013 87 10000 1.54 320 03:19 10.04.2021
484 Clouds 5 1013 87 10000 1.54 320 02:42 10.04.2021
485 Clouds 5 1012 93 10000 1.54 320 00:59 10.04.2021
486 Clouds 5 1012 93 10000 1.54 320 00:30 10.04.2021
487 Clouds 5 1012 93 10000 1.54 320 23:50 09.04.2021
488 Clouds 5 1012 87 10000 1.54 260 23:27 09.04.2021
489 Clouds 5 1012 87 10000 1.54 270 22:47 09.04.2021
490 Clouds 5 1012 87 10000 2.06 280 22:28 09.04.2021
491 Clouds 5 1012 87 10000 2.06 280 21:40 09.04.2021
492 Clouds 5 1012 87 10000 3.09 280 21:20 09.04.2021
493 Clouds 5 1012 87 10000 3.09 280 21:20 09.04.2021
494 Clouds 6 1012 87 10000 3.09 250 20:46 09.04.2021
495 Clouds 6 1011 87 10000 4.12 250 20:23 09.04.2021
496 Clouds 6 1011 87 10000 4.12 250 19:58 09.04.2021
497 Clouds 6 1011 87 10000 4.12 250 19:39 09.04.2021
498 Clouds 7 1011 81 10000 4.63 250 19:21 09.04.2021
499 Clouds 7 1011 81 10000 4.63 250 18:42 09.04.2021
500 Clouds 6 1011 87 10000 5.14 260 18:23 09.04.2021
501 Clouds 6 1011 87 10000 5.14 260 17:47 09.04.2021
502 Clouds 6 1011 87 10000 5.14 260 17:29 09.04.2021
503 Clouds 6 1011 87 10000 5.14 260 16:44 09.04.2021
504 Clouds 6 1011 87 8000 7.2 290 16:23 09.04.2021
505 Clouds 5 1011 87 8000 7.2 290 15:43 09.04.2021
506 Mist 5 1010 93 4000 7.72 300 15:23 09.04.2021
507 Mist 5 1010 93 4000 7.72 300 14:46 09.04.2021
508 Clouds 6 1010 81 10000 5.66 240 14:22 09.04.2021
509 Rain 8 1010 81 10000 5.66 240 13:45 09.04.2021
510 Rain 8 1010 76 10000 5.66 240 13:22 09.04.2021
511 Clouds 7 1010 76 10000 5.66 240 12:47 09.04.2021
512 Rain 7 1009 76 10000 7.2 250 12:23 09.04.2021
513 Rain 7 1009 76 10000 7.2 250 11:42 09.04.2021
514 Rain 7 1009 70 10000 6.17 230 11:20 09.04.2021
515 Rain 7 1009 70 10000 6.17 230 10:37 09.04.2021
516 Rain 7 1009 70 10000 7.2 230 09:58 09.04.2021
517 Rain 6 1009 70 10000 6.69 220 09:27 09.04.2021
518 Rain 6 1009 70 10000 6.69 220 08:56 09.04.2021
519 Clouds 6 1009 65 10000 5.66 220 08:31 09.04.2021
520 Clouds 5 1010 65 10000 6.17 220 07:22 09.04.2021
521 Clouds 5 1010 60 10000 6.69 220 06:28 09.04.2021
522 Clouds 5 1011 60 10000 6.69 210 04:38 09.04.2021
523 Clouds 6 1012 60 10000 6.17 210 03:42 09.04.2021
524 Rain 6 1014 56 10000 7.2 210 00:39 09.04.2021
525 Clouds 6 1014 61 10000 6.69 210 00:21 09.04.2021
526 Clouds 6 1014 61 10000 6.69 210 23:38 08.04.2021
527 Clouds 7 1015 61 10000 6.69 220 22:52 08.04.2021
528 Clouds 7 1016 61 10000 5.14 220 22:27 08.04.2021
529 Clouds 7 1016 61 10000 5.14 220 21:59 08.04.2021
530 Clouds 7 1016 61 10000 5.14 220 21:41 08.04.2021
531 Clouds 7 1016 61 10000 5.14 230 21:22 08.04.2021
532 Clouds 7 1016 61 10000 5.14 230 20:58 08.04.2021
533 Clouds 7 1016 61 10000 5.14 230 20:39 08.04.2021
534 Clouds 7 1017 61 10000 5.66 230 20:19 08.04.2021
535 Clouds 7 1017 61 10000 5.66 230 19:40 08.04.2021
536 Clouds 7 1017 53 10000 6.17 240 19:19 08.04.2021
537 Clouds 8 1017 53 10000 6.17 240 18:42 08.04.2021
538 Clouds 8 1018 49 10000 8.23 240 18:19 08.04.2021
539 Clouds 8 1018 49 10000 8.23 240 17:42 08.04.2021
540 Clouds 8 1018 53 10000 6.69 230 17:20 08.04.2021
541 Clouds 8 1018 53 10000 6.69 230 16:45 08.04.2021
542 Clouds 8 1019 56 10000 6.69 240 16:22 08.04.2021
543 Clouds 7 1019 56 10000 6.69 240 15:46 08.04.2021
544 Clouds 7 1019 70 10000 5.14 250 15:26 08.04.2021
545 Clouds 6 1019 70 10000 5.14 250 14:42 08.04.2021
546 Clouds 6 1020 70 10000 7.2 260 14:21 08.04.2021
547 Clouds 4 1020 70 10000 7.2 260 13:49 08.04.2021
548 Clouds 5 1019 61 10000 7.72 260 13:24 08.04.2021
549 Clouds 4 1019 61 10000 7.72 260 12:57 08.04.2021
550 Clouds 4 1019 61 10000 7.72 260 12:33 08.04.2021
551 Clouds 5 1019 56 10000 5.66 270 11:57 08.04.2021
552 Clouds 5 1019 70 10000 7.2 290 11:27 08.04.2021
553 Clouds 6 1019 70 10000 7.2 290 10:56 08.04.2021
554 Clouds 6 1019 70 10000 7.2 290 10:25 08.04.2021
555 Clouds 5 1019 70 10000 7.2 290 09:46 08.04.2021
556 Clouds 5 1018 70 10000 4.63 300 09:27 08.04.2021
557 Clouds 4 1018 70 10000 4.63 300 08:44 08.04.2021
558 Clouds 4 1018 70 10000 5.14 300 08:22 08.04.2021
559 Clouds 3 1018 70 10000 5.14 300 07:46 08.04.2021
560 Clouds 4 1017 70 10000 5.14 310 06:46 08.04.2021
561 Clouds 4 1014 70 9000 9.26 310 01:28 08.04.2021
562 Clouds 4 1014 70 9000 9.26 310 00:32 08.04.2021
563 Clouds 3 1014 81 10000 9.26 310 23:50 07.04.2021
564 Clouds 3 1013 75 10000 8.75 330 23:27 07.04.2021
565 Clouds 3 1013 87 4500 7.72 350 22:58 07.04.2021
566 Clouds 3 1013 87 4500 7.72 350 22:39 07.04.2021
567 Clouds 4 1013 75 7000 8.75 320 22:21 07.04.2021
568 Clouds 3 1013 75 10000 10.29 310 21:34 07.04.2021
569 Clouds 3 1012 65 10000 10.8 310 20:59 07.04.2021
570 Clouds 4 1012 65 10000 10.8 310 20:40 07.04.2021
571 Clouds 4 1012 65 10000 10.8 310 20:19 07.04.2021
572 Clouds 5 1012 65 10000 10.8 310 19:41 07.04.2021
573 Clouds 5 1011 75 10000 11.32 310 19:22 07.04.2021
574 Clouds 5 1011 75 10000 11.32 310 18:42 07.04.2021
575 Clouds 5 1011 81 10000 8.75 310 18:18 07.04.2021
576 Clouds 5 1010 87 10000 8.75 310 17:48 07.04.2021
577 Clouds 5 1010 87 10000 9.26 320 17:30 07.04.2021
578 Clouds 4 1010 87 9000 12.35 320 16:47 07.04.2021
579 Clouds 5 1009 75 10000 11.32 310 16:21 07.04.2021
580 Clouds 6 1009 75 10000 11.32 310 15:56 07.04.2021
581 Clouds 6 1009 75 10000 11.32 310 15:38 07.04.2021
582 Clouds 7 1009 75 10000 11.83 310 14:50 07.04.2021
583 Clouds 6 1008 87 10000 8.75 310 14:25 07.04.2021
584 Clouds 6 1008 87 10000 8.75 310 13:46 07.04.2021
585 Clouds 6 1008 93 10000 6.69 330 13:21 07.04.2021
586 Clouds 5 1008 81 4000 7.72 310 12:48 07.04.2021
587 Clouds 5 1008 93 10000 5.66 280 12:22 07.04.2021
588 Clouds 5 1007 81 8000 7.2 250 11:48 07.04.2021
589 Clouds 5 1007 93 10000 6.69 250 11:25 07.04.2021
590 Clouds 5 1007 93 10000 6.69 250 10:51 07.04.2021
591 Clouds 3 1007 93 9000 6.17 250 09:56 07.04.2021
592 Clouds 3 1007 93 10000 6.69 250 09:37 07.04.2021
593 Clouds 2 1007 93 10000 6.17 240 09:19 07.04.2021
594 Clouds 2 1007 93 10000 7.2 250 08:33 07.04.2021
595 Clouds 2 1006 93 10000 5.14 240 07:57 07.04.2021
596 Clouds 2 1006 93 10000 5.14 250 07:29 07.04.2021
597 Clouds 2 1006 93 10000 5.14 250 06:59 07.04.2021
598 Clouds 3 1006 86 10000 3.6 230 06:21 07.04.2021
599 Clouds 3 1006 80 9000 7.2 260 03:54 07.04.2021
600 Clouds 3 1005 75 10000 8.23 310 23:52 06.04.2021
601 Clouds 3 1005 80 10000 7.72 310 23:23 06.04.2021
602 Clouds 3 1005 80 10000 7.72 310 22:59 06.04.2021
603 Clouds 3 1005 75 10000 9.26 310 22:22 06.04.2021
604 Clouds 3 1005 75 10000 8.23 310 21:59 06.04.2021
605 Clouds 3 1005 75 10000 8.23 310 21:39 06.04.2021
606 Clouds 3 1005 75 10000 8.23 310 21:21 06.04.2021
607 Rain 2 1005 75 10000 8.23 310 20:51 06.04.2021
608 Snow 2 1004 87 10000 5.14 300 20:21 06.04.2021
609 Clouds 3 1004 87 10000 5.14 300 19:51 06.04.2021
610 Clouds 3 1004 87 10000 5.14 300 19:33 06.04.2021
611 Clouds 2 1004 81 5000 8.23 310 18:49 06.04.2021
612 Clouds 2 1004 87 10000 7.2 300 18:31 06.04.2021
613 Clouds 3 1004 87 10000 7.2 300 17:54 06.04.2021
614 Clouds 3 1004 87 10000 7.2 300 17:36 06.04.2021
615 Clouds 3 1004 80 5000 9.26 320 17:18 06.04.2021
616 Clouds 4 1004 75 9000 9.26 310 16:40 06.04.2021
617 Clouds 3 1004 75 10000 8.75 310 15:46 06.04.2021
618 Clouds 2 1004 86 8000 9.26 310 15:22 06.04.2021
619 Clouds 2 1004 80 2000 9.26 320 14:40 06.04.2021
620 Clouds 3 1004 75 10000 9.26 290 14:20 06.04.2021
621 Clouds 4 1004 60 10000 10.29 310 13:46 06.04.2021
622 Rain 4 1005 70 10000 8.75 320 13:25 06.04.2021
623 Clouds 3 1005 70 10000 8.75 320 12:43 06.04.2021
624 Clouds 3 1005 70 10000 11.83 310 12:24 06.04.2021
625 Clouds 3 1005 75 9000 10.8 290 11:54 06.04.2021
626 Clouds 3 1005 75 9000 10.8 290 11:36 06.04.2021
627 Clouds 3 1005 75 9000 11.32 290 11:18 06.04.2021
628 Clouds 3 1005 70 8000 9.26 300 10:38 06.04.2021
629 Clouds 3 1005 69 10000 10.29 290 10:19 06.04.2021
630 Clouds 2 1005 69 10000 10.29 290 09:42 06.04.2021
631 Clouds 3 1005 75 9000 9.77 310 08:48 06.04.2021
632 Clouds 3 1005 75 7000 11.32 320 08:19 06.04.2021
633 Rain 3 1005 69 10000 8.75 310 06:57 06.04.2021
634 Clouds 3 1005 70 10000 8.75 320 06:23 06.04.2021
635 Clouds 1 1005 86 9000 5.14 320 03:54 06.04.2021
636 Clouds 2 1005 69 10000 6.17 290 00:48 06.04.2021
637 Clouds 2 1005 69 10000 5.14 290 00:21 06.04.2021
638 Clouds 2 1005 69 10000 5.14 290 23:50 05.04.2021
639 Snow 2 1005 64 10000 6.69 300 23:28 05.04.2021
640 Clouds 1 1005 64 10000 6.69 300 22:53 05.04.2021
641 Clouds 1 1005 64 10000 6.69 300 22:33 05.04.2021
642 Clouds 3 1005 60 10000 9.26 310 21:47 05.04.2021
643 Clouds 3 1004 64 10000 8.23 300 21:23 05.04.2021
644 Clouds 3 1004 64 10000 8.23 300 20:49 05.04.2021
645 Clouds 3 1004 70 10000 11.83 300 20:30 05.04.2021
646 Clouds 3 1004 70 10000 11.83 300 19:45 05.04.2021
647 Clouds 3 1003 52 10000 10.8 310 19:25 05.04.2021
648 Clouds 4 1003 52 10000 10.8 310 18:58 05.04.2021
649 Clouds 4 1003 52 10000 10.8 310 18:38 05.04.2021
650 Clouds 4 1003 60 10000 11.83 310 18:19 05.04.2021
651 Clouds 5 1003 60 10000 11.83 310 17:46 05.04.2021
652 Rain 5 1003 60 10000 11.83 310 17:21 05.04.2021
653 Clouds 4 1003 60 10000 11.83 310 16:45 05.04.2021
654 Clouds 4 1002 60 10000 13.89 310 16:22 05.04.2021
655 Rain 4 1002 60 10000 13.89 310 15:56 05.04.2021
656 Clouds 3 1002 69 10000 13.38 300 15:30 05.04.2021
657 Clouds 3 1002 69 10000 13.38 300 14:58 05.04.2021
658 Clouds 2 1003 80 4000 8.23 310 14:35 05.04.2021
659 Rain 3 1002 60 3000 12.35 300 13:41 05.04.2021
660 Clouds 3 1002 48 10000 12.86 310 13:22 05.04.2021
661 Clouds 4 1002 48 10000 12.86 310 12:45 05.04.2021
662 Clouds 4 1001 48 10000 12.86 310 12:23 05.04.2021
663 Snow 2 1001 48 10000 12.35 310 11:46 05.04.2021
664 Snow 1 1001 80 10000 9.26 330 11:27 05.04.2021
665 Snow 1 1001 80 10000 9.26 330 10:48 05.04.2021
666 Clouds 0 1001 93 10000 11.83 340 10:29 05.04.2021
667 Clouds 3 1000 75 9000 11.32 330 09:48 05.04.2021
668 Clouds 3 999 80 10000 13.38 310 09:25 05.04.2021
669 Clouds 3 999 75 10000 10.29 300 08:45 05.04.2021
670 Clouds 3 999 81 10000 11.32 320 08:26 05.04.2021
671 Clouds 4 999 70 10000 9.26 310 07:38 05.04.2021
672 Clouds 4 999 81 10000 9.77 320 07:18 05.04.2021
673 Rain 7 1001 81 9000 8.23 250 03:42 05.04.2021
674 Clouds 5 1007 81 10000 7.2 230 00:54 05.04.2021
675 Clouds 5 1008 81 10000 7.2 230 23:53 04.04.2021
676 Clouds 6 1010 81 10000 7.72 230 23:30 04.04.2021
677 Clouds 6 1010 81 10000 7.72 230 22:56 04.04.2021
678 Clouds 6 1010 81 10000 7.72 230 22:33 04.04.2021
679 Clouds 7 1011 81 10000 6.69 240 21:48 04.04.2021
680 Clouds 7 1013 76 10000 6.69 250 21:21 04.04.2021
681 Clouds 7 1013 76 10000 6.69 250 20:42 04.04.2021
682 Clouds 7 1014 76 10000 7.2 250 20:20 04.04.2021
683 Clouds 7 1014 76 10000 7.2 250 19:40 04.04.2021
684 Clouds 7 1016 76 10000 9.77 260 19:19 04.04.2021
685 Clouds 7 1016 76 10000 9.77 260 18:50 04.04.2021
686 Clouds 7 1017 81 10000 7.2 270 18:24 04.04.2021
687 Clouds 7 1017 81 10000 7.2 270 17:58 04.04.2021
688 Clouds 7 1018 76 10000 7.72 270 17:25 04.04.2021
689 Clouds 7 1018 76 10000 7.72 270 16:56 04.04.2021
690 Clouds 7 1018 76 10000 7.72 270 16:37 04.04.2021
691 Clouds 7 1019 76 10000 7.72 260 15:51 04.04.2021
692 Clouds 7 1020 76 10000 6.69 270 15:31 04.04.2021
693 Clouds 7 1020 76 10000 6.69 270 14:39 04.04.2021
694 Drizzle 7 1021 81 10000 7.72 280 14:19 04.04.2021
695 Drizzle 7 1022 81 10000 7.2 290 13:27 04.04.2021
696 Drizzle 7 1022 81 10000 7.2 290 12:51 04.04.2021
697 Clouds 7 1022 70 10000 7.72 290 12:28 04.04.2021
698 Clouds 6 1022 70 10000 7.72 290 11:49 04.04.2021
699 Clouds 6 1022 81 10000 7.2 300 11:30 04.04.2021
700 Clouds 6 1022 81 10000 7.2 300 10:49 04.04.2021
701 Clouds 6 1022 75 10000 6.17 300 10:29 04.04.2021
702 Clouds 6 1022 75 10000 6.17 300 09:48 04.04.2021
703 Drizzle 6 1022 75 10000 5.66 310 09:21 04.04.2021
704 Drizzle 5 1022 75 10000 5.66 310 08:45 04.04.2021
705 Drizzle 5 1023 81 10000 5.14 310 08:26 04.04.2021
706 Clouds 5 1023 75 10000 4.12 300 06:40 04.04.2021
707 Clouds 5 1023 75 10000 2.57 300 05:44 04.04.2021
708 Clouds 5 1023 75 10000 2.57 300 05:44 04.04.2021
709 Clouds 5 1024 75 10000 3.6 320 02:59 04.04.2021
710 Clouds 5 1025 81 10000 3.6 330 00:55 04.04.2021
711 Clouds 5 1025 81 9000 4.12 330 00:18 04.04.2021
712 Clouds 5 1025 81 9000 4.12 330 23:41 03.04.2021
713 Clouds 5 1025 81 10000 5.14 320 22:58 03.04.2021
714 Clouds 5 1025 81 10000 5.14 320 22:40 03.04.2021
715 Clouds 5 1025 81 10000 5.14 310 22:19 03.04.2021
716 Clouds 5 1025 87 10000 3.6 310 21:46 03.04.2021
717 Clouds 5 1025 81 10000 4.12 310 21:23 03.04.2021
718 Clouds 5 1025 81 10000 4.12 310 20:48 03.04.2021
719 Clouds 5 1025 81 10000 5.14 310 20:26 03.04.2021
720 Clouds 6 1025 81 10000 5.14 310 19:48 03.04.2021
721 Clouds 6 1025 75 10000 4.63 310 19:24 03.04.2021
722 Clouds 7 1025 75 10000 4.63 310 18:46 03.04.2021
723 Clouds 7 1025 75 10000 5.14 300 18:23 03.04.2021
724 Clouds 7 1026 81 10000 5.66 310 17:51 03.04.2021
725 Clouds 7 1026 76 10000 5.66 310 17:21 03.04.2021
726 Clouds 8 1026 76 10000 5.66 310 16:49 03.04.2021
727 Clouds 8 1026 76 10000 6.69 310 16:21 03.04.2021
728 Clouds 8 1026 76 10000 6.69 310 15:48 03.04.2021
729 Clouds 8 1026 76 10000 6.69 320 15:22 03.04.2021
730 Clouds 8 1026 76 10000 6.69 320 14:44 03.04.2021
731 Clouds 8 1026 66 10000 6.17 300 14:23 03.04.2021
732 Clouds 7 1026 66 10000 6.17 300 13:50 03.04.2021
733 Clouds 7 1026 62 10000 5.14 320 13:24 03.04.2021
734 Clouds 7 1026 62 10000 5.14 320 12:56 03.04.2021
735 Clouds 7 1026 61 10000 5.14 320 12:32 03.04.2021
736 Clouds 7 1026 61 10000 5.14 320 11:39 03.04.2021
737 Clouds 7 1026 66 10000 2.57 320 11:19 03.04.2021
738 Clouds 7 1026 66 10000 2.57 320 10:43 03.04.2021
739 Clouds 7 1025 76 10000 3.09 360 10:22 03.04.2021
740 Clouds 6 1025 81 10000 2.06 360 09:29 03.04.2021
741 Clouds 6 1025 81 10000 2.06 360 08:58 03.04.2021
742 Fog 5 1024 93 10000 1.03 0 08:31 03.04.2021
743 Fog 5 1024 93 10000 2.06 360 07:29 03.04.2021
744 Fog 5 1024 93 10000 2.06 360 06:50 03.04.2021
745 Clear 5 1023 93 4600 2.57 340 03:53 03.04.2021
746 Clear 5 1022 93 5000 3.09 330 02:53 03.04.2021
747 Clouds 5 1022 93 6000 4.12 330 02:27 03.04.2021
748 Clouds 6 1022 70 10000 4.12 330 00:31 03.04.2021
749 Clouds 6 1022 70 10000 4.12 330 23:53 02.04.2021
750 Clouds 6 1022 65 10000 6.17 330 23:27 02.04.2021
751 Clouds 6 1022 65 10000 6.17 330 22:56 02.04.2021
752 Clouds 6 1022 65 10000 6.17 330 22:37 02.04.2021
753 Clouds 6 1021 75 10000 6.69 330 21:54 02.04.2021
754 Clouds 6 1021 75 10000 6.69 330 21:36 02.04.2021
755 Clouds 6 1021 75 10000 9.26 330 21:18 02.04.2021
756 Clouds 6 1021 75 10000 9.26 330 21:18 02.04.2021
757 Clouds 6 1021 75 10000 9.26 330 20:36 02.04.2021
758 Clouds 7 1021 75 10000 9.26 330 20:18 02.04.2021
759 Clouds 7 1021 75 10000 8.23 340 19:40 02.04.2021
760 Clouds 7 1021 76 10000 7.2 330 19:21 02.04.2021
761 Clouds 7 1021 76 10000 7.2 330 18:42 02.04.2021
762 Clouds 7 1021 81 10000 8.75 330 18:23 02.04.2021
763 Clouds 7 1021 81 10000 8.75 330 17:45 02.04.2021
764 Clouds 7 1021 81 10000 9.77 310 17:18 02.04.2021
765 Clouds 7 1022 76 10000 9.77 310 16:23 02.04.2021
766 Clouds 8 1022 76 10000 9.77 310 15:43 02.04.2021
767 Clouds 8 1022 70 10000 9.26 320 15:19 02.04.2021
768 Clouds 8 1022 70 10000 9.26 320 14:33 02.04.2021
769 Clouds 7 1022 75 10000 9.77 310 13:47 02.04.2021
770 Clouds 7 1023 75 10000 8.75 320 13:27 02.04.2021
771 Clouds 7 1023 70 10000 9.26 320 12:53 02.04.2021
772 Clouds 7 1023 75 10000 8.75 320 12:20 02.04.2021
773 Clouds 7 1023 75 10000 8.75 320 11:58 02.04.2021
774 Clouds 6 1023 70 10000 7.2 320 11:21 02.04.2021
775 Clouds 6 1023 70 10000 7.2 320 10:51 02.04.2021
776 Clouds 6 1023 70 10000 7.2 320 10:33 02.04.2021
777 Clouds 5 1023 75 10000 6.69 320 09:57 02.04.2021
778 Clouds 5 1023 75 10000 6.69 320 09:37 02.04.2021
779 Clouds 5 1024 70 10000 6.17 320 09:18 02.04.2021
780 Clouds 5 1024 70 10000 6.17 320 08:37 02.04.2021
781 Clouds 5 1024 81 10000 5.66 310 07:52 02.04.2021
782 Clouds 5 1024 81 10000 4.63 330 07:19 02.04.2021
783 Clouds 5 1024 81 10000 4.12 350 06:31 02.04.2021
784 Clear 5 1024 93 150 2.06 350 02:59 02.04.2021
785 Clouds 5 1024 93 8000 2.06 10 00:56 02.04.2021
786 Clouds 5 1024 93 8000 2.06 10 00:36 02.04.2021
787 Clouds 5 1024 87 9000 1.03 340 23:43 01.04.2021
788 Clouds 5 1024 81 10000 1.54 20 23:25 01.04.2021
789 Clouds 6 1024 76 10000 3.6 40 22:22 01.04.2021
790 Clouds 6 1024 76 10000 3.6 40 21:56 01.04.2021
791 Clouds 6 1024 76 10000 3.6 40 21:38 01.04.2021
792 Clouds 6 1023 81 10000 3.09 360 21:18 01.04.2021
793 Clouds 7 1023 81 10000 3.09 360 20:33 01.04.2021
794 Clouds 7 1023 81 10000 5.66 350 19:58 01.04.2021
795 Clouds 7 1023 81 10000 5.66 350 19:39 01.04.2021
796 Clouds 7 1023 76 10000 5.66 340 18:54 01.04.2021
797 Clouds 7 1023 76 10000 5.66 340 18:36 01.04.2021
798 Clouds 8 1022 71 10000 6.17 350 18:18 01.04.2021
799 Clouds 8 1022 71 10000 6.17 350 17:39 01.04.2021
800 Clouds 8 1022 71 10000 5.14 350 17:20 01.04.2021
801 Clouds 8 1022 71 10000 5.14 350 16:44 01.04.2021
802 Clouds 7 1022 66 10000 7.72 10 15:57 01.04.2021
803 Clouds 7 1021 76 10000 6.69 350 15:24 01.04.2021
804 Clouds 7 1021 76 10000 6.69 350 14:57 01.04.2021
805 Clouds 7 1021 76 10000 6.69 350 14:38 01.04.2021
806 Clouds 7 1021 76 10000 6.69 340 14:19 01.04.2021
807 Clouds 7 1021 76 10000 6.69 340 13:47 01.04.2021
808 Clouds 7 1021 76 10000 8.75 350 13:27 01.04.2021
809 Clouds 7 1021 76 10000 8.75 350 12:46 01.04.2021
810 Clouds 6 1020 81 10000 8.23 360 12:28 01.04.2021
811 Clouds 7 1020 81 10000 8.23 360 11:44 01.04.2021
812 Clouds 7 1020 87 10000 8.75 350 11:19 01.04.2021
813 Clouds 6 1020 87 10000 7.2 350 10:47 01.04.2021
814 Clouds 6 1019 93 9000 5.66 350 10:28 01.04.2021
815 Clouds 6 1019 93 9000 5.66 350 09:36 01.04.2021
816 Clouds 6 1019 87 9000 6.17 340 08:58 01.04.2021
817 Clouds 6 1019 87 10000 5.66 340 08:33 01.04.2021
818 Mist 7 1017 81 4000 2.06 20 07:23 01.04.2021
819 Mist 7 1017 81 4000 2.06 20 06:58 01.04.2021
820 Clouds 7 1018 71 6000 2.06 330 06:27 01.04.2021
821 Clouds 10 1018 57 9000 1.54 260 03:25 01.04.2021
822 Clouds 10 1018 40 10000 1.03 60 00:28 01.04.2021
823 Clouds 11 1018 40 10000 1.03 60 23:44 31.03.2021
824 Clouds 11 1019 41 10000 1.03 40 22:58 31.03.2021
825 Clouds 11 1019 41 10000 1.03 40 22:39 31.03.2021
826 Clouds 11 1019 50 10000 1.03 40 22:20 31.03.2021
827 Clouds 11 1019 50 10000 1.03 40 21:44 31.03.2021
828 Clouds 11 1019 51 10000 1.03 60 21:20 31.03.2021
829 Clouds 11 1019 51 10000 1.03 60 21:20 31.03.2021
830 Clouds 13 1019 51 10000 1.03 60 20:42 31.03.2021
831 Clouds 14 1019 39 10000 2.06 50 20:23 31.03.2021
832 Clouds 17 1019 39 10000 2.06 50 19:46 31.03.2021
833 Clouds 19 1019 37 10000 0.51 10 19:25 31.03.2021
834 Clouds 19 1019 37 10000 0.51 10 18:59 31.03.2021
835 Clouds 19 1019 37 10000 0.51 10 18:41 31.03.2021
836 Clouds 21 1019 26 10000 1.03 40 17:53 31.03.2021
837 Clouds 21 1019 26 10000 1.03 40 17:34 31.03.2021
838 Clear 21 1020 24 10000 2.57 310 16:57 31.03.2021
839 Clear 21 1020 24 10000 2.57 310 16:37 31.03.2021
840 Clear 21 1020 30 10000 3.09 280 16:19 31.03.2021
841 Clear 21 1020 30 10000 3.09 280 15:48 31.03.2021
842 Clear 21 1021 26 10000 2.06 260 15:19 31.03.2021
843 Clear 21 1021 26 10000 2.06 260 14:42 31.03.2021
844 Clear 21 1021 28 10000 1.03 240 14:20 31.03.2021
845 Clear 21 1021 28 10000 1.03 240 13:40 31.03.2021
846 Clear 20 1022 30 10000 1.03 0 12:42 31.03.2021
847 Clear 18 1022 36 10000 1.03 0 12:20 31.03.2021
848 Clear 18 1022 36 10000 1.03 0 11:51 31.03.2021
849 Clear 13 1023 67 10000 1.54 70 11:20 31.03.2021
850 Clear 12 1023 67 10000 1.54 70 10:46 31.03.2021
851 Clear 11 1023 81 9000 0.51 0 10:25 31.03.2021
852 Clear 9 1023 81 9000 0.51 0 09:38 31.03.2021
853 Mist 6 1023 93 4000 1.03 120 08:55 31.03.2021
854 Fog 6 1023 100 50 1.54 100 08:37 31.03.2021
855 Fog 7 1023 93 50 2.06 120 07:52 31.03.2021
856 Fog 7 1023 93 50 2.06 120 07:52 31.03.2021
857 Fog 5 1024 93 6000 1.54 120 06:46 31.03.2021
858 Clear 7 1025 93 6000 1.03 150 03:51 31.03.2021
859 Clear 6 1026 93 4300 1.54 140 01:43 31.03.2021
860 Clear 6 1027 93 5000 1.54 150 00:49 31.03.2021
861 Clear 7 1027 87 6000 1.54 100 00:20 31.03.2021
862 Clear 7 1027 87 6000 1.54 100 23:41 30.03.2021
863 Clouds 7 1027 93 10000 2.06 90 22:59 30.03.2021
864 Clouds 10 1027 93 10000 2.06 90 22:40 30.03.2021
865 Clouds 10 1027 93 10000 2.06 90 22:40 30.03.2021
866 Clouds 10 1027 81 10000 4.22 240 22:21 30.03.2021
867 Clouds 10 1027 81 10000 4.22 240 21:49 30.03.2021
868 Clouds 11 1027 62 10000 1.03 290 21:20 30.03.2021
869 Clouds 13 1027 62 10000 1.03 290 20:53 30.03.2021
870 Clouds 13 1027 62 10000 1.03 290 20:53 30.03.2021
871 Clouds 16 1027 55 10000 1.54 280 20:28 30.03.2021
872 Clouds 16 1027 55 10000 1.54 280 19:51 30.03.2021
873 Clouds 17 1027 51 10000 1.54 280 19:27 30.03.2021
874 Clouds 17 1027 51 10000 1.54 280 19:27 30.03.2021
875 Clouds 17 1027 51 10000 1.54 280 18:40 30.03.2021
876 Clouds 18 1028 48 10000 2.06 260 18:20 30.03.2021
877 Clouds 18 1028 48 10000 2.06 260 17:41 30.03.2021
878 Clouds 17 1029 51 10000 3.09 260 17:23 30.03.2021
879 Clouds 17 1029 51 10000 3.09 260 16:45 30.03.2021
880 Clouds 18 1029 52 10000 4.12 280 16:24 30.03.2021
881 Clouds 16 1029 59 10000 4.12 270 15:21 30.03.2021
882 Clouds 16 1029 59 10000 4.12 270 14:57 30.03.2021
883 Clouds 16 1029 63 10000 5.14 280 14:22 30.03.2021
884 Clouds 16 1029 63 10000 5.14 280 13:59 30.03.2021
885 Clouds 15 1030 67 10000 5.14 260 13:37 30.03.2021
886 Clouds 15 1030 67 10000 5.14 260 12:49 30.03.2021
887 Clouds 13 1030 71 10000 5.66 250 12:29 30.03.2021
888 Clouds 13 1030 71 10000 5.66 250 11:58 30.03.2021
889 Clouds 12 1029 71 10000 5.66 260 11:24 30.03.2021
890 Clouds 12 1029 71 10000 5.66 260 10:47 30.03.2021
891 Clouds 10 1029 71 10000 3.6 240 10:29 30.03.2021
892 Clouds 10 1029 71 10000 3.6 240 09:57 30.03.2021
893 Clouds 10 1029 71 10000 3.6 240 09:37 30.03.2021
894 Clouds 10 1029 76 10000 3.09 230 09:18 30.03.2021
895 Clouds 8 1029 76 10000 3.09 230 08:39 30.03.2021
896 Clouds 8 1028 76 10000 4.12 220 07:52 30.03.2021
897 Clouds 8 1028 76 10000 3.09 220 07:22 30.03.2021
898 Clouds 8 1028 76 10000 4.12 220 05:53 30.03.2021
899 Clear 9 1028 71 10000 2.57 230 05:19 30.03.2021
900 Clear 10 1028 81 8000 3.6 250 00:58 30.03.2021
901 Clouds 9 1027 87 10000 4.12 250 23:51 29.03.2021
902 Clouds 10 1027 93 10000 2.57 220 22:55 29.03.2021
903 Clouds 10 1027 93 10000 2.57 220 22:32 29.03.2021
904 Clouds 11 1027 87 10000 3.6 270 21:52 29.03.2021
905 Clouds 11 1027 87 10000 2.57 280 21:31 29.03.2021
906 Clouds 10 1027 87 10000 2.57 280 20:50 29.03.2021
907 Clouds 12 1026 76 10000 3.6 260 20:28 29.03.2021
908 Clouds 12 1026 76 10000 3.6 260 19:50 29.03.2021
909 Clouds 13 1026 71 10000 5.66 280 19:27 29.03.2021
910 Clouds 13 1026 71 10000 5.66 280 18:51 29.03.2021
911 Clouds 12 1026 82 10000 5.66 290 18:27 29.03.2021
912 Clouds 12 1026 82 10000 5.66 290 17:52 29.03.2021
913 Clouds 12 1026 82 10000 5.66 290 17:33 29.03.2021
914 Clouds 13 1026 76 10000 5.66 260 16:50 29.03.2021
915 Clouds 13 1025 71 10000 6.17 260 16:24 29.03.2021
916 Clouds 13 1025 71 10000 6.17 260 15:40 29.03.2021
917 Clouds 13 1025 71 10000 6.69 250 15:22 29.03.2021
918 Rain 13 1025 71 10000 6.69 250 14:47 29.03.2021
919 Clouds 14 1024 67 10000 7.2 250 13:56 29.03.2021
920 Clouds 14 1024 67 10000 8.75 250 13:37 29.03.2021
921 Clouds 14 1024 67 10000 8.75 250 13:18 29.03.2021
922 Clouds 14 1024 67 10000 8.75 250 12:48 29.03.2021
923 Clouds 12 1023 71 10000 8.23 250 11:46 29.03.2021
924 Clouds 12 1023 66 10000 8.23 240 11:28 29.03.2021
925 Clouds 11 1023 76 10000 6.17 240 10:46 29.03.2021
926 Rain 11 1022 76 10000 4.63 230 10:21 29.03.2021
927 Rain 10 1022 76 10000 4.12 230 09:32 29.03.2021
928 Clouds 9 1022 81 10000 4.63 230 08:43 29.03.2021
929 Rain 9 1022 76 10000 5.14 230 08:25 29.03.2021
930 Clouds 10 1022 76 10000 5.14 230 07:20 29.03.2021
931 Clouds 10 1021 76 10000 6.17 220 06:25 29.03.2021
932 Clouds 9 1022 81 9000 7.2 220 02:58 29.03.2021
933 Clouds 9 1022 87 8000 5.66 230 00:46 29.03.2021
934 Clouds 9 1022 87 7000 6.69 230 00:18 29.03.2021
935 Clouds 9 1022 93 8000 6.17 230 23:30 28.03.2021
936 Clouds 9 1022 93 8000 6.17 230 22:53 28.03.2021
937 Clouds 9 1022 93 8000 6.17 230 22:35 28.03.2021
938 Drizzle 9 1022 93 5000 5.66 230 21:57 28.03.2021
939 Drizzle 9 1022 93 5000 5.66 230 21:38 28.03.2021
940 Drizzle 9 1022 93 4500 6.17 230 21:18 28.03.2021
941 Clouds 9 1021 93 10000 6.69 230 20:42 28.03.2021
942 Clouds 9 1021 93 10000 6.17 240 20:24 28.03.2021
943 Clouds 9 1021 93 10000 5.66 230 19:42 28.03.2021
944 Clouds 9 1021 93 8000 6.69 230 19:22 28.03.2021
945 Clouds 9 1021 93 8000 6.69 230 18:53 28.03.2021
946 Clouds 9 1021 93 7000 7.2 230 18:24 28.03.2021
947 Clouds 9 1021 93 7000 7.2 230 17:46 28.03.2021
948 Clouds 9 1021 87 6000 6.17 230 17:22 28.03.2021
949 Clouds 8 1021 87 6000 6.17 230 16:43 28.03.2021
950 Rain 8 1021 81 10000 7.2 230 16:22 28.03.2021
951 Clouds 9 1021 76 10000 5.66 240 15:25 28.03.2021
952 Rain 9 1021 76 10000 5.66 240 14:50 28.03.2021
953 Drizzle 10 1020 66 10000 7.72 220 14:30 28.03.2021
954 Drizzle 10 1020 66 10000 7.72 220 13:39 28.03.2021
955 Clouds 10 1021 66 10000 7.72 230 13:19 28.03.2021
956 Clouds 10 1021 66 10000 7.72 230 12:43 28.03.2021
957 Clouds 10 1021 66 10000 7.72 230 12:43 28.03.2021
958 Clouds 10 1021 71 10000 7.72 220 12:25 28.03.2021
959 Clouds 9 1021 71 10000 7.72 220 11:40 28.03.2021
960 Clouds 8 1021 76 10000 7.2 210 11:21 28.03.2021
961 Clouds 8 1021 76 10000 7.2 210 10:43 28.03.2021
962 Clouds 8 1022 75 10000 7.2 210 10:23 28.03.2021
963 Clouds 7 1022 75 10000 7.2 210 09:44 28.03.2021
964 Clouds 6 1022 75 10000 6.69 210 09:24 28.03.2021
965 Clouds 5 1022 75 10000 6.69 210 08:45 28.03.2021
966 Clouds 5 1022 75 10000 5.66 210 07:46 28.03.2021
967 Clouds 5 1022 81 10000 5.14 220 06:23 28.03.2021
968 Clouds 5 1023 81 9000 4.63 220 03:51 28.03.2021
969 Clouds 4 1023 87 9000 4.12 240 00:52 28.03.2021
970 Clouds 4 1023 87 9000 4.12 240 00:20 28.03.2021
971 Clouds 6 1023 87 9000 4.12 240 23:40 27.03.2021
972 Clouds 6 1023 81 10000 5.66 250 22:57 27.03.2021
973 Clouds 6 1023 81 10000 5.66 250 22:36 27.03.2021
974 Clouds 6 1022 81 10000 5.14 260 21:55 27.03.2021
975 Clouds 6 1022 81 10000 5.14 260 21:36 27.03.2021
976 Clouds 6 1021 81 10000 4.63 270 21:18 27.03.2021
977 Clouds 6 1021 81 10000 4.63 270 20:38 27.03.2021
978 Clouds 6 1021 81 10000 6.69 280 20:19 27.03.2021
979 Clouds 6 1021 81 10000 6.69 280 19:42 27.03.2021
980 Clouds 7 1020 75 10000 9.77 280 19:23 27.03.2021
981 Clouds 7 1020 75 10000 9.77 280 18:48 27.03.2021
982 Clouds 7 1019 70 10000 10.29 280 18:27 27.03.2021
983 Clouds 7 1019 70 10000 10.29 280 17:50 27.03.2021
984 Clouds 8 1018 70 10000 10.29 280 17:23 27.03.2021
985 Clouds 8 1018 70 10000 10.29 280 16:49 27.03.2021
986 Clouds 8 1017 65 10000 10.8 280 16:28 27.03.2021
987 Clouds 8 1017 65 10000 10.8 280 15:48 27.03.2021
988 Clouds 8 1016 70 10000 11.83 280 15:22 27.03.2021
989 Clouds 7 1016 70 10000 11.83 280 14:45 27.03.2021
990 Clouds 8 1015 66 10000 10.8 270 13:50 27.03.2021
991 Clouds 7 1014 70 10000 10.8 280 13:24 27.03.2021
992 Clouds 7 1014 70 10000 10.8 280 12:53 27.03.2021
993 Clouds 7 1013 75 10000 10.8 270 12:24 27.03.2021
994 Clouds 7 1013 75 10000 10.8 270 11:42 27.03.2021
995 Clouds 7 1013 81 10000 8.23 260 11:20 27.03.2021
996 Clouds 5 1012 81 10000 10.29 260 10:45 27.03.2021
997 Rain 5 1012 81 10000 7.72 250 10:22 27.03.2021
998 Clouds 6 1011 87 10000 5.66 230 09:28 27.03.2021
999 Clouds 6 1010 87 10000 5.66 240 08:43 27.03.2021
1000 Clouds 6 1010 93 10000 7.72 250 08:21 27.03.2021
1001 Clouds 5 1010 93 10000 7.72 250 07:34 27.03.2021
1002 Rain 5 1009 93 8000 4.12 250 06:47 27.03.2021
1003 Rain 5 1009 93 10000 6.69 250 06:27 27.03.2021
1004 Rain 6 1008 87 4500 8.23 280 04:39 27.03.2021
1005 Clouds 9 1008 57 10000 4.12 190 00:50 27.03.2021
1006 Clouds 8 1010 66 10000 3.09 190 00:29 27.03.2021
1007 Clouds 8 1010 66 10000 3.09 190 23:54 26.03.2021
1008 Clouds 8 1010 66 10000 3.09 190 23:54 26.03.2021
1009 Clouds 9 1010 62 10000 2.57 210 23:19 26.03.2021
1010 Clouds 9 1010 62 10000 2.57 210 22:35 26.03.2021
1011 Clouds 10 1011 58 10000 2.57 190 21:36 26.03.2021
1012 Clouds 10 1011 54 10000 2.06 170 21:18 26.03.2021
1013 Clouds 12 1011 54 10000 2.06 170 20:38 26.03.2021
1014 Clouds 12 1012 54 10000 2.57 190 20:19 26.03.2021
1015 Clouds 12 1012 54 10000 2.57 190 19:47 26.03.2021
1016 Clouds 13 1012 50 10000 3.09 200 19:28 26.03.2021
1017 Clouds 13 1012 50 10000 3.09 200 18:42 26.03.2021
1018 Clouds 14 1012 47 10000 5.14 200 18:20 26.03.2021
1019 Clouds 14 1012 47 10000 5.14 200 17:47 26.03.2021
1020 Clouds 15 1012 44 10000 6.69 200 16:57 26.03.2021
1021 Clouds 15 1012 44 10000 6.69 200 16:33 26.03.2021
1022 Clouds 15 1013 44 10000 6.17 200 15:57 26.03.2021
1023 Clouds 14 1014 47 10000 7.72 200 15:23 26.03.2021
1024 Clouds 14 1014 47 10000 7.72 200 14:33 26.03.2021
1025 Clouds 14 1014 51 10000 6.69 200 13:41 26.03.2021
1026 Clouds 12 1015 62 10000 6.17 190 12:56 26.03.2021
1027 Clouds 12 1015 62 10000 6.17 190 12:33 26.03.2021
1028 Clouds 10 1016 71 10000 6.17 200 11:38 26.03.2021
1029 Clouds 10 1016 71 10000 6.17 210 11:18 26.03.2021
1030 Clouds 10 1016 71 10000 6.17 210 10:41 26.03.2021
1031 Clouds 8 1016 76 10000 4.63 200 09:56 26.03.2021
1032 Clouds 8 1016 76 10000 4.63 200 09:36 26.03.2021
1033 Clouds 7 1016 81 7000 4.12 200 08:45 26.03.2021
1034 Mist 7 1016 93 4000 3.09 190 08:24 26.03.2021
1035 Mist 6 1016 93 4000 3.09 190 07:42 26.03.2021
1036 Mist 6 1016 93 4000 3.09 180 07:20 26.03.2021
1037 Mist 6 1016 93 4000 3.09 180 06:54 26.03.2021
1038 Clouds 5 1017 75 9000 3.6 190 05:31 26.03.2021
1039 Clouds 5 1018 87 8000 2.57 200 02:32 26.03.2021
1040 Clouds 6 1018 87 6000 2.57 210 00:32 26.03.2021
1041 Clouds 6 1018 93 4600 2.06 210 23:46 25.03.2021
1042 Mist 6 1018 93 4500 3.09 220 23:21 25.03.2021
1043 Mist 6 1018 100 2800 2.57 210 22:39 25.03.2021
1044 Mist 7 1018 100 2500 1.03 190 21:53 25.03.2021
1045 Mist 7 1018 100 2500 1.03 190 21:35 25.03.2021
1046 Mist 8 1018 87 4500 2.06 280 20:59 25.03.2021
1047 Clouds 8 1018 87 5000 3.09 270 20:37 25.03.2021
1048 Clouds 8 1018 87 5000 3.09 270 20:18 25.03.2021
1049 Clouds 9 1018 87 6000 3.6 310 19:39 25.03.2021
1050 Mist 9 1018 87 5000 1.54 330 19:21 25.03.2021
1051 Clouds 10 1018 81 8000 2.06 300 18:40 25.03.2021
1052 Clouds 10 1017 62 10000 2.57 220 18:22 25.03.2021
1053 Clouds 12 1017 62 10000 2.57 220 17:38 25.03.2021
1054 Clouds 13 1017 54 10000 3.09 230 16:58 25.03.2021
1055 Clouds 13 1017 54 10000 3.09 230 16:36 25.03.2021
1056 Clouds 13 1018 54 10000 4.12 220 15:52 25.03.2021
1057 Clouds 13 1018 54 10000 3.6 250 15:27 25.03.2021
1058 Clouds 13 1018 54 10000 3.6 250 14:59 25.03.2021
1059 Clouds 13 1018 54 10000 3.6 250 14:40 25.03.2021
1060 Clouds 12 1018 58 10000 4.12 250 13:38 25.03.2021
1061 Clouds 12 1018 58 10000 4.12 230 13:19 25.03.2021
1062 Clouds 12 1018 58 10000 4.12 230 12:37 25.03.2021
1063 Clouds 12 1019 62 10000 4.63 220 12:18 25.03.2021
1064 Clouds 12 1019 62 10000 4.63 220 11:44 25.03.2021
1065 Clouds 10 1019 71 10000 3.6 210 11:26 25.03.2021
1066 Clouds 10 1019 71 10000 3.6 210 11:26 25.03.2021
1067 Clouds 10 1019 71 10000 3.6 210 10:49 25.03.2021
1068 Clouds 10 1019 71 8000 4.12 220 10:22 25.03.2021
1069 Mist 9 1019 81 5000 2.57 210 09:54 25.03.2021
1070 Mist 9 1019 81 5000 2.57 210 09:36 25.03.2021
1071 Mist 7 1019 87 4000 2.06 220 08:42 25.03.2021
1072 Mist 5 1019 93 3800 2.06 220 07:57 25.03.2021
1073 Mist 5 1019 100 3000 2.06 220 06:59 25.03.2021
1074 Mist 5 1018 93 1200 3.09 280 06:24 25.03.2021
1075 Mist 5 1018 93 1200 3.09 280 05:47 25.03.2021
1076 Clouds 7 1018 87 7000 2.06 240 02:43 25.03.2021
1077 Clouds 7 1019 93 4300 2.06 210 00:21 25.03.2021
1078 Clouds 7 1019 93 4300 2.06 210 23:50 24.03.2021
1079 Clouds 7 1019 93 6000 2.06 220 23:25 24.03.2021
1080 Clouds 7 1019 93 6000 2.06 220 22:43 24.03.2021
1081 Clouds 7 1019 81 8000 2.06 260 22:20 24.03.2021
1082 Clouds 7 1019 81 8000 2.06 260 21:42 24.03.2021
1083 Clouds 7 1019 87 8000 3.09 290 21:21 24.03.2021
1084 Clouds 7 1019 87 8000 3.09 290 20:41 24.03.2021
1085 Mist 7 1019 87 5000 2.57 320 20:19 24.03.2021
1086 Mist 7 1019 87 5000 2.57 320 19:35 24.03.2021
1087 Clouds 8 1019 76 7000 3.09 310 18:58 24.03.2021
1088 Clouds 9 1019 76 7000 3.09 310 18:39 24.03.2021
1089 Clouds 9 1019 71 7000 2.57 330 18:20 24.03.2021
1090 Clouds 11 1019 66 9000 3.09 280 17:41 24.03.2021
1091 Clouds 12 1019 58 10000 4.63 280 17:23 24.03.2021
1092 Clouds 12 1019 58 10000 4.63 280 16:42 24.03.2021
1093 Clouds 13 1019 54 10000 5.14 240 16:23 24.03.2021
1094 Clouds 13 1019 54 10000 5.14 240 15:44 24.03.2021
1095 Clouds 12 1020 58 10000 5.14 240 15:25 24.03.2021
1096 Clouds 12 1020 58 10000 5.14 240 14:46 24.03.2021
1097 Clouds 12 1020 58 10000 5.66 250 14:24 24.03.2021
1098 Clouds 12 1020 58 10000 5.66 250 13:52 24.03.2021
1099 Clouds 11 1020 62 10000 5.66 220 13:27 24.03.2021
1100 Clouds 11 1020 62 10000 5.66 220 12:42 24.03.2021
1101 Clouds 11 1021 62 10000 4.63 220 12:21 24.03.2021
1102 Clouds 11 1021 62 10000 4.63 220 11:42 24.03.2021
1103 Clouds 9 1021 71 7000 5.14 230 10:58 24.03.2021
1104 Clouds 9 1021 71 7000 5.66 220 10:38 24.03.2021
1105 Clouds 8 1021 76 6000 5.14 210 10:20 24.03.2021
1106 Clouds 8 1021 76 6000 5.14 210 09:51 24.03.2021
1107 Clouds 8 1021 81 6000 4.12 210 09:20 24.03.2021
1108 Clouds 7 1021 81 6000 4.12 210 08:49 24.03.2021
1109 Clouds 7 1021 81 7000 3.6 220 08:25 24.03.2021
1110 Clouds 7 1021 76 10000 3.6 190 07:37 24.03.2021
1111 Clouds 7 1021 75 10000 2.57 210 06:52 24.03.2021
1112 Clouds 7 1021 70 10000 4.63 260 03:57 24.03.2021
1113 Clouds 7 1022 93 4700 2.06 220 00:48 24.03.2021
1114 Clouds 7 1022 93 4300 2.06 260 23:57 23.03.2021
1115 Clouds 7 1022 81 10000 2.06 270 23:21 23.03.2021
1116 Clouds 7 1022 81 10000 2.06 270 22:54 23.03.2021
1117 Clouds 7 1022 81 10000 2.06 270 22:36 23.03.2021
1118 Clouds 7 1022 76 10000 2.57 240 21:54 23.03.2021
1119 Clouds 7 1022 76 10000 2.57 240 21:34 23.03.2021
1120 Clouds 7 1022 71 10000 3.6 230 20:56 23.03.2021
1121 Clouds 7 1022 71 10000 3.6 230 20:38 23.03.2021
1122 Clouds 7 1023 81 10000 2.57 210 20:19 23.03.2021
1123 Clouds 7 1023 81 10000 2.57 210 19:41 23.03.2021
1124 Clouds 7 1022 81 10000 3.6 220 19:22 23.03.2021
1125 Clouds 8 1022 81 10000 3.6 220 18:38 23.03.2021
1126 Clouds 8 1022 76 10000 4.12 210 18:19 23.03.2021
1127 Clouds 8 1022 76 10000 4.12 210 17:43 23.03.2021
1128 Clouds 8 1023 76 10000 3.6 220 17:21 23.03.2021
1129 Clouds 8 1023 71 10000 3.6 250 16:26 23.03.2021
1130 Clouds 8 1023 71 10000 3.6 250 15:51 23.03.2021
1131 Clouds 8 1023 71 10000 3.6 260 15:24 23.03.2021
1132 Clouds 8 1023 76 10000 3.09 260 14:49 23.03.2021
1133 Clouds 7 1023 81 10000 3.6 250 14:20 23.03.2021
1134 Clouds 8 1023 81 10000 3.6 250 13:48 23.03.2021
1135 Clouds 8 1023 76 10000 3.09 280 13:25 23.03.2021
1136 Clouds 8 1023 76 10000 3.09 280 12:46 23.03.2021
1137 Clouds 8 1023 81 10000 4.63 290 12:26 23.03.2021
1138 Clouds 8 1023 87 10000 5.14 270 11:49 23.03.2021
1139 Clouds 8 1021 70 10000 3.13 270 11:26 23.03.2021
1140 Drizzle 7 1023 93 5000 4.63 280 10:43 23.03.2021
1141 Drizzle 7 1023 93 5000 4.63 280 10:21 23.03.2021
1142 Drizzle 5 1023 93 5000 4.63 280 09:54 23.03.2021
1143 Drizzle 5 1022 93 5000 4.12 260 09:24 23.03.2021
1144 Drizzle 5 1022 93 5000 4.12 260 08:55 23.03.2021
1145 Drizzle 5 1022 93 5000 4.12 260 08:37 23.03.2021
1146 Drizzle 5 1022 93 5000 4.63 280 08:19 23.03.2021
1147 Drizzle 5 1023 93 5000 3.09 260 07:28 23.03.2021
1148 Drizzle 5 1023 93 5000 3.09 260 06:54 23.03.2021
1149 Clouds 5 1022 87 10000 5.14 260 04:58 23.03.2021
1150 Clouds 5 1023 87 10000 4.12 250 03:20 23.03.2021
1151 Clouds 5 1023 87 7000 5.14 290 23:57 22.03.2021
1152 Clouds 5 1023 87 10000 4.63 290 23:23 22.03.2021
1153 Clouds 5 1023 87 10000 4.63 290 22:44 22.03.2021
1154 Clouds 5 1023 93 10000 4.12 290 22:22 22.03.2021
1155 Clouds 5 1023 93 10000 4.12 290 21:51 22.03.2021
1156 Clouds 5 1023 93 9000 6.17 300 21:27 22.03.2021
1157 Clouds 5 1023 93 9000 6.17 300 20:54 22.03.2021
1158 Clouds 5 1023 93 8000 5.66 300 20:30 22.03.2021
1159 Clouds 5 1023 93 8000 5.66 300 19:58 22.03.2021
1160 Clouds 5 1023 87 10000 4.63 310 19:40 22.03.2021
1161 Clouds 5 1023 87 10000 4.63 310 19:40 22.03.2021
1162 Clouds 5 1023 93 10000 6.17 310 19:21 22.03.2021
1163 Clouds 6 1023 93 10000 6.17 310 18:42 22.03.2021
1164 Drizzle 6 1022 93 10000 6.69 300 18:23 22.03.2021
1165 Drizzle 6 1022 93 10000 6.69 300 17:50 22.03.2021
1166 Drizzle 7 1022 87 10000 5.66 300 17:22 22.03.2021
1167 Drizzle 7 1022 87 10000 5.66 300 17:22 22.03.2021
1168 Drizzle 7 1022 87 10000 5.66 300 16:58 22.03.2021
1169 Clouds 7 1022 87 10000 7.72 310 16:39 22.03.2021
1170 Clouds 7 1022 81 10000 7.72 300 15:45 22.03.2021
1171 Clouds 8 1022 76 10000 6.17 300 15:27 22.03.2021
1172 Clouds 8 1022 76 10000 6.17 300 14:59 22.03.2021
1173 Clouds 8 1022 76 10000 6.17 300 14:34 22.03.2021
1174 Clouds 7 1022 70 10000 6.17 330 13:53 22.03.2021
1175 Clouds 7 1022 70 10000 6.17 330 13:34 22.03.2021
1176 Clouds 7 1022 75 10000 6.69 340 12:59 22.03.2021
1177 Clouds 7 1022 75 10000 6.69 340 12:41 22.03.2021
1178 Clouds 7 1022 75 10000 6.69 340 12:18 22.03.2021
1179 Clouds 7 1022 81 10000 5.66 350 11:41 22.03.2021
1180 Clouds 7 1022 81 10000 5.66 350 11:21 22.03.2021
1181 Clouds 5 1022 81 10000 5.66 350 10:43 22.03.2021
1182 Clouds 6 1021 75 10000 6.17 350 10:24 22.03.2021
1183 Clouds 5 1021 75 10000 6.17 350 09:39 22.03.2021
1184 Drizzle 5 1021 87 8000 5.66 350 09:20 22.03.2021
1185 Drizzle 5 1021 87 8000 5.66 350 08:42 22.03.2021
1186 Drizzle 5 1021 81 6000 5.66 360 08:24 22.03.2021
1187 Drizzle 5 1021 87 10000 5.66 340 07:44 22.03.2021
1188 Clouds 5 1020 87 10000 3.6 340 06:52 22.03.2021
1189 Clouds 5 1020 87 10000 5.14 340 05:43 22.03.2021
1190 Clouds 5 1020 87 8000 5.14 330 01:58 22.03.2021
1191 Clouds 5 1020 81 8000 6.69 340 00:29 22.03.2021
1192 Clouds 5 1020 81 8000 6.69 340 23:53 21.03.2021
1193 Clouds 5 1020 81 8000 6.69 340 23:53 21.03.2021
1194 Clouds 5 1020 81 10000 6.17 340 23:19 21.03.2021
1195 Clouds 5 1020 81 10000 6.17 340 22:55 21.03.2021
1196 Clouds 5 1020 75 10000 6.69 340 21:59 21.03.2021
1197 Clouds 5 1020 75 10000 6.69 340 21:40 21.03.2021
1198 Clouds 5 1019 75 10000 8.23 340 21:22 21.03.2021
1199 Clouds 5 1019 75 10000 8.23 340 20:42 21.03.2021
1200 Clouds 5 1019 75 10000 7.2 330 20:24 21.03.2021
1201 Clouds 5 1019 75 10000 7.2 330 19:52 21.03.2021
1202 Clouds 5 1019 75 10000 8.75 330 19:21 21.03.2021
1203 Clouds 5 1019 75 10000 8.75 330 18:48 21.03.2021
1204 Clouds 5 1018 75 10000 9.77 330 18:27 21.03.2021
1205 Clouds 5 1018 75 10000 9.77 330 17:48 21.03.2021
1206 Clouds 5 1018 75 10000 10.29 330 17:20 21.03.2021
1207 Clouds 5 1018 75 10000 10.29 330 16:58 21.03.2021
1208 Clouds 6 1018 75 10000 10.29 330 16:32 21.03.2021
1209 Clouds 6 1018 70 10000 10.29 340 15:58 21.03.2021
1210 Clouds 7 1018 70 10000 10.29 340 15:39 21.03.2021
1211 Clouds 7 1018 70 10000 10.8 340 15:19 21.03.2021
1212 Clouds 7 1018 70 10000 9.77 340 14:44 21.03.2021
1213 Clouds 7 1018 70 10000 10.29 340 14:26 21.03.2021
1214 Clouds 7 1018 70 10000 10.29 340 13:54 21.03.2021
1215 Clouds 7 1018 61 10000 11.32 350 13:25 21.03.2021
1216 Clouds 6 1018 61 10000 11.32 350 12:42 21.03.2021
1217 Clouds 6 1017 70 10000 11.32 350 12:23 21.03.2021
1218 Clouds 6 1017 70 10000 11.32 350 12:23 21.03.2021
1219 Clouds 6 1017 70 10000 10.8 350 11:37 21.03.2021
1220 Clouds 6 1017 70 9000 10.29 350 11:19 21.03.2021
1221 Clouds 6 1017 70 9000 10.29 350 10:42 21.03.2021
1222 Clouds 6 1017 70 9000 10.29 350 10:23 21.03.2021
1223 Clouds 5 1017 75 9000 10.29 340 09:46 21.03.2021
1224 Clouds 5 1017 75 8000 9.26 340 09:27 21.03.2021
1225 Clouds 5 1017 75 8000 9.77 340 08:40 21.03.2021
1226 Clouds 5 1016 75 9000 10.29 320 08:21 21.03.2021
1227 Clouds 5 1016 75 9000 10.29 320 08:21 21.03.2021
1228 Clouds 5 1016 75 9000 10.29 320 07:38 21.03.2021
1229 Clouds 5 1016 81 8000 8.23 320 06:56 21.03.2021
1230 Clouds 5 1015 75 10000 11.32 330 05:54 21.03.2021
1231 Clouds 5 1018 100 7000 8.75 280 02:25 21.03.2021
1232 Clouds 5 1018 100 8000 8.23 280 00:42 21.03.2021
1233 Clouds 5 1019 100 8000 7.72 290 00:22 21.03.2021
1234 Clouds 5 1019 100 8000 7.72 290 23:49 20.03.2021
1235 Drizzle 5 1020 100 3000 8.23 290 23:22 20.03.2021
1236 Mist 5 1020 100 3000 8.23 290 22:56 20.03.2021
1237 Drizzle 5 1020 100 2800 6.17 280 22:23 20.03.2021
1238 Drizzle 5 1021 100 5000 7.2 290 21:47 20.03.2021
1239 Clouds 5 1021 100 8000 9.77 290 21:25 20.03.2021
1240 Drizzle 5 1021 93 4000 8.23 290 20:48 20.03.2021
1241 Drizzle 5 1021 93 3000 7.72 290 20:23 20.03.2021
1242 Clouds 5 1021 93 9000 8.23 290 19:51 20.03.2021
1243 Clouds 5 1021 100 8000 7.72 290 19:28 20.03.2021
1244 Drizzle 5 1021 100 1800 7.2 280 18:50 20.03.2021
1245 Drizzle 5 1022 100 1300 7.72 280 18:27 20.03.2021
1246 Mist 5 1022 100 2000 7.72 270 17:58 20.03.2021
1247 Drizzle 6 1022 100 2800 8.23 270 17:39 20.03.2021
1248 Mist 6 1022 100 2500 6.69 270 17:19 20.03.2021
1249 Mist 5 1023 100 1500 6.69 260 16:38 20.03.2021
1250 Drizzle 5 1024 100 2500 6.69 260 16:18 20.03.2021
1251 Drizzle 5 1024 100 2500 6.69 260 15:40 20.03.2021
1252 Drizzle 5 1024 100 2500 6.69 260 15:40 20.03.2021
1253 Drizzle 5 1024 100 2500 6.69 260 15:40 20.03.2021
1254 Drizzle 5 1024 100 1700 6.69 260 15:21 20.03.2021
1255 Drizzle 5 1025 87 2500 6.69 260 14:31 20.03.2021
1256 Mist 4 1025 87 2500 6.69 260 13:56 20.03.2021
1257 Clouds 5 1026 81 6000 7.2 260 13:29 20.03.2021
1258 Clouds 5 1026 70 8000 7.72 260 12:37 20.03.2021
1259 Clouds 5 1027 70 10000 5.14 240 12:18 20.03.2021
1260 Clouds 5 1027 70 10000 4.63 240 11:40 20.03.2021
1261 Clouds 5 1027 65 10000 4.12 230 11:21 20.03.2021
1262 Clouds 4 1027 65 10000 4.12 230 10:39 20.03.2021
1263 Clouds 4 1027 65 10000 4.12 230 10:39 20.03.2021
1264 Clouds 3 1028 60 10000 4.63 240 10:21 20.03.2021
1265 Clouds 2 1028 60 10000 4.63 240 09:44 20.03.2021
1266 Clouds 2 1028 64 10000 3.6 230 09:22 20.03.2021
1267 Clouds 1 1028 64 10000 3.6 230 08:51 20.03.2021
1268 Clouds 0 1028 69 10000 3.6 230 08:19 20.03.2021
1269 Clouds 0 1028 69 10000 3.6 230 07:47 20.03.2021
1270 Clouds 0 1028 74 10000 3.09 220 07:29 20.03.2021
1271 Clouds 0 1028 74 10000 3.09 220 06:39 20.03.2021
1272 Clouds 0 1029 64 10000 2.57 220 05:28 20.03.2021
1273 Clouds 0 1029 64 10000 2.06 210 03:44 20.03.2021
1274 Clouds 0 1030 64 10000 1.54 210 01:42 20.03.2021
1275 Clouds 1 1030 74 10000 1.54 140 23:48 19.03.2021
1276 Clouds 1 1030 74 10000 1.54 120 23:20 19.03.2021
1277 Clouds 2 1030 74 10000 1.54 120 22:43 19.03.2021
1278 Clouds 2 1029 80 10000 1.03 70 22:24 19.03.2021
1279 Clouds 2 1029 80 10000 1.03 70 21:51 19.03.2021
1280 Clouds 3 1029 74 10000 1.54 100 21:21 19.03.2021
1281 Clouds 3 1029 74 10000 1.54 100 21:21 19.03.2021
1282 Clouds 3 1029 74 10000 1.54 100 20:46 19.03.2021
1283 Clouds 3 1028 69 10000 3.6 80 20:27 19.03.2021
1284 Clouds 3 1028 69 10000 3.6 80 19:52 19.03.2021
1285 Clouds 3 1028 69 10000 2.57 60 19:24 19.03.2021
1286 Clouds 5 1028 69 10000 2.57 60 18:56 19.03.2021
1287 Clouds 5 1028 69 10000 2.57 60 18:36 19.03.2021
1288 Clouds 5 1027 65 10000 6.17 70 18:18 19.03.2021
1289 Clouds 6 1027 65 10000 6.17 70 17:42 19.03.2021
1290 Clouds 6 1027 65 10000 6.17 50 17:22 19.03.2021
1291 Clouds 6 1027 65 10000 6.17 50 16:44 19.03.2021
1292 Clouds 6 1027 65 10000 6.17 40 16:26 19.03.2021
1293 Clouds 6 1027 65 10000 6.17 40 15:34 19.03.2021
1294 Clouds 7 1026 56 10000 6.69 40 14:54 19.03.2021
1295 Clouds 7 1026 56 10000 6.69 40 14:35 19.03.2021
1296 Clouds 6 1026 65 10000 4.12 40 13:54 19.03.2021
1297 Clouds 6 1026 65 10000 3.6 50 13:21 19.03.2021
1298 Clouds 6 1026 65 10000 3.6 50 12:48 19.03.2021
1299 Clouds 6 1026 75 10000 3.6 80 12:24 19.03.2021
1300 Clouds 5 1026 75 10000 3.6 80 11:34 19.03.2021
1301 Clouds 5 1025 81 10000 3.6 50 10:53 19.03.2021
1302 Clouds 5 1025 81 10000 3.6 20 10:26 19.03.2021
1303 Clouds 5 1025 81 10000 3.6 20 09:47 19.03.2021
1304 Clouds 4 1024 80 10000 2.57 20 09:27 19.03.2021
1305 Clouds 4 1024 80 10000 2.57 20 08:53 19.03.2021
1306 Clouds 3 1024 93 10000 2.06 10 08:30 19.03.2021
1307 Clouds 2 1024 93 10000 2.06 10 07:51 19.03.2021
1308 Clouds 2 1024 93 10000 2.06 10 07:32 19.03.2021
1309 Clouds 2 1023 86 10000 2.57 20 06:36 19.03.2021
1310 Clear 2 1022 80 10000 2.57 10 02:45 19.03.2021
1311 Clouds 3 1021 86 10000 1.03 30 23:58 18.03.2021
1312 Clouds 3 1021 74 10000 1.03 20 23:30 18.03.2021
1313 Clouds 3 1021 74 10000 1.03 20 22:58 18.03.2021
1314 Clouds 3 1020 69 10000 1.54 30 22:27 18.03.2021
1315 Clouds 3 1020 69 10000 1.54 30 21:59 18.03.2021
1316 Clouds 3 1020 69 10000 1.54 30 21:38 18.03.2021
1317 Clouds 4 1020 65 10000 3.09 50 20:43 18.03.2021
1318 Clouds 4 1020 81 10000 3.09 360 20:23 18.03.2021
1319 Clouds 4 1020 81 10000 3.09 360 19:45 18.03.2021
1320 Clouds 4 1020 75 10000 3.6 350 19:25 18.03.2021
1321 Clouds 4 1020 75 10000 3.6 350 18:54 18.03.2021
1322 Clouds 4 1020 70 10000 3.6 350 18:27 18.03.2021
1323 Clouds 4 1020 70 10000 3.6 350 17:49 18.03.2021
1324 Clouds 5 1020 65 10000 4.63 330 17:25 18.03.2021
1325 Clouds 5 1020 65 10000 4.63 330 16:47 18.03.2021
1326 Clouds 6 1020 65 10000 4.63 320 16:29 18.03.2021
1327 Clouds 6 1020 65 10000 4.63 320 15:46 18.03.2021
1328 Clouds 6 1021 65 10000 5.14 320 15:24 18.03.2021
1329 Clouds 6 1021 65 10000 5.14 320 14:53 18.03.2021
1330 Clouds 6 1022 65 10000 3.6 310 14:32 18.03.2021
1331 Clouds 6 1022 65 10000 3.6 310 13:53 18.03.2021
1332 Clouds 5 1022 70 10000 2.57 330 13:26 18.03.2021
1333 Clouds 5 1022 70 10000 2.57 330 12:44 18.03.2021
1334 Clouds 5 1023 70 10000 2.57 330 12:25 18.03.2021
1335 Clouds 5 1023 70 10000 2.57 330 11:53 18.03.2021
1336 Clouds 5 1023 75 10000 1.54 290 11:32 18.03.2021
1337 Clouds 5 1023 75 10000 1.54 290 10:46 18.03.2021
1338 Clouds 5 1023 81 10000 3.09 320 10:27 18.03.2021
1339 Clouds 4 1023 81 10000 3.09 320 09:54 18.03.2021
1340 Clouds 4 1023 93 10000 3.09 340 09:29 18.03.2021
1341 Clouds 4 1023 93 10000 3.09 340 08:50 18.03.2021
1342 Clouds 4 1024 100 10000 4.29 14 08:31 18.03.2021
1343 Clouds 3 1024 100 10000 4.35 4 07:53 18.03.2021
1344 Clouds 3 1023 100 10000 2.06 290 07:25 18.03.2021
1345 Clouds 3 1024 100 10000 1.54 270 06:29 18.03.2021
1346 Clouds 3 1024 100 10000 1.54 270 05:55 18.03.2021
1347 Clouds 4 1025 100 100 3.09 270 02:35 18.03.2021
1348 Clouds 4 1025 100 100 3.09 270 02:35 18.03.2021
1349 Clouds 3 1026 100 100 2.57 300 23:59 17.03.2021
1350 Fog 3 1026 100 800 1.54 330 22:58 17.03.2021
1351 Fog 3 1026 100 800 1.54 330 22:36 17.03.2021
1352 Fog 3 1027 100 500 3.09 350 22:18 17.03.2021
1353 Mist 4 1027 100 3000 2.06 350 21:45 17.03.2021
1354 Mist 3 1026 87 3500 2.57 320 21:27 17.03.2021
1355 Mist 3 1026 87 4500 2.06 310 20:45 17.03.2021
1356 Clouds 4 1026 87 10000 2.06 270 20:25 17.03.2021
1357 Clouds 4 1026 87 10000 2.06 270 20:25 17.03.2021
1358 Clouds 4 1026 87 10000 1.54 280 19:51 17.03.2021
1359 Clouds 5 1025 75 10000 0.51 150 19:25 17.03.2021
1360 Clouds 5 1025 75 10000 0.51 150 18:57 17.03.2021
1361 Clouds 5 1025 75 10000 0.51 150 18:39 17.03.2021
1362 Clouds 6 1026 61 10000 4.63 30 17:57 17.03.2021
1363 Clouds 6 1025 65 10000 3.6 360 17:27 17.03.2021
1364 Clouds 6 1025 65 10000 3.6 360 16:55 17.03.2021
1365 Clouds 6 1025 65 10000 3.6 360 16:37 17.03.2021
1366 Clouds 6 1024 70 10000 4.63 310 16:18 17.03.2021
1367 Clouds 6 1024 70 10000 4.63 310 15:37 17.03.2021
1368 Clouds 6 1024 65 10000 3.09 330 14:46 17.03.2021
1369 Clouds 6 1024 75 10000 3.6 310 14:27 17.03.2021
1370 Clouds 6 1024 75 10000 3.6 310 13:56 17.03.2021
1371 Clouds 6 1024 75 10000 3.6 310 13:37 17.03.2021
1372 Clouds 6 1024 70 10000 3.09 10 12:59 17.03.2021
1373 Clouds 6 1024 70 10000 3.09 10 12:34 17.03.2021
1374 Clouds 6 1024 70 10000 3.09 360 11:54 17.03.2021
1375 Clouds 5 1023 70 10000 4.12 350 11:27 17.03.2021
1376 Clouds 5 1023 70 10000 4.12 350 10:59 17.03.2021
1377 Clouds 5 1023 70 10000 4.12 350 10:40 17.03.2021
1378 Clouds 5 1023 70 10000 4.12 350 09:59 17.03.2021
1379 Clouds 5 1023 70 10000 4.12 350 09:41 17.03.2021
1380 Clouds 5 1022 75 10000 3.6 10 09:20 17.03.2021
1381 Clouds 4 1022 75 10000 3.6 10 08:44 17.03.2021
1382 Clouds 4 1022 87 10000 1.54 320 08:24 17.03.2021
1383 Clouds 4 1022 87 10000 1.54 320 07:37 17.03.2021
1384 Clouds 4 1022 80 10000 2.06 340 06:48 17.03.2021
1385 Clouds 4 1022 60 10000 3.09 350 04:28 17.03.2021
1386 Clouds 3 1022 65 10000 4.63 340 03:31 17.03.2021
1387 Clouds 3 1022 75 10000 4.63 320 01:19 17.03.2021
1388 Clouds 3 1022 75 10000 4.63 320 00:33 17.03.2021
1389 Clouds 4 1021 87 10000 2.57 320 23:25 16.03.2021
1390 Clouds 4 1021 87 10000 2.57 320 22:44 16.03.2021
1391 Clouds 3 1021 93 10000 2.06 300 22:26 16.03.2021
1392 Clouds 4 1021 93 10000 2.06 300 21:44 16.03.2021
1393 Clouds 4 1021 87 10000 2.57 300 21:25 16.03.2021
1394 Clouds 4 1021 87 10000 2.57 300 20:56 16.03.2021
1395 Clouds 4 1021 87 10000 3.09 320 20:19 16.03.2021
1396 Clouds 5 1021 87 10000 3.09 320 19:48 16.03.2021
1397 Clouds 5 1021 87 10000 2.57 300 19:28 16.03.2021
1398 Clouds 5 1021 87 10000 2.57 300 18:57 16.03.2021
1399 Clouds 5 1021 87 10000 2.57 300 18:38 16.03.2021
1400 Clouds 5 1020 75 10000 6.69 310 17:59 16.03.2021
1401 Clouds 6 1020 75 10000 6.69 310 17:40 16.03.2021
1402 Clouds 6 1020 81 10000 6.17 310 17:20 16.03.2021
1403 Clouds 6 1020 81 10000 6.17 310 16:46 16.03.2021
1404 Clouds 6 1021 81 10000 7.2 320 16:25 16.03.2021
1405 Clouds 7 1020 61 10000 7.2 320 15:45 16.03.2021
1406 Clouds 7 1020 65 10000 8.23 310 15:20 16.03.2021
1407 Clouds 7 1020 65 10000 8.23 310 14:57 16.03.2021
1408 Clouds 7 1020 65 10000 8.23 310 14:38 16.03.2021
1409 Clouds 8 1020 61 10000 8.23 330 14:18 16.03.2021
1410 Clouds 7 1020 61 10000 8.23 330 13:44 16.03.2021
1411 Clouds 7 1020 65 10000 8.75 330 13:21 16.03.2021
1412 Clouds 7 1020 65 10000 8.75 330 12:43 16.03.2021
1413 Clouds 7 1020 70 10000 8.75 330 12:23 16.03.2021
1414 Clouds 6 1020 70 10000 8.75 330 11:38 16.03.2021
1415 Clouds 6 1019 70 10000 8.75 330 10:53 16.03.2021
1416 Clouds 6 1019 81 10000 7.72 330 10:24 16.03.2021
1417 Clouds 5 1019 81 10000 7.72 330 09:47 16.03.2021
1418 Clouds 5 1019 81 10000 6.17 320 09:29 16.03.2021
1419 Clouds 5 1019 81 10000 6.17 320 08:58 16.03.2021
1420 Clouds 5 1019 81 10000 6.17 320 08:40 16.03.2021
1421 Clouds 5 1018 81 10000 6.17 320 08:18 16.03.2021
1422 Clouds 5 1018 81 10000 6.17 320 07:35 16.03.2021
1423 Clouds 5 1018 81 10000 5.14 320 06:39 16.03.2021
1424 Clouds 5 1017 93 10000 5.14 310 05:40 16.03.2021
1425 Clear 5 1017 93 9000 6.69 330 05:21 16.03.2021
1426 Clear 5 1016 93 8000 5.14 320 02:45 16.03.2021
1427 Clear 5 1016 93 9000 5.14 330 02:23 16.03.2021
1428 Clear 5 1015 75 10000 5.14 340 23:57 15.03.2021
1429 Clear 5 1014 81 10000 5.66 340 23:28 15.03.2021
1430 Clear 5 1014 81 10000 5.66 340 23:28 15.03.2021
1431 Clear 5 1014 81 10000 5.66 340 22:51 15.03.2021
1432 Clear 5 1014 81 10000 5.66 340 22:33 15.03.2021
1433 Clear 5 1014 81 10000 5.66 340 22:33 15.03.2021
1434 Clear 5 1013 87 10000 6.17 330 21:55 15.03.2021
1435 Clear 4 1013 87 10000 6.17 330 21:35 15.03.2021
1436 Clouds 5 1013 87 10000 6.17 320 20:59 15.03.2021
1437 Clouds 5 1012 81 10000 6.17 320 20:40 15.03.2021
1438 Clouds 5 1012 81 10000 6.17 320 20:21 15.03.2021
1439 Clouds 5 1012 81 10000 5.66 320 19:51 15.03.2021
1440 Clouds 5 1012 81 10000 5.66 320 19:32 15.03.2021
1441 Clouds 6 1011 81 10000 6.17 320 18:57 15.03.2021
1442 Clouds 6 1010 75 10000 8.75 330 18:32 15.03.2021
1443 Clouds 6 1010 75 10000 8.75 330 17:56 15.03.2021
1444 Clouds 6 1009 81 10000 8.23 330 17:32 15.03.2021
1445 Clouds 6 1009 81 10000 8.23 330 16:55 15.03.2021
1446 Clouds 6 1009 81 10000 8.23 330 16:35 15.03.2021
1447 Clouds 6 1008 81 10000 9.26 320 15:47 15.03.2021
1448 Clouds 6 1007 75 10000 9.77 320 15:26 15.03.2021
1449 Clouds 6 1007 75 10000 9.77 320 14:45 15.03.2021
1450 Clouds 6 1006 87 9000 9.77 320 14:24 15.03.2021
1451 Clouds 6 1006 87 9000 9.77 320 13:53 15.03.2021
1452 Clouds 7 1006 87 7000 9.26 310 13:34 15.03.2021
1453 Clouds 6 1005 87 4500 10.8 300 12:51 15.03.2021
1454 Clouds 6 1005 87 4500 11.83 300 12:20 15.03.2021
1455 Clouds 6 1005 93 7000 10.29 300 11:56 15.03.2021
1456 Clouds 6 1005 93 7000 10.8 290 11:38 15.03.2021
1457 Clouds 6 1004 87 10000 10.29 290 10:59 15.03.2021
1458 Clouds 6 1004 87 10000 10.29 290 10:33 15.03.2021
1459 Clouds 6 1004 87 10000 9.77 290 09:59 15.03.2021
1460 Clouds 6 1004 87 10000 9.77 290 09:40 15.03.2021
1461 Clouds 6 1004 93 10000 9.77 280 08:59 15.03.2021
1462 Clouds 5 1004 93 10000 9.77 280 08:41 15.03.2021
1463 Clouds 5 1003 93 10000 8.23 270 08:19 15.03.2021
1464 Mist 5 1003 93 3700 8.23 260 07:32 15.03.2021
1465 Mist 5 1004 100 4500 7.72 260 06:44 15.03.2021
1466 Clouds 5 1004 93 10000 6.69 260 05:35 15.03.2021
1467 Clear 4 1005 93 9000 5.14 250 03:18 15.03.2021
1468 Clouds 5 1005 93 8000 6.69 250 00:21 15.03.2021
1469 Clouds 5 1005 93 8000 6.69 250 00:21 15.03.2021
1470 Clouds 5 1006 93 10000 6.69 260 23:22 14.03.2021
1471 Clouds 5 1006 93 10000 6.69 260 22:49 14.03.2021
1472 Clouds 5 1006 87 10000 6.69 260 22:27 14.03.2021
1473 Clouds 5 1006 87 10000 6.69 260 21:52 14.03.2021
1474 Clouds 5 1006 93 10000 5.66 260 21:23 14.03.2021
1475 Clouds 5 1006 93 10000 5.66 260 20:52 14.03.2021
1476 Clouds 5 1006 93 10000 7.72 270 20:29 14.03.2021
1477 Clouds 5 1006 93 10000 7.72 270 19:58 14.03.2021
1478 Clouds 5 1006 93 10000 7.72 270 19:40 14.03.2021
1479 Clouds 6 1006 81 10000 8.23 270 19:18 14.03.2021
1480 Clouds 7 1006 81 10000 8.23 270 18:36 14.03.2021
1481 Clouds 7 1006 87 10000 8.23 280 17:54 14.03.2021
1482 Clouds 7 1006 87 10000 8.23 280 17:36 14.03.2021
1483 Clouds 8 1005 81 10000 9.77 280 17:18 14.03.2021
1484 Clouds 8 1005 81 10000 9.26 280 16:40 14.03.2021
1485 Clouds 8 1005 87 10000 9.77 280 16:19 14.03.2021
1486 Clouds 8 1005 87 10000 9.77 280 15:42 14.03.2021
1487 Clouds 8 1005 81 10000 8.75 280 14:51 14.03.2021
1488 Clouds 8 1005 81 10000 8.23 270 14:30 14.03.2021
1489 Clouds 8 1005 81 10000 8.23 270 13:53 14.03.2021
1490 Clouds 8 1005 81 10000 8.23 270 13:34 14.03.2021
1491 Clouds 8 1004 81 10000 9.26 280 12:58 14.03.2021
1492 Clouds 8 1004 81 10000 9.26 280 12:40 14.03.2021
1493 Clouds 7 1004 93 10000 7.72 270 12:22 14.03.2021
1494 Clouds 6 1004 93 10000 7.72 270 11:38 14.03.2021
1495 Clouds 6 1003 87 10000 8.23 280 11:19 14.03.2021
1496 Clouds 6 1003 87 10000 8.23 280 10:38 14.03.2021
1497 Clouds 5 1002 93 10000 5.66 270 10:19 14.03.2021
1498 Clouds 5 1002 93 10000 5.66 270 09:56 14.03.2021
1499 Clouds 5 1002 93 10000 5.66 270 09:37 14.03.2021
1500 Clouds 5 1001 93 10000 7.2 290 09:19 14.03.2021
1501 Clouds 5 1001 93 10000 7.2 290 08:36 14.03.2021
1502 Clouds 5 999 93 10000 8.75 290 07:56 14.03.2021
1503 Clouds 4 998 93 10000 7.72 290 07:27 14.03.2021
1504 Clouds 5 997 93 10000 8.23 290 05:34 14.03.2021
1505 Clouds 3 989 93 2000 13.89 300 01:25 14.03.2021
1506 Clouds 4 988 87 3000 13.38 280 00:20 14.03.2021
1507 Clouds 4 988 87 3000 13.38 280 23:59 13.03.2021
1508 Clouds 4 988 87 3000 13.38 280 23:38 13.03.2021
1509 Clouds 4 987 93 10000 15.43 280 23:18 13.03.2021
1510 Clouds 4 987 93 10000 15.43 280 22:44 13.03.2021
1511 Clouds 4 985 93 10000 12.86 270 22:18 13.03.2021
1512 Rain 4 985 93 10000 12.86 270 21:35 13.03.2021
1513 Clouds 4 985 93 10000 14.4 260 20:59 13.03.2021
1514 Clouds 4 985 93 10000 14.4 260 20:41 13.03.2021
1515 Rain 4 983 93 8000 15.95 260 20:22 13.03.2021
1516 Rain 4 983 93 8000 15.95 260 19:38 13.03.2021
1517 Rain 5 983 87 7000 8.75 240 19:20 13.03.2021
1518 Clouds 5 983 87 7000 8.75 240 18:42 13.03.2021
1519 Clouds 5 983 87 10000 9.26 240 18:20 13.03.2021
1520 Clouds 5 983 87 10000 9.26 240 17:49 13.03.2021
1521 Clouds 5 983 87 10000 9.26 240 17:49 13.03.2021
1522 Mist 5 983 93 4000 9.77 230 17:31 13.03.2021
1523 Rain 5 983 87 4000 10.29 220 16:52 13.03.2021
1524 Rain 5 984 87 10000 7.72 220 16:34 13.03.2021
1525 Rain 7 984 70 10000 9.26 220 15:56 13.03.2021
1526 Rain 7 985 76 10000 6.17 250 15:18 13.03.2021
1527 Clouds 6 985 76 10000 6.17 250 14:41 13.03.2021
1528 Clouds 7 985 61 10000 8.75 250 14:21 13.03.2021
1529 Clouds 7 985 71 10000 9.26 230 13:28 13.03.2021
1530 Clouds 7 985 71 10000 9.26 230 12:53 13.03.2021
1531 Clouds 7 985 71 10000 9.26 230 12:35 13.03.2021
1532 Clouds 7 985 71 10000 8.23 220 11:57 13.03.2021
1533 Clouds 7 985 71 10000 8.23 220 11:38 13.03.2021
1534 Clouds 7 986 81 10000 7.72 240 11:19 13.03.2021
1535 Clouds 6 985 87 10000 14.4 210 10:31 13.03.2021
1536 Rain 6 985 93 8000 7.72 180 09:59 13.03.2021
1537 Rain 5 985 93 8000 7.72 180 09:33 13.03.2021
1538 Rain 5 987 100 5000 6.69 170 08:54 13.03.2021
1539 Rain 5 987 100 5000 6.69 170 08:54 13.03.2021
1540 Rain 5 989 93 7000 5.66 170 08:21 13.03.2021
1541 Rain 5 989 93 7000 5.66 170 07:57 13.03.2021
1542 Rain 5 989 93 7000 5.66 170 07:33 13.03.2021
1543 Clouds 5 994 87 9000 5.14 210 05:30 13.03.2021
1544 Clear 4 996 93 10000 5.66 210 02:42 13.03.2021
1545 Clouds 5 996 87 10000 6.17 220 00:36 13.03.2021
1546 Clouds 5 996 87 10000 5.14 230 23:46 12.03.2021
1547 Clouds 5 996 87 10000 5.66 240 23:26 12.03.2021
1548 Clouds 5 996 87 10000 6.17 240 22:32 12.03.2021
1549 Clouds 5 996 87 10000 6.17 240 21:59 12.03.2021
1550 Clouds 5 996 87 10000 6.17 240 21:38 12.03.2021
1551 Clouds 5 996 87 10000 5.66 240 21:19 12.03.2021
1552 Rain 5 996 87 10000 5.66 240 20:48 12.03.2021
1553 Clouds 5 996 87 10000 7.2 230 20:24 12.03.2021
1554 Clouds 6 996 87 10000 7.2 230 19:45 12.03.2021
1555 Clouds 6 996 87 10000 5.66 220 19:27 12.03.2021
1556 Clouds 6 996 87 10000 5.66 220 18:53 12.03.2021
1557 Rain 6 996 93 8000 5.66 220 18:29 12.03.2021
1558 Rain 5 996 87 4500 3.6 250 17:45 12.03.2021
1559 Rain 6 997 93 4500 5.14 200 17:27 12.03.2021
1560 Rain 7 997 87 10000 6.17 210 16:49 12.03.2021
1561 Rain 7 998 93 10000 7.72 220 16:28 12.03.2021
1562 Clouds 5 998 93 10000 7.72 220 15:45 12.03.2021
1563 Clouds 5 999 93 10000 7.2 230 15:21 12.03.2021
1564 Rain 7 999 76 10000 6.69 230 14:42 12.03.2021
1565 Clouds 7 1000 87 10000 6.69 230 14:19 12.03.2021
1566 Clouds 7 1000 76 10000 7.2 230 13:40 12.03.2021
1567 Clouds 8 1000 66 10000 7.72 240 13:20 12.03.2021
1568 Clouds 8 1000 66 10000 7.72 240 12:50 12.03.2021
1569 Clouds 8 1000 70 10000 7.72 240 12:30 12.03.2021
1570 Clouds 8 1000 70 10000 7.72 240 12:30 12.03.2021
1571 Clouds 8 1000 70 10000 7.72 240 11:57 12.03.2021
1572 Clouds 8 1000 70 10000 7.72 240 11:38 12.03.2021
1573 Clouds 7 1000 75 10000 7.72 240 10:59 12.03.2021
1574 Clouds 7 1000 75 10000 7.72 240 10:41 12.03.2021
1575 Clouds 7 1000 75 10000 8.75 240 10:20 12.03.2021
1576 Clouds 6 1000 81 10000 7.72 250 09:29 12.03.2021
1577 Clouds 5 1000 81 10000 7.72 250 08:57 12.03.2021
1578 Clouds 5 1000 81 10000 7.72 250 08:39 12.03.2021
1579 Clouds 5 999 81 10000 8.23 250 07:41 12.03.2021
1580 Clouds 5 999 81 10000 9.77 260 07:19 12.03.2021
1581 Clouds 5 999 81 10000 9.77 260 06:41 12.03.2021
1582 Clouds 5 998 81 10000 9.77 260 05:45 12.03.2021
1583 Clouds 6 995 75 10000 6.69 250 00:52 12.03.2021
1584 Clouds 7 994 81 10000 8.23 250 23:56 11.03.2021
1585 Clouds 7 994 81 10000 8.75 250 22:59 11.03.2021
1586 Clouds 7 994 81 10000 8.75 250 22:59 11.03.2021
1587 Clouds 6 994 81 10000 8.75 250 22:39 11.03.2021
1588 Clouds 6 993 76 10000 8.75 250 22:19 11.03.2021
1589 Clouds 6 993 76 10000 8.75 250 21:46 11.03.2021
1590 Clouds 6 993 70 10000 9.26 260 21:24 11.03.2021
1591 Clouds 7 993 70 10000 9.26 260 20:49 11.03.2021
1592 Clouds 7 992 65 10000 9.77 260 20:22 11.03.2021
1593 Clouds 7 992 65 10000 9.77 260 19:53 11.03.2021
1594 Clouds 7 992 65 10000 9.77 260 19:34 11.03.2021
1595 Clouds 8 991 66 10000 10.29 260 18:53 11.03.2021
1596 Clouds 8 991 66 10000 10.29 260 18:53 11.03.2021
1597 Clouds 8 991 66 10000 10.29 260 18:34 11.03.2021
1598 Clouds 8 990 66 10000 13.89 270 17:53 11.03.2021
1599 Clouds 8 990 66 10000 13.89 270 17:32 11.03.2021
1600 Clouds 8 989 71 10000 15.43 260 16:37 11.03.2021
1601 Clouds 8 987 81 7000 16.46 260 16:19 11.03.2021
1602 Rain 7 987 81 7000 16.46 260 15:39 11.03.2021
1603 Rain 7 986 87 7000 15.43 250 15:20 11.03.2021
1604 Rain 8 986 87 3500 10.8 230 14:44 11.03.2021
1605 Rain 8 986 87 7000 9.77 230 14:18 11.03.2021
1606 Clouds 8 986 87 7000 9.77 230 13:45 11.03.2021
1607 Rain 9 986 76 7000 8.75 240 13:22 11.03.2021
1608 Rain 10 986 76 7000 8.75 240 12:54 11.03.2021
1609 Rain 10 987 76 7000 7.72 230 12:29 11.03.2021
1610 Rain 10 987 81 7000 9.26 240 11:47 11.03.2021
1611 Rain 10 988 87 3800 10.8 230 11:29 11.03.2021
1612 Mist 10 988 87 3800 10.8 230 10:55 11.03.2021
1613 Clouds 10 989 93 10000 9.26 210 10:25 11.03.2021
1614 Clouds 8 989 93 10000 9.26 210 09:50 11.03.2021
1615 Clouds 8 989 93 10000 9.26 210 09:32 11.03.2021
1616 Mist 8 990 87 3000 7.72 200 08:50 11.03.2021
1617 Clouds 8 991 93 10000 9.26 210 08:32 11.03.2021
1618 Clouds 7 991 93 10000 9.26 210 07:48 11.03.2021
1619 Clouds 7 992 100 10000 7.72 200 07:21 11.03.2021
1620 Clouds 7 992 100 10000 7.72 200 06:42 11.03.2021
1621 Clouds 7 993 93 9000 7.72 190 06:22 11.03.2021
1622 Rain 5 1000 93 7000 8.75 180 02:26 11.03.2021
1623 -273 0 0 0 0 0 00:29 11.03.2021
1624 Rain 6 1003 87 4800 6.69 180 00:28 11.03.2021
1625 Rain 6 1005 81 7000 7.72 170 23:23 10.03.2021
1626 Rain 7 1005 81 7000 7.72 170 22:42 10.03.2021
1627 Rain 7 1005 81 7000 7.72 170 22:41 10.03.2021
1628 Rain 7 1005 81 7000 7.72 170 22:41 10.03.2021
1629 Rain 7 1005 81 7000 7.72 170 22:41 10.03.2021
1630 Rain 7 1005 81 7000 7.72 170 22:41 10.03.2021
1631 Rain 7 1006 87 10000 7.2 160 22:19 10.03.2021
1632 Rain 6 1006 87 10000 7.2 160 21:41 10.03.2021
1633 Clouds 6 1008 93 6000 6.69 160 21:21 10.03.2021
1634 Clouds 6 1008 93 6000 6.69 160 21:21 10.03.2021
1635 Rain 6 1008 93 6000 6.69 160 20:44 10.03.2021
1636 Rain 6 1009 93 6000 6.17 170 20:26 10.03.2021
1637 Rain 6 1009 93 6000 6.17 170 19:42 10.03.2021
1638 Rain 7 1011 87 5000 4.63 160 19:23 10.03.2021
1639 Rain 6 1011 87 5000 4.63 160 18:44 10.03.2021
1640 Rain 6 1011 81 6000 5.66 160 18:24 10.03.2021
1641 Rain 6 1011 81 6000 5.66 160 18:24 10.03.2021
1642 Rain 7 1011 81 6000 5.66 160 17:55 10.03.2021
1643 Rain 7 1011 81 6000 5.66 160 17:36 10.03.2021
1644 Rain 7 1013 75 10000 4.63 180 17:18 10.03.2021
1645 Rain 7 1013 75 10000 4.63 180 16:41 10.03.2021
1646 Rain 7 1013 75 10000 5.14 190 16:21 10.03.2021
1647 Rain 7 1013 75 10000 5.14 190 15:41 10.03.2021
1648 Rain 7 1014 70 10000 6.17 170 15:22 10.03.2021
1649 Clouds 7 1014 70 10000 6.17 170 14:43 10.03.2021
1650 Clouds 7 1014 70 10000 5.14 180 14:19 10.03.2021
1651 Rain 6 1015 70 10000 6.17 180 13:46 10.03.2021
1652 Rain 6 1015 70 10000 5.66 180 13:25 10.03.2021
1653 Clouds 5 1016 75 10000 5.14 190 12:45 10.03.2021
1654 Clouds 5 1016 75 9000 4.63 180 12:19 10.03.2021
1655 Clouds 4 1016 75 7000 5.14 170 11:32 10.03.2021
1656 Mist 4 1016 87 4000 3.09 140 10:59 10.03.2021
1657 Mist 3 1017 87 4000 3.09 150 10:38 10.03.2021
1658 Mist 3 1017 87 4000 3.09 150 10:20 10.03.2021
1659 Mist 2 1017 93 3700 3.6 160 09:42 10.03.2021
1660 Mist 2 1017 93 3700 3.09 170 09:22 10.03.2021
1661 Mist 2 1017 100 3000 2.57 150 08:57 10.03.2021
1662 Mist 2 1017 100 3000 2.57 150 08:57 10.03.2021
1663 Mist 2 1017 100 3000 2.57 150 08:38 10.03.2021
1664 Mist 2 1017 100 3000 2.06 150 08:20 10.03.2021
1665 Mist 2 1017 100 2500 2.06 180 07:30 10.03.2021
1666 Mist 2 1017 100 2500 2.06 180 06:56 10.03.2021
1667 Mist 2 1017 100 2800 2.57 180 06:32 10.03.2021
1668 Clouds 2 1018 78 4700 1.54 140 02:41 10.03.2021
1669 Clouds 2 1018 78 8000 2.06 100 23:52 09.03.2021
1670 Clouds 2 1018 93 10000 2.06 100 23:24 09.03.2021
1671 Clouds 3 1018 93 10000 1.54 100 22:42 09.03.2021
1672 Clouds 3 1019 93 10000 1.03 80 22:23 09.03.2021
1673 Clouds 3 1019 93 10000 1.03 80 21:46 09.03.2021
1674 Clouds 3 1018 93 10000 2.06 90 21:25 09.03.2021
1675 Clouds 3 1018 93 10000 2.06 90 20:58 09.03.2021
1676 Clouds 3 1018 93 10000 2.06 90 20:40 09.03.2021
1677 Clouds 3 1018 93 9000 2.57 100 20:21 09.03.2021
1678 Clouds 3 1018 93 9000 2.57 100 19:51 09.03.2021
1679 Clouds 3 1018 93 9000 2.57 100 19:27 09.03.2021
1680 Clouds 3 1018 93 6000 3.09 100 18:50 09.03.2021
1681 Clouds 3 1017 87 6000 3.09 100 18:27 09.03.2021
1682 Clouds 3 1017 93 9000 2.57 110 17:53 09.03.2021
1683 Clouds 3 1017 93 10000 2.57 120 17:31 09.03.2021
1684 Clouds 3 1017 93 10000 2.57 120 16:55 09.03.2021
1685 Clouds 3 1017 93 10000 2.57 120 16:37 09.03.2021
1686 Clouds 3 1017 93 9000 3.09 130 16:18 09.03.2021
1687 Clouds 3 1017 93 9000 3.09 130 15:43 09.03.2021
1688 Clouds 3 1017 87 8000 3.6 110 15:20 09.03.2021
1689 Clouds 3 1017 93 10000 3.6 100 14:31 09.03.2021
1690 Clouds 3 1017 93 10000 3.6 100 13:59 09.03.2021
1691 Clouds 3 1017 87 10000 3.09 110 13:38 09.03.2021
1692 Clouds 3 1017 87 10000 3.09 110 13:19 09.03.2021
1693 Clouds 2 1017 87 10000 3.09 110 12:39 09.03.2021
1694 Clouds 2 1017 86 8000 3.09 110 12:21 09.03.2021
1695 Clouds 2 1017 86 8000 3.09 100 11:42 09.03.2021
1696 Clouds 2 1017 86 8000 3.09 110 11:21 09.03.2021
1697 Clouds 2 1017 86 8000 3.09 110 10:55 09.03.2021
1698 Clouds 2 1017 86 8000 3.09 110 10:36 09.03.2021
1699 Clouds 2 1017 86 8000 3.09 120 10:18 09.03.2021
1700 Clouds 1 1017 93 7000 3.6 120 09:43 09.03.2021
1701 Clouds 1 1017 93 6000 4.12 130 09:24 09.03.2021
1702 Clouds 1 1017 93 6000 4.12 130 08:46 09.03.2021
1703 Mist 1 1017 93 5000 3.6 130 08:23 09.03.2021
1704 Snow 1 1017 93 3700 3.6 120 07:40 09.03.2021
1705 Snow 1 1017 93 3700 3.09 110 07:21 09.03.2021
1706 Snow 0 1017 100 1400 3.09 110 05:55 09.03.2021
1707 Snow 0 1017 100 1400 3.09 110 05:37 09.03.2021
1708 Rain 2 1020 94 10000 1.54 180 00:34 09.03.2021
1709 Rain 2 1020 90 10000 3.09 130 23:45 08.03.2021
1710 Rain 2 1020 52 10000 2.57 130 23:27 08.03.2021
1711 Rain 3 1020 52 10000 2.57 130 22:51 08.03.2021
1712 Rain 3 1020 52 10000 2.57 130 22:32 08.03.2021
1713 Rain 4 1021 52 10000 2.57 130 21:57 08.03.2021
1714 Rain 4 1021 52 10000 2.57 130 21:35 08.03.2021
1715 Clouds 4 1021 52 10000 2.57 140 20:48 08.03.2021
1716 Clouds 4 1021 52 10000 2.06 130 20:28 08.03.2021
1717 Clouds 4 1021 52 10000 2.06 130 20:28 08.03.2021
1718 Rain 4 1021 48 10000 1.54 130 19:59 08.03.2021
1719 Rain 5 1021 48 10000 1.54 120 19:37 08.03.2021
1720 Clouds 5 1021 48 10000 1.54 120 18:44 08.03.2021
1721 Clouds 5 1021 38 10000 1.54 150 18:23 08.03.2021
1722 Clouds 5 1021 38 10000 1.54 150 17:56 08.03.2021
1723 Clouds 5 1021 38 10000 1.54 150 17:38 08.03.2021
1724 Clouds 6 1022 38 10000 2.06 160 16:56 08.03.2021
1725 Clouds 6 1022 38 10000 2.06 160 16:33 08.03.2021
1726 Clouds 7 1022 39 10000 2.06 150 15:57 08.03.2021
1727 Clouds 7 1023 39 10000 2.57 150 15:30 08.03.2021
1728 Clouds 7 1023 39 10000 2.57 150 14:59 08.03.2021
1729 Clouds 6 1023 42 10000 2.06 140 14:21 08.03.2021
1730 Clouds 5 1023 42 10000 2.06 140 13:44 08.03.2021
1731 Clouds 5 1024 52 10000 2.06 130 13:22 08.03.2021
1732 Clouds 5 1024 52 10000 2.06 130 12:49 08.03.2021
1733 Clouds 5 1024 70 10000 2.57 100 12:29 08.03.2021
1734 Clouds 4 1024 70 10000 2.57 100 11:44 08.03.2021
1735 Clouds 3 1024 64 10000 3.09 70 11:20 08.03.2021
1736 Clouds 3 1024 64 10000 3.09 70 10:45 08.03.2021
1737 Clouds 3 1024 64 10000 1.54 80 10:27 08.03.2021
1738 Clouds 2 1024 64 10000 1.54 80 09:45 08.03.2021
1739 Clouds 2 1023 86 10000 1.54 80 09:23 08.03.2021
1740 Clouds 0 1023 100 10000 1.54 70 08:30 08.03.2021
1741 Clouds -2 1023 100 10000 1.54 70 07:49 08.03.2021
1742 Clouds -2 1023 100 10000 1.03 70 07:21 08.03.2021
1743 Clear -1 1022 77 9000 2.06 80 05:19 08.03.2021
1744 Clouds 2 1021 75 10000 0.51 350 01:28 08.03.2021
1745 Clouds 2 1021 78 10000 0.51 350 01:28 08.03.2021
1746 Clouds 2 1021 75 10000 0.51 350 00:38 08.03.2021
1747 Clouds 2 1021 78 10000 0.51 0 23:51 07.03.2021
1748 Clouds 3 1021 86 10000 2.57 350 23:20 07.03.2021
1749 Clouds 3 1021 86 10000 2.57 350 22:45 07.03.2021
1750 Clouds 3 1020 93 10000 3.6 350 22:26 07.03.2021
1751 Clouds 3 1020 93 10000 3.6 350 21:49 07.03.2021
1752 Clouds 3 1020 87 10000 3.6 310 21:31 07.03.2021
1753 Clouds 4 1020 100 10000 3.09 310 20:55 07.03.2021
1754 Clouds 4 1020 100 10000 3.09 310 20:37 07.03.2021
1755 Clouds 4 1020 93 10000 4.12 350 20:18 07.03.2021
1756 Mist 4 1020 100 5000 4.12 350 19:39 07.03.2021
1757 Mist 4 1019 100 4000 6.69 300 19:21 07.03.2021
1758 Mist 4 1019 100 4000 6.69 300 18:50 07.03.2021
1759 Mist 5 1019 87 4500 7.2 290 18:20 07.03.2021
1760 Clouds 5 1019 87 8000 7.2 290 17:56 07.03.2021
1761 Clouds 5 1019 87 8000 7.2 290 17:37 07.03.2021
1762 Clouds 5 1020 87 10000 7.2 290 17:18 07.03.2021
1763 Clouds 5 1020 87 10000 7.2 290 17:18 07.03.2021
1764 Clouds 5 1020 87 10000 7.72 290 16:39 07.03.2021
1765 Clouds 5 1020 87 10000 9.26 280 16:20 07.03.2021
1766 Clouds 5 1020 87 10000 9.26 280 15:47 07.03.2021
1767 Clouds 5 1021 81 10000 8.75 280 15:29 07.03.2021
1768 Clouds 5 1021 81 10000 8.75 280 14:47 07.03.2021
1769 Clouds 5 1021 60 10000 9.26 280 14:28 07.03.2021
1770 Clouds 5 1021 60 10000 9.26 280 13:45 07.03.2021
1771 Clouds 5 1021 73 10000 4.02 315 13:26 07.03.2021
1772 Clouds 5 1021 73 10000 4.02 315 12:48 07.03.2021
1773 Clouds 5 1022 81 10000 7.2 260 12:29 07.03.2021
1774 Clouds 4 1022 81 10000 7.2 260 11:52 07.03.2021
1775 Clouds 4 1022 81 10000 7.2 270 11:23 07.03.2021
1776 Clouds 4 1022 81 10000 7.2 270 10:51 07.03.2021
1777 Clouds 4 1022 81 10000 7.2 270 10:33 07.03.2021
1778 Clouds 4 1023 75 10000 7.2 260 09:52 07.03.2021
1779 Clouds 4 1023 75 10000 8.23 290 09:27 07.03.2021
1780 Clouds 4 1023 75 10000 8.23 290 08:55 07.03.2021
1781 Clouds 4 1023 75 10000 8.23 290 08:37 07.03.2021
1782 Clouds 4 1023 82 10000 6.69 290 08:19 07.03.2021
1783 Clouds 3 1025 79 10000 7.2 290 04:57 07.03.2021
1784 Clouds 4 1027 77 10000 6.17 270 02:26 07.03.2021
1785 Clouds 4 1028 75 10000 6.17 290 00:24 07.03.2021
1786 Clouds 4 1028 75 10000 6.17 290 23:40 06.03.2021
1787 Clouds 4 1027 63 10000 2.68 270 23:20 06.03.2021
1788 Clouds 4 1027 67 10000 3.58 315 22:45 06.03.2021
1789 Clouds 4 1029 75 10000 6.17 290 22:21 06.03.2021
1790 Clouds 4 1029 75 10000 6.17 290 21:41 06.03.2021
1791 Clouds 4 1029 75 10000 6.17 290 21:41 06.03.2021
1792 Clouds 4 1029 76 10000 5.66 300 21:20 06.03.2021
1793 Clouds 3 1029 76 10000 5.66 300 20:41 06.03.2021
1794 Clouds 3 1030 75 10000 4.63 280 19:55 06.03.2021
1795 Clouds 3 1030 75 10000 4.63 280 19:37 06.03.2021
1796 Clouds 3 1030 75 10000 5.66 300 19:18 06.03.2021
1797 Clouds 5 1030 78 10000 5.66 300 18:41 06.03.2021
1798 Clouds 5 1030 76 10000 6.17 290 18:20 06.03.2021
1799 Clouds 5 1030 76 10000 6.17 290 17:48 06.03.2021
1800 Clouds 5 1030 81 10000 6.69 280 17:27 06.03.2021
1801 Clouds 6 1030 81 10000 6.69 280 16:57 06.03.2021
1802 Clouds 6 1030 81 10000 6.69 280 16:32 06.03.2021
1803 Clouds 6 1031 75 10000 7.2 300 15:56 06.03.2021
1804 Clouds 6 1031 75 10000 7.2 300 15:38 06.03.2021
1805 Clouds 6 1031 75 10000 6.69 310 15:18 06.03.2021
1806 Clouds 6 1032 75 10000 7.2 310 14:31 06.03.2021
1807 Clouds 6 1032 75 10000 7.2 310 13:52 06.03.2021
1808 Clouds 6 1032 75 10000 7.2 310 13:33 06.03.2021
1809 Clouds 6 1032 81 10000 6.69 310 12:58 06.03.2021
1810 Clouds 5 1032 87 10000 6.69 310 12:38 06.03.2021
1811 Clouds 5 1032 93 10000 6.17 330 12:18 06.03.2021
1812 Clouds 5 1032 93 10000 6.17 330 12:18 06.03.2021
1813 Clouds 5 1032 93 10000 6.17 330 11:38 06.03.2021
1814 Clouds 5 1032 93 10000 5.14 330 11:18 06.03.2021
1815 Clouds 5 1032 93 10000 5.14 330 10:42 06.03.2021
1816 Clouds 5 1032 100 7000 4.63 320 09:57 06.03.2021
1817 Clouds 5 1032 93 8000 4.12 310 09:26 06.03.2021
1818 Clouds 4 1032 93 8000 4.12 310 08:54 06.03.2021
1819 Clouds 4 1031 100 10000 3.09 310 08:30 06.03.2021
1820 Clouds 4 1031 100 10000 3.09 310 08:30 06.03.2021
1821 Clouds 4 1031 100 10000 3.09 310 07:43 06.03.2021
1822 Clouds 4 1031 93 9000 5.14 310 07:21 06.03.2021
1823 Clouds 3 1031 93 10000 6.17 300 05:50 06.03.2021
1824 Clouds 3 1031 89 10000 4.63 280 03:47 06.03.2021
1825 Clear 2 1032 85 10000 1.54 290 01:32 06.03.2021
1826 Clear 3 1032 83 10000 1.54 290 00:46 06.03.2021
1827 Clear 3 1032 78 10000 2.57 310 23:44 05.03.2021
1828 Clouds 3 1031 80 10000 2.57 320 23:19 05.03.2021
1829 Clouds 3 1031 80 10000 2.57 320 22:43 05.03.2021
1830 Clouds 3 1031 75 10000 3.09 320 22:20 05.03.2021
1831 Clouds 3 1031 75 10000 3.09 320 21:43 05.03.2021
1832 Clouds 3 1031 80 10000 2.57 300 21:25 05.03.2021
1833 Clouds 3 1031 80 10000 2.57 300 20:47 05.03.2021
1834 Clouds 3 1030 77 10000 2.57 310 20:25 05.03.2021
1835 Clouds 3 1030 77 10000 2.57 310 19:48 05.03.2021
1836 Clouds 3 1030 77 10000 3.09 310 19:22 05.03.2021
1837 Clouds 4 1030 77 10000 3.09 310 18:45 05.03.2021
1838 Clouds 4 1029 75 10000 5.14 300 18:26 05.03.2021
1839 Clouds 4 1029 75 10000 5.14 300 18:26 05.03.2021
1840 Clouds 5 1029 75 10000 5.14 300 17:51 05.03.2021
1841 Clouds 6 1029 75 10000 5.66 290 17:33 05.03.2021
1842 Clouds 6 1029 75 10000 5.66 290 16:44 05.03.2021
1843 Clouds 6 1029 65 10000 4.63 290 16:24 05.03.2021
1844 Clouds 6 1029 65 10000 4.63 290 16:24 05.03.2021
1845 Clouds 6 1029 60 10000 5.14 300 15:55 05.03.2021
1846 Clouds 6 1029 60 10000 4.12 310 15:27 05.03.2021
1847 Clouds 5 1029 60 10000 4.12 310 14:52 05.03.2021
1848 Clouds 5 1029 60 10000 4.12 310 14:34 05.03.2021
1849 Clouds 5 1029 56 10000 5.14 290 13:46 05.03.2021
1850 Clouds 5 1029 56 10000 4.63 310 13:21 05.03.2021
1851 Clouds 5 1029 56 10000 4.63 310 12:46 05.03.2021
1852 Clouds 5 1028 52 10000 5.14 330 11:40 05.03.2021
1853 Clouds 5 1028 52 10000 5.14 330 11:40 05.03.2021
1854 Clouds 5 1028 60 10000 3.6 350 11:21 05.03.2021
1855 Clouds 5 1028 60 10000 3.6 350 10:57 05.03.2021
1856 Clouds 5 1028 60 10000 3.6 350 10:37 05.03.2021
1857 Clouds 5 1027 65 10000 1.03 320 10:19 05.03.2021
1858 Clouds 3 1027 65 10000 1.03 320 09:42 05.03.2021
1859 Clouds 3 1027 74 10000 0.51 320 09:23 05.03.2021
1860 Clouds 2 1027 74 10000 0.51 320 08:39 05.03.2021
1861 Clouds 1 1026 93 10000 1.54 350 08:20 05.03.2021
1862 Clouds 0 1026 93 10000 1.54 350 07:35 05.03.2021
1863 Clouds 0 1026 93 10000 1.03 350 06:43 05.03.2021
1864 Clear 0 1025 86 10000 2.06 10 06:25 05.03.2021
1865 Clear 1 1024 58 10000 2.57 10 01:40 05.03.2021
1866 Clear 2 1023 78 10000 3.09 30 23:55 04.03.2021
1867 Clouds 2 1022 86 10000 3.6 40 23:25 04.03.2021
1868 Clouds 2 1021 86 10000 3.09 50 22:31 04.03.2021
1869 Clouds 2 1021 86 10000 3.09 50 21:55 04.03.2021
1870 Clouds 2 1021 86 10000 3.09 50 21:33 04.03.2021
1871 Clouds 2 1021 86 10000 4.63 40 20:58 04.03.2021
1872 Clouds 2 1021 86 10000 4.63 40 20:39 04.03.2021
1873 Clouds 3 1021 80 10000 5.14 50 20:21 04.03.2021
1874 Clouds 3 1020 75 10000 4.63 40 19:50 04.03.2021
1875 Clouds 3 1020 81 10000 6.17 40 19:23 04.03.2021
1876 Clouds 3 1020 81 10000 6.17 40 18:52 04.03.2021
1877 Clouds 3 1020 81 10000 6.17 40 18:52 04.03.2021
1878 Clouds 3 1019 81 10000 6.69 40 18:30 04.03.2021
1879 Clouds 3 1019 81 10000 6.69 40 18:30 04.03.2021
1880 Clouds 4 1019 87 10000 6.69 40 17:48 04.03.2021
1881 Clouds 4 1018 87 10000 6.17 30 17:30 04.03.2021
1882 Clouds 4 1018 87 10000 6.17 30 16:51 04.03.2021
1883 Clouds 4 1018 87 10000 6.17 30 16:32 04.03.2021
1884 Clouds 5 1018 76 10000 4.12 350 15:57 04.03.2021
1885 Clouds 6 1018 76 10000 4.12 350 15:38 04.03.2021
1886 Clouds 5 1018 75 10000 5.14 320 15:20 04.03.2021
1887 Clouds 6 1018 75 10000 5.14 320 14:39 04.03.2021
1888 Clouds 6 1018 75 10000 6.69 330 13:57 04.03.2021
1889 Clouds 6 1018 75 10000 6.69 330 13:36 04.03.2021
1890 Clouds 5 1018 81 10000 6.17 320 13:18 04.03.2021
1891 Clouds 5 1018 81 10000 6.17 320 12:40 04.03.2021
1892 Clouds 5 1018 87 10000 6.17 310 11:49 04.03.2021
1893 Clouds 5 1018 6 10000 4.63 310 11:28 04.03.2021
1894 Clouds 5 1018 6 10000 4.63 310 10:57 04.03.2021
1895 Clouds 5 1018 6 10000 4.63 310 10:35 04.03.2021
1896 Clouds 5 1019 79 10000 5.14 300 09:51 04.03.2021
1897 Clouds 4 1019 87 10000 5.14 290 09:26 04.03.2021
1898 Clouds 4 1019 87 10000 5.14 290 08:49 04.03.2021
1899 Clouds 4 1019 87 10000 5.14 300 08:23 04.03.2021
1900 Clouds 4 1019 87 10000 5.14 300 07:35 04.03.2021
1901 Clouds 3 1020 90 10000 5.66 300 06:28 04.03.2021
1902 Clouds 3 1020 90 10000 5.66 300 05:52 04.03.2021
1903 Clouds 2 1022 8 1000 4.63 310 02:29 04.03.2021
1904 Clouds 3 1023 86 400 5.14 300 23:42 03.03.2021
1905 Mist 3 1023 93 1500 6.17 300 22:29 03.03.2021
1906 Mist 3 1023 93 2000 6.69 280 21:59 03.03.2021
1907 Mist 3 1023 93 2000 6.69 280 21:41 03.03.2021
1908 Mist 3 1023 93 1600 6.17 280 21:22 03.03.2021
1909 Mist 3 1024 93 1000 6.69 290 20:43 03.03.2021
1910 Fog 3 1024 93 300 7.72 290 20:24 03.03.2021
1911 Fog 3 1024 100 200 6.69 290 19:48 03.03.2021
1912 Fog 3 1024 100 200 7.2 290 19:29 03.03.2021
1913 Fog 3 1024 100 200 7.2 290 18:55 03.03.2021
1914 Fog 3 1024 100 200 7.2 290 18:35 03.03.2021
1915 Fog 4 1024 93 200 6.17 280 17:58 03.03.2021
1916 Fog 3 1024 93 200 6.69 280 17:22 03.03.2021
1917 Fog 3 1024 93 200 6.69 280 16:54 03.03.2021
1918 Fog 4 1024 87 450 6.69 280 16:27 03.03.2021
1919 Mist 5 1024 87 1200 6.69 280 15:54 03.03.2021
1920 Clouds 8 1024 71 10000 6.69 290 15:32 03.03.2021
1921 Clouds 8 1024 71 10000 6.69 290 14:50 03.03.2021
1922 Clouds 10 1024 66 10000 6.69 280 14:27 03.03.2021
1923 Clouds 11 1025 58 10000 3.09 250 13:46 03.03.2021
1924 Clouds 10 1025 66 10000 2.57 230 13:26 03.03.2021
1925 Clouds 10 1025 66 10000 2.57 230 12:43 03.03.2021
1926 Clouds 9 1025 71 10000 4.12 250 12:23 03.03.2021
1927 Clouds 9 1025 71 10000 4.12 250 11:45 03.03.2021
1928 Clouds 8 1026 76 8000 2.57 220 11:27 03.03.2021
1929 Clouds 8 1026 76 8000 2.57 220 10:45 03.03.2021
1930 Mist 5 1026 100 4000 1.03 0 10:22 03.03.2021
1931 Mist 0 1026 100 2500 4.35 232 09:43 03.03.2021
1932 Fog -2 1027 93 50 0.51 100 08:54 03.03.2021
1933 Fog -3 1027 100 50 0.51 100 08:25 03.03.2021
1934 Fog -3 1027 100 50 0.51 100 07:58 03.03.2021
1935 Fog -3 1027 100 50 0.51 100 07:34 03.03.2021
1936 Fog -3 1027 100 500 1.03 90 06:45 03.03.2021
1937 Fog -2 1027 100 50 1.03 130 05:44 03.03.2021
1938 Fog 2 1028 93 50 1.54 130 04:49 03.03.2021
1939 Fog 1 1028 100 50 2.06 110 04:24 03.03.2021
1940 Fog 2 1030 93 50 1.54 110 00:37 03.03.2021
1941 Fog 2 1030 93 10000 1.54 110 23:44 02.03.2021
1942 Fog 3 1030 87 50 2.06 110 22:54 02.03.2021
1943 Fog 5 1030 87 10000 3.09 110 22:24 02.03.2021
1944 Fog 5 1030 87 10000 3.09 110 21:59 02.03.2021
1945 Fog 5 1030 87 10000 3.09 110 21:37 02.03.2021
1946 Fog 5 1031 93 10000 2.57 90 21:18 02.03.2021
1947 Fog 5 1031 93 10000 2.57 90 20:41 02.03.2021
1948 Clear 6 1031 93 8000 3.6 80 20:21 02.03.2021
1949 Clear 6 1031 93 8000 3.6 80 19:49 02.03.2021
1950 Mist 7 1031 87 5000 4.12 80 19:30 02.03.2021
1951 Mist 7 1031 87 5000 4.12 80 18:55 02.03.2021
1952 Clear 8 1031 81 10000 3.6 80 18:36 02.03.2021
1953 Clear 8 1031 81 10000 3.6 80 18:18 02.03.2021
1954 Clear 8 1031 81 10000 3.6 80 17:40 02.03.2021
1955 Clouds 8 1032 87 10000 3.6 60 17:20 02.03.2021
1956 Clouds 8 1032 87 10000 3.6 60 16:47 02.03.2021
1957 Mist 7 1032 87 4000 4.63 50 15:55 02.03.2021
1958 Mist 8 1032 87 5000 4.63 70 15:27 02.03.2021
1959 Mist 7 1033 93 4000 4.63 80 14:53 02.03.2021
1960 Mist 6 1033 100 3000 4.12 70 14:20 02.03.2021
1961 Mist 6 1033 100 3000 4.12 70 13:47 02.03.2021
1962 Mist 5 1034 100 2000 4.12 70 13:26 02.03.2021
1963 Mist 4 1034 100 1000 2.57 80 12:50 02.03.2021
1964 Fog 3 1034 100 100 3.09 80 12:26 02.03.2021
1965 Fog 3 1034 100 100 3.09 80 11:52 02.03.2021
1966 Fog 1 1034 100 100 3.6 80 11:25 02.03.2021
1967 Fog 1 1034 100 100 3.6 80 10:55 02.03.2021
1968 Fog 0 1034 100 100 2.57 70 10:31 02.03.2021
1969 Fog 0 1034 100 100 2.57 70 10:31 02.03.2021
1970 Fog 0 1034 100 100 2.57 70 09:44 02.03.2021
1971 Fog -1 1034 100 100 2.06 90 09:24 02.03.2021
1972 Fog -1 1034 100 100 2.06 90 08:56 02.03.2021
1973 Fog -1 1034 100 100 2.06 90 08:33 02.03.2021
1974 Fog -1 1034 100 100 1.54 90 07:51 02.03.2021
1975 Fog 0 1034 100 100 2.06 80 06:39 02.03.2021
1976 Fog 0 1034 100 50 2.06 90 05:52 02.03.2021
1977 Fog 0 1034 100 50 2.06 90 05:33 02.03.2021
1978 Clear 1 1034 100 50 1.54 90 04:38 02.03.2021
1979 Clear 1 1034 100 50 1.54 60 01:43 02.03.2021
1980 Clear 1 1034 100 50 1.54 60 01:43 02.03.2021
1981 Clear 1 1034 100 50 1.54 60 01:43 02.03.2021
1982 Clear 1 1034 100 50 1.54 60 01:43 02.03.2021
1983 Clear 2 1035 100 50 2.06 70 01:22 02.03.2021
1984 Clear 2 1035 100 100 3.09 60 23:40 01.03.2021
1985 Fog 3 1035 100 100 3.09 50 23:19 01.03.2021
1986 Fog 3 1035 100 100 3.09 50 22:38 01.03.2021
1987 Fog 3 1035 100 200 2.57 50 22:19 01.03.2021
1988 Fog 3 1035 100 200 2.57 50 21:42 01.03.2021
1989 Fog 4 1035 100 300 3.09 50 21:23 01.03.2021
1990 Fog 4 1035 100 300 3.09 50 20:45 01.03.2021
1991 Fog 4 1035 100 400 3.09 50 20:26 01.03.2021
1992 Fog 4 1035 100 400 3.09 50 19:45 01.03.2021
1993 Fog 4 1035 100 500 2.57 60 19:26 01.03.2021
1994 Fog 4 1035 100 500 2.57 60 18:43 01.03.2021
1995 Fog 4 1035 100 700 2.57 60 18:23 01.03.2021
1996 Mist 4 1035 100 2500 2.57 90 17:48 01.03.2021
1997 Mist 4 1035 100 1200 2.57 60 17:23 01.03.2021
1998 Mist 4 1035 100 1200 2.57 60 16:47 01.03.2021
1999 Mist 4 1035 100 3000 2.06 80 16:29 01.03.2021
2000 Mist 4 1035 100 3000 2.06 80 15:56 01.03.2021
2001 Mist 4 1035 100 3000 2.06 80 15:36 01.03.2021
2002 Mist 4 1035 100 2500 2.57 70 15:18 01.03.2021
2003 Mist 4 1036 100 1300 2.06 80 14:39 01.03.2021
2004 Mist 4 1036 100 1000 1.54 50 13:57 01.03.2021
2005 Mist 4 1036 100 1000 1.54 50 13:37 01.03.2021
2006 Mist 4 1036 100 1200 1.03 40 13:19 01.03.2021
2007 Mist 4 1036 100 1200 1.03 40 12:42 01.03.2021
2008 Fog 4 1036 100 800 1.03 0 12:24 01.03.2021
2009 Fog 3 1036 100 400 1.03 0 11:49 01.03.2021
2010 Fog 3 1036 100 300 0.51 20 11:26 01.03.2021
2011 Fog 3 1036 100 300 0.51 20 10:42 01.03.2021
2012 Fog 2 1036 100 250 0.51 0 10:22 01.03.2021
2013 Fog 2 1036 100 250 0.51 0 09:50 01.03.2021
2014 Fog 1 1036 100 200 0.51 320 09:28 01.03.2021
2015 Fog 1 1036 100 200 0.51 320 08:56 01.03.2021
2016 Fog 2 1036 100 150 1.54 350 08:32 01.03.2021
2017 Fog 2 1036 100 150 1.54 290 07:32 01.03.2021
2018 Fog 2 1036 100 100 1.54 320 06:25 01.03.2021
2019 Clouds 1 1036 100 100 2.06 270 02:40 01.03.2021
2020 Clouds 1 1036 100 150 2.57 270 23:47 28.02.2021
2021 Fog 1 1036 100 200 4.12 280 22:57 28.02.2021
2022 Fog 1 1036 100 200 4.12 280 22:38 28.02.2021
2023 Fog 1 1036 100 200 3.6 290 22:20 28.02.2021
2024 Fog 1 1036 100 200 3.6 290 21:45 28.02.2021
2025 Fog 1 1036 100 200 4.12 280 21:23 28.02.2021
2026 Fog 1 1036 100 200 4.12 280 20:45 28.02.2021
2027 Fog 2 1037 100 200 3.09 300 20:26 28.02.2021
2028 Fog 2 1037 100 200 3.09 300 19:46 28.02.2021
2029 Fog 2 1037 100 200 3.6 290 19:27 28.02.2021
2030 Fog 2 1037 100 200 3.6 290 18:47 28.02.2021
2031 Fog 2 1036 100 300 3.09 280 18:26 28.02.2021
2032 Fog 2 1036 100 300 3.09 280 17:56 28.02.2021
2033 Fog 2 1036 100 300 3.09 280 17:37 28.02.2021
2034 Fog 3 1037 100 300 3.6 270 17:18 28.02.2021
2035 Fog 3 1037 100 300 3.6 270 16:44 28.02.2021
2036 Fog 3 1037 100 400 4.12 280 16:26 28.02.2021
2037 Fog 3 1037 100 400 4.12 280 15:51 28.02.2021
2038 Fog 3 1037 100 400 4.12 280 15:51 28.02.2021
2039 Fog 3 1037 100 400 4.12 270 15:26 28.02.2021
2040 Fog 3 1037 100 400 4.12 270 14:57 28.02.2021
2041 Fog 3 1038 100 300 4.12 270 14:30 28.02.2021
2042 Fog 4 1038 100 300 4.12 270 13:56 28.02.2021
2043 Fog 4 1038 100 300 4.12 270 13:36 28.02.2021
2044 Fog 4 1038 100 400 3.09 270 13:18 28.02.2021
2045 Fog 4 1038 100 400 3.09 270 12:48 28.02.2021
2046 Fog 4 1038 100 300 3.6 270 12:30 28.02.2021
2047 Fog 3 1038 100 300 3.6 270 11:55 28.02.2021
2048 Fog 4 1038 100 300 3.6 270 11:36 28.02.2021
2049 Fog 3 1038 100 400 2.57 270 11:18 28.02.2021
2050 Fog 3 1038 100 600 2.57 260 10:30 28.02.2021
2051 Mist 3 1038 100 1200 2.57 280 09:58 28.02.2021
2052 Fog 2 1038 100 400 2.57 270 09:38 28.02.2021
2053 Fog 2 1038 100 500 1.54 270 09:19 28.02.2021
2054 Fog 2 1038 100 500 1.54 270 08:38 28.02.2021
2055 Fog 2 1038 100 200 1.54 310 08:20 28.02.2021
2056 Fog 2 1038 100 200 1.54 310 07:43 28.02.2021
2057 Fog 2 1038 100 200 1.54 310 07:43 28.02.2021
2058 Fog 2 1038 100 300 1.54 310 07:24 28.02.2021
2059 Fog 3 1038 100 300 3.09 320 06:23 28.02.2021
2060 Clear 3 1038 100 150 2.57 310 05:19 28.02.2021
2061 Clear 3 1039 100 2200 3.09 280 02:26 28.02.2021
2062 Clouds 3 1039 100 250 2.57 260 01:23 28.02.2021
2063 Clear 3 1039 100 250 2.57 260 00:39 28.02.2021
2064 Clear 4 1039 100 150 2.57 250 23:50 27.02.2021
2065 Fog 4 1039 100 100 3.09 270 23:22 27.02.2021
2066 Fog 4 1039 100 100 3.09 270 22:50 27.02.2021
2067 Fog 4 1039 100 100 3.09 280 22:24 27.02.2021
2068 Fog 4 1039 100 100 3.09 280 21:59 27.02.2021
2069 Fog 4 1039 100 100 3.09 280 21:38 27.02.2021
2070 Fog 4 1039 100 200 4.12 280 20:56 27.02.2021
2071 Fog 4 1039 100 200 4.12 280 20:38 27.02.2021
2072 Fog 4 1039 100 200 3.6 270 20:18 27.02.2021
2073 Fog 4 1039 100 200 3.6 270 19:41 27.02.2021
2074 Fog 4 1039 100 400 3.6 290 19:23 27.02.2021
2075 Fog 4 1039 100 400 3.6 290 18:40 27.02.2021
2076 Mist 4 1039 100 3800 3.09 290 18:20 27.02.2021
2077 Mist 4 1039 93 2800 4.12 280 17:43 27.02.2021
2078 Clouds 5 1039 87 10000 4.63 310 17:20 27.02.2021
2079 Clouds 5 1039 87 10000 4.63 310 16:53 27.02.2021
2080 Clouds 6 1039 81 10000 5.66 310 16:32 27.02.2021
2081 Clouds 6 1039 81 10000 5.66 310 15:57 27.02.2021
2082 Clouds 6 1039 81 10000 5.66 310 15:38 27.02.2021
2083 Clouds 6 1039 81 10000 5.14 300 14:49 27.02.2021
2084 Clouds 6 1039 87 10000 5.14 290 14:30 27.02.2021
2085 Clouds 7 1039 87 10000 5.14 290 13:53 27.02.2021
2086 Clouds 7 1039 87 10000 5.14 310 13:27 27.02.2021
2087 Clouds 5 1039 87 10000 5.14 310 12:56 27.02.2021
2088 Clouds 4 1039 93 10000 5.66 320 12:30 27.02.2021
2089 Clouds 4 1039 93 10000 5.66 320 11:58 27.02.2021
2090 Clouds 6 1039 93 10000 5.66 320 11:40 27.02.2021
2091 Clouds 6 1039 93 10000 5.14 310 11:21 27.02.2021
2092 Clouds 6 1039 100 10000 5.66 300 10:46 27.02.2021
2093 Clouds 6 1039 100 10000 4.12 300 10:27 27.02.2021
2094 Mist 5 1038 100 5000 3.09 300 09:48 27.02.2021
2095 Drizzle 5 1038 100 1000 4.12 330 09:26 27.02.2021
2096 Drizzle 5 1038 100 1000 4.12 330 08:41 27.02.2021
2097 Fog 5 1038 100 700 3.09 330 08:21 27.02.2021
2098 Drizzle 5 1037 100 1400 2.06 300 07:41 27.02.2021
2099 Clear 4 1036 93 3900 4.63 330 04:46 27.02.2021
2100 Clear 4 1035 100 6000 5.14 300 00:42 27.02.2021
2101 Clear 4 1035 100 7000 5.14 300 23:54 26.02.2021
2102 Clouds 4 1035 100 10000 4.63 300 23:27 26.02.2021
2103 Clouds 3 1035 100 10000 4.63 300 22:50 26.02.2021
2104 Clouds 3 1034 100 10000 5.14 290 22:29 26.02.2021
2105 Clouds 3 1034 100 10000 5.14 290 21:43 26.02.2021
2106 Clouds 3 1034 93 10000 4.63 280 21:24 26.02.2021
2107 Clouds 4 1034 93 10000 4.63 280 20:44 26.02.2021
2108 Clouds 4 1033 100 10000 5.14 290 20:21 26.02.2021
2109 Clouds 4 1033 100 10000 5.14 290 19:50 26.02.2021
2110 Clouds 5 1033 93 10000 5.14 290 19:25 26.02.2021
2111 Clouds 5 1032 93 10000 5.66 290 18:42 26.02.2021
2112 Clouds 5 1032 93 10000 5.66 290 18:23 26.02.2021
2113 Clouds 6 1032 93 10000 5.66 290 17:44 26.02.2021
2114 Clouds 7 1032 87 10000 5.66 300 17:26 26.02.2021
2115 Clouds 7 1032 87 10000 5.66 300 16:53 26.02.2021
2116 Clouds 7 1032 87 9000 6.69 300 16:32 26.02.2021
2117 Clouds 7 1032 87 9000 6.69 300 15:58 26.02.2021
2118 Clouds 6 1032 87 9000 6.69 300 15:39 26.02.2021
2119 Clouds 6 1032 87 10000 7.72 300 15:20 26.02.2021
2120 Clouds 7 1032 87 10000 7.72 300 14:47 26.02.2021
2121 Clouds 7 1032 81 10000 8.23 300 14:26 26.02.2021
2122 Clouds 7 1032 81 10000 7.2 290 13:46 26.02.2021
2123 Clouds 7 1031 81 10000 6.69 300 13:25 26.02.2021
2124 Clouds 7 1031 81 10000 6.69 300 12:43 26.02.2021
2125 Clouds 7 1031 81 10000 7.2 290 12:25 26.02.2021
2126 Clouds 7 1031 81 10000 7.2 290 11:38 26.02.2021
2127 Clouds 6 1031 87 10000 6.69 290 10:54 26.02.2021
2128 Clouds 6 1030 93 10000 5.14 280 10:20 26.02.2021
2129 Clouds 5 1030 93 10000 5.14 280 09:46 26.02.2021
2130 Clouds 5 1030 93 10000 4.12 260 09:26 26.02.2021
2131 Clouds 4 1030 93 10000 4.12 260 08:32 26.02.2021
2132 Clouds 4 1029 93 10000 4.63 260 07:54 26.02.2021
2133 Clouds 5 1029 87 10000 3.6 270 07:20 26.02.2021
2134 Clouds 5 1029 87 10000 2.57 280 05:40 26.02.2021
2135 Clouds 5 1028 93 10000 2.57 270 04:49 26.02.2021
2136 Clouds 5 1029 100 8000 1.54 260 02:36 26.02.2021
2137 Clouds 5 1028 87 10000 2.57 320 00:24 26.02.2021
2138 Clouds 5 1028 87 10000 5.14 320 23:31 25.02.2021
2139 Clouds 5 1028 87 10000 5.14 320 22:51 25.02.2021
2140 Clouds 5 1028 87 10000 5.14 320 22:33 25.02.2021
2141 Clouds 6 1027 87 10000 3.09 290 21:48 25.02.2021
2142 Clouds 6 1027 93 10000 4.12 310 21:30 25.02.2021
2143 Rain 6 1027 93 10000 4.12 310 20:44 25.02.2021
2144 Clouds 6 1027 93 10000 3.6 300 20:25 25.02.2021
2145 Clouds 6 1026 93 10000 2.57 290 19:58 25.02.2021
2146 Clouds 6 1026 93 10000 2.57 280 19:39 25.02.2021
2147 Clouds 6 1026 87 10000 4.63 290 19:19 25.02.2021
2148 Clouds 7 1026 87 10000 4.63 290 18:39 25.02.2021
2149 Clouds 7 1025 87 10000 4.63 290 17:59 25.02.2021
2150 Clouds 8 1024 87 10000 5.66 290 17:31 25.02.2021
2151 Clouds 8 1024 87 10000 5.66 290 16:55 25.02.2021
2152 Clouds 8 1024 87 10000 5.66 290 16:33 25.02.2021
2153 Clouds 11 1024 76 10000 7.72 290 15:39 25.02.2021
2154 Clouds 12 1024 71 10000 7.2 290 15:20 25.02.2021
2155 Clouds 12 1024 71 10000 7.2 290 15:19 25.02.2021
2156 Clouds 15 1024 63 10000 6.17 250 14:32 25.02.2021
2157 Clouds 15 1024 63 10000 6.17 250 13:59 25.02.2021
2158 Clouds 15 1024 63 10000 6.17 250 13:40 25.02.2021
2159 Clouds 14 1024 67 10000 5.14 240 13:19 25.02.2021
2160 Clouds 13 1023 71 10000 4.12 230 12:24 25.02.2021
2161 Clouds 13 1023 71 10000 4.12 230 11:57 25.02.2021
2162 Clouds 12 1023 76 10000 5.14 230 11:39 25.02.2021
2163 Clouds 12 1023 76 10000 5.14 230 10:51 25.02.2021
2164 Clouds 12 1023 76 10000 5.14 230 10:32 25.02.2021
2165 Clouds 10 1023 76 10000 4.63 220 09:45 25.02.2021
2166 Clouds 10 1023 76 10000 4.63 220 09:45 25.02.2021
2167 Clouds 10 1023 81 10000 5.14 220 09:23 25.02.2021
2168 Clouds 9 1022 76 10000 4.63 200 08:32 25.02.2021
2169 Clouds 9 1022 76 10000 4.63 200 07:59 25.02.2021
2170 Clouds 9 1022 76 10000 4.63 200 07:38 25.02.2021
2171 Clouds 9 1023 76 10000 4.12 200 06:57 25.02.2021
2172 Clouds 9 1023 76 10000 4.12 200 06:57 25.02.2021
2173 Clouds 11 1023 76 10000 4.12 210 05:28 25.02.2021
2174 Clouds 10 1024 66 10000 3.6 190 01:49 25.02.2021
2175 Clouds 12 1025 62 10000 3.6 180 00:48 25.02.2021
2176 Clouds 12 1025 62 10000 3.6 190 00:19 25.02.2021
2177 Clouds 13 1025 62 10000 3.6 190 23:36 24.02.2021
2178 Clouds 13 1025 58 10000 3.6 200 22:50 24.02.2021
2179 Clouds 14 1025 58 10000 4.12 200 22:30 24.02.2021
2180 Clouds 14 1025 58 10000 4.12 200 21:49 24.02.2021
2181 Rain 15 1025 58 10000 3.09 200 21:31 24.02.2021
2182 Clouds 15 1025 58 10000 3.09 200 20:50 24.02.2021
2183 Clouds 16 1025 59 10000 4.63 190 20:28 24.02.2021
2184 Clouds 16 1025 59 10000 4.63 190 19:43 24.02.2021
2185 Clouds 16 1025 63 10000 5.14 190 19:21 24.02.2021
2186 Clouds 16 1025 63 10000 5.14 190 18:53 24.02.2021
2187 Clouds 16 1026 67 10000 4.12 210 18:31 24.02.2021
2188 Clouds 16 1026 67 10000 4.12 210 17:42 24.02.2021
2189 Clouds 16 1026 63 10000 4.12 220 17:23 24.02.2021
2190 Clouds 16 1026 63 10000 4.12 220 16:48 24.02.2021
2191 Clouds 17 1026 59 10000 6.17 220 16:21 24.02.2021
2192 Clouds 17 1026 59 10000 6.17 220 15:55 24.02.2021
2193 Clouds 17 1026 55 10000 6.69 230 15:34 24.02.2021
2194 Clouds 17 1026 55 10000 6.69 230 14:50 24.02.2021
2195 Clouds 16 1027 59 10000 6.17 230 14:29 24.02.2021
2196 Clouds 16 1027 59 10000 6.17 230 13:55 24.02.2021
2197 Clouds 16 1027 59 10000 6.17 230 13:37 24.02.2021
2198 Clouds 16 1027 59 10000 7.72 220 13:18 24.02.2021
2199 Clouds 16 1027 59 10000 7.72 220 12:41 24.02.2021
2200 Clouds 15 1027 63 10000 7.72 220 12:23 24.02.2021
2201 Clouds 15 1027 63 10000 7.72 220 11:36 24.02.2021
2202 Clouds 14 1027 67 10000 6.69 210 10:47 24.02.2021
2203 Clouds 12 1027 76 10000 6.17 210 10:26 24.02.2021
2204 Clouds 11 1027 71 10000 6.17 210 09:30 24.02.2021
2205 Clouds 10 1027 71 10000 6.17 210 08:52 24.02.2021
2206 Clouds 10 1027 71 10000 5.66 210 08:33 24.02.2021
2207 Clouds 10 1027 71 10000 5.66 210 07:47 24.02.2021
2208 Clouds 10 1027 76 10000 4.12 200 07:19 24.02.2021
2209 Clouds 11 1027 71 10000 5.14 210 05:49 24.02.2021
2210 Clouds 12 1028 76 10000 4.12 200 02:35 24.02.2021
2211 Clouds 11 1027 71 10000 4.63 210 23:55 23.02.2021
2212 Clouds 11 1027 71 10000 4.12 200 22:51 23.02.2021
2213 Clouds 11 1027 71 10000 3.6 200 22:23 23.02.2021
2214 Clouds 11 1027 71 10000 3.6 200 21:56 23.02.2021
2215 Clouds 11 1027 71 10000 3.6 200 21:37 23.02.2021
2216 Clouds 11 1028 76 10000 3.09 170 21:18 23.02.2021
2217 Clouds 12 1028 76 10000 3.09 170 20:45 23.02.2021
2218 Clouds 12 1028 71 10000 3.09 190 20:27 23.02.2021
2219 Clouds 12 1029 76 10000 2.06 210 19:47 23.02.2021
2220 Clouds 13 1028 71 10000 3.09 220 19:26 23.02.2021
2221 Clouds 13 1028 71 10000 3.09 220 18:47 23.02.2021
2222 Clouds 14 1027 72 10000 2.57 200 18:29 23.02.2021
2223 Clouds 14 1027 72 10000 2.57 200 17:54 23.02.2021
2224 Clouds 15 1027 67 10000 4.63 230 17:28 23.02.2021
2225 Clouds 15 1027 67 10000 4.63 230 16:47 23.02.2021
2226 Clouds 16 1027 63 10000 4.12 230 16:24 23.02.2021
2227 Clouds 16 1027 63 10000 4.12 230 15:51 23.02.2021
2228 Clouds 16 1027 63 10000 4.12 230 15:33 23.02.2021
2229 Clouds 16 1027 63 10000 5.14 220 14:58 23.02.2021
2230 Clouds 16 1027 63 10000 5.14 220 14:40 23.02.2021
2231 Clouds 15 1028 63 10000 5.66 220 14:19 23.02.2021
2232 Clouds 15 1028 63 10000 5.66 220 13:39 23.02.2021
2233 Clouds 14 1027 58 10000 5.66 210 13:19 23.02.2021
2234 Clouds 14 1027 58 10000 5.66 210 12:46 23.02.2021
2235 Clouds 13 1027 62 10000 4.63 200 12:20 23.02.2021
2236 Clouds 12 1027 62 10000 4.63 200 11:45 23.02.2021
2237 Clouds 11 1027 66 10000 3.09 190 11:20 23.02.2021
2238 Clouds 11 1027 66 10000 3.09 190 10:40 23.02.2021
2239 Clouds 10 1027 71 10000 2.57 180 10:19 23.02.2021
2240 Clouds 9 1027 71 10000 2.57 180 09:42 23.02.2021
2241 Clouds 9 1027 76 10000 3.09 210 09:21 23.02.2021
2242 Clouds 8 1027 76 10000 3.09 210 08:48 23.02.2021
2243 Clouds 8 1026 71 10000 3.6 200 08:21 23.02.2021
2244 Clouds 8 1026 71 10000 3.6 200 07:48 23.02.2021
2245 Clouds 8 1025 71 10000 2.06 200 05:29 23.02.2021
2246 Clouds 9 1024 66 10000 2.57 200 04:25 23.02.2021
2247 Clouds 10 1024 66 10000 3.6 210 02:33 23.02.2021
2248 Clouds 11 1023 62 10000 4.12 210 00:20 23.02.2021
2249 Clouds 11 1023 62 10000 4.12 210 23:46 22.02.2021
2250 Clouds 11 1022 58 10000 3.09 210 23:20 22.02.2021
2251 Clouds 11 1022 58 10000 3.09 210 22:39 22.02.2021
2252 Clouds 13 1021 50 10000 3.6 210 22:20 22.02.2021
2253 Clouds 12 1021 54 10000 2.57 200 21:40 22.02.2021
2254 Clouds 12 1021 54 10000 2.57 200 21:21 22.02.2021
2255 Clouds 12 1021 54 10000 2.57 200 20:49 22.02.2021
2256 Clouds 13 1021 50 10000 3.6 210 20:27 22.02.2021
2257 Clouds 13 1021 54 10000 4.12 200 19:51 22.02.2021
2258 Clouds 14 1020 51 10000 3.09 190 19:30 22.02.2021
2259 Clouds 14 1020 51 10000 3.09 190 18:49 22.02.2021
2260 Clouds 15 1019 47 10000 3.09 200 18:30 22.02.2021
2261 Clouds 15 1019 47 10000 3.09 200 17:54 22.02.2021
2262 Clouds 16 1019 44 10000 4.63 210 17:22 22.02.2021
2263 Clouds 16 1019 44 10000 4.63 210 17:22 22.02.2021
2264 Clouds 16 1019 44 10000 4.63 210 17:22 22.02.2021
2265 Clouds 16 1019 44 10000 4.63 210 17:22 22.02.2021
2266 Clouds 16 1019 44 10000 4.63 210 16:53 22.02.2021
2267 Clouds 16 1018 44 10000 5.14 210 16:31 22.02.2021
2268 Clouds 16 1018 44 10000 5.14 210 15:42 22.02.2021
2269 Clouds 16 1018 44 10000 5.66 210 15:21 22.02.2021
2270 Clouds 16 1018 44 10000 5.66 210 14:44 22.02.2021
2271 Clouds 16 1018 41 10000 5.14 220 14:22 22.02.2021
2272 Clouds 16 1018 41 10000 5.14 220 13:45 22.02.2021
2273 Clouds 16 1017 39 10000 6.17 210 12:56 22.02.2021
2274 Clouds 15 1017 44 10000 2.57 200 12:23 22.02.2021
2275 Clouds 15 1017 44 10000 2.57 200 11:57 22.02.2021
2276 Clouds 15 1017 44 10000 2.57 200 11:38 22.02.2021
2277 Clouds 12 1017 50 10000 4.12 180 11:20 22.02.2021
2278 Clouds 9 1016 54 10000 5.14 160 10:41 22.02.2021
2279 Clouds 9 1016 54 10000 5.14 160 10:21 22.02.2021
2280 Clouds 8 1016 54 10000 5.14 160 09:40 22.02.2021
2281 Clouds 7 1016 57 10000 4.63 160 09:22 22.02.2021
2282 Clouds 6 1016 57 10000 4.63 160 08:49 22.02.2021
2283 Clouds 6 1016 57 10000 4.63 160 08:21 22.02.2021
2284 Clouds 7 1016 57 10000 4.63 160 07:50 22.02.2021
2285 Clouds 7 1016 61 10000 4.12 160 07:23 22.02.2021
2286 Clear 7 1016 61 10000 3.6 160 06:28 22.02.2021
2287 Clear 7 1015 66 10000 3.6 160 05:21 22.02.2021
2288 Clear 7 1015 71 10000 4.63 160 03:24 22.02.2021
2289 Clear 7 1015 76 10000 3.09 150 02:31 22.02.2021
2290 Clear 7 1015 76 9000 3.6 140 00:44 22.02.2021
2291 Clear 6 1016 87 6000 1.03 100 00:19 22.02.2021
2292 Clear 7 1015 76 10000 1.54 150 23:27 21.02.2021
2293 Clear 8 1015 76 10000 1.54 150 22:37 21.02.2021
2294 Clear 8 1015 76 10000 3.09 140 21:59 21.02.2021
2295 Clear 9 1015 76 10000 3.09 140 21:35 21.02.2021
2296 Clear 9 1015 76 10000 2.06 140 20:58 21.02.2021
2297 Clear 9 1015 76 10000 2.06 140 20:39 21.02.2021
2298 Clouds 9 1015 71 10000 1.54 150 20:19 21.02.2021
2299 Clouds 11 1015 71 10000 1.54 150 19:49 21.02.2021
2300 Clouds 11 1015 66 10000 2.06 140 19:30 21.02.2021
2301 Clouds 12 1015 66 10000 2.06 140 18:43 21.02.2021
2302 Clouds 15 1014 55 10000 1.54 130 18:24 21.02.2021
2303 Clouds 17 1014 48 10000 2.06 150 17:29 21.02.2021
2304 Clouds 17 1014 48 10000 2.06 150 16:57 21.02.2021
2305 Clouds 17 1014 48 10000 2.06 150 16:34 21.02.2021
2306 Clouds 17 1014 48 10000 2.06 200 15:54 21.02.2021
2307 Clouds 16 1014 51 10000 2.06 210 15:22 21.02.2021
2308 Clouds 16 1014 51 10000 2.06 210 14:50 21.02.2021
2309 Clouds 15 1014 55 10000 3.6 220 14:28 21.02.2021
2310 Clouds 15 1014 55 10000 3.6 220 13:47 21.02.2021
2311 Clouds 15 1014 51 10000 3.6 210 13:23 21.02.2021
2312 Clouds 14 1014 54 10000 4.12 200 12:32 21.02.2021
2313 Clouds 14 1014 54 10000 4.12 200 11:56 21.02.2021
2314 Clouds 14 1014 54 10000 4.12 200 11:36 21.02.2021
2315 Clouds 13 1014 58 10000 4.12 190 10:40 21.02.2021
2316 Clouds 11 1014 62 10000 3.6 200 10:21 21.02.2021
2317 Clouds 9 1014 62 10000 3.6 200 09:42 21.02.2021
2318 Clouds 9 1013 66 10000 4.12 190 09:23 21.02.2021
2319 Clouds 8 1013 71 10000 3.09 180 08:33 21.02.2021
2320 Clouds 8 1013 71 10000 3.09 180 07:44 21.02.2021
2321 Clouds 8 1013 71 10000 3.09 180 07:21 21.02.2021
2322 Clouds 9 1012 71 10000 4.12 190 05:28 21.02.2021
2323 Clouds 10 1012 71 10000 4.12 180 02:40 21.02.2021
2324 Clouds 10 1012 71 10000 4.63 160 00:59 21.02.2021
2325 Clouds 10 1012 66 10000 5.14 170 00:21 21.02.2021
2326 Clouds 9 1012 66 10000 5.14 170 23:38 20.02.2021
2327 Clouds 10 1012 66 10000 5.14 160 22:57 20.02.2021
2328 Clouds 10 1012 66 10000 5.66 160 22:32 20.02.2021
2329 Clouds 10 1012 66 10000 5.66 160 21:48 20.02.2021
2330 Clouds 10 1012 66 10000 5.14 160 21:29 20.02.2021
2331 Clouds 10 1012 66 10000 5.14 160 20:57 20.02.2021
2332 Clouds 10 1012 66 10000 5.14 160 20:38 20.02.2021
2333 Clouds 10 1012 66 10000 4.12 170 20:19 20.02.2021
2334 Clouds 11 1012 66 10000 4.12 170 19:41 20.02.2021
2335 Clouds 12 1012 71 10000 4.12 150 18:55 20.02.2021
2336 Clouds 12 1012 67 10000 4.12 150 18:33 20.02.2021
2337 Clouds 12 1012 67 10000 4.12 150 18:33 20.02.2021
2338 Clouds 12 1012 67 10000 4.12 150 17:59 20.02.2021
2339 Clouds 12 1012 67 10000 3.09 150 17:33 20.02.2021
2340 Clouds 13 1012 67 10000 3.09 150 16:49 20.02.2021
2341 Clouds 13 1013 58 10000 5.14 160 16:26 20.02.2021
2342 Clouds 15 1013 58 10000 5.14 160 15:42 20.02.2021
2343 Clouds 14 1013 62 10000 4.63 140 14:53 20.02.2021
2344 Clouds 13 1013 67 10000 4.12 180 14:27 20.02.2021
2345 Clouds 13 1013 67 10000 4.12 180 13:59 20.02.2021
2346 Clouds 13 1013 67 10000 4.12 180 13:40 20.02.2021
2347 Clouds 11 1014 71 10000 4.63 160 13:21 20.02.2021
2348 Clouds 12 1014 71 10000 4.63 160 12:46 20.02.2021
2349 Clouds 10 1014 71 10000 3.6 160 11:56 20.02.2021
2350 Clouds 9 1014 76 10000 3.6 160 11:38 20.02.2021
2351 Clouds 8 1014 76 10000 3.6 160 10:54 20.02.2021
2352 Clouds 8 1014 76 10000 5.14 170 10:32 20.02.2021
2353 Clouds 7 1014 76 10000 5.14 170 09:48 20.02.2021
2354 Clouds 6 1014 81 10000 4.12 160 09:18 20.02.2021
2355 Clouds 6 1014 81 10000 3.6 160 08:31 20.02.2021
2356 Clouds 6 1014 81 10000 3.6 160 07:50 20.02.2021
2357 Clouds 7 1014 76 10000 4.63 170 02:45 20.02.2021
2358 Clouds 7 1014 76 10000 4.63 170 02:21 20.02.2021
2359 Rain 8 1015 76 10000 4.63 170 01:22 20.02.2021
2360 Clouds 8 1015 76 10000 4.63 170 00:45 20.02.2021
2361 Clouds 8 1015 71 10000 4.63 170 23:43 19.02.2021
2362 Clouds 7 1015 76 10000 3.6 170 22:56 19.02.2021
2363 Clouds 7 1015 76 10000 4.12 170 22:26 19.02.2021
2364 Clouds 7 1015 76 10000 4.12 170 21:48 19.02.2021
2365 Clouds 7 1015 70 10000 4.63 170 21:28 19.02.2021
2366 Clouds 7 1015 70 10000 4.63 170 20:47 19.02.2021
2367 Clouds 7 1015 70 10000 3.6 170 20:27 19.02.2021
2368 Clouds 6 1015 70 10000 3.6 170 19:51 19.02.2021
2369 Clouds 6 1015 70 10000 3.09 160 19:23 19.02.2021
2370 Clouds 8 1015 70 10000 3.09 160 18:56 19.02.2021
2371 Clouds 8 1015 71 10000 2.57 180 18:33 19.02.2021
2372 Clouds 9 1015 71 10000 2.57 180 17:48 19.02.2021
2373 Clouds 9 1015 66 10000 4.12 200 16:51 19.02.2021
2374 Clouds 9 1015 71 10000 4.63 210 16:23 19.02.2021
2375 Clouds 9 1015 71 10000 4.63 210 15:57 19.02.2021
2376 Clouds 9 1015 71 10000 5.14 210 15:30 19.02.2021
2377 Clouds 9 1015 71 10000 5.14 210 14:56 19.02.2021
2378 Clouds 9 1015 71 10000 5.14 210 14:36 19.02.2021
2379 Clouds 7 1015 81 10000 5.66 220 13:58 19.02.2021
2380 Clouds 7 1015 81 10000 5.66 220 13:37 19.02.2021
2381 Clouds 7 1015 81 10000 5.66 220 13:19 19.02.2021
2382 Clouds 7 1015 81 10000 5.66 220 12:41 19.02.2021
2383 Clouds 7 1015 87 10000 6.17 220 12:22 19.02.2021
2384 Clouds 6 1015 87 10000 6.17 220 11:48 19.02.2021
2385 Clouds 6 1015 93 10000 6.17 230 11:22 19.02.2021
2386 Clouds 5 1015 93 10000 6.17 230 10:42 19.02.2021
2387 Clouds 5 1014 93 10000 4.63 230 10:20 19.02.2021
2388 Clouds 4 1014 87 10000 5.14 220 09:39 19.02.2021
2389 Clouds 4 1013 93 8000 4.63 220 09:21 19.02.2021
2390 Clouds 4 1013 93 8000 4.63 220 08:49 19.02.2021
2391 Clouds 4 1012 93 10000 4.12 230 08:22 19.02.2021
2392 Clouds 4 1012 93 10000 4.12 230 07:48 19.02.2021
2393 Clouds 4 1011 87 10000 5.14 240 07:27 19.02.2021
2394 Clouds 5 1011 87 10000 5.14 240 06:49 19.02.2021
2395 Clouds 5 1010 93 2800 5.66 240 05:21 19.02.2021
2396 Clouds 5 1010 93 2800 5.66 240 04:41 19.02.2021
2397 Clouds 5 1007 93 2900 5.66 250 01:47 19.02.2021
2398 Clouds 5 1006 93 2900 6.17 270 00:37 19.02.2021
2399 Clouds 6 1005 93 1600 4.63 210 23:54 18.02.2021
2400 Rain 6 1005 93 1600 4.63 210 23:34 18.02.2021
2401 Rain 7 1005 93 8000 3.6 190 22:47 18.02.2021
2402 Rain 7 1005 87 10000 5.66 160 22:28 18.02.2021
2403 Rain 7 1005 87 10000 5.66 160 21:47 18.02.2021
2404 Rain 7 1005 71 10000 5.66 170 21:25 18.02.2021
2405 Rain 7 1004 87 10000 5.14 160 21:25 18.02.2021
2406 Rain 8 1005 71 10000 5.66 170 20:41 18.02.2021
2407 Rain 8 1005 66 10000 5.66 160 20:23 18.02.2021
2408 Clouds 8 1005 66 10000 5.66 160 19:46 18.02.2021
2409 Rain 8 1005 66 10000 6.17 140 19:26 18.02.2021
2410 Clouds 8 1005 66 10000 6.17 140 18:53 18.02.2021
2411 Clouds 8 1006 71 10000 5.66 150 18:30 18.02.2021
2412 Clouds 8 1006 71 10000 5.66 150 17:53 18.02.2021
2413 Clouds 8 1007 71 10000 5.14 130 17:26 18.02.2021
2414 Clouds 8 1007 71 10000 5.14 130 16:56 18.02.2021
2415 Clouds 8 1007 71 10000 5.14 130 16:38 18.02.2021
2416 Rain 8 1008 66 10000 6.69 150 16:19 18.02.2021
2417 Rain 9 1008 66 10000 6.69 150 15:38 18.02.2021
2418 Rain 9 1009 62 10000 5.66 160 15:20 18.02.2021
2419 Clouds 11 1009 62 10000 5.66 160 14:48 18.02.2021
2420 Clouds 11 1010 66 10000 5.66 160 14:29 18.02.2021
2421 Clouds 11 1010 66 10000 5.66 160 13:45 18.02.2021
2422 Clouds 9 1011 71 10000 5.14 160 13:19 18.02.2021
2423 Clouds 9 1011 71 10000 5.14 160 12:45 18.02.2021
2424 Clouds 9 1012 76 10000 4.63 150 12:22 18.02.2021
2425 Clouds 8 1012 76 10000 4.63 150 11:46 18.02.2021
2426 Clouds 8 1013 81 10000 4.12 150 11:26 18.02.2021
2427 Clouds 7 1013 81 10000 4.12 150 10:47 18.02.2021
2428 Clouds 6 1013 87 10000 3.6 170 10:29 18.02.2021
2429 Clouds 6 1013 87 10000 3.6 170 09:49 18.02.2021
2430 Clouds 6 1014 87 10000 4.63 170 09:24 18.02.2021
2431 Clouds 7 1014 87 10000 4.63 170 08:47 18.02.2021
2432 Clouds 7 1013 87 10000 4.12 170 08:25 18.02.2021
2433 Clouds 7 1013 87 10000 4.12 170 07:35 18.02.2021
2434 Clouds 7 1014 81 10000 3.6 180 06:54 18.02.2021
2435 Clouds 7 1014 87 2800 3.09 200 03:31 18.02.2021
2436 Clouds 8 1015 87 2800 3.6 200 23:56 17.02.2021
2437 Clouds 8 1014 93 10000 3.6 190 23:30 17.02.2021
2438 Clouds 7 1014 93 10000 3.6 190 22:54 17.02.2021
2439 Drizzle 7 1014 87 8000 3.6 200 22:27 17.02.2021
2440 Drizzle 8 1015 87 6000 3.6 200 21:57 17.02.2021
2441 Drizzle 8 1014 100 7000 3.6 190 21:22 17.02.2021
2442 Drizzle 7 1014 100 7000 3.6 190 20:52 17.02.2021
2443 Drizzle 7 1014 100 7000 3.6 190 20:32 17.02.2021
2444 Clouds 7 1014 93 8000 3.6 190 19:51 17.02.2021
2445 Drizzle 7 1014 93 8000 3.6 190 19:32 17.02.2021
2446 Drizzle 7 1014 93 8000 3.6 190 18:49 17.02.2021
2447 Clouds 7 1014 93 7000 3.09 200 18:30 17.02.2021
2448 Clouds 8 1014 93 7000 3.09 200 17:42 17.02.2021
2449 Clouds 8 1014 93 9000 3.6 210 17:21 17.02.2021
2450 Clouds 8 1014 93 9000 3.09 210 16:49 17.02.2021
2451 Clouds 8 1014 93 8000 2.57 220 16:28 17.02.2021
2452 Clouds 8 1014 93 8000 2.57 220 15:45 17.02.2021
2453 Clouds 8 1014 87 9000 3.6 250 15:27 17.02.2021
2454 Clouds 8 1014 87 9000 3.6 250 15:27 17.02.2021
2455 Clouds 7 1014 87 9000 3.6 250 14:51 17.02.2021
2456 Clouds 7 1013 93 9000 5.66 250 14:29 17.02.2021
2457 Clouds 6 1013 93 9000 5.66 250 13:52 17.02.2021
2458 Clouds 6 1013 93 9000 5.66 250 13:33 17.02.2021
2459 Clouds 6 1013 93 9000 5.66 250 12:58 17.02.2021
2460 Clouds 6 1013 93 6000 4.63 240 12:26 17.02.2021
2461 Clouds 6 1013 93 6000 4.63 240 11:48 17.02.2021
2462 Clouds 6 1012 93 6000 5.66 250 11:29 17.02.2021
2463 Clouds 6 1012 93 6000 5.66 250 10:56 17.02.2021
2464 Clouds 6 1012 93 6000 5.66 250 10:38 17.02.2021
2465 Mist 6 1011 93 5000 5.66 250 10:19 17.02.2021
2466 Mist 5 1011 100 3800 5.14 250 09:38 17.02.2021
2467 Mist 5 1011 100 2800 5.66 250 08:58 17.02.2021
2468 Mist 5 1011 100 2800 5.66 250 08:37 17.02.2021
2469 Mist 5 1010 100 2000 5.66 250 08:18 17.02.2021
2470 Fog 5 1009 100 800 5.66 250 06:48 17.02.2021
2471 Clouds 5 1007 100 2200 5.66 240 03:53 17.02.2021
2472 Rain 4 1007 100 1800 7.2 250 02:33 17.02.2021
2473 Rain 5 1006 100 2100 4.63 220 01:37 17.02.2021
2474 Rain 5 1006 93 2600 3.6 210 00:28 17.02.2021
2475 Clouds 5 1006 93 2600 3.6 210 23:49 16.02.2021
2476 Rain 5 1007 87 10000 3.09 180 23:25 16.02.2021
2477 Rain 5 1007 87 10000 3.09 180 22:42 16.02.2021
2478 Rain 5 1007 93 8000 3.6 160 22:22 16.02.2021
2479 Clouds 5 1007 93 8000 3.6 160 21:40 16.02.2021
2480 Mist 5 1008 93 5000 4.12 160 21:22 16.02.2021
2481 Mist 5 1008 93 5000 4.12 160 20:58 16.02.2021
2482 Rain 5 1008 93 5000 4.12 160 20:38 16.02.2021
2483 Mist 5 1009 93 5000 4.12 160 20:20 16.02.2021
2484 Mist 5 1009 93 5000 4.12 160 19:40 16.02.2021
2485 Mist 4 1009 100 5000 4.63 170 19:21 16.02.2021
2486 Mist 4 1009 100 5000 4.63 170 18:38 16.02.2021
2487 Mist 5 1010 93 4000 4.12 160 18:19 16.02.2021
2488 Rain 5 1010 93 4000 4.12 160 17:49 16.02.2021
2489 Rain 5 1010 93 3800 4.12 160 17:23 16.02.2021
2490 Mist 5 1010 93 3500 4.63 160 16:47 16.02.2021
2491 Rain 4 1010 100 2500 4.63 140 16:24 16.02.2021
2492 Mist 4 1011 100 2200 4.63 150 15:47 16.02.2021
2493 Mist 4 1012 100 2000 3.6 180 15:26 16.02.2021
2494 Fog 4 1012 100 900 5.14 160 14:48 16.02.2021
2495 Fog 4 1013 100 700 4.63 170 14:29 16.02.2021
2496 Fog 4 1013 100 700 4.63 170 13:57 16.02.2021
2497 Fog 4 1013 100 800 4.12 170 13:34 16.02.2021
2498 Mist 4 1014 100 1100 3.6 190 12:46 16.02.2021
2499 Mist 3 1015 100 1400 3.6 180 12:24 16.02.2021
2500 Mist 3 1015 100 1400 3.6 180 11:50 16.02.2021
2501 Rain 3 1014 100 700 4.12 130 11:24 16.02.2021
2502 Rain 3 1015 100 800 3.6 160 10:56 16.02.2021
2503 Drizzle 3 1016 100 800 3.6 180 10:38 16.02.2021
2504 Rain 3 1016 100 800 3.6 180 10:20 16.02.2021
2505 Fog 3 1016 100 800 3.6 180 09:47 16.02.2021
2506 Fog 3 1016 100 800 3.6 180 09:47 16.02.2021
2507 Fog 2 1016 100 500 2.57 190 09:26 16.02.2021
2508 Fog 2 1017 100 300 3.09 180 08:42 16.02.2021
2509 Fog 2 1016 100 200 3.09 140 08:21 16.02.2021
2510 Drizzle 2 1017 100 200 3.6 210 07:25 16.02.2021
2511 Fog 2 1018 100 400 3.09 200 05:31 16.02.2021
2512 Clouds 2 1019 100 250 3.6 230 00:51 16.02.2021
2513 Clouds 2 1019 100 250 2.57 240 23:41 15.02.2021
2514 Drizzle 2 1019 100 600 3.6 230 23:20 15.02.2021
2515 Drizzle 2 1019 100 800 3.6 230 22:44 15.02.2021
2516 Fog 2 1019 100 800 4.63 220 22:21 15.02.2021
2517 Fog 2 1019 100 800 4.63 220 21:42 15.02.2021
2518 Mist 2 1019 100 1400 3.09 210 21:21 15.02.2021
2519 Drizzle 2 1019 100 1800 3.09 210 20:47 15.02.2021
2520 Mist 2 1019 93 2200 3.09 200 20:27 15.02.2021
2521 Drizzle 1 1019 93 2000 3.6 200 19:44 15.02.2021
2522 Rain 1 1019 100 3500 3.6 200 19:23 15.02.2021
2523 Clouds 1 1019 100 6000 2.06 200 18:47 15.02.2021
2524 Rain 1 1019 100 5000 2.06 220 18:26 15.02.2021
2525 Clouds 1 1016 89 10000 1.79 180 17:43 15.02.2021
2526 Snow 1 1016 89 10000 1.79 180 17:25 15.02.2021
2527 Snow 1 1017 87 10000 2.68 180 16:57 15.02.2021
2528 Snow 0 1020 86 3000 4.63 170 16:28 15.02.2021
2529 Rain 0 1020 93 7000 5.14 160 15:57 15.02.2021
2530 Rain 0 1020 93 7000 5.14 160 15:38 15.02.2021
2531 Snow 0 1021 86 8000 5.66 170 15:18 15.02.2021
2532 Snow 0 1021 86 8000 5.66 170 14:38 15.02.2021
2533 Snow 0 1022 74 7000 4.63 160 14:19 15.02.2021
2534 Rain 0 1022 69 8000 5.14 160 13:47 15.02.2021
2535 Rain 1 1023 44 10000 6.69 160 13:19 15.02.2021
2536 Rain 1 1023 44 10000 6.69 160 12:45 15.02.2021
2537 Rain 1 1023 44 10000 6.17 160 12:21 15.02.2021
2538 Snow 1 1024 40 10000 6.17 160 11:45 15.02.2021
2539 Snow 0 1024 43 10000 6.69 150 11:22 15.02.2021
2540 Snow 0 1024 43 10000 6.69 150 11:22 15.02.2021
2541 Snow 0 1024 43 10000 6.69 150 10:49 15.02.2021
2542 Snow 0 1025 40 10000 6.69 160 10:25 15.02.2021
2543 Snow 0 1025 40 10000 6.69 160 09:55 15.02.2021
2544 Snow 0 1025 37 10000 6.69 150 09:33 15.02.2021
2545 Snow 0 1025 37 10000 6.69 150 08:50 15.02.2021
2546 Snow 0 1026 37 10000 5.66 160 07:49 15.02.2021
2547 Clouds 0 1027 37 10000 7.72 150 06:59 15.02.2021
2548 Clouds 0 1027 37 10000 7.72 150 06:40 15.02.2021
2549 Clouds 0 1032 40 5000 5.66 150 02:32 15.02.2021
2550 Clouds 0 1031 40 5000 6.69 150 02:32 15.02.2021
2551 Clouds 0 1033 43 5000 4.63 160 00:55 15.02.2021
2552 Clouds -1 1033 47 5000 4.12 140 23:42 14.02.2021
2553 Clouds -1 1034 47 10000 4.63 140 23:22 14.02.2021
2554 Clouds -1 1034 47 10000 4.63 140 22:39 14.02.2021
2555 Clouds -1 1035 47 10000 5.14 150 22:19 14.02.2021
2556 Clouds -1 1035 47 10000 5.14 150 21:48 14.02.2021
2557 Clouds -1 1035 51 10000 3.6 150 21:29 14.02.2021
2558 Clouds -2 1035 51 10000 3.6 150 20:52 14.02.2021
2559 Clouds -1 1036 51 10000 4.12 150 20:27 14.02.2021
2560 Clouds -1 1036 51 10000 4.12 150 19:49 14.02.2021
2561 Clouds -1 1036 51 10000 5.14 150 18:58 14.02.2021
2562 Clouds -1 1036 51 10000 5.14 150 18:37 14.02.2021
2563 Clouds 0 1036 47 10000 5.14 150 17:57 14.02.2021
2564 Clouds 0 1036 47 10000 5.14 150 17:39 14.02.2021
2565 Clouds 1 1037 44 10000 4.12 150 16:55 14.02.2021
2566 Clouds 1 1037 44 10000 4.12 150 16:33 14.02.2021
2567 Clouds 1 1038 44 10000 4.12 150 15:53 14.02.2021
2568 Clouds 1 1038 44 10000 4.12 150 15:35 14.02.2021
2569 Clouds 1 1038 44 10000 3.6 150 14:51 14.02.2021
2570 Clouds 1 1039 47 10000 3.09 140 14:27 14.02.2021
2571 Clouds 1 1039 47 10000 3.09 140 13:54 14.02.2021
2572 Clouds -1 1039 55 10000 2.57 140 13:30 14.02.2021
2573 Clouds -1 1039 55 10000 2.57 140 12:44 14.02.2021
2574 Clouds -3 1040 63 10000 3.09 160 12:20 14.02.2021
2575 Clouds -3 1040 63 10000 3.09 160 11:50 14.02.2021
2576 Clouds -5 1040 74 10000 3.09 150 11:21 14.02.2021
2577 Clouds -5 1040 74 10000 3.09 150 10:45 14.02.2021
2578 Clouds -8 1040 86 10000 2.06 140 09:57 14.02.2021
2579 Clouds -8 1040 86 10000 2.06 140 09:38 14.02.2021
2580 Clouds -10 1040 92 10000 2.06 140 09:20 14.02.2021
2581 Clouds -10 1040 92 10000 2.06 140 08:39 14.02.2021
2582 Clouds -10 1040 92 10000 2.57 140 07:56 14.02.2021
2583 Clouds -10 1040 92 10000 1.54 120 06:51 14.02.2021
2584 Clouds -9 1040 86 10000 2.57 150 05:42 14.02.2021
2585 Clouds -8 1041 93 4600 2.06 170 03:31 14.02.2021
2586 Clear -9 1041 92 4900 1.54 160 02:21 14.02.2021
2587 Clear -8 1042 93 4900 0.51 200 00:47 14.02.2021
2588 Clear -8 1041 86 5000 1.03 130 00:27 14.02.2021
2589 Clear -8 1041 86 5000 1.03 130 23:41 13.02.2021
2590 Clear -6 1042 86 10000 1.54 130 23:21 13.02.2021
2591 Clear -6 1042 86 10000 1.54 130 22:42 13.02.2021
2592 Clear -7 1042 93 10000 0.51 170 22:19 13.02.2021
2593 Clear -7 1042 93 10000 0.51 170 21:42 13.02.2021
2594 Clear -6 1042 86 10000 4.41 144 21:21 13.02.2021
2595 Clear -5 1042 80 10000 1.54 100 20:30 13.02.2021
2596 Clear -5 1042 80 10000 1.54 100 19:56 13.02.2021
2597 Clear -5 1042 80 10000 1.54 100 19:37 13.02.2021
2598 Clear -5 1042 74 10000 3.07 125 19:18 13.02.2021
2599 Clear -5 1042 74 10000 2.6 116 18:40 13.02.2021
2600 Clouds -3 1041 63 10000 2.06 70 18:20 13.02.2021
2601 Clouds -3 1041 63 10000 2.06 70 17:42 13.02.2021
2602 Clear -2 1041 64 10000 2.06 50 17:22 13.02.2021
2603 Clear -2 1041 64 10000 2.06 50 16:42 13.02.2021
2604 Clear -1 1042 69 10000 2.06 310 16:21 13.02.2021
2605 Clear -1 1042 69 10000 2.06 310 15:39 13.02.2021
2606 Clear -1 1042 69 10000 2.06 290 14:57 13.02.2021
2607 Clear 0 1042 59 10000 0.51 240 14:32 13.02.2021
2608 Clear 0 1042 59 10000 0.51 240 13:48 13.02.2021
2609 Clear -1 1042 64 10000 0.51 0 13:24 13.02.2021
2610 Clear -1 1042 64 10000 0.51 0 12:46 13.02.2021
2611 Clear -3 1042 74 10000 0.51 280 12:18 13.02.2021
2612 Clear -3 1042 74 10000 0.51 280 11:45 13.02.2021
2613 Clear -5 1042 93 10000 1.83 99 11:19 13.02.2021
2614 Clear -5 1042 93 10000 1.83 99 10:46 13.02.2021
2615 Clear -6 1042 93 10000 2.04 84 10:25 13.02.2021
2616 Clear -6 1042 93 10000 2.04 84 09:55 13.02.2021
2617 Fog -8 1041 93 10000 2.04 84 09:30 13.02.2021
2618 Fog -8 1041 93 10000 2.17 72 08:55 13.02.2021
2619 Fog -8 1041 93 10000 2.17 72 08:34 13.02.2021
2620 Fog -8 1041 93 10000 2.36 72 07:52 13.02.2021
2621 Fog -8 1041 93 10000 2.3 76 06:39 13.02.2021
2622 Clear -9 1041 92 3800 2.6 86 05:26 13.02.2021
2623 Clear -9 1041 100 3400 3.06 87 03:58 13.02.2021
2624 Clear -7 1041 93 4800 1.54 70 01:43 13.02.2021
2625 Clear -7 1041 86 5000 2.06 60 00:36 13.02.2021
2626 Clear -7 1040 79 5000 1.54 60 23:54 12.02.2021
2627 Clear -7 1040 79 10000 1.54 60 23:24 12.02.2021
2628 Clear -7 1040 79 10000 1.54 60 22:44 12.02.2021
2629 Clear -7 1040 79 10000 2.57 50 22:25 12.02.2021
2630 Clear -7 1040 79 10000 2.57 50 21:46 12.02.2021
2631 Clear -7 1040 73 10000 1.03 50 21:27 12.02.2021
2632 Clear -7 1040 73 10000 1.03 50 20:46 12.02.2021
2633 Clear -7 1039 68 10000 1.03 80 20:28 12.02.2021
2634 Clear -7 1039 68 10000 1.03 80 19:57 12.02.2021
2635 Clear -7 1039 68 10000 1.03 80 19:37 12.02.2021
2636 Clouds -6 1039 63 10000 1.54 70 18:57 12.02.2021
2637 Clouds -4 1039 50 10000 2.57 90 18:30 12.02.2021
2638 Clouds -4 1039 50 10000 2.57 90 17:46 12.02.2021
2639 Clouds -3 1039 50 10000 4.63 80 17:21 12.02.2021
2640 Clouds -2 1038 50 10000 4.63 80 16:28 12.02.2021
2641 Clouds -2 1038 50 10000 4.63 80 15:46 12.02.2021
2642 Clouds -3 1038 54 10000 5.14 80 15:21 12.02.2021
2643 Clouds -3 1038 54 10000 5.14 80 14:42 12.02.2021
2644 Clouds -3 1038 54 10000 5.14 80 14:42 12.02.2021
2645 Clouds -3 1038 59 10000 5.14 90 14:23 12.02.2021
2646 Clouds -3 1038 59 10000 5.14 90 13:41 12.02.2021
2647 Clouds -3 1038 63 10000 5.66 90 13:22 12.02.2021
2648 Clouds -3 1038 63 10000 5.66 90 12:47 12.02.2021
2649 Clouds -4 1038 74 10000 5.66 80 12:28 12.02.2021
2650 Clouds -4 1038 74 10000 5.66 80 11:42 12.02.2021
2651 Clouds -5 1037 80 10000 4.63 60 11:19 12.02.2021
2652 Clouds -5 1037 80 10000 4.63 60 10:41 12.02.2021
2653 Clouds -6 1037 79 10000 4.63 50 09:49 12.02.2021
2654 Clouds -9 1037 79 10000 3.09 60 09:29 12.02.2021
2655 Clouds -9 1037 79 10000 3.09 60 08:49 12.02.2021
2656 Clouds -9 1036 86 10000 3.6 50 08:28 12.02.2021
2657 Clouds -9 1036 86 10000 3.6 50 07:57 12.02.2021
2658 Clouds -9 1036 79 10000 3.09 40 07:35 12.02.2021
2659 Clouds -9 1036 79 10000 3.09 40 06:55 12.02.2021
2660 Clouds -9 1036 86 10000 3.09 40 05:47 12.02.2021
2661 Clouds -8 1035 79 5000 2.57 40 04:32 12.02.2021
2662 Clouds -7 1035 86 5000 2.57 70 01:35 12.02.2021
2663 Clouds -7 1034 86 5000 2.57 50 23:41 11.02.2021
2664 Clouds -7 1034 86 10000 3.6 60 23:22 11.02.2021
2665 Clouds -7 1034 86 10000 3.6 60 22:47 11.02.2021
2666 Clouds -5 1033 80 10000 3.6 50 22:25 11.02.2021
2667 Clouds -5 1033 80 10000 3.6 50 21:59 11.02.2021
2668 Clouds -5 1033 80 10000 3.6 50 21:38 11.02.2021
2669 Clouds -4 1033 86 10000 2.57 80 21:18 11.02.2021
2670 Clouds -4 1033 86 10000 2.57 80 20:42 11.02.2021
2671 Clouds -5 1033 93 8000 3.09 60 20:21 11.02.2021
2672 Clouds -4 1032 86 10000 2.57 60 19:48 11.02.2021
2673 Clouds -4 1032 86 10000 3.09 60 19:28 11.02.2021
2674 Clouds -4 1032 86 10000 2.06 50 18:53 11.02.2021
2675 Snow -4 1031 86 8000 3.6 60 18:28 11.02.2021
2676 Snow -4 1031 86 8000 3.6 60 17:53 11.02.2021
2677 Clouds -3 1031 86 10000 4.63 50 17:22 11.02.2021
2678 Snow -3 1031 80 3500 3.6 50 16:57 11.02.2021
2679 Clouds -2 1031 74 9000 4.12 30 16:39 11.02.2021
2680 Clouds -2 1030 74 10000 3.6 40 16:20 11.02.2021
2681 Clouds -2 1030 74 10000 3.6 40 15:41 11.02.2021
2682 Clouds -2 1030 74 10000 4.12 40 15:23 11.02.2021
2683 Clouds -2 1030 74 10000 4.12 40 14:44 11.02.2021
2684 Clouds -2 1030 74 10000 3.6 30 14:25 11.02.2021
2685 Clouds -2 1030 74 10000 3.6 30 13:38 11.02.2021
2686 Clouds -2 1030 74 10000 3.09 60 13:19 11.02.2021
2687 Clouds -2 1030 74 10000 3.09 60 12:44 11.02.2021
2688 Clouds -2 1029 74 10000 2.57 50 12:21 11.02.2021
2689 Clouds -2 1029 74 10000 2.57 50 11:42 11.02.2021
2690 Clouds -3 1029 80 10000 2.57 20 11:21 11.02.2021
2691 Clouds -3 1029 80 10000 2.57 20 10:44 11.02.2021
2692 Snow -4 1028 86 10000 1.54 10 10:25 11.02.2021
2693 Snow -4 1028 86 10000 1.54 10 09:53 11.02.2021
2694 Clouds -7 1028 93 10000 1.03 330 09:22 11.02.2021
2695 Clouds -7 1028 93 10000 1.03 330 08:51 11.02.2021
2696 Clouds -8 1027 93 10000 1.03 350 08:21 11.02.2021
2697 Clouds -7 1027 93 10000 2.57 20 06:58 11.02.2021
2698 Clouds -7 1027 93 10000 2.57 20 06:35 11.02.2021
2699 Clouds -7 1025 93 5000 2.06 10 04:55 11.02.2021
2700 Clouds -6 1024 79 5000 2.57 360 02:29 11.02.2021
2701 Clouds -6 1023 86 4900 2.57 360 00:50 11.02.2021
2702 Clouds -5 1022 74 5000 2.57 360 00:20 11.02.2021
2703 Clouds -5 1022 74 5000 2.57 360 23:40 10.02.2021
2704 Clouds -5 1022 74 10000 3.6 20 22:52 10.02.2021
2705 Clouds -4 1021 68 10000 4.12 30 22:29 10.02.2021
2706 Clouds -4 1021 68 10000 4.12 30 22:29 10.02.2021
2707 Clouds -4 1021 68 10000 4.12 30 21:58 10.02.2021
2708 Clouds -4 1021 68 10000 4.12 30 21:38 10.02.2021
2709 Clouds -4 1020 74 10000 4.12 30 21:19 10.02.2021
2710 Clouds -4 1020 74 10000 4.12 30 20:40 10.02.2021
2711 Clouds -4 1019 74 10000 3.09 20 20:22 10.02.2021
2712 Clouds -4 1019 74 10000 3.09 20 19:45 10.02.2021
2713 Clouds -4 1018 74 10000 4.12 30 19:24 10.02.2021
2714 Clouds -4 1018 74 10000 4.12 30 18:40 10.02.2021
2715 Clouds -3 1017 68 10000 3.09 30 18:22 10.02.2021
2716 Clouds -3 1017 68 10000 3.09 30 17:51 10.02.2021
2717 Clouds -2 1016 69 10000 6.69 40 17:23 10.02.2021
2718 Clouds -2 1016 69 10000 6.69 40 16:53 10.02.2021
2719 Clouds -2 1016 69 10000 5.66 30 16:30 10.02.2021
2720 Clouds -2 1016 69 10000 5.66 30 15:54 10.02.2021
2721 Clouds -2 1015 74 10000 5.66 40 15:23 10.02.2021
2722 Clouds -2 1015 74 10000 4.12 40 14:47 10.02.2021
2723 Clouds -3 1014 80 10000 5.66 30 14:27 10.02.2021
2724 Clouds -3 1014 80 10000 5.66 30 13:51 10.02.2021
2725 Clouds -3 1014 80 10000 5.66 30 13:28 10.02.2021
2726 Clouds -3 1014 80 10000 5.66 30 12:48 10.02.2021
2727 Clouds -3 1014 80 10000 6.69 30 12:29 10.02.2021
2728 Clouds -3 1014 80 10000 6.69 30 11:48 10.02.2021
2729 Clouds -3 1013 74 10000 6.17 30 11:29 10.02.2021
2730 Clouds -3 1013 74 10000 6.17 30 10:52 10.02.2021
2731 Clouds -4 1013 80 10000 5.66 30 10:21 10.02.2021
2732 Clouds -3 1012 74 10000 6.17 40 09:44 10.02.2021
2733 Clouds -4 1012 80 10000 6.17 40 09:22 10.02.2021
2734 Clouds -4 1012 80 10000 6.17 40 08:50 10.02.2021
2735 Clouds -4 1011 80 10000 6.17 40 08:30 10.02.2021
2736 Clouds -4 1011 86 10000 6.69 40 07:22 10.02.2021
2737 Clouds -4 1010 93 5000 5.14 40 04:54 10.02.2021
2738 Clouds -4 1010 86 5000 4.63 40 01:20 10.02.2021
2739 Clouds -4 1010 86 5000 5.66 40 23:42 09.02.2021
2740 Clouds -4 1010 86 10000 5.14 40 23:23 09.02.2021
2741 Clouds -4 1010 86 10000 5.14 40 22:41 09.02.2021
2742 Clouds -4 1010 86 10000 5.14 40 22:23 09.02.2021
2743 Clouds -4 1010 86 10000 5.14 40 21:42 09.02.2021
2744 Clouds -4 1010 86 10000 6.17 40 21:19 09.02.2021
2745 Clouds -4 1010 86 10000 6.17 40 20:42 09.02.2021
2746 Snow -3 1010 80 10000 5.66 40 20:24 09.02.2021
2747 Snow -3 1010 80 10000 5.66 40 19:42 09.02.2021
2748 Snow -3 1010 80 10000 5.66 50 19:22 09.02.2021
2749 Snow -3 1010 80 10000 6.17 40 18:43 09.02.2021
2750 Clouds -3 1010 80 10000 6.17 40 18:25 09.02.2021
2751 Clouds -3 1010 80 10000 6.17 40 17:47 09.02.2021
2752 Clouds -2 1009 74 10000 6.17 40 17:26 09.02.2021
2753 Clouds -2 1009 74 10000 6.17 40 16:52 09.02.2021
2754 Clouds -2 1009 74 10000 7.72 50 16:19 09.02.2021
2755 Clouds -2 1009 74 10000 7.72 50 15:51 09.02.2021
2756 Clouds -2 1008 74 10000 8.23 40 15:29 09.02.2021
2757 Clouds -2 1008 74 10000 8.23 40 14:59 09.02.2021
2758 Clouds -2 1008 74 10000 9.26 40 14:30 09.02.2021
2759 Clouds -2 1008 74 10000 9.26 40 13:59 09.02.2021
2760 Clouds -2 1008 74 10000 9.26 40 13:39 09.02.2021
2761 Snow -2 1008 74 10000 8.23 40 13:19 09.02.2021
2762 Snow -2 1008 74 10000 8.23 40 12:41 09.02.2021
2763 Snow -2 1008 74 10000 8.23 40 12:22 09.02.2021
2764 Snow -2 1008 74 10000 8.23 40 11:44 09.02.2021
2765 Clouds -3 1008 74 10000 8.23 50 11:21 09.02.2021
2766 Clouds -3 1008 74 10000 8.23 50 10:56 09.02.2021
2767 Clouds -3 1008 74 10000 7.72 50 10:20 09.02.2021
2768 Clouds -3 1008 74 10000 7.72 50 09:51 09.02.2021
2769 Clouds -3 1007 74 10000 8.23 40 09:26 09.02.2021
2770 Clouds -3 1007 74 10000 8.23 40 08:53 09.02.2021
2771 Snow -4 1007 80 10000 8.75 40 08:28 09.02.2021
2772 Snow -4 1007 80 10000 8.75 40 07:39 09.02.2021
2773 Snow -3 1007 80 10000 9.77 40 05:33 09.02.2021
2774 Clouds -3 1006 80 4300 9.26 40 03:47 09.02.2021
2775 Clouds -3 1006 86 4800 8.23 40 01:50 09.02.2021
2776 Clouds -3 1005 86 5000 7.72 40 00:18 09.02.2021
2777 Clouds -2 1005 74 10000 7.2 50 23:23 08.02.2021
2778 Clouds -2 1005 74 10000 7.2 50 22:59 08.02.2021
2779 Clouds -2 1005 74 10000 7.2 50 22:39 08.02.2021
2780 Snow -2 1005 74 10000 7.2 70 22:21 08.02.2021
2781 Snow -2 1005 74 10000 7.2 70 21:44 08.02.2021
2782 Clouds -2 1005 69 10000 9.77 60 21:21 08.02.2021
2783 Clouds -2 1005 69 10000 9.77 60 20:44 08.02.2021
2784 Clouds -2 1005 69 10000 10.29 60 20:24 08.02.2021
2785 Snow -2 1005 69 10000 10.8 60 19:49 08.02.2021
2786 Clouds -2 1005 69 10000 10.29 60 19:30 08.02.2021
2787 Clouds -2 1005 69 10000 10.29 60 18:59 08.02.2021
2788 Clouds -2 1005 69 10000 10.29 60 18:40 08.02.2021
2789 Clouds -2 1004 64 10000 9.77 70 18:18 08.02.2021
2790 Clouds -2 1004 64 10000 9.77 70 17:41 08.02.2021
2791 Clouds -2 1004 64 10000 12.35 70 17:22 08.02.2021
2792 Clouds -2 1004 64 10000 12.35 70 16:40 08.02.2021
2793 Clouds -2 1004 59 10000 10.8 80 16:20 08.02.2021
2794 Clouds -2 1004 59 10000 10.8 80 15:38 08.02.2021
2795 Clouds -1 1004 55 10000 11.83 70 15:19 08.02.2021
2796 Clouds -1 1004 55 10000 11.83 70 14:51 08.02.2021
2797 Clouds -1 1005 55 10000 12.86 70 14:29 08.02.2021
2798 Clouds -1 1005 55 10000 12.86 70 13:54 08.02.2021
2799 Clouds -2 1005 59 10000 13.38 70 13:28 08.02.2021
2800 Clouds -2 1005 59 10000 13.38 70 13:28 08.02.2021
2801 Clouds -2 1005 59 10000 13.38 70 12:42 08.02.2021
2802 Clouds -2 1006 59 10000 13.38 80 12:24 08.02.2021
2803 Clouds -2 1006 59 10000 13.38 80 11:42 08.02.2021
2804 Clouds -2 1006 59 10000 14.4 70 11:18 08.02.2021
2805 Clouds -2 1006 59 10000 14.4 70 10:39 08.02.2021
2806 Clouds -3 1006 63 10000 12.86 70 10:20 08.02.2021
2807 Clouds -3 1006 63 10000 12.86 70 09:48 08.02.2021
2808 Clouds -3 1006 63 10000 12.35 70 09:21 08.02.2021
2809 Clouds -3 1006 63 10000 12.35 70 08:31 08.02.2021
2810 Clouds -3 1006 63 10000 12.35 70 07:49 08.02.2021
2811 Clouds -3 1006 63 10000 12.86 70 06:51 08.02.2021
2812 Clouds -3 1007 68 5000 12.35 80 05:18 08.02.2021
2813 Clouds -3 1008 59 5000 10.8 90 02:27 08.02.2021
2814 Clouds -3 1009 59 5000 12.86 80 00:26 08.02.2021
2815 Clouds -3 1009 59 5000 12.86 80 23:55 07.02.2021
2816 Clouds -3 1009 59 5000 12.86 80 23:37 07.02.2021
2817 Clouds -3 1009 54 10000 12.35 90 23:18 07.02.2021
2818 Clouds -3 1009 54 10000 12.35 90 22:42 07.02.2021
2819 Clouds -3 1010 50 10000 12.35 90 22:24 07.02.2021
2820 Clouds -3 1010 50 10000 12.35 90 21:50 07.02.2021
2821 Clouds -3 1009 46 10000 13.89 80 21:26 07.02.2021
2822 Clouds -3 1009 46 10000 13.89 80 20:51 07.02.2021
2823 Clouds -3 1009 46 10000 13.89 80 20:33 07.02.2021
2824 Snow -3 1009 54 10000 15.43 80 19:54 07.02.2021
2825 Snow -3 1009 59 10000 15.43 90 19:30 07.02.2021
2826 Snow -3 1009 59 10000 15.43 90 19:30 07.02.2021
2827 Clouds -3 1009 50 10000 12.86 90 18:52 07.02.2021
2828 Clouds -3 1009 50 10000 12.86 90 18:52 07.02.2021
2829 Clouds -3 1009 50 10000 12.86 90 18:34 07.02.2021
2830 Clouds -3 1009 46 10000 13.89 80 17:59 07.02.2021
2831 Clouds -3 1009 46 10000 13.89 80 17:40 07.02.2021
2832 Clouds -4 1009 50 10000 12.35 80 17:19 07.02.2021
2833 Clouds -4 1009 50 10000 12.35 80 16:45 07.02.2021
2834 Snow -4 1009 50 10000 12.86 80 16:22 07.02.2021
2835 Snow -4 1009 50 10000 12.86 80 15:49 07.02.2021
2836 Clouds -4 1009 50 10000 12.86 80 15:28 07.02.2021
2837 Clouds -4 1009 50 10000 12.86 80 14:49 07.02.2021
2838 Clouds -4 1010 50 10000 13.89 80 14:30 07.02.2021
2839 Clouds -4 1010 50 10000 13.89 80 13:56 07.02.2021
2840 Clouds -4 1010 50 10000 13.38 80 13:34 07.02.2021
2841 Clouds -4 1010 50 10000 13.38 80 12:46 07.02.2021
2842 Clouds -4 1010 54 10000 11.83 80 12:23 07.02.2021
2843 Clouds -4 1010 54 10000 11.83 80 11:53 07.02.2021
2844 Clouds -4 1011 50 10000 12.35 90 11:27 07.02.2021
2845 Clouds -4 1011 50 10000 12.35 90 10:51 07.02.2021
2846 Clouds -4 1011 58 10000 12.35 80 10:27 07.02.2021
2847 Clouds -4 1011 58 10000 12.35 80 09:49 07.02.2021
2848 Clouds -4 1011 58 10000 11.83 80 09:24 07.02.2021
2849 Clouds -4 1011 58 10000 11.83 80 08:38 07.02.2021
2850 Clouds -4 1011 63 10000 14.4 80 07:47 07.02.2021
2851 Clouds -4 1013 68 10000 12.86 80 05:58 07.02.2021
2852 Clouds -4 1013 68 10000 12.86 80 05:58 07.02.2021
2853 Clouds -3 1014 59 5000 11.83 80 03:59 07.02.2021
2854 Clouds -3 1015 59 5000 9.77 90 01:51 07.02.2021
2855 Clouds -3 1016 59 5000 10.29 90 00:36 07.02.2021
2856 Clouds -3 1016 54 5000 11.32 90 23:48 06.02.2021
2857 Clouds -3 1016 63 10000 9.77 80 22:52 06.02.2021
2858 Clouds -3 1016 63 10000 9.77 80 21:45 06.02.2021
2859 Clouds -2 1017 64 10000 10.8 80 21:24 06.02.2021
2860 Clouds -2 1017 64 10000 10.8 80 20:53 06.02.2021
2861 Clouds -1 1017 64 10000 11.32 80 20:27 06.02.2021
2862 Clouds -1 1017 64 10000 11.32 80 19:59 06.02.2021
2863 Clouds -1 1017 64 10000 11.32 80 19:40 06.02.2021
2864 Clouds -1 1017 64 10000 10.8 80 19:19 06.02.2021
2865 Clouds -1 1017 64 10000 10.8 80 18:43 06.02.2021
2866 Clouds -1 1017 64 10000 9.26 90 18:24 06.02.2021
2867 Clouds -1 1017 64 10000 9.26 90 17:41 06.02.2021
2868 Clouds -1 1017 64 10000 9.77 90 17:21 06.02.2021
2869 Clouds -1 1017 64 10000 9.77 90 16:47 06.02.2021
2870 Clouds -1 1018 69 10000 9.26 90 16:29 06.02.2021
2871 Clouds -1 1018 69 10000 9.26 90 15:52 06.02.2021
2872 Clouds 0 1018 59 10000 8.75 90 15:29 06.02.2021
2873 Clouds 0 1018 59 10000 8.75 90 14:57 06.02.2021
2874 Clouds 0 1018 59 10000 8.75 90 14:37 06.02.2021
2875 Clouds -1 1018 69 10000 9.77 90 14:18 06.02.2021
2876 Clouds -1 1018 69 10000 9.77 90 13:43 06.02.2021
2877 Clouds -1 1018 64 10000 9.26 90 12:36 06.02.2021
2878 Clouds -1 1018 64 10000 9.26 90 12:18 06.02.2021
2879 Clouds -1 1018 64 10000 9.26 90 11:40 06.02.2021
2880 Clouds -1 1019 59 10000 8.23 90 11:20 06.02.2021
2881 Clouds -1 1019 59 10000 8.23 90 10:52 06.02.2021
2882 Clouds -1 1019 59 10000 8.23 90 10:26 06.02.2021
2883 Clouds -1 1019 59 10000 8.23 90 09:38 06.02.2021
2884 Clouds -1 1018 64 10000 8.23 90 09:19 06.02.2021
2885 Clouds -1 1018 64 10000 8.23 90 08:59 06.02.2021
2886 Clouds -1 1018 69 10000 8.23 90 08:29 06.02.2021
2887 Clouds -1 1017 69 10000 8.23 90 06:58 06.02.2021
2888 Snow -1 1017 74 10000 8.75 80 05:41 06.02.2021
2889 Snow -1 1017 74 3700 8.23 90 02:52 06.02.2021
2890 Clouds 0 1017 69 5000 8.75 90 00:59 06.02.2021
2891 Clouds 0 1017 69 5000 8.75 90 00:41 06.02.2021
2892 Clouds 0 1017 74 5000 7.72 90 00:18 06.02.2021
2893 Clouds 0 1017 74 5000 7.72 90 23:35 05.02.2021
2894 Clouds 0 1017 74 5000 7.72 90 23:35 05.02.2021
2895 Snow 0 1017 74 10000 7.72 90 22:56 05.02.2021
2896 Snow 0 1017 74 10000 7.72 90 22:25 05.02.2021
2897 Snow 0 1017 74 10000 7.72 90 21:59 05.02.2021
2898 Snow 0 1017 74 10000 7.72 90 21:59 05.02.2021
2899 Snow 0 1017 74 10000 7.72 90 21:39 05.02.2021
2900 Snow 0 1016 80 10000 6.17 90 20:58 05.02.2021
2901 Snow 0 1016 80 10000 6.17 90 20:37 05.02.2021
2902 Snow 1 1016 80 9000 6.17 90 19:47 05.02.2021
2903 Snow 1 1015 80 10000 5.66 90 19:19 05.02.2021
2904 Snow 1 1015 80 10000 5.66 90 18:43 05.02.2021
2905 Snow 1 1015 80 10000 5.66 90 18:43 05.02.2021
2906 Snow 1 1015 80 10000 6.69 90 18:19 05.02.2021
2907 Snow 1 1015 80 10000 6.69 90 17:42 05.02.2021
2908 Snow 1 1015 86 10000 6.17 90 17:21 05.02.2021
2909 Snow 1 1015 86 10000 6.17 90 16:44 05.02.2021
2910 Snow 1 1015 86 9000 5.66 90 16:23 05.02.2021
2911 Snow 1 1015 86 9000 5.66 90 15:51 05.02.2021
2912 Snow 1 1015 86 9000 6.17 90 15:25 05.02.2021
2913 Snow 1 1015 86 9000 6.17 90 14:40 05.02.2021
2914 Snow 1 1015 86 9000 6.17 100 14:21 05.02.2021
2915 Snow 1 1015 86 9000 6.17 100 13:57 05.02.2021
2916 Snow 1 1015 86 9000 6.17 100 13:33 05.02.2021
2917 Snow 1 1016 86 9000 6.17 90 12:46 05.02.2021
2918 Snow 1 1016 86 9000 6.17 90 12:25 05.02.2021
2919 Snow 1 1016 86 9000 6.17 90 11:40 05.02.2021
2920 Snow 0 1016 93 8000 6.69 90 11:21 05.02.2021
2921 Clouds 0 1016 93 8000 6.69 90 10:54 05.02.2021
2922 Clouds 0 1016 93 8000 6.17 90 10:26 05.02.2021
2923 Clouds 0 1016 93 8000 6.17 90 09:47 05.02.2021
2924 Clouds 0 1016 93 10000 6.17 90 09:27 05.02.2021
2925 Clouds 0 1016 93 10000 6.17 90 08:52 05.02.2021
2926 Clouds 0 1016 93 10000 5.66 80 08:20 05.02.2021
2927 Clouds 0 1016 93 10000 5.66 80 07:36 05.02.2021
2928 Clouds 0 1016 93 10000 4.63 90 06:49 05.02.2021
2929 Clouds 0 1016 93 10000 4.63 90 05:37 05.02.2021
2930 Clouds 0 1016 93 4600 4.12 90 02:52 05.02.2021
2931 Clouds 0 1016 93 4500 4.63 90 02:24 05.02.2021
2932 Clouds 0 1017 93 5000 5.14 80 00:40 05.02.2021
2933 Clouds 0 1017 93 5000 4.63 90 00:20 05.02.2021
2934 Clouds 0 1017 93 5000 4.63 90 23:55 04.02.2021
2935 Clouds 0 1017 93 5000 4.63 90 23:37 04.02.2021
2936 Clouds 0 1017 93 10000 3.6 90 23:19 04.02.2021
2937 Clouds 0 1017 93 10000 3.6 90 22:49 04.02.2021
2938 Clouds 0 1016 93 10000 4.12 90 22:25 04.02.2021
2939 Clouds 0 1016 93 10000 4.12 90 21:42 04.02.2021
2940 Snow 0 1016 93 8000 4.63 90 21:19 04.02.2021
2941 Snow 0 1016 93 8000 4.63 90 20:48 04.02.2021
2942 Snow 0 1016 93 6000 3.6 90 20:29 04.02.2021
2943 Snow 0 1016 93 5000 3.6 90 19:43 04.02.2021
2944 Clouds 1 1016 86 10000 3.6 90 18:57 04.02.2021
2945 Clouds 1 1016 86 10000 3.6 90 18:26 04.02.2021
2946 Clouds 1 1016 86 10000 3.6 90 17:53 04.02.2021
2947 Clouds 1 1016 86 10000 3.6 90 17:53 04.02.2021
2948 Clouds 1 1015 93 10000 4.12 90 17:28 04.02.2021
2949 Clouds 1 1015 93 10000 4.12 90 16:57 04.02.2021
2950 Clouds 1 1015 93 10000 4.12 90 16:38 04.02.2021
2951 Clouds 1 1015 93 10000 5.66 80 16:18 04.02.2021
2952 Clouds 1 1015 93 10000 5.66 80 15:40 04.02.2021
2953 Clouds 1 1015 93 10000 6.17 80 15:20 04.02.2021
2954 Clouds 1 1015 93 10000 6.17 80 15:20 04.02.2021
2955 Clouds 1 1015 93 10000 6.17 80 14:48 04.02.2021
2956 Clouds 0 1015 100 8000 5.66 80 14:21 04.02.2021
2957 Clouds 0 1015 100 8000 5.66 80 13:45 04.02.2021
2958 Mist 0 1014 100 3500 5.14 70 13:26 04.02.2021
2959 Snow 0 1014 100 3500 5.14 70 12:54 04.02.2021
2960 Snow 0 1014 93 2000 5.66 70 11:57 04.02.2021
2961 Mist 0 1014 93 2000 5.66 70 11:37 04.02.2021
2962 Mist 0 1013 100 2000 6.69 80 11:18 04.02.2021
2963 Snow 0 1013 100 2000 6.69 80 10:35 04.02.2021
2964 Snow 0 1012 100 2500 7.2 80 09:46 04.02.2021
2965 Snow 0 1011 100 1500 6.69 80 09:23 04.02.2021
2966 Snow 0 1011 100 1200 5.66 80 08:58 04.02.2021
2967 Snow 0 1010 100 1500 6.17 80 08:27 04.02.2021
2968 Snow 0 1010 100 1500 6.17 70 07:58 04.02.2021
2969 Snow 0 1010 100 1500 6.17 70 07:35 04.02.2021
2970 Snow 0 1008 100 2000 5.66 70 06:53 04.02.2021
2971 Snow 0 1008 100 2000 5.66 70 06:34 04.02.2021
2972 Rain 1 1003 93 2200 4.63 60 02:43 04.02.2021
2973 Snow 1 1002 93 5000 4.12 60 02:24 04.02.2021
2974 Rain 1 1000 93 4000 5.66 60 00:32 04.02.2021
2975 Drizzle 1 999 93 3000 5.66 70 23:39 03.02.2021
2976 Drizzle 1 999 93 3000 5.66 70 22:42 03.02.2021
2977 Drizzle 1 997 93 4000 7.72 70 22:22 03.02.2021
2978 Drizzle 1 997 93 4000 7.72 70 21:56 03.02.2021
2979 Snow 1 997 93 5000 6.69 80 21:36 03.02.2021
2980 Drizzle 1 997 93 5000 6.69 80 21:18 03.02.2021
2981 Snow 1 997 93 5000 6.69 80 20:38 03.02.2021
2982 Rain 1 996 93 3500 7.72 70 20:19 03.02.2021
2983 Mist 1 996 93 3500 7.72 70 19:42 03.02.2021
2984 Rain 1 996 93 3500 7.2 70 19:19 03.02.2021
2985 Mist 1 995 93 5000 7.2 80 18:46 03.02.2021
2986 Rain 0 995 100 3500 7.72 70 18:20 03.02.2021
2987 Mist 0 995 100 3500 7.72 70 17:51 03.02.2021
2988 Rain 0 995 100 2500 7.2 70 17:30 03.02.2021
2989 Rain 0 995 100 2500 7.2 70 16:56 03.02.2021
2990 Rain 2 996 96 5457 12.24 80 16:30 03.02.2021
2991 Rain 2 996 95 10000 12.52 79 15:46 03.02.2021
2992 Rain 2 996 94 10000 12.46 83 15:25 03.02.2021
2993 Rain 2 996 94 10000 12.46 83 14:54 03.02.2021
2994 Rain 2 997 94 10000 12.9 85 14:26 03.02.2021
2995 Rain 2 997 94 10000 12.9 85 13:54 03.02.2021
2996 Rain 1 997 94 10000 12.81 84 13:29 03.02.2021
2997 Rain 2 997 95 10000 12.69 85 12:52 03.02.2021
2998 Rain 0 996 100 2200 4.12 110 12:27 03.02.2021
2999 Rain 0 996 100 2200 4.12 110 11:59 03.02.2021
3000 Rain 0 996 100 2200 4.12 110 11:37 03.02.2021
3001 Rain 0 996 100 2800 4.12 100 10:58 03.02.2021
3002 Rain 0 997 100 2500 4.12 110 10:23 03.02.2021
3003 Mist 0 997 100 2500 4.12 110 09:51 03.02.2021
3004 Snow 1 997 97 2125 12.66 90 09:32 03.02.2021
3005 Snow 1 997 97 2123 13.05 88 08:54 03.02.2021
3006 Snow 1 997 97 2123 13.05 88 08:54 03.02.2021
3007 Snow 1 997 97 2123 13.05 88 08:35 03.02.2021
3008 Rain 0 997 93 3000 5.14 100 07:42 03.02.2021
3009 Snow 0 998 93 2000 5.66 90 06:42 03.02.2021
3010 Rain 0 999 93 3000 4.63 90 04:55 03.02.2021
3011 Rain 0 999 93 3000 4.63 90 04:34 03.02.2021
3012 Mist -1 999 100 3000 5.66 90 03:48 03.02.2021
3013 Snow -1 999 100 2500 6.17 90 02:37 03.02.2021
3014 Snow -1 1000 93 4500 5.14 90 01:20 03.02.2021
3015 Mist -1 1000 93 4500 4.63 80 00:23 03.02.2021
3016 Snow -1 1000 93 4500 4.63 80 23:41 02.02.2021
3017 Snow -1 1000 93 4500 4.63 90 23:22 02.02.2021
3018 Snow -1 1000 93 4500 4.63 90 22:37 02.02.2021
3019 Snow -1 1000 93 4500 4.63 90 22:19 02.02.2021
3020 Snow -1 1000 93 3500 4.63 90 21:44 02.02.2021
3021 Mist -1 1000 93 4500 4.12 80 21:22 02.02.2021
3022 Mist -1 1000 93 4500 4.12 80 20:48 02.02.2021
3023 Snow -1 1000 93 2500 4.12 80 20:21 02.02.2021
3024 Mist -1 1000 100 2500 4.63 80 19:49 02.02.2021
3025 Snow -1 1000 93 2500 4.63 70 19:30 02.02.2021
3026 Snow -1 1000 93 2500 4.63 70 18:54 02.02.2021
3027 Mist -1 1000 93 2500 4.63 70 18:36 02.02.2021
3028 Mist -1 1000 93 2500 4.12 80 18:18 02.02.2021
3029 Snow -1 1000 93 2500 4.12 80 17:37 02.02.2021
3030 Mist 0 1000 86 3000 4.12 70 17:19 02.02.2021
3031 Snow 0 1000 86 3000 4.12 70 16:43 02.02.2021
3032 Snow 0 1000 86 4000 2.57 80 16:24 02.02.2021
3033 Snow 0 1000 86 4000 2.57 80 15:46 02.02.2021
3034 Snow 0 1000 86 4000 2.57 70 15:23 02.02.2021
3035 Mist 0 1000 86 4000 2.57 70 14:50 02.02.2021
3036 Mist 0 1000 86 4000 1.54 90 14:31 02.02.2021
3037 Mist 0 1001 86 4000 1.54 90 13:56 02.02.2021
3038 Mist 0 1001 86 4000 1.03 0 13:38 02.02.2021
3039 Mist 0 1001 86 4000 1.03 0 13:19 02.02.2021
3040 Mist 0 1001 86 4000 1.03 0 12:42 02.02.2021
3041 Mist -1 1002 80 3000 0.51 0 11:46 02.02.2021
3042 Mist -1 1002 93 3000 2.06 200 11:25 02.02.2021
3043 Mist -1 1002 93 3000 2.06 200 10:56 02.02.2021
3044 Mist -1 1002 93 3000 2.06 200 10:37 02.02.2021
3045 Mist -2 1002 93 2500 2.57 200 10:19 02.02.2021
3046 Mist -2 1002 93 2500 2.57 200 09:39 02.02.2021
3047 Mist -3 1002 100 2000 2.06 200 09:19 02.02.2021
3048 Fog -3 1002 100 2000 2.06 200 08:33 02.02.2021
3049 Mist -3 1001 100 2800 2.57 210 07:41 02.02.2021
3050 Mist -2 1001 100 2800 2.06 200 06:46 02.02.2021
3051 Mist -2 1001 100 2500 2.57 210 06:27 02.02.2021
3052 Mist -2 1001 100 2500 2.06 200 05:47 02.02.2021
3053 Clouds -2 1001 100 10000 1.54 260 02:46 02.02.2021
3054 Clouds -2 1000 93 10000 0.51 0 02:23 02.02.2021
3055 Clouds -2 1000 93 10000 1.03 260 00:37 02.02.2021
3056 Clouds -2 1000 93 10000 1.54 280 23:45 01.02.2021
3057 Mist -2 999 93 2800 1.03 270 22:52 01.02.2021
3058 Mist -2 999 93 2800 1.03 270 22:34 01.02.2021
3059 Mist -2 999 93 4000 0.51 100 21:55 01.02.2021
3060 Mist -2 999 93 4000 0.51 100 21:37 01.02.2021
3061 Mist -2 998 93 5000 2.22 54 21:18 01.02.2021
3062 Mist -2 998 93 5000 2.22 54 20:40 01.02.2021
3063 Mist -2 998 93 5000 1.03 140 20:22 01.02.2021
3064 Mist -2 998 93 5000 1.54 130 19:41 01.02.2021
3065 Mist -2 998 93 5000 1.54 110 19:21 01.02.2021
3066 Mist -2 998 93 5000 1.54 110 19:21 01.02.2021
3067 Clouds -2 997 86 8000 2.06 100 18:49 01.02.2021
3068 Clouds -2 997 86 8000 2.06 90 18:29 01.02.2021
3069 Mist -2 997 86 4000 3.09 90 17:48 01.02.2021
3070 Clouds -2 996 86 10000 3.6 80 17:26 01.02.2021
3071 Clouds -2 996 86 10000 3.6 80 16:58 01.02.2021
3072 Clouds -2 996 86 10000 4.12 80 16:31 01.02.2021
3073 Clouds -2 996 86 10000 4.12 80 15:48 01.02.2021
3074 Clouds -2 996 80 8000 5.66 80 15:19 01.02.2021
3075 Clouds -3 996 86 7000 5.14 90 14:52 01.02.2021
3076 Clouds -3 996 86 7000 5.14 90 14:52 01.02.2021
3077 Clouds -3 996 86 7000 5.14 90 14:34 01.02.2021
3078 Snow -3 996 86 5000 5.66 80 13:52 01.02.2021
3079 Mist -3 996 86 4800 5.14 80 13:28 01.02.2021
3080 Snow -3 996 80 4800 4.63 100 12:58 01.02.2021
3081 Snow -3 996 80 6000 5.14 100 12:40 01.02.2021
3082 Snow -3 996 80 6000 5.14 100 12:40 01.02.2021
3083 Snow -3 996 80 6000 5.14 100 12:40 01.02.2021
3084 Snow -4 996 86 7000 5.14 100 12:21 01.02.2021
3085 Snow -4 996 86 10000 4.63 100 11:39 01.02.2021
3086 Clouds -5 996 86 10000 4.63 80 11:19 01.02.2021
3087 Clouds -5 996 86 10000 4.63 80 10:44 01.02.2021
3088 Clouds -6 996 93 9000 5.14 90 10:19 01.02.2021
3089 Clouds -6 996 93 9000 5.14 90 09:43 01.02.2021
3090 Clouds -7 996 93 8000 4.63 80 09:19 01.02.2021
3091 Clouds -7 996 93 8000 4.63 80 08:41 01.02.2021
3092 Clouds -8 996 100 10000 4.12 80 07:37 01.02.2021
3093 Clouds -8 997 93 10000 3.6 80 05:59 01.02.2021
3094 Clouds -8 998 100 10000 4.12 70 02:49 01.02.2021
3095 Clouds -8 999 93 10000 2.57 90 00:40 01.02.2021
3096 Clouds -7 999 93 10000 2.57 120 23:40 31.01.2021
3097 Fog -6 1000 93 50 2.57 110 22:43 31.01.2021
3098 Fog -5 1000 93 4800 3.09 130 22:23 31.01.2021
3099 Fog -6 1000 93 7000 2.06 110 21:49 31.01.2021
3100 Clouds -5 1001 93 10000 2.06 140 21:23 31.01.2021
3101 Clouds -5 1001 93 10000 2.06 140 20:49 31.01.2021
3102 Clouds -5 1001 93 10000 1.54 140 20:21 31.01.2021
3103 Clouds -5 1001 93 10000 1.54 140 19:55 31.01.2021
3104 Clouds -5 1001 93 10000 1.54 140 19:37 31.01.2021
3105 Clouds -3 1002 86 10000 2.06 160 19:18 31.01.2021
3106 Clouds -3 1002 86 10000 2.06 160 18:40 31.01.2021
3107 Clouds -2 1002 86 10000 1.54 140 18:21 31.01.2021
3108 Clouds -2 1002 86 10000 1.54 140 17:46 31.01.2021
3109 Clouds -1 1002 69 10000 1.03 200 17:23 31.01.2021
3110 Clouds -1 1002 69 10000 1.03 200 16:51 31.01.2021
3111 Clouds -1 1002 69 10000 1.03 200 16:33 31.01.2021
3112 Clouds 0 1003 69 10000 2.06 200 15:52 31.01.2021
3113 Clouds 0 1003 69 10000 2.06 200 15:34 31.01.2021
3114 Clouds -2 1004 86 10000 2.57 230 14:44 31.01.2021
3115 Clouds -2 1004 86 10000 4.12 220 14:24 31.01.2021
3116 Clouds -2 1004 86 10000 4.12 220 13:53 31.01.2021
3117 Rain -2 1004 86 10000 4.12 220 13:35 31.01.2021
3118 Clouds -3 1005 86 10000 3.09 220 12:49 31.01.2021
3119 Clouds -4 1005 93 10000 3.6 220 12:23 31.01.2021
3120 Clouds -4 1005 93 10000 3.6 220 11:47 31.01.2021
3121 Clouds -4 1005 93 10000 3.6 220 11:29 31.01.2021
3122 Clouds -4 1005 93 10000 3.6 220 10:59 31.01.2021
3123 Clouds -4 1005 93 10000 3.6 220 10:35 31.01.2021
3124 Clouds -5 1005 93 10000 3.09 220 09:55 31.01.2021
3125 Clouds -5 1005 93 10000 3.09 220 09:32 31.01.2021
3126 Clouds -5 1005 93 10000 3.09 220 08:34 31.01.2021
3127 Mist -7 1005 93 5000 3.6 220 07:20 31.01.2021
3128 Fog -8 1005 93 500 3.09 220 05:42 31.01.2021
3129 Clear -6 1005 100 100 2.06 260 00:52 31.01.2021
3130 Clear -7 1006 100 50 1.03 260 00:26 31.01.2021
3131 Clear -7 1006 100 50 1.03 260 23:34 30.01.2021
3132 Fog -6 1006 100 500 1.54 260 22:57 30.01.2021
3133 Clouds -7 1006 93 10000 2.06 230 22:31 30.01.2021
3134 Clouds -7 1006 93 10000 2.06 230 21:42 30.01.2021
3135 Clouds -6 1006 100 10000 1.03 210 21:23 30.01.2021
3136 Clouds -6 1006 100 10000 1.03 210 20:50 30.01.2021
3137 Clouds -6 1005 100 10000 0.87 193 20:31 30.01.2021
3138 Clouds -6 1005 100 10000 1.16 74 19:54 30.01.2021
3139 Clouds -6 1005 100 10000 1.16 74 19:36 30.01.2021
3140 Clouds -6 1005 100 10000 1.03 150 19:18 30.01.2021
3141 Clouds -6 1005 100 10000 1.03 150 18:39 30.01.2021
3142 Clouds -4 1005 93 10000 1.03 70 18:19 30.01.2021
3143 Clouds -2 1004 86 10000 1.03 70 17:23 30.01.2021
3144 Clouds -2 1004 86 10000 1.03 70 16:57 30.01.2021
3145 Clouds -2 1004 86 10000 1.03 70 16:37 30.01.2021
3146 Clouds -2 1004 80 10000 2.06 70 16:19 30.01.2021
3147 Clouds -2 1004 80 10000 2.06 70 15:42 30.01.2021
3148 Clouds -2 1004 80 10000 2.06 50 15:22 30.01.2021
3149 Clouds -2 1004 80 10000 2.06 50 14:52 30.01.2021
3150 Clouds -2 1005 80 10000 2.06 50 14:24 30.01.2021
3151 Clouds -2 1005 80 10000 2.06 50 13:42 30.01.2021
3152 Clouds -2 1005 74 10000 2.57 60 13:20 30.01.2021
3153 Clouds -2 1005 74 10000 2.57 60 12:42 30.01.2021
3154 Clouds -2 1005 86 10000 0.51 40 12:21 30.01.2021
3155 Clouds -2 1005 86 10000 0.51 40 11:40 30.01.2021
3156 Clouds -4 1005 100 10000 4.02 65 10:55 30.01.2021
3157 Clouds -5 1005 100 10000 1.03 180 09:57 30.01.2021
3158 Clouds -5 1005 100 10000 1.03 180 09:39 30.01.2021
3159 Clouds -6 1004 93 10000 1.03 20 09:21 30.01.2021
3160 Clouds -6 1004 93 10000 1.03 20 08:41 30.01.2021
3161 Clear -5 1003 100 10000 3.09 30 07:30 30.01.2021
3162 Clouds -4 1003 93 10000 2.57 40 06:21 30.01.2021
3163 Clouds -2 1002 93 10000 5.66 30 03:36 30.01.2021
3164 Clouds -1 1002 86 10000 4.12 30 02:40 30.01.2021
3165 Clouds -1 1001 93 10000 6.69 30 02:21 30.01.2021
3166 Clouds -1 1000 100 10000 5.66 30 00:49 30.01.2021
3167 Snow -1 999 93 2302 5.14 50 00:21 30.01.2021
3168 Snow -1 999 93 2302 5.14 50 23:49 29.01.2021
3169 Snow -1 999 93 7000 7.2 50 23:27 29.01.2021
3170 Snow -1 999 93 7000 7.2 50 22:45 29.01.2021
3171 Snow -1 998 93 6000 8.75 60 22:25 29.01.2021
3172 Snow -1 998 93 6000 8.75 60 21:45 29.01.2021
3173 Snow -1 997 86 5000 10.8 70 21:26 29.01.2021
3174 Snow -1 997 86 5000 10.8 70 20:43 29.01.2021
3175 Snow -1 997 93 6000 9.77 70 20:22 29.01.2021
3176 Snow -1 997 93 6000 9.77 70 19:40 29.01.2021
3177 Snow -2 996 100 5000 9.77 70 19:20 29.01.2021
3178 Snow -2 996 100 5000 9.77 70 18:53 29.01.2021
3179 Snow -2 995 93 1000 9.26 80 17:48 29.01.2021
3180 Snow -2 995 93 1000 8.75 80 17:22 29.01.2021
3181 Snow -2 994 93 800 9.77 80 16:52 29.01.2021
3182 Snow -2 993 93 1000 8.23 90 16:24 29.01.2021
3183 Snow -2 993 93 1000 8.23 90 15:55 29.01.2021
3184 Snow -2 993 93 1000 8.23 90 15:37 29.01.2021
3185 Snow -2 994 93 600 7.72 90 15:18 29.01.2021
3186 Snow -2 994 93 600 7.2 90 14:23 29.01.2021
3187 Snow -2 994 93 900 7.72 90 13:46 29.01.2021
3188 Snow -2 994 93 800 9.26 90 13:27 29.01.2021
3189 Snow -2 993 93 1000 8.75 100 12:42 29.01.2021
3190 Snow -2 994 86 2000 8.75 100 12:18 29.01.2021
3191 Snow -1 994 74 2500 8.75 100 11:41 29.01.2021
3192 Snow -1 994 74 2500 8.75 100 11:41 29.01.2021
3193 Snow 0 994 64 4500 7.72 100 11:18 29.01.2021
3194 Snow 0 993 64 10000 7.72 110 10:46 29.01.2021
3195 Rain 2 994 80 10000 13.56 109 10:22 29.01.2021
3196 Snow 0 995 74 10000 6.69 110 09:39 29.01.2021
3197 Snow 0 995 74 10000 6.69 110 08:50 29.01.2021
3198 Clouds 0 995 74 10000 5.66 110 08:26 29.01.2021
3199 Snow 0 995 74 10000 5.66 110 07:48 29.01.2021
3200 Clouds -1 996 80 10000 5.66 100 07:29 29.01.2021
3201 Clouds -1 996 80 10000 5.66 100 06:48 29.01.2021
3202 Clouds -1 999 86 10000 5.14 100 04:53 29.01.2021
3203 Clouds -1 1002 86 10000 3.6 110 01:50 29.01.2021
3204 Clouds -1 1003 86 10000 3.09 100 00:37 29.01.2021
3205 Clouds -1 1004 86 10000 3.09 110 00:19 29.01.2021
3206 Clouds -1 1004 86 10000 3.09 110 23:39 28.01.2021
3207 Snow -1 1004 86 10000 2.06 110 23:20 28.01.2021
3208 Snow -1 1004 86 10000 2.06 110 22:42 28.01.2021
3209 Clouds -1 1004 86 10000 2.57 100 22:22 28.01.2021
3210 Snow -1 1004 86 10000 2.57 100 21:45 28.01.2021
3211 Snow -1 1004 86 10000 2.57 90 21:27 28.01.2021
3212 Clouds -1 1004 86 10000 2.57 90 20:47 28.01.2021
3213 Clouds -1 1004 86 10000 2.57 90 20:20 28.01.2021
3214 Clouds -1 1004 86 10000 2.57 90 19:57 28.01.2021
3215 Clouds -1 1004 86 10000 2.06 110 19:36 28.01.2021
3216 Clouds 0 1004 86 10000 3.09 90 19:18 28.01.2021
3217 Rain 0 1004 86 10000 3.09 90 18:41 28.01.2021
3218 Clouds 0 1004 86 10000 3.6 70 18:19 28.01.2021
3219 Clouds 0 1004 86 10000 3.6 70 17:44 28.01.2021
3220 Clouds 0 1003 86 10000 3.09 80 17:24 28.01.2021
3221 Clouds 0 1003 86 10000 3.09 80 16:44 28.01.2021
3222 Clouds 0 1003 86 10000 3.6 80 16:21 28.01.2021
3223 Clouds 0 1003 86 10000 3.6 80 15:39 28.01.2021
3224 Clouds 0 1003 86 10000 4.63 80 14:58 28.01.2021
3225 Clouds 0 1003 86 10000 4.63 80 14:39 28.01.2021
3226 Clouds 0 1003 86 10000 4.63 80 14:20 28.01.2021
3227 Clouds 0 1003 86 10000 4.63 80 14:20 28.01.2021
3228 Clouds 0 1003 86 10000 4.63 80 13:43 28.01.2021
3229 Clouds 0 1004 86 10000 5.14 80 12:53 28.01.2021
3230 Clouds 0 1004 86 10000 5.14 80 12:34 28.01.2021
3231 Clouds 0 1004 93 10000 4.63 60 11:59 28.01.2021
3232 Clouds 0 1004 93 10000 4.63 60 11:40 28.01.2021
3233 Clouds 0 1004 93 10000 3.6 70 11:19 28.01.2021
3234 Clouds 0 1004 93 10000 3.6 70 10:50 28.01.2021
3235 Fog 0 1005 93 10000 2.06 90 10:32 28.01.2021
3236 Fog 0 1005 93 10000 2.06 90 09:48 28.01.2021
3237 Fog 0 1005 93 10000 1.54 90 09:23 28.01.2021
3238 Mist -1 1005 100 3000 1.54 90 08:54 28.01.2021
3239 Clouds -1 1005 100 10000 1.54 50 08:19 28.01.2021
3240 Clouds -1 1005 100 10000 1.54 50 07:44 28.01.2021
3241 Clouds -1 1006 93 10000 2.06 20 06:50 28.01.2021
3242 Clouds 1 1006 93 10000 1.54 360 06:25 28.01.2021
3243 Clouds 2 1006 100 10000 2.57 340 04:27 28.01.2021
3244 Clouds 4 1006 93 10000 5.14 340 01:38 28.01.2021
3245 Clouds 4 1006 100 8000 4.63 260 23:48 27.01.2021
3246 Mist 4 1006 100 5000 4.63 270 23:24 27.01.2021
3247 Mist 4 1006 100 5000 4.63 270 22:42 27.01.2021
3248 Mist 4 1006 93 3000 5.14 260 22:22 27.01.2021
3249 Mist 4 1006 93 3000 5.14 260 21:43 27.01.2021
3250 Drizzle 2 1006 100 2000 3.6 210 21:24 27.01.2021
3251 Drizzle 2 1006 100 2000 3.6 210 20:52 27.01.2021
3252 Drizzle 2 1006 93 3000 2.57 200 20:27 27.01.2021
3253 Drizzle 2 1006 93 3000 2.57 200 19:50 27.01.2021
3254 Drizzle 2 1007 93 2000 2.57 200 19:26 27.01.2021
3255 Drizzle 2 1007 93 2000 2.57 200 18:57 27.01.2021
3256 Drizzle 2 1007 93 2000 2.57 200 18:38 27.01.2021
3257 Rain 1 1007 100 1800 3.6 210 18:20 27.01.2021
3258 Drizzle 1 1007 100 1800 3.6 210 17:39 27.01.2021
3259 Drizzle 2 1007 93 6000 3.09 210 17:18 27.01.2021
3260 Drizzle 2 1007 93 6000 3.09 210 16:43 27.01.2021
3261 Clouds 2 1007 87 10000 3.6 200 16:24 27.01.2021
3262 Clouds 2 1007 87 10000 3.6 200 15:49 27.01.2021
3263 Drizzle 2 1007 87 10000 4.12 190 15:29 27.01.2021
3264 Drizzle 2 1007 87 10000 4.12 190 14:40 27.01.2021
3265 Clouds 1 1009 93 10000 4.12 200 14:20 27.01.2021
3266 Rain 1 1009 93 5000 4.12 190 13:41 27.01.2021
3267 Rain 1 1009 93 5000 4.12 190 12:46 27.01.2021
3268 Clouds 1 1010 93 10000 4.12 200 12:26 27.01.2021
3269 Clouds 1 1010 93 10000 4.12 200 11:52 27.01.2021
3270 Clouds 2 1009 80 10000 5.14 200 11:26 27.01.2021
3271 Clouds 2 1009 80 10000 5.14 200 10:52 27.01.2021
3272 Clouds 1 1009 86 10000 4.63 200 10:26 27.01.2021
3273 Clouds 1 1009 86 10000 4.63 200 09:59 27.01.2021
3274 Clouds 1 1010 86 8000 4.12 200 09:33 27.01.2021
3275 Clouds 1 1010 86 8000 4.12 200 08:48 27.01.2021
3276 Clouds 1 1010 93 8000 3.6 210 07:58 27.01.2021
3277 Clouds 1 1010 93 8000 3.6 210 07:39 27.01.2021
3278 Clouds 1 1011 93 6000 4.12 200 06:47 27.01.2021
3279 Mist 1 1011 100 5000 4.12 210 05:57 27.01.2021
3280 Clouds 1 1012 100 6000 4.12 210 05:35 27.01.2021
3281 Clouds 1 1012 100 7000 3.6 210 02:46 27.01.2021
3282 Clouds 1 1013 100 7000 3.6 210 02:21 27.01.2021
3283 Clouds 1 1013 100 7000 3.6 210 01:46 27.01.2021
3284 Clouds 1 1014 100 8000 3.6 210 00:30 27.01.2021
3285 Clouds 1 1014 100 8000 3.6 210 23:44 26.01.2021
3286 Clouds 1 1014 93 10000 2.57 200 23:22 26.01.2021
3287 Clouds 1 1014 93 10000 2.57 200 22:44 26.01.2021
3288 Clouds 0 1014 100 10000 2.57 210 22:20 26.01.2021
3289 Clouds 0 1014 100 10000 2.57 210 21:53 26.01.2021
3290 Clouds 1 1014 93 10000 2.57 230 21:26 26.01.2021
3291 Clouds 1 1014 93 10000 2.57 230 20:56 26.01.2021
3292 Clouds 1 1014 93 10000 2.57 230 20:36 26.01.2021
3293 Clouds 2 1015 93 10000 2.57 250 20:18 26.01.2021
3294 Clouds 2 1015 93 10000 2.57 250 19:42 26.01.2021
3295 Clouds 2 1015 87 10000 2.06 260 19:19 26.01.2021
3296 Clouds 2 1015 87 10000 2.06 260 18:43 26.01.2021
3297 Clouds 2 1014 87 10000 3.6 280 18:23 26.01.2021
3298 Clouds 2 1014 87 10000 3.6 280 18:23 26.01.2021
3299 Clouds 2 1014 87 10000 3.6 280 17:48 26.01.2021
3300 Clouds 3 1014 81 10000 5.14 290 17:25 26.01.2021
3301 Clouds 3 1014 81 10000 5.14 290 16:53 26.01.2021
3302 Clouds 5 1013 70 10000 5.66 290 16:22 26.01.2021
3303 Clouds 5 1013 70 10000 5.66 290 15:57 26.01.2021
3304 Clouds 5 1013 70 10000 5.66 290 15:38 26.01.2021
3305 Clouds 5 1013 75 10000 5.66 290 15:18 26.01.2021
3306 Clouds 5 1013 75 10000 5.66 290 15:18 26.01.2021
3307 Clouds 5 1013 75 10000 5.66 290 14:34 26.01.2021
3308 Clouds 4 1013 81 10000 5.66 280 13:59 26.01.2021
3309 Clouds 4 1013 81 10000 4.63 280 13:29 26.01.2021
3310 Clouds 4 1013 81 10000 4.63 280 12:55 26.01.2021
3311 Clouds 4 1013 81 10000 4.63 280 12:37 26.01.2021
3312 Clouds 3 1012 87 9000 4.12 270 12:19 26.01.2021
3313 Clouds 3 1012 87 9000 4.12 270 11:43 26.01.2021
3314 Clouds 2 1012 87 8000 3.09 250 10:59 26.01.2021
3315 Mist 1 1012 93 5000 2.57 250 10:34 26.01.2021
3316 Fog -1 1011 100 50 2.06 260 09:57 26.01.2021
3317 Fog -1 1011 100 50 2.06 260 09:36 26.01.2021
3318 Fog -1 1011 93 50 1.54 260 09:18 26.01.2021
3319 Fog -1 1011 93 50 1.54 260 08:42 26.01.2021
3320 Fog -1 1010 93 50 0.51 0 07:54 26.01.2021
3321 Mist 0 1009 100 4000 1.03 330 06:58 26.01.2021
3322 Mist 0 1008 100 3800 1.03 10 05:51 26.01.2021
3323 Clouds 0 1007 100 1900 2.06 60 05:32 26.01.2021
3324 Clouds 1 1006 93 4800 2.06 160 03:32 26.01.2021
3325 Clouds 1 1006 93 5000 3.09 200 00:59 26.01.2021
3326 Clouds 1 1005 86 10000 2.57 200 00:24 26.01.2021
3327 Clouds 1 1005 86 10000 2.57 200 23:31 25.01.2021
3328 Clouds 1 1005 86 10000 2.57 200 22:47 25.01.2021
3329 Snow 1 1005 86 10000 3.09 200 22:29 25.01.2021
3330 Clouds 1 1005 86 10000 3.09 200 21:45 25.01.2021
3331 Clouds 1 1005 93 10000 3.6 220 21:18 25.01.2021
3332 Clouds 1 1005 93 10000 3.6 220 20:41 25.01.2021
3333 Clouds 1 1005 93 10000 3.09 210 20:23 25.01.2021
3334 Clouds 1 1005 93 10000 3.09 210 19:47 25.01.2021
3335 Clouds 1 1005 93 10000 3.09 210 19:47 25.01.2021
3336 Clouds 1 1005 93 10000 3.09 210 19:47 25.01.2021
3337 Clouds 1 1005 93 10000 3.6 220 19:23 25.01.2021
3338 Clouds 1 1005 93 10000 3.6 220 18:45 25.01.2021
3339 Clouds 1 1004 93 10000 3.09 210 18:24 25.01.2021
3340 Clouds 1 1004 93 10000 3.09 210 17:49 25.01.2021
3341 Clouds 2 1004 87 10000 3.09 250 17:25 25.01.2021
3342 Clouds 2 1004 87 10000 3.09 250 16:49 25.01.2021
3343 Clouds 3 1003 75 10000 3.6 270 16:26 25.01.2021
3344 Clouds 3 1003 75 10000 3.6 270 15:57 25.01.2021
3345 Clouds 3 1003 75 10000 3.6 270 15:39 25.01.2021
3346 Clouds 3 1003 87 10000 5.14 270 15:19 25.01.2021
3347 Clouds 3 1003 87 10000 5.14 270 14:39 25.01.2021
3348 Clouds 3 1003 87 10000 5.14 260 14:18 25.01.2021
3349 Clouds 3 1003 87 10000 5.14 260 13:44 25.01.2021
3350 Clouds 3 1002 87 10000 3.6 250 13:21 25.01.2021
3351 Clouds 3 1002 87 10000 3.6 250 12:44 25.01.2021
3352 Fog 2 1002 87 10000 2.57 250 12:19 25.01.2021
3353 Clouds 0 1001 100 7000 1.54 190 11:29 25.01.2021
3354 Clouds 0 1001 100 7000 1.54 190 10:52 25.01.2021
3355 Clouds 1 1001 93 7000 2.06 220 10:22 25.01.2021
3356 Clouds 0 1001 100 6000 2.57 220 09:53 25.01.2021
3357 Mist 0 1001 100 4000 1.03 0 09:31 25.01.2021
3358 Mist -1 1000 100 4500 3.09 210 08:48 25.01.2021
3359 Snow -1 999 100 3000 2.57 210 08:23 25.01.2021
3360 Snow 0 999 93 3000 2.06 230 07:29 25.01.2021
3361 Mist 0 999 93 3000 2.06 230 06:39 25.01.2021
3362 Clouds 1 998 93 10000 3.09 260 02:56 25.01.2021
3363 Clouds 0 998 100 5000 4.12 270 00:48 25.01.2021
3364 Clouds 1 998 100 10000 3.6 250 23:40 24.01.2021
3365 Clouds 1 997 100 10000 1.03 270 23:18 24.01.2021
3366 Clouds 1 997 100 10000 1.03 270 22:41 24.01.2021
3367 Snow 1 997 93 10000 2.06 250 22:18 24.01.2021
3368 Clouds 1 997 93 10000 2.06 250 21:44 24.01.2021
3369 Snow 0 997 100 9000 1.03 0 21:21 24.01.2021
3370 Clouds 0 997 100 9000 1.03 0 20:43 24.01.2021
3371 Snow 0 997 100 1500 2.06 270 20:19 24.01.2021
3372 Snow 0 997 100 1500 2.06 270 19:50 24.01.2021
3373 Rain 1 997 93 4000 3.09 260 19:26 24.01.2021
3374 Snow 1 997 93 4000 3.09 260 18:57 24.01.2021
3375 Snow 1 997 93 4000 3.09 260 18:38 24.01.2021
3376 Drizzle 2 997 93 8000 4.63 260 18:19 24.01.2021
3377 Drizzle 2 997 93 8000 4.63 260 17:48 24.01.2021
3378 Clouds 3 997 93 10000 3.6 260 17:21 24.01.2021
3379 Clouds 3 997 93 10000 3.6 260 16:43 24.01.2021
3380 Clouds 3 996 93 8000 3.6 250 16:25 24.01.2021
3381 Clouds 3 996 93 8000 3.6 250 15:58 24.01.2021
3382 Clouds 3 996 93 8000 3.6 250 15:40 24.01.2021
3383 Rain 3 996 93 10000 2.06 240 15:18 24.01.2021
3384 Clouds 3 996 93 10000 2.06 240 14:37 24.01.2021
3385 Rain 3 996 100 5000 2.06 230 13:42 24.01.2021
3386 Rain 3 996 93 4500 1.54 0 13:23 24.01.2021
3387 Rain 3 996 93 4500 1.54 0 12:43 24.01.2021
3388 Rain 3 996 93 4500 1.54 0 12:43 24.01.2021
3389 Rain 2 996 100 3000 2.06 250 12:19 24.01.2021
3390 Fog 2 996 100 3000 2.06 250 11:49 24.01.2021
3391 Fog 2 996 100 3000 2.06 250 11:49 24.01.2021
3392 Snow 0 995 100 2000 0.51 0 11:24 24.01.2021
3393 Fog 0 995 100 2000 0.51 0 10:45 24.01.2021
3394 Mist -1 995 100 2000 1.03 280 10:18 24.01.2021
3395 Rain -1 995 100 800 1.03 80 09:22 24.01.2021
3396 Fog -1 995 100 800 1.03 80 08:57 24.01.2021
3397 Rain -1 994 100 3000 0.59 48 08:22 24.01.2021
3398 Clouds 0 993 100 6000 1.54 180 02:41 24.01.2021
3399 Clouds 0 993 93 7000 3.84 226 01:52 24.01.2021
3400 Clouds 1 993 93 8000 1.54 210 00:26 24.01.2021
3401 Clouds 1 993 93 8000 1.54 210 23:53 23.01.2021
3402 Clouds 2 993 87 10000 1.54 200 23:26 23.01.2021
3403 Clouds 2 993 87 10000 1.54 200 22:55 23.01.2021
3404 Clouds 2 993 87 10000 1.54 200 22:37 23.01.2021
3405 Rain 3 993 81 10000 2.06 210 21:53 23.01.2021
3406 Clouds 3 993 81 10000 3.09 200 21:22 23.01.2021
3407 Clouds 3 993 81 10000 3.09 200 20:48 23.01.2021
3408 Clouds 3 993 81 10000 3.09 200 20:28 23.01.2021
3409 Clouds 3 993 81 10000 3.09 200 19:47 23.01.2021
3410 Clouds 3 993 81 10000 3.09 200 19:25 23.01.2021
3411 Clouds 3 993 81 10000 3.09 200 18:51 23.01.2021
3412 Clouds 4 993 81 10000 3.09 200 18:28 23.01.2021
3413 Clouds 4 993 81 10000 3.09 200 18:28 23.01.2021
3414 Clouds 4 993 81 10000 3.09 200 17:55 23.01.2021
3415 Clouds 4 993 81 10000 4.12 200 17:28 23.01.2021
3416 Clouds 4 993 81 10000 4.12 200 16:51 23.01.2021
3417 Clouds 4 993 87 10000 4.63 210 16:32 23.01.2021
3418 Clouds 4 993 87 10000 4.63 210 15:49 23.01.2021
3419 Clouds 4 993 87 10000 4.12 210 15:27 23.01.2021
3420 Clouds 4 993 87 10000 4.12 210 14:37 23.01.2021
3421 Clouds 4 993 81 10000 5.14 210 14:19 23.01.2021
3422 Clouds 4 993 81 10000 5.14 210 13:40 23.01.2021
3423 Clouds 4 994 87 9000 4.63 200 13:22 23.01.2021
3424 Clouds 4 994 87 9000 4.63 200 12:42 23.01.2021
3425 Clouds 2 994 93 6000 4.63 190 12:22 23.01.2021
3426 Clouds 2 994 93 6000 4.63 190 11:35 23.01.2021
3427 Rain 2 994 87 6000 4.12 170 10:54 23.01.2021
3428 Snow 1 994 93 3000 3.09 150 10:23 23.01.2021
3429 Snow 1 994 93 3000 3.09 150 09:51 23.01.2021
3430 Mist 0 995 100 3000 3.09 150 09:24 23.01.2021
3431 Snow 0 995 100 3000 3.09 150 08:42 23.01.2021
3432 Mist 1 995 93 4000 2.57 160 07:48 23.01.2021
3433 Mist 1 995 93 4000 2.57 170 06:49 23.01.2021
3434 Clouds 2 995 93 8000 4.63 210 02:20 23.01.2021
3435 Clouds 2 995 93 9000 5.14 210 00:23 23.01.2021
3436 Clouds 2 995 93 9000 5.14 210 23:36 22.01.2021
3437 Clouds 2 994 93 10000 5.14 220 22:42 22.01.2021
3438 Clouds 3 993 81 10000 5.66 220 22:19 22.01.2021
3439 Clouds 3 993 81 10000 5.66 220 21:39 22.01.2021
3440 Clouds 3 993 81 10000 4.63 220 21:21 22.01.2021
3441 Clouds 3 993 81 10000 4.63 220 20:46 22.01.2021
3442 Clouds 4 992 81 10000 4.63 230 20:26 22.01.2021
3443 Clouds 4 992 81 10000 4.63 230 19:47 22.01.2021
3444 Clouds 5 992 75 10000 4.63 230 19:18 22.01.2021
3445 Clouds 5 992 75 10000 4.63 230 18:45 22.01.2021
3446 Clouds 5 991 81 10000 4.63 230 18:26 22.01.2021
3447 Clouds 5 991 81 10000 4.63 230 17:48 22.01.2021
3448 Clouds 5 990 81 10000 5.14 250 17:29 22.01.2021
3449 Clouds 5 990 81 10000 5.14 250 16:54 22.01.2021
3450 Clouds 5 989 81 10000 5.66 240 16:30 22.01.2021
3451 Clouds 5 989 81 10000 5.66 240 15:45 22.01.2021
3452 Clouds 5 988 81 10000 6.69 230 15:23 22.01.2021
3453 Clouds 5 988 81 10000 6.69 230 14:33 22.01.2021
3454 Clouds 5 988 81 10000 7.2 230 13:54 22.01.2021
3455 Clouds 5 988 81 10000 7.2 230 13:35 22.01.2021
3456 Clouds 5 988 81 10000 6.69 240 12:56 22.01.2021
3457 Clouds 5 987 81 10000 6.69 230 12:28 22.01.2021
3458 Clouds 5 987 81 10000 6.69 230 11:51 22.01.2021
3459 Clouds 4 986 87 10000 6.69 220 11:32 22.01.2021
3460 Clouds 4 986 87 10000 6.69 220 10:48 22.01.2021
3461 Clouds 4 986 87 10000 6.69 220 10:48 22.01.2021
3462 Clouds 4 985 87 10000 7.2 220 10:23 22.01.2021
3463 Clouds 4 985 87 10000 7.2 220 09:43 22.01.2021
3464 Clouds 3 985 93 10000 6.69 220 08:57 22.01.2021
3465 Clouds 3 984 93 10000 6.17 230 08:32 22.01.2021
3466 Clouds 3 984 93 10000 6.17 230 08:32 22.01.2021
3467 Clouds 3 984 93 10000 6.17 230 07:45 22.01.2021
3468 Rain 3 980 93 4500 8.23 300 05:22 22.01.2021
3469 Rain 5 981 93 4500 1.03 0 01:54 22.01.2021
3470 Rain 6 985 75 10000 6.17 190 00:29 22.01.2021
3471 Rain 6 985 75 10000 6.17 190 23:48 21.01.2021
3472 Rain 6 985 75 10000 5.66 190 23:20 21.01.2021
3473 Clouds 6 985 75 10000 5.66 190 22:48 21.01.2021
3474 Clouds 6 986 75 10000 6.69 200 21:59 21.01.2021
3475 Clouds 6 986 75 10000 6.69 200 21:39 21.01.2021
3476 Clouds 6 987 75 10000 7.2 200 21:18 21.01.2021
3477 Clouds 6 987 75 10000 7.2 200 20:44 21.01.2021
3478 Clouds 7 987 70 10000 6.69 200 20:21 21.01.2021
3479 Clouds 7 987 70 10000 6.69 200 19:50 21.01.2021
3480 Clouds 7 987 65 10000 8.23 210 19:26 21.01.2021
3481 Clouds 7 987 65 10000 8.23 210 18:49 21.01.2021
3482 Clouds 7 987 65 10000 7.72 210 18:23 21.01.2021
3483 Clouds 7 987 65 10000 7.72 210 17:58 21.01.2021
3484 Clouds 7 987 65 10000 7.72 210 17:40 21.01.2021
3485 Clouds 7 987 65 10000 9.26 200 17:18 21.01.2021
3486 Clouds 7 987 65 10000 9.26 200 16:41 21.01.2021
3487 Clouds 8 987 61 10000 9.26 210 16:22 21.01.2021
3488 Clouds 8 987 61 10000 9.26 210 15:49 21.01.2021
3489 Clouds 8 987 61 10000 9.26 210 15:28 21.01.2021
3490 Clouds 8 987 61 10000 9.26 210 14:48 21.01.2021
3491 Clouds 8 987 61 10000 9.77 220 14:29 21.01.2021
3492 Clouds 8 987 61 10000 9.77 220 13:47 21.01.2021
3493 Clouds 7 988 65 10000 9.26 210 13:26 21.01.2021
3494 Clouds 7 988 65 10000 9.26 210 12:46 21.01.2021
3495 Clouds 7 988 65 10000 9.77 220 12:25 21.01.2021
3496 Clouds 7 988 65 10000 9.77 220 11:56 21.01.2021
3497 Clouds 7 988 65 10000 9.77 220 11:35 21.01.2021
3498 Clouds 7 987 70 10000 9.26 220 10:57 21.01.2021
3499 Clouds 7 987 70 10000 9.26 220 10:38 21.01.2021
3500 Clouds 7 987 70 10000 9.26 220 10:38 21.01.2021
3501 Clouds 6 986 81 10000 7.72 230 09:56 21.01.2021
3502 Clouds 6 986 81 10000 7.72 230 09:37 21.01.2021
3503 Clouds 7 984 76 10000 9.26 220 09:18 21.01.2021
3504 Clouds 7 984 76 10000 9.26 220 08:34 21.01.2021
3505 Rain 10 981 62 10000 8.75 180 07:46 21.01.2021
3506 Rain 9 982 66 10000 9.26 170 07:26 21.01.2021
3507 Clouds 9 983 66 10000 10.29 170 06:26 21.01.2021
3508 Clouds 9 985 66 10000 8.23 170 04:55 21.01.2021
3509 Rain 9 989 66 10000 7.72 190 02:19 21.01.2021
3510 Clouds 9 990 66 10000 7.2 180 00:42 21.01.2021
3511 Clouds 9 991 61 10000 6.69 180 23:49 20.01.2021
3512 Clouds 9 991 61 10000 7.2 190 23:25 20.01.2021
3513 Clouds 9 991 61 10000 7.2 190 22:52 20.01.2021
3514 Clouds 9 992 61 10000 7.2 200 22:30 20.01.2021
3515 Clouds 9 992 61 10000 7.2 200 21:54 20.01.2021
3516 Clouds 9 992 61 10000 7.2 190 21:23 20.01.2021
3517 Rain 9 992 61 10000 7.2 190 20:52 20.01.2021
3518 Rain 9 992 61 10000 7.2 190 20:52 20.01.2021
3519 Clouds 9 992 61 10000 6.69 190 20:24 20.01.2021
3520 Clouds 9 992 61 10000 6.69 190 19:49 20.01.2021
3521 Clouds 9 993 66 10000 5.66 190 19:31 20.01.2021
3522 Clouds 9 993 66 10000 5.66 190 19:31 20.01.2021
3523 Clouds 9 993 66 10000 5.66 190 18:52 20.01.2021
3524 Clouds 9 993 66 10000 5.66 190 18:33 20.01.2021
3525 Clouds 9 993 66 10000 6.17 200 17:53 20.01.2021
3526 Clouds 9 993 66 10000 6.17 200 17:35 20.01.2021
3527 Rain 9 993 71 10000 6.69 200 16:52 20.01.2021
3528 Clouds 9 993 76 10000 6.17 210 16:30 20.01.2021
3529 Clouds 9 993 76 10000 6.17 210 15:47 20.01.2021
3530 Clouds 9 994 81 10000 7.2 210 15:19 20.01.2021
3531 Clouds 9 994 81 10000 7.2 210 14:44 20.01.2021
3532 Rain 9 994 81 10000 6.69 210 14:21 20.01.2021
3533 Rain 9 994 81 10000 6.69 210 13:40 20.01.2021
3534 Rain 8 995 81 10000 8.23 210 13:19 20.01.2021
3535 Clouds 8 995 81 10000 8.23 210 12:35 20.01.2021
3536 Rain 8 995 81 10000 6.69 210 11:54 20.01.2021
3537 Rain 8 995 81 10000 6.69 210 11:35 20.01.2021
3538 Rain 7 995 87 10000 7.2 210 10:55 20.01.2021
3539 Rain 7 995 87 10000 6.69 220 10:28 20.01.2021
3540 Rain 7 995 87 10000 6.69 220 09:50 20.01.2021
3541 Rain 6 995 93 10000 7.72 210 09:24 20.01.2021
3542 Rain 6 995 93 10000 7.72 210 08:49 20.01.2021
3543 Rain 6 996 93 10000 8.23 210 08:27 20.01.2021
3544 Drizzle 6 996 93 10000 8.23 210 07:56 20.01.2021
3545 Rain 6 996 93 10000 7.72 210 07:25 20.01.2021
3546 Rain 6 996 93 10000 7.72 210 07:25 20.01.2021
3547 Rain 6 996 93 10000 8.75 220 05:50 20.01.2021
3548 Rain 7 997 93 4000 8.75 220 03:28 20.01.2021
3549 Rain 8 998 93 5000 6.69 230 01:18 20.01.2021
3550 Rain 8 998 93 5000 6.69 230 00:45 20.01.2021
3551 Clouds 8 999 93 7000 6.17 230 23:48 19.01.2021
3552 Rain 8 999 93 10000 6.69 240 23:26 19.01.2021
3553 Rain 8 999 93 10000 6.69 240 22:57 19.01.2021
3554 Clouds 8 999 93 10000 6.69 240 22:36 19.01.2021
3555 Clouds 8 999 93 8000 8.75 250 22:18 19.01.2021
3556 Clouds 8 999 93 8000 8.75 250 21:42 19.01.2021
3557 Rain 8 999 93 5000 5.14 230 21:23 19.01.2021
3558 Mist 8 999 93 5000 5.14 230 20:43 19.01.2021
3559 Rain 7 999 100 4000 5.14 220 20:23 19.01.2021
3560 Mist 7 999 100 3700 4.63 230 19:53 19.01.2021
3561 Mist 7 999 100 3500 4.12 230 19:28 19.01.2021
3562 Rain 7 999 100 3500 4.12 230 18:47 19.01.2021
3563 Rain 7 999 100 3500 4.63 250 18:26 19.01.2021
3564 Mist 7 999 100 3500 4.63 250 17:46 19.01.2021
3565 Drizzle 7 999 100 4000 5.14 250 17:27 19.01.2021
3566 Rain 7 999 93 2500 6.69 260 16:50 19.01.2021
3567 Drizzle 6 999 100 1500 5.14 240 16:29 19.01.2021
3568 Drizzle 6 999 100 1500 5.14 240 15:59 19.01.2021
3569 Drizzle 6 998 100 3000 4.63 230 15:40 19.01.2021
3570 Drizzle 6 998 100 3000 5.14 230 14:57 19.01.2021
3571 Mist 6 998 93 4500 5.14 230 14:39 19.01.2021
3572 Mist 5 999 100 4000 6.69 220 14:20 19.01.2021
3573 Mist 5 999 100 4000 6.69 220 13:40 19.01.2021
3574 Drizzle 5 999 100 3000 5.14 210 13:21 19.01.2021
3575 Drizzle 5 999 100 3000 5.14 210 12:48 19.01.2021
3576 Drizzle 5 1000 93 2000 5.66 210 12:29 19.01.2021
3577 Drizzle 5 1000 93 2000 5.66 210 11:43 19.01.2021
3578 Mist 4 1001 100 2500 4.63 200 11:24 19.01.2021
3579 Rain 4 1001 100 2500 4.63 200 10:51 19.01.2021
3580 Mist 4 1001 100 4500 4.63 200 10:31 19.01.2021
3581 Mist 4 1002 100 4500 5.14 200 09:53 19.01.2021
3582 Rain 4 1003 100 4000 6.69 200 09:30 19.01.2021
3583 Rain 4 1003 100 4000 6.69 200 08:56 19.01.2021
3584 Rain 4 1004 100 4000 5.66 210 08:24 19.01.2021
3585 Rain 4 1004 100 4000 5.66 210 07:47 19.01.2021
3586 Rain 4 1005 100 4500 5.14 200 06:53 19.01.2021
3587 Clouds 4 1011 93 8000 5.66 220 02:32 19.01.2021
3588 Clouds 4 1012 93 8000 5.14 230 00:55 19.01.2021
3589 Clouds 4 1012 93 7000 4.63 230 23:58 18.01.2021
3590 Clouds 4 1012 93 7000 4.63 230 23:34 18.01.2021
3591 Clouds 4 1013 93 10000 4.63 240 22:51 18.01.2021
3592 Clouds 4 1013 93 10000 6.17 250 22:26 18.01.2021
3593 Rain 4 1013 93 10000 6.17 250 21:58 18.01.2021
3594 Rain 4 1013 93 10000 6.17 250 21:39 18.01.2021
3595 Rain 4 1013 93 10000 7.2 250 21:20 18.01.2021
3596 Clouds 4 1013 93 10000 7.2 250 20:43 18.01.2021
3597 Clouds 4 1013 93 10000 6.17 250 20:24 18.01.2021
3598 Clouds 4 1013 93 10000 6.17 250 19:51 18.01.2021
3599 Clouds 5 1013 87 10000 6.69 250 19:32 18.01.2021
3600 Rain 5 1013 87 10000 6.69 250 18:47 18.01.2021
3601 Rain 5 1013 87 10000 7.2 250 18:23 18.01.2021
3602 Rain 5 1014 87 7000 7.2 250 17:45 18.01.2021
3603 Rain 5 1014 93 8000 8.23 260 17:22 18.01.2021
3604 Clouds 5 1014 93 8000 8.23 260 16:46 18.01.2021
3605 Clouds 5 1013 93 7000 7.72 260 16:22 18.01.2021
3606 Mist 4 1014 100 3000 6.69 250 15:49 18.01.2021
3607 Mist 4 1014 100 4000 6.69 250 15:25 18.01.2021
3608 Mist 4 1014 100 2500 6.17 250 14:46 18.01.2021
3609 Mist 4 1014 100 4800 5.66 240 14:28 18.01.2021
3610 Rain 4 1014 100 4800 5.66 240 13:47 18.01.2021
3611 Mist 4 1015 93 5000 5.14 240 13:28 18.01.2021
3612 Rain 4 1015 93 5000 5.14 240 12:56 18.01.2021
3613 Rain 4 1015 93 5000 5.14 240 12:36 18.01.2021
3614 Rain 4 1015 93 5000 5.66 230 12:18 18.01.2021
3615 Mist 3 1015 100 4800 5.66 230 11:40 18.01.2021
3616 Mist 3 1016 100 4500 6.17 220 11:21 18.01.2021
3617 Rain 3 1016 100 4000 5.66 210 10:46 18.01.2021
3618 Mist 2 1017 100 3200 4.12 210 09:51 18.01.2021
3619 Rain 2 1017 100 2500 4.63 210 09:32 18.01.2021
3620 Mist 2 1017 100 2500 4.63 210 08:56 18.01.2021
3621 Snow 1 1017 100 2200 5.14 220 08:25 18.01.2021
3622 Snow 1 1017 100 1500 5.14 220 07:38 18.01.2021
3623 Fog 1 1018 100 700 3.6 230 06:32 18.01.2021
3624 Clouds 2 1018 93 8000 2.57 230 04:41 18.01.2021
3625 Clouds 1 1018 93 5000 3.6 220 04:20 18.01.2021
3626 Clouds 1 1018 93 5000 3.6 220 03:45 18.01.2021
3627 Clouds 1 1018 93 200 4.12 220 03:23 18.01.2021
3628 Snow 1 1018 93 200 4.12 220 02:53 18.01.2021
3629 Clouds 0 1018 100 200 3.09 220 02:18 18.01.2021
3630 Clouds 0 1018 100 1600 2.06 210 00:39 18.01.2021
3631 Clouds 0 1019 93 2200 2.57 200 23:51 17.01.2021
3632 Drizzle 0 1019 93 2000 1.54 170 23:24 17.01.2021
3633 Drizzle 0 1019 93 2000 1.54 170 22:50 17.01.2021
3634 Drizzle 0 1019 93 2500 2.06 170 22:22 17.01.2021
3635 Drizzle 0 1019 93 4000 2.06 170 21:43 17.01.2021
3636 Clouds 0 1019 86 8000 2.06 170 21:24 17.01.2021
3637 Clouds 0 1019 86 8000 2.06 170 20:51 17.01.2021
3638 Clouds 0 1019 86 8000 2.06 170 20:32 17.01.2021
3639 Clouds 0 1019 86 8000 3.09 170 19:53 17.01.2021
3640 Clouds 0 1019 86 8000 3.09 170 19:34 17.01.2021
3641 Clouds 0 1018 86 10000 2.57 170 18:53 17.01.2021
3642 Clouds 0 1018 86 9000 2.57 150 18:29 17.01.2021
3643 Clouds 0 1018 86 9000 2.57 150 17:50 17.01.2021
3644 Clouds 0 1018 80 8000 2.06 150 17:29 17.01.2021
3645 Clouds 0 1018 80 10000 2.06 160 16:45 17.01.2021
3646 Clouds 0 1017 80 10000 3.09 140 16:25 17.01.2021
3647 Clouds 0 1017 80 10000 3.09 140 15:53 17.01.2021
3648 Mist 0 1017 80 5000 3.09 150 15:27 17.01.2021
3649 Snow 0 1017 80 5000 3.09 150 14:59 17.01.2021
3650 Snow 0 1017 80 5000 2.57 160 14:39 17.01.2021
3651 Snow 0 1017 80 5000 3.09 150 14:21 17.01.2021
3652 Snow 0 1017 80 7000 3.6 150 13:41 17.01.2021
3653 Snow 0 1017 74 3700 3.09 150 13:23 17.01.2021
3654 Snow 0 1017 74 10000 3.6 150 12:44 17.01.2021
3655 Snow 0 1017 74 10000 4.12 150 12:24 17.01.2021
3656 Snow -1 1017 80 10000 2.57 130 11:26 17.01.2021
3657 Clouds -1 1017 80 10000 2.57 130 10:52 17.01.2021
3658 Snow -1 1016 80 10000 1.54 140 10:28 17.01.2021
3659 Snow -1 1016 80 10000 1.54 140 09:57 17.01.2021
3660 Snow -1 1016 80 10000 2.57 150 08:59 17.01.2021
3661 Snow -1 1016 80 10000 2.57 150 08:40 17.01.2021
3662 Clouds -1 1016 86 9000 2.57 160 04:32 17.01.2021
3663 Clouds -1 1016 86 9000 2.57 160 03:44 17.01.2021
3664 Clouds -1 1017 86 9000 3.09 160 01:29 17.01.2021
3665 Snow -1 1017 93 8000 2.57 160 00:21 17.01.2021
3666 Snow -1 1017 93 8000 2.57 160 23:53 16.01.2021
3667 Snow -1 1018 93 10000 2.06 150 23:25 16.01.2021
3668 Snow -1 1018 93 10000 2.06 150 22:55 16.01.2021
3669 Clouds -1 1018 93 10000 2.06 140 22:21 16.01.2021
3670 Clouds -1 1018 93 10000 2.06 140 21:46 16.01.2021
3671 Clouds -1 1018 93 10000 2.06 140 21:23 16.01.2021
3672 Clouds -1 1018 93 10000 2.06 140 20:49 16.01.2021
3673 Clouds 0 1019 86 10000 2.57 160 20:27 16.01.2021
3674 Clouds 0 1019 86 10000 2.57 160 19:49 16.01.2021
3675 Clouds 0 1019 86 10000 2.57 180 19:30 16.01.2021
3676 Clouds 0 1019 86 10000 2.57 180 18:47 16.01.2021
3677 Clouds 0 1019 86 10000 3.09 200 18:28 16.01.2021
3678 Clouds 0 1019 86 10000 3.09 200 17:59 16.01.2021
3679 Clouds 0 1019 86 10000 3.09 200 17:39 16.01.2021
3680 Clouds 0 1020 80 10000 2.06 190 17:21 16.01.2021
3681 Clouds 0 1020 80 10000 2.06 190 16:42 16.01.2021
3682 Clouds 0 1021 80 10000 2.57 180 16:19 16.01.2021
3683 Clouds 0 1021 80 10000 2.57 180 15:42 16.01.2021
3684 Clouds 0 1021 80 10000 2.57 200 14:35 16.01.2021
3685 Clouds 0 1022 74 10000 3.09 200 13:54 16.01.2021
3686 Clouds 0 1022 74 10000 3.09 200 13:33 16.01.2021
3687 Clouds 0 1023 74 10000 2.57 190 12:49 16.01.2021
3688 Clouds -1 1024 74 10000 3.6 180 12:31 16.01.2021
3689 Clouds -1 1024 74 10000 3.6 180 11:59 16.01.2021
3690 Clouds -1 1024 74 10000 3.6 180 11:40 16.01.2021
3691 Clouds -1 1024 74 10000 3.6 180 11:19 16.01.2021
3692 Clouds -1 1024 74 10000 2.57 190 10:42 16.01.2021
3693 Clouds -2 1025 74 10000 3.6 180 09:57 16.01.2021
3694 Snow -3 1025 74 10000 1.54 190 09:22 16.01.2021
3695 Clouds -2 1025 69 10000 2.06 160 08:21 16.01.2021
3696 Clouds -2 1026 69 10000 3.09 180 07:18 16.01.2021
3697 Clouds -2 1027 74 10000 2.06 200 05:46 16.01.2021
3698 Clouds -2 1027 74 10000 1.54 190 04:38 16.01.2021
3699 Clouds -2 1028 74 10000 1.54 220 02:54 16.01.2021
3700 Clouds -2 1029 69 10000 1.03 0 00:49 16.01.2021
3701 Clouds -2 1029 69 10000 1.54 70 00:25 16.01.2021
3702 Clouds -2 1029 69 10000 1.54 70 23:49 15.01.2021
3703 Clouds -2 1029 74 10000 1.54 20 22:51 15.01.2021
3704 Clouds -1 1029 69 10000 1.54 10 22:23 15.01.2021
3705 Clouds -1 1029 69 10000 1.54 10 21:46 15.01.2021
3706 Clouds -1 1029 69 10000 1.03 20 20:58 15.01.2021
3707 Clouds -1 1029 69 10000 1.03 20 20:40 15.01.2021
3708 Clouds -1 1029 69 10000 2.06 20 20:19 15.01.2021
3709 Clouds -1 1029 69 10000 2.06 20 19:40 15.01.2021
3710 Clouds -1 1028 74 10000 1.54 30 19:22 15.01.2021
3711 Clouds -1 1028 74 10000 1.54 30 18:43 15.01.2021
3712 Clouds -1 1028 69 10000 2.06 360 18:19 15.01.2021
3713 Clouds -1 1028 69 10000 2.06 360 17:51 15.01.2021
3714 Clouds -1 1028 69 10000 3.09 10 17:24 15.01.2021
3715 Clouds -1 1028 69 10000 2.57 10 16:52 15.01.2021
3716 Clouds 0 1028 64 10000 3.6 30 16:25 15.01.2021
3717 Clouds 0 1028 64 10000 3.6 30 15:42 15.01.2021
3718 Clouds 0 1027 64 10000 3.6 30 15:22 15.01.2021
3719 Clouds 0 1027 64 10000 3.6 30 14:51 15.01.2021
3720 Clouds 0 1027 74 10000 4.12 40 14:27 15.01.2021
3721 Clouds 0 1027 74 10000 4.12 40 13:44 15.01.2021
3722 Clouds 0 1027 74 10000 4.12 40 13:24 15.01.2021
3723 Clouds 0 1027 74 10000 4.12 40 12:59 15.01.2021
3724 Clouds 0 1027 74 10000 4.12 40 12:37 15.01.2021
3725 Clouds 0 1027 69 10000 3.6 10 12:18 15.01.2021
3726 Clouds 0 1027 69 10000 3.6 10 11:42 15.01.2021
3727 Clouds -1 1027 69 10000 3.09 360 10:58 15.01.2021
3728 Clouds -1 1027 69 10000 3.09 360 10:39 15.01.2021
3729 Clouds 0 1026 64 10000 5.66 30 10:19 15.01.2021
3730 Clouds 0 1026 64 10000 5.66 30 09:47 15.01.2021
3731 Clouds 0 1026 80 10000 5.14 30 09:27 15.01.2021
3732 Clouds 0 1026 86 10000 2.57 10 08:27 15.01.2021
3733 Clouds 0 1026 86 10000 2.57 10 07:44 15.01.2021
3734 Clouds 0 1025 86 10000 2.57 10 07:22 15.01.2021
3735 Clouds 0 1025 86 10000 2.57 10 06:28 15.01.2021
3736 Clouds 0 1024 100 7000 2.06 20 02:28 15.01.2021
3737 Clouds 0 1024 93 8000 2.57 30 00:37 15.01.2021
3738 Clouds 1 1023 86 10000 3.6 30 23:30 14.01.2021
3739 Clouds 1 1023 86 10000 3.6 30 22:56 14.01.2021
3740 Clouds 1 1023 86 10000 3.6 30 22:36 14.01.2021
3741 Clouds 0 1023 93 10000 3.09 30 22:18 14.01.2021
3742 Clouds 0 1023 93 10000 3.09 30 21:39 14.01.2021
3743 Clouds 0 1022 93 10000 3.09 30 21:20 14.01.2021
3744 Clouds 0 1022 93 10000 3.09 30 20:44 14.01.2021
3745 Clouds 0 1022 93 10000 5.14 30 19:59 14.01.2021
3746 Clouds 0 1022 93 10000 5.14 30 19:38 14.01.2021
3747 Clouds 1 1022 86 10000 3.09 30 19:18 14.01.2021
3748 Clouds 1 1022 86 10000 3.09 30 18:42 14.01.2021
3749 Clouds 1 1022 86 10000 2.06 20 17:59 14.01.2021
3750 Clouds 1 1022 80 10000 3.09 10 17:33 14.01.2021
3751 Clouds 1 1022 80 10000 3.09 10 16:56 14.01.2021
3752 Clouds 1 1021 80 10000 3.09 20 16:35 14.01.2021
3753 Clouds 1 1021 80 10000 3.09 20 15:55 14.01.2021
3754 Clouds 1 1021 80 10000 2.57 360 15:34 14.01.2021
3755 Clouds 1 1021 80 10000 2.06 350 14:49 14.01.2021
3756 Clouds 1 1021 80 10000 4.12 10 14:31 14.01.2021
3757 Clouds 1 1021 80 10000 4.12 10 13:56 14.01.2021
3758 Clouds 1 1021 80 10000 4.12 10 13:25 14.01.2021
3759 Clouds 1 1021 80 10000 4.63 30 12:59 14.01.2021
3760 Clouds 0 1021 86 10000 4.12 30 12:24 14.01.2021
3761 Clouds 0 1021 86 10000 4.12 30 11:59 14.01.2021
3762 Clouds 0 1021 86 10000 4.12 30 11:41 14.01.2021
3763 Clouds 0 1020 86 10000 4.12 20 11:20 14.01.2021
3764 Clouds 0 1020 86 10000 4.12 20 10:43 14.01.2021
3765 Clouds -1 1019 86 10000 3.6 10 10:20 14.01.2021
3766 Clouds -1 1019 86 10000 3.6 10 09:44 14.01.2021
3767 Clouds -1 1018 86 10000 4.63 10 09:22 14.01.2021
3768 Clouds -1 1018 86 10000 4.63 10 08:40 14.01.2021
3769 Clouds 0 1018 86 10000 6.17 10 08:21 14.01.2021
3770 Clouds 0 1018 86 10000 6.17 10 07:42 14.01.2021
3771 Clouds 1 1017 80 10000 6.17 10 06:41 14.01.2021
3772 Clouds 1 1015 80 9000 6.69 360 05:23 14.01.2021
3773 Clouds 1 1012 75 10000 8.23 350 00:36 14.01.2021
3774 Clouds 0 1011 80 10000 7.2 350 23:49 13.01.2021
3775 Clouds 1 1010 75 10000 7.72 350 23:20 13.01.2021
3776 Clouds 1 1009 80 10000 5.66 360 22:28 13.01.2021
3777 Clouds 1 1009 80 10000 5.66 360 21:50 13.01.2021
3778 Clouds 1 1009 80 10000 6.69 360 21:28 13.01.2021
3779 Clouds 0 1008 100 10000 5.14 360 20:57 13.01.2021
3780 Clouds 1 1007 93 10000 7.2 340 20:29 13.01.2021
3781 Clouds 1 1007 93 10000 7.2 340 19:57 13.01.2021
3782 Clouds 1 1007 93 10000 7.2 340 19:37 13.01.2021
3783 Clouds 1 1007 86 10000 8.23 350 19:18 13.01.2021
3784 Snow 1 1007 86 10000 9.26 330 18:37 13.01.2021
3785 Clouds 2 1006 80 10000 7.72 350 17:51 13.01.2021
3786 Clouds 3 1005 75 10000 8.75 330 17:24 13.01.2021
3787 Clouds 3 1005 75 10000 8.75 330 16:50 13.01.2021
3788 Clouds 4 1004 81 9000 9.26 310 16:22 13.01.2021
3789 Clouds 4 1004 81 9000 9.26 310 15:52 13.01.2021
3790 Clouds 4 1004 81 9000 9.26 310 15:34 13.01.2021
3791 Clouds 3 1004 93 7000 10.8 310 14:46 13.01.2021
3792 Clouds 4 1003 87 4000 11.83 270 13:53 13.01.2021
3793 Rain 5 1004 81 10000 11.83 270 13:27 13.01.2021
3794 Rain 5 1005 81 10000 10.29 260 12:47 13.01.2021
3795 Clouds 5 1006 75 10000 9.77 280 12:28 13.01.2021
3796 Clouds 5 1006 75 10000 9.77 280 11:55 13.01.2021
3797 Rain 5 1006 75 10000 9.77 280 11:35 13.01.2021
3798 Clouds 4 1006 87 10000 8.23 260 10:56 13.01.2021
3799 Clouds 4 1006 81 10000 8.23 270 10:37 13.01.2021
3800 Clouds 4 1007 81 10000 8.75 290 10:18 13.01.2021
3801 Clouds 3 1007 81 10000 7.2 280 09:31 13.01.2021
3802 Clouds 3 1007 81 10000 7.2 280 08:52 13.01.2021
3803 Clouds 3 1007 87 10000 6.69 280 08:31 13.01.2021
3804 Clouds 3 1007 87 10000 6.69 280 07:35 13.01.2021
3805 Clouds 3 1007 87 10000 3.09 280 06:58 13.01.2021
3806 Rain 3 1008 87 10000 5.66 260 04:21 13.01.2021
3807 Clouds 3 1008 87 10000 5.66 260 03:48 13.01.2021
3808 Clouds 4 1008 75 10000 7.2 280 03:29 13.01.2021
3809 Clouds 3 1008 81 9000 5.66 280 01:44 13.01.2021
3810 Clouds 3 1008 81 10000 6.17 300 00:29 13.01.2021
3811 Clouds 2 1008 87 10000 5.14 300 23:29 12.01.2021
3812 Clouds 2 1008 87 10000 5.14 300 22:47 12.01.2021
3813 Clouds 3 1007 81 10000 9.26 310 22:25 12.01.2021
3814 Rain 3 1007 81 10000 9.26 310 21:53 12.01.2021
3815 Clouds 3 1007 81 10000 9.26 310 21:34 12.01.2021
3816 Rain 3 1007 81 10000 6.69 310 20:56 12.01.2021
3817 Clouds 3 1007 81 10000 6.69 310 20:37 12.01.2021
3818 Clouds 3 1006 75 10000 8.23 340 20:19 12.01.2021
3819 Clouds 3 1006 75 10000 8.23 340 19:37 12.01.2021
3820 Clouds 3 1005 81 10000 6.69 310 18:52 12.01.2021
3821 Clouds 3 1004 75 10000 5.14 310 18:25 12.01.2021
3822 Clouds 3 1004 75 10000 5.14 310 17:55 12.01.2021
3823 Clouds 3 1004 81 10000 5.66 320 17:32 12.01.2021
3824 Clouds 3 1004 81 10000 5.66 320 16:44 12.01.2021
3825 Clouds 4 1002 81 10000 9.26 330 16:25 12.01.2021
3826 Clouds 4 1002 81 10000 9.26 330 15:48 12.01.2021
3827 Clouds 5 1001 81 10000 9.77 280 15:27 12.01.2021
3828 Clouds 5 1001 81 10000 9.77 280 14:49 12.01.2021
3829 Clouds 5 1001 81 10000 6.17 280 14:26 12.01.2021
3830 Clouds 5 1001 81 10000 6.17 280 13:55 12.01.2021
3831 Clouds 5 1001 81 10000 6.17 280 13:36 12.01.2021
3832 Rain 5 1002 70 10000 6.69 290 12:33 12.01.2021
3833 Clouds 5 1002 65 10000 3.6 300 11:45 12.01.2021
3834 Clouds 2 1002 93 10000 1.54 260 11:27 12.01.2021
3835 Clouds 2 1002 93 10000 1.54 260 10:44 12.01.2021
3836 Clouds 2 1001 93 10000 1.54 330 10:20 12.01.2021
3837 Clouds 2 1001 93 10000 1.54 330 09:52 12.01.2021
3838 Clouds 3 1000 93 10000 1.54 340 09:23 12.01.2021
3839 Clouds 4 1000 87 10000 2.06 320 08:27 12.01.2021
3840 Clouds 4 1000 87 10000 2.06 320 07:56 12.01.2021
3841 Clouds 4 1000 87 10000 2.06 320 07:33 12.01.2021
3842 Clouds 4 999 100 9000 4.12 360 05:46 12.01.2021
3843 Rain 6 999 93 3600 7.2 250 03:46 12.01.2021
3844 Rain 6 999 93 4200 8.23 240 03:22 12.01.2021
3845 Rain 6 1000 93 5000 8.23 240 02:18 12.01.2021
3846 Rain 5 1001 100 6000 7.72 230 00:55 12.01.2021
3847 Rain 5 1001 93 4800 7.72 230 23:44 11.01.2021
3848 Rain 5 1002 93 6000 8.75 230 23:20 11.01.2021
3849 Rain 5 1002 93 6000 8.75 230 22:50 11.01.2021
3850 Rain 4 1004 100 5000 8.23 230 22:32 11.01.2021
3851 Drizzle 4 1004 100 5000 8.23 230 21:55 11.01.2021
3852 Rain 4 1004 100 5000 8.23 230 21:36 11.01.2021
3853 Rain 4 1004 93 5000 8.75 220 21:18 11.01.2021
3854 Rain 4 1004 93 5000 8.75 220 20:40 11.01.2021
3855 Drizzle 4 1005 93 5000 8.75 220 20:22 11.01.2021
3856 Rain 4 1005 93 5000 8.23 230 19:52 11.01.2021
3857 Drizzle 4 1006 93 5000 8.23 230 19:23 11.01.2021
3858 Drizzle 4 1006 93 5000 8.23 230 18:44 11.01.2021
3859 Drizzle 4 1007 93 6000 8.23 230 18:24 11.01.2021
3860 Drizzle 4 1007 93 6000 8.23 230 17:43 11.01.2021
3861 Drizzle 4 1008 93 6000 8.75 220 17:25 11.01.2021
3862 Drizzle 4 1008 93 6000 8.75 220 16:55 11.01.2021
3863 Drizzle 4 1008 93 3800 7.72 230 16:35 11.01.2021
3864 Mist 4 1008 93 4500 8.75 220 15:59 11.01.2021
3865 Mist 4 1008 93 5000 8.23 220 15:39 11.01.2021
3866 Mist 4 1009 93 4500 8.23 220 15:19 11.01.2021
3867 Mist 4 1009 93 4500 8.23 220 14:39 11.01.2021
3868 Rain 3 1010 100 4500 8.23 220 13:49 11.01.2021
3869 Drizzle 3 1011 100 4500 7.72 230 13:25 11.01.2021
3870 Drizzle 3 1011 100 3500 8.23 230 12:46 11.01.2021
3871 Drizzle 3 1012 100 3200 9.26 220 12:27 11.01.2021
3872 Drizzle 3 1012 100 4000 8.75 220 11:53 11.01.2021
3873 Drizzle 3 1013 100 3000 8.75 220 11:26 11.01.2021
3874 Drizzle 3 1013 100 3700 7.72 220 10:47 11.01.2021
3875 Drizzle 4 1013 93 3500 7.2 220 10:24 11.01.2021
3876 Drizzle 4 1013 93 2500 6.69 220 09:42 11.01.2021
3877 Mist 4 1013 93 3000 6.69 220 09:21 11.01.2021
3878 Mist 4 1013 93 4500 6.69 230 08:44 11.01.2021
3879 Mist 4 1013 93 3500 7.2 230 08:18 11.01.2021
3880 Drizzle 4 1014 93 5000 6.17 220 07:27 11.01.2021
3881 Rain 4 1014 93 5000 6.17 220 06:58 11.01.2021
3882 Rain 4 1016 93 700 4.63 230 03:51 11.01.2021
3883 Clouds 4 1017 93 3100 4.63 240 01:33 11.01.2021
3884 Clouds 4 1017 93 4800 4.12 240 00:34 11.01.2021
3885 Clouds 4 1018 93 1400 5.66 250 23:35 10.01.2021
3886 Drizzle 4 1018 93 2800 6.17 250 22:48 10.01.2021
3887 Drizzle 4 1018 93 2500 6.17 240 22:24 10.01.2021
3888 Drizzle 4 1018 93 2500 6.17 240 22:24 10.01.2021
3889 Drizzle 4 1018 93 2500 6.17 240 21:46 10.01.2021
3890 Drizzle 4 1018 93 3500 5.66 240 21:21 10.01.2021
3891 Drizzle 3 1018 100 5000 5.66 240 20:57 10.01.2021
3892 Drizzle 3 1018 100 5000 5.66 240 20:33 10.01.2021
3893 Drizzle 3 1018 100 6000 5.66 230 19:58 10.01.2021
3894 Drizzle 3 1018 100 6000 5.66 230 19:36 10.01.2021
3895 Drizzle 3 1018 93 5000 6.69 230 19:18 10.01.2021
3896 Drizzle 3 1018 93 4000 6.17 230 18:41 10.01.2021
3897 Rain 3 1018 93 3200 5.14 230 18:19 10.01.2021
3898 Clouds 3 1019 93 6000 6.17 230 17:22 10.01.2021
3899 Rain 3 1019 87 6000 6.17 230 16:37 10.01.2021
3900 Rain 3 1019 87 10000 5.14 230 16:18 10.01.2021
3901 Clouds 3 1019 87 10000 5.14 230 15:25 10.01.2021
3902 Clouds 3 1019 87 10000 5.14 230 14:52 10.01.2021
3903 Clouds 3 1019 87 10000 5.14 230 14:33 10.01.2021
3904 Clouds 2 1020 93 10000 5.14 220 13:55 10.01.2021
3905 Clouds 2 1020 93 10000 5.14 220 13:37 10.01.2021
3906 Clouds 2 1020 93 10000 5.14 220 13:37 10.01.2021
3907 Clouds 1 1020 100 8000 5.66 210 13:19 10.01.2021
3908 Clouds 1 1021 100 6000 5.66 210 12:50 10.01.2021
3909 Mist 1 1021 100 5000 5.66 210 12:32 10.01.2021
3910 Mist 1 1021 100 3700 5.66 210 11:44 10.01.2021
3911 Fog 0 1021 100 800 5.14 210 11:19 10.01.2021
3912 Fog 0 1021 100 500 5.14 210 10:42 10.01.2021
3913 Fog 0 1021 100 300 5.14 210 10:21 10.01.2021
3914 Fog 0 1021 100 600 5.14 210 09:28 10.01.2021
3915 Mist 0 1021 100 3200 3.09 220 08:22 10.01.2021
3916 Mist 0 1021 100 3200 3.09 220 07:37 10.01.2021
3917 Fog -1 1022 100 500 2.57 190 06:21 10.01.2021
3918 Fog -1 1022 100 500 2.57 190 05:41 10.01.2021
3919 Clouds -2 1023 100 300 1.54 200 03:56 10.01.2021
3920 Clouds -2 1023 100 8000 2.57 170 01:30 10.01.2021
3921 Clouds -3 1023 100 7000 1.54 210 23:59 09.01.2021
3922 Clouds -3 1023 100 7000 1.54 210 23:41 09.01.2021
3923 Fog -2 1023 93 7000 2.06 200 22:57 09.01.2021
3924 Fog -2 1023 100 7000 2.06 160 22:19 09.01.2021
3925 Fog -2 1023 100 7000 2.06 160 21:58 09.01.2021
3926 Fog -2 1023 100 7000 2.06 160 21:39 09.01.2021
3927 Clouds -3 1023 100 8000 0.51 120 21:20 09.01.2021
3928 Clouds -3 1023 100 8000 0.51 120 20:47 09.01.2021
3929 Clouds -2 1023 93 9000 1.54 140 20:28 09.01.2021
3930 Clouds -2 1023 93 9000 1.54 140 19:39 09.01.2021
3931 Clouds -1 1023 93 10000 0.51 170 19:20 09.01.2021
3932 Clouds -1 1023 93 10000 0.51 170 18:37 09.01.2021
3933 Clouds 0 1023 93 10000 0.51 200 17:53 09.01.2021
3934 Clouds 0 1023 93 10000 0.51 200 17:33 09.01.2021
3935 Clouds 1 1022 86 10000 0.51 0 16:56 09.01.2021
3936 Clouds 1 1022 86 10000 0.51 0 16:22 09.01.2021
3937 Clouds 1 1022 86 10000 0.51 0 15:41 09.01.2021
3938 Clouds 1 1022 86 10000 1.03 220 15:19 09.01.2021
3939 Clouds 1 1022 86 10000 1.03 220 14:37 09.01.2021
3940 Clouds 1 1022 86 10000 1.03 0 14:18 09.01.2021
3941 Clouds 1 1022 86 10000 1.03 0 13:43 09.01.2021
3942 Clouds 1 1022 86 10000 0.51 0 13:24 09.01.2021
3943 Clouds 1 1022 86 10000 1.54 320 12:28 09.01.2021
3944 Clouds 1 1022 86 10000 1.54 320 11:58 09.01.2021
3945 Clouds 1 1022 86 10000 1.54 320 11:38 09.01.2021
3946 Clouds 0 1022 86 10000 2.57 30 11:18 09.01.2021
3947 Clouds 0 1022 86 10000 2.57 30 10:43 09.01.2021
3948 Clouds 0 1021 93 10000 0.51 70 10:23 09.01.2021
3949 Clouds 0 1021 93 10000 0.51 70 09:44 09.01.2021
3950 Clouds 0 1021 93 10000 1.03 360 09:20 09.01.2021
3951 Clouds 0 1021 93 10000 2.57 350 07:49 09.01.2021
3952 Clouds 0 1020 93 10000 2.57 350 06:54 09.01.2021
3953 Clouds 1 1020 93 10000 2.57 10 06:34 09.01.2021
3954 Clouds 1 1019 93 10000 2.06 340 03:53 09.01.2021
3955 Clouds 1 1019 93 10000 2.57 340 02:46 09.01.2021
3956 Clouds 1 1019 93 10000 2.06 350 02:27 09.01.2021
3957 Clouds 1 1018 86 10000 2.57 340 01:25 09.01.2021
3958 Clouds 1 1018 86 10000 2.57 340 00:34 09.01.2021
3959 Clouds 1 1018 86 10000 1.54 330 23:46 08.01.2021
3960 Clouds 1 1018 86 10000 2.57 360 22:47 08.01.2021
3961 Clouds 1 1017 86 10000 2.57 340 21:54 08.01.2021
3962 Clouds 1 1017 86 10000 3.09 10 21:26 08.01.2021
3963 Clouds 1 1017 86 10000 3.09 10 20:38 08.01.2021
3964 Clouds 1 1016 80 10000 2.57 350 19:58 08.01.2021
3965 Snow 1 1016 80 10000 3.09 10 19:25 08.01.2021
3966 Clouds 1 1016 80 10000 3.09 10 18:59 08.01.2021
3967 Clouds 1 1016 80 10000 3.09 10 18:34 08.01.2021
3968 Clouds 0 1015 93 10000 2.57 340 17:55 08.01.2021
3969 Clouds 1 1015 86 10000 3.09 360 17:28 08.01.2021
3970 Clouds 1 1015 86 10000 3.09 360 16:50 08.01.2021
3971 Clouds 1 1014 86 10000 4.12 360 15:55 08.01.2021
3972 Clouds 1 1014 86 10000 4.12 360 15:33 08.01.2021
3973 Clouds 1 1014 86 10000 4.63 360 14:40 08.01.2021
3974 Clouds 2 1013 87 10000 3.6 360 14:20 08.01.2021
3975 Clouds 2 1013 87 10000 3.6 360 13:22 08.01.2021
3976 Clouds 2 1013 87 10000 3.6 360 12:52 08.01.2021
3977 Clouds 1 1013 93 10000 3.6 360 12:23 08.01.2021
3978 Clouds 1 1013 93 10000 3.6 360 11:59 08.01.2021
3979 Clouds 1 1013 93 10000 3.6 360 11:39 08.01.2021
3980 Clouds 1 1013 93 10000 3.09 10 11:19 08.01.2021
3981 Clouds 1 1013 93 10000 3.09 10 10:42 08.01.2021
3982 Clouds 1 1012 100 8000 3.09 360 09:54 08.01.2021
3983 Clouds 1 1012 100 8000 3.09 360 09:36 08.01.2021
3984 Snow 1 1012 100 7000 2.06 10 09:18 08.01.2021
3985 Snow 1 1011 93 7000 2.57 350 07:30 08.01.2021
3986 Snow 1 1011 93 7000 2.06 10 06:46 08.01.2021
3987 Clouds 1 1010 100 6000 3.09 20 00:44 08.01.2021
3988 Clouds 1 1009 100 3200 3.09 30 23:43 07.01.2021
3989 Mist 1 1009 100 5000 2.57 20 22:55 07.01.2021
3990 Mist 1 1009 100 5000 2.57 20 22:36 07.01.2021
3991 Drizzle 1 1009 100 4500 2.06 20 21:50 07.01.2021
3992 Drizzle 1 1009 100 4500 2.57 20 21:31 07.01.2021
3993 Drizzle 1 1009 100 4500 2.57 20 20:55 07.01.2021
3994 Drizzle 1 1009 100 4500 2.57 20 20:36 07.01.2021
3995 Drizzle 1 1009 100 4500 1.03 360 19:49 07.01.2021
3996 Rain 1 1009 100 4500 1.03 360 19:26 07.01.2021
3997 Drizzle 1 1009 100 4500 1.03 10 18:50 07.01.2021
3998 Snow 1 1009 100 5000 1.54 20 18:21 07.01.2021
3999 Drizzle 1 1009 100 6000 1.03 360 17:36 07.01.2021
4000 Clouds 2 1009 93 9000 1.54 330 17:18 07.01.2021
4001 Clouds 2 1009 93 9000 1.54 330 16:42 07.01.2021
4002 Clouds 2 1009 93 10000 1.54 350 16:18 07.01.2021
4003 Clouds 2 1009 93 9000 1.54 350 15:31 07.01.2021
4004 Clouds 2 1009 93 9000 1.54 350 15:31 07.01.2021
4005 Clouds 2 1009 93 9000 1.54 350 14:39 07.01.2021
4006 Clouds 2 1009 93 9000 1.54 350 14:20 07.01.2021
4007 Clouds 2 1009 93 9000 2.06 330 13:31 07.01.2021
4008 Clouds 2 1009 93 9000 1.54 310 12:57 07.01.2021
4009 Snow 1 1009 100 9000 1 320 12:29 07.01.2021
4010 Clouds 1 1010 93 8000 1.5 300 11:48 07.01.2021
4011 Snow 1 1010 94 8000 1.5 300 11:29 07.01.2021
4012 Clouds 1 1009 94 7000 1 280 10:39 07.01.2021
4013 Snow 1 1009 96 7000 1 280 10:19 07.01.2021
4014 Snow 0 1009 96 6000 1 290 09:44 07.01.2021
4015 Rain 0 1009 96 3500 1 310 09:18 07.01.2021
4016 Snow 0 1009 96 3300 1 300 08:25 07.01.2021
4017 Snow 0 1009 96 2800 1.5 280 07:44 07.01.2021
4018 Snow 0 1009 96 2800 1.5 280 06:52 07.01.2021
4019 Clouds 1 1010 96 4100 2.1 340 03:34 07.01.2021
4020 Snow 1 1011 96 5000 2.6 360 00:27 07.01.2021
4021 Clouds 1 1011 96 5000 2.6 360 23:36 06.01.2021
4022 Rain 1 1011 96 10000 3.1 360 22:37 06.01.2021
4023 Clouds 1 1012 96 10000 3.6 360 21:43 06.01.2021
4024 Snow 1 1012 96 10000 3.6 360 21:23 06.01.2021
4025 Snow 1 1012 96 10000 3.6 360 20:51 06.01.2021
4026 Clouds 1 1012 96 10000 3.6 360 20:24 06.01.2021
4027 Clouds 1 1012 95 6000 3.6 360 19:49 06.01.2021
4028 Clouds 1 1012 95 6000 3.6 360 19:30 06.01.2021
4029 Clouds 1 1012 96 6000 3.6 360 18:59 06.01.2021
4030 Snow 1 1012 96 6000 3.6 360 18:39 06.01.2021
4031 Snow 1 1012 96 5000 4.1 360 18:18 06.01.2021
4032 Snow 1 1013 96 3500 4.1 360 17:41 06.01.2021
4033 Mist 1 1013 96 3500 4.1 360 17:21 06.01.2021
4034 Snow 1 1013 96 3500 4.1 360 16:40 06.01.2021
4035 Snow 1 1013 96 3200 4.6 360 16:19 06.01.2021
4036 Snow 1 1013 96 4500 3.6 360 15:50 06.01.2021
4037 Snow 1 1013 96 4500 3.6 360 15:50 06.01.2021
4038 Snow 1 1013 97 2800 4.1 360 15:26 06.01.2021
4039 Snow 1 1014 97 3000 4.6 10 14:42 06.01.2021
4040 Snow 1 1014 97 3000 4.6 10 14:19 06.01.2021
4041 Snow 1 1015 97 3000 4.1 10 13:42 06.01.2021
4042 Snow 1 1015 97 3000 4.1 10 13:20 06.01.2021
4043 Snow 1 1015 96 3200 4.1 10 12:46 06.01.2021
4044 Snow 1 1015 89 4500 4.6 10 11:51 06.01.2021
4045 Snow 1 1015 84 4500 4.6 10 11:24 06.01.2021
4046 Clouds 1 1016 84 10000 4.1 10 10:46 06.01.2021
4047 Clouds 1 1016 84 10000 4.1 10 09:58 06.01.2021
4048 Clouds 1 1016 84 10000 4.1 10 09:40 06.01.2021
4049 Clouds 1 1016 86 10000 4.1 10 08:56 06.01.2021
4050 Clouds 1 1016 86 10000 4.6 30 08:26 06.01.2021
4051 Clouds 1 1016 86 10000 4.6 30 07:54 06.01.2021
4052 Clouds 1 1017 80 10000 5.1 30 06:46 06.01.2021
4053 Clouds 2 1018 80 10000 5.7 40 05:32 06.01.2021
4054 Clouds 1 1018 82 10000 5.1 30 04:32 06.01.2021
4055 Clouds 1 1019 80 10000 5.1 40 02:46 06.01.2021
4056 Clouds 1 1019 81 10000 5.1 40 02:23 06.01.2021
4057 Clouds 1 1019 84 10000 6.2 40 00:29 06.01.2021
4058 Clouds 1 1019 85 10000 6.2 40 23:28 05.01.2021
4059 Clouds 1 1020 86 10000 6.2 40 22:41 05.01.2021
4060 Clouds 2 1020 84 10000 7.7 50 22:20 05.01.2021
4061 Clouds 2 1020 84 10000 6.7 50 21:52 05.01.2021
4062 Clouds 2 1020 83 10000 7.2 50 20:41 05.01.2021
4063 Clouds 2 1020 83 10000 7.2 50 20:41 05.01.2021
4064 Clouds 2 1020 84 10000 7.2 50 20:23 05.01.2021
4065 Clouds 2 1020 84 10000 8.2 50 19:42 05.01.2021
4066 Clouds 2 1020 85 10000 8.2 50 19:21 05.01.2021
4067 Clouds 2 1019 93 10000 7.7 60 18:43 05.01.2021
4068 Clouds 2 1019 93 10000 7.7 60 18:24 05.01.2021
4069 Clouds 2 1019 93 10000 7.7 60 17:50 05.01.2021
4070 Clouds 3 1019 86 10000 7.2 60 17:27 05.01.2021
4071 Clouds 3 1019 86 10000 7.2 60 16:53 05.01.2021
4072 Clouds 3 1019 86 10000 7.7 50 16:22 05.01.2021
4073 Clouds 3 1019 86 10000 7.7 50 15:50 05.01.2021
4074 Clouds 3 1019 86 10000 7.7 50 15:25 05.01.2021
4075 Clouds 3 1020 86 10000 7.2 60 14:39 05.01.2021
4076 Clouds 3 1020 86 10000 7.2 60 13:50 05.01.2021
4077 Clouds 3 1020 86 10000 7.2 60 13:30 05.01.2021
4078 Clouds 3 1020 86 10000 8.7 60 12:49 05.01.2021
4079 Drizzle 3 1020 86 10000 8.7 60 12:28 05.01.2021
4080 Clouds 3 1020 86 10000 8.2 60 11:40 05.01.2021
4081 Clouds 3 1020 86 10000 8.2 60 11:20 05.01.2021
4082 Clouds 3 1020 86 10000 8.2 60 11:19 05.01.2021
4083 Clouds 2 1020 93 10000 7.2 60 10:43 05.01.2021
4084 Clouds 2 1020 93 10000 7.2 60 09:58 05.01.2021
4085 Clouds 2 1020 93 10000 7.2 60 09:37 05.01.2021
4086 Rain 2 1019 93 9000 8.2 50 08:41 05.01.2021
4087 Rain 2 1019 93 9000 8.2 50 08:18 05.01.2021
4088 Clouds 2 1019 93 10000 9.3 50 05:29 05.01.2021
4089 Rain 2 1020 93 10000 8.2 50 02:37 05.01.2021
4090 Clouds 1 1020 100 10000 7.2 40 00:22 05.01.2021
4091 Clouds 1 1020 100 10000 7.2 40 23:39 04.01.2021
4092 Clouds 1 1020 100 10000 7.2 40 23:20 04.01.2021
4093 Clouds 1 1020 83 9000 8.7 40 22:44 04.01.2021
4094 Snow 1 1020 82 9000 8.7 40 21:57 04.01.2021
4095 Snow 1 1020 82 10000 8.2 40 21:39 04.01.2021
4096 Snow 1 1020 82 10000 8.2 40 20:58 04.01.2021
4097 Rain 1 1020 82 10000 8.2 40 20:34 04.01.2021
4098 Clouds 2 1020 82 10000 8.2 40 19:59 04.01.2021
4099 Clouds 2 1020 82 10000 8.7 50 19:38 04.01.2021
4100 Clouds 2 1020 83 10000 8.7 50 19:18 04.01.2021
4101 Clouds 2 1020 83 10000 8.7 50 18:40 04.01.2021
4102 Clouds 2 1020 80 10000 9.8 50 17:47 04.01.2021
4103 Clouds 2 1020 80 10000 9.8 50 17:28 04.01.2021
4104 Clouds 2 1020 80 10000 9.8 50 16:57 04.01.2021
4105 Clouds 2 1020 82 10000 8.2 50 16:38 04.01.2021
4106 Clouds 2 1020 82 10000 8.2 50 16:20 04.01.2021
4107 Clouds 2 1020 82 10000 8.2 50 15:41 04.01.2021
4108 Clouds 2 1020 81 10000 8.7 40 14:54 04.01.2021
4109 Clouds 2 1020 82 10000 8.7 40 13:56 04.01.2021
4110 Clouds 2 1020 82 10000 8.7 40 13:35 04.01.2021
4111 Drizzle 1 1021 82 9000 8.7 40 12:53 04.01.2021
4112 Clouds 1 1021 86 10000 8.7 40 12:27 04.01.2021
4113 Clouds 1 1021 86 10000 7.7 40 11:40 04.01.2021
4114 Clouds 1 1021 86 10000 7.7 40 11:18 04.01.2021
4115 Clouds 1 1021 81 10000 8.2 40 10:44 04.01.2021
4116 Clouds 1 1021 82 10000 8.2 40 10:22 04.01.2021
4117 Clouds 1 1021 82 10000 7.7 40 09:36 04.01.2021
4118 Clouds 1 1021 82 10000 7.7 40 09:18 04.01.2021
4119 Clouds 2 1021 82 10000 9.3 40 08:22 04.01.2021
4120 Clouds 2 1020 93 10000 7.7 40 07:47 04.01.2021
4121 Clouds 3 1020 86 10000 9.8 50 05:37 04.01.2021
4122 Clouds 3 1020 86 10000 9.8 50 05:19 04.01.2021
4123 Clouds 3 1020 86 10000 8.2 50 02:24 04.01.2021
4124 Clouds 3 1020 93 10000 8.7 50 00:20 04.01.2021
4125 Clouds 3 1020 93 10000 7.7 60 23:37 03.01.2021
4126 Clouds 3 1020 93 10000 7.7 60 22:58 03.01.2021
4127 Clouds 4 1019 86 10000 8.7 50 22:39 03.01.2021
4128 Clouds 4 1019 86 10000 8.7 50 22:21 03.01.2021
4129 Clouds 4 1019 86 10000 9.3 50 21:40 03.01.2021
4130 Clouds 4 1019 86 10000 9.3 50 21:22 03.01.2021
4131 Clouds 3 1019 93 10000 8.7 50 20:40 03.01.2021
4132 Clouds 3 1019 93 10000 8.7 50 20:18 03.01.2021
4133 Clouds 3 1019 86 10000 7.7 50 19:44 03.01.2021
4134 Clouds 3 1019 86 10000 7.7 50 19:24 03.01.2021
4135 Clouds 3 1019 86 10000 9.3 50 18:45 03.01.2021
4136 Clouds 3 1019 86 10000 9.3 50 18:23 03.01.2021
4137 Clouds 3 1019 86 10000 8.2 50 17:53 03.01.2021
4138 Clouds 3 1019 86 10000 8.2 50 17:27 03.01.2021
4139 Clouds 3 1019 86 10000 8.2 50 16:55 03.01.2021
4140 Clouds 3 1019 86 10000 8.2 50 16:36 03.01.2021
4141 Clouds 3 1019 86 10000 8.2 50 16:18 03.01.2021
4142 Clouds 3 1018 86 10000 6.7 40 15:40 03.01.2021
4143 Clouds 3 1018 86 10000 7.2 40 14:59 03.01.2021
4144 Clouds 3 1019 86 10000 7.2 40 14:33 03.01.2021
4145 Clouds 3 1019 86 10000 7.2 40 13:52 03.01.2021
4146 Clouds 3 1019 86 10000 7.7 50 13:24 03.01.2021
4147 Clouds 3 1019 86 10000 7.7 50 12:55 03.01.2021
4148 Clouds 2 1019 93 10000 6.2 60 11:44 03.01.2021
4149 Clouds 2 1019 93 10000 6.2 60 11:26 03.01.2021
4150 Clouds 2 1019 93 10000 5.7 60 10:56 03.01.2021
4151 Clouds 2 1019 93 10000 5.7 60 10:31 03.01.2021
4152 Clouds 3 1018 93 10000 5.1 70 09:43 03.01.2021
4153 Clouds 3 1018 93 10000 5.1 70 09:23 03.01.2021
4154 Clouds 3 1018 93 8000 4.6 80 07:59 03.01.2021
4155 Mist 3 1017 100 5000 3.6 60 06:51 03.01.2021
4156 Clouds 3 1017 100 3700 2.6 80 02:59 03.01.2021
4157 Clouds 3 1017 100 3000 2.1 70 02:22 03.01.2021
4158 Clouds 3 1016 100 1500 2.1 80 00:25 03.01.2021
4159 Mist 3 1016 100 2500 1.5 90 23:42 02.01.2021
4160 Mist 3 1016 100 2500 1.5 90 23:18 02.01.2021
4161 Mist 4 1016 93 3000 1 90 22:45 02.01.2021
4162 Mist 4 1016 93 3000 1 90 22:27 02.01.2021
4163 Mist 4 1015 93 2500 2.6 160 21:38 02.01.2021
4164 Mist 4 1015 93 2500 2.6 160 21:20 02.01.2021
4165 Mist 4 1015 100 2000 1 130 20:41 02.01.2021
4166 Mist 4 1015 100 2000 1 130 20:21 02.01.2021
4167 Mist 4 1014 100 4000 1 120 19:44 02.01.2021
4168 Mist 4 1014 100 4000 1 120 19:20 02.01.2021
4169 Clouds 4 1014 100 7000 1 140 18:43 02.01.2021
4170 Clouds 4 1014 100 7000 1 140 18:25 02.01.2021
4171 Mist 4 1013 93 5000 4.71 81 17:46 02.01.2021
4172 Mist 4 1013 93 5000 4.89 69 17:26 02.01.2021
4173 Mist 4 1013 93 5000 0.5 220 16:42 02.01.2021
4174 Mist 5 1013 93 5000 1.5 220 16:21 02.01.2021
4175 Mist 4 1013 100 5000 2.1 230 15:43 02.01.2021
4176 Mist 4 1013 100 5000 2.1 230 15:25 02.01.2021
4177 Mist 4 1012 100 5000 2.1 230 14:37 02.01.2021
4178 Mist 4 1012 100 5000 2.1 230 14:18 02.01.2021
4179 Mist 4 1012 100 5000 2.6 210 13:40 02.01.2021
4180 Mist 4 1012 100 4500 2.6 210 12:54 02.01.2021
4181 Mist 4 1012 100 4500 2.6 210 12:32 02.01.2021
4182 Mist 4 1012 100 4500 2.6 210 11:59 02.01.2021
4183 Mist 4 1012 93 4000 2.6 220 11:25 02.01.2021
4184 Mist 4 1012 93 4000 2.6 220 10:58 02.01.2021
4185 Mist 4 1011 93 2500 3.1 220 10:34 02.01.2021
4186 Mist 4 1011 93 2500 3.1 220 09:59 02.01.2021
4187 Mist 4 1010 93 3000 4.1 220 09:39 02.01.2021
4188 Mist 4 1010 93 3000 4.1 220 09:18 02.01.2021
4189 Mist 4 1010 93 4000 3.6 230 08:41 02.01.2021
4190 Mist 4 1010 93 4000 3.6 230 07:55 02.01.2021
4191 Drizzle 4 1010 93 4000 3.6 210 07:22 02.01.2021
4192 Drizzle 4 1010 93 4000 3.6 210 06:56 02.01.2021
4193 Mist 4 1009 93 4500 3.6 220 05:54 02.01.2021
4194 Rain 4 1008 93 6000 3.6 220 01:37 02.01.2021
4195 Clouds 4 1008 93 7000 4.1 220 00:38 02.01.2021
4196 Clouds 4 1008 93 7000 4.1 220 23:58 01.01.2021
4197 Mist 3 1008 100 5000 3.1 220 23:24 01.01.2021
4198 Clouds 4 1007 93 6000 4.1 220 22:52 01.01.2021
4199 Clouds 4 1007 93 6000 4.1 220 22:27 01.01.2021
4200 Clouds 4 1007 93 6000 4.1 220 22:00 01.01.2021
4201 Mist 4 1007 93 5000 4.1 220 21:41 01.01.2021
4202 Mist 4 1007 93 5000 4.1 220 21:19 01.01.2021
4203 Mist 4 1007 93 5000 3.6 220 20:48 01.01.2021
4204 Mist 4 1007 93 5000 3.6 220 20:18 01.01.2021
4205 Mist 4 1006 93 5000 3.6 220 19:42 01.01.2021
4206 Mist 4 1006 93 5000 3.6 220 19:22 01.01.2021
4207 Mist 3 1006 100 3700 3.6 220 18:45 01.01.2021
4208 Mist 3 1006 100 3700 3.6 220 18:23 01.01.2021
4209 Mist 3 1006 100 2500 3.6 220 17:47 01.01.2021
4210 Mist 3 1006 100 2500 3.6 220 17:23 01.01.2021
4211 Mist 3 1005 100 3500 3.1 220 16:50 01.01.2021
4212 Mist 3 1005 100 3500 3.1 220 16:25 01.01.2021
4213 Mist 3 1005 100 5000 3.6 220 15:41 01.01.2021
4214 Mist 3 1005 100 3200 3.1 220 14:48 01.01.2021
4215 Drizzle 3 1005 100 3200 3.1 220 14:27 01.01.2021
4216 Mist 2 1005 100 2000 3.1 210 13:40 01.01.2021
4217 Drizzle 2 1005 100 2000 2.6 230 12:57 01.01.2021
4218 Drizzle 2 1005 100 2000 2.6 230 12:36 01.01.2021
4219 Mist 2 1005 93 2500 2.6 210 11:43 01.01.2021
4220 Mist 2 1005 93 2500 2.6 210 11:23 01.01.2021
4221 Mist 2 1005 93 2500 2.6 210 10:59 01.01.2021
4222 Snow 1 1005 100 2000 3.1 220 10:33 01.01.2021
4223 Snow 1 1004 100 1800 3.6 220 09:45 01.01.2021
4224 Mist 1 1004 100 1800 3.6 220 08:52 01.01.2021
4225 Mist 1 1004 100 2000 3.1 220 08:25 01.01.2021
4226 Clouds 2 1003 100 3900 1 200 04:52 01.01.2021
4227 Clouds 2 1003 100 4500 3.1 230 02:26 01.01.2021
4228 Clouds 2 1003 100 3200 3.1 220 00:41 01.01.2021
4229 Clouds 2 1003 100 3200 3.1 220 00:21 01.01.2021
4230 Drizzle 2 1002 100 5000 3.6 220 23:22 31.12.2020
4231 Drizzle 2 1002 100 6000 4.1 220 22:56 31.12.2020
4232 Drizzle 2 1002 100 6000 4.1 220 22:38 31.12.2020
4233 Drizzle 2 1002 100 6000 4.1 220 22:19 31.12.2020
4234 Rain 2 1002 93 10000 5.1 210 21:46 31.12.2020
4235 Clouds 2 1002 93 10000 5.1 210 21:23 31.12.2020
4236 Clouds 3 1001 86 10000 4.6 210 20:49 31.12.2020
4237 Drizzle 3 1001 86 10000 4.6 210 20:18 31.12.2020
4238 Clouds 3 1001 86 10000 4.6 210 19:46 31.12.2020
4239 Clouds 3 1001 86 10000 4.6 210 19:24 31.12.2020
4240 Clouds 3 1001 86 10000 4.1 220 18:44 31.12.2020
4241 Rain 3 1001 86 10000 4.1 220 18:24 31.12.2020
4242 Clouds 3 1001 93 10000 5.1 210 17:44 31.12.2020
4243 Rain 3 1001 93 10000 5.1 210 17:23 31.12.2020
4244 Clouds 3 1001 93 10000 4.6 220 16:43 31.12.2020
4245 Clouds 3 1001 93 10000 4.6 220 16:22 31.12.2020
4246 Rain 3 1001 93 10000 4.6 220 15:46 31.12.2020
4247 Rain 4 1001 80 10000 5.1 210 15:22 31.12.2020
4248 Rain 4 1001 80 10000 5.1 210 14:56 31.12.2020
4249 Rain 4 1001 86 10000 5.1 210 14:38 31.12.2020
4250 Rain 4 1001 86 10000 4.6 210 14:20 31.12.2020
4251 Rain 3 1001 93 10000 5.1 210 13:39 31.12.2020
4252 Rain 3 1001 93 10000 5.1 210 13:20 31.12.2020
4253 Rain 3 1001 93 10000 5.1 210 12:53 31.12.2020
4254 Rain 3 1001 93 10000 5.7 210 12:35 31.12.2020
4255 Rain 3 1001 93 9000 4.6 210 11:52 31.12.2020
4256 Clouds 3 1001 93 9000 4.6 210 11:32 31.12.2020
4257 Clouds 3 1001 86 8000 4.6 220 10:50 31.12.2020
4258 Clouds 3 1001 86 8000 4.6 220 10:29 31.12.2020
4259 Clouds 3 1001 86 8000 4.6 220 09:58 31.12.2020
4260 Clouds 3 1001 93 6000 4.6 220 09:36 31.12.2020
4261 Clouds 3 1001 93 6000 4.6 220 08:51 31.12.2020
4262 Clouds 3 1000 93 6000 5.1 220 08:33 31.12.2020
4263 Clouds 3 1000 93 6000 5.1 220 07:59 31.12.2020
4264 Clouds 3 1000 93 6000 5.7 220 07:32 31.12.2020
4265 Clouds 3 1000 93 6000 5.7 220 06:29 31.12.2020
4266 Clouds 3 1000 93 7000 5.7 220 05:29 31.12.2020
4267 Clouds 3 1000 93 9000 5.1 220 02:57 31.12.2020
4268 Clouds 4 1000 86 10000 5.7 230 02:25 31.12.2020
4269 Clouds 4 1000 93 10000 5.7 230 01:46 31.12.2020
4270 Clouds 4 1000 93 10000 5.7 230 01:27 31.12.2020
4271 Clouds 4 1000 93 10000 5.7 230 01:27 31.12.2020
4272 Clouds 4 1000 93 10000 5.7 220 00:48 31.12.2020
4273 Clouds 4 1000 93 10000 5.7 220 23:53 30.12.2020
4274 Clouds 4 999 93 10000 5.7 220 23:20 30.12.2020
4275 Clouds 3 999 93 7000 5.7 220 22:51 30.12.2020
4276 Clouds 3 999 93 7000 5.7 220 22:31 30.12.2020
4277 Clouds 3 999 93 8000 5.1 220 21:47 30.12.2020
4278 Clouds 3 999 93 8000 5.1 220 21:25 30.12.2020
4279 Clouds 4 998 93 8000 6.7 220 20:51 30.12.2020
4280 Clouds 4 998 93 8000 6.7 220 20:22 30.12.2020
4281 Rain 4 998 93 9000 5.1 210 19:41 30.12.2020
4282 Clouds 4 998 93 9000 5.7 220 19:23 30.12.2020
4283 Drizzle 4 998 93 8000 5.1 220 18:49 30.12.2020
4284 Drizzle 4 998 93 8000 5.1 220 18:30 30.12.2020
4285 Drizzle 4 998 93 8000 5.1 220 17:52 30.12.2020
4286 Mist 4 997 93 5000 4.1 230 17:33 30.12.2020
4287 Rain 4 997 93 5000 4.1 230 16:59 30.12.2020
4288 Mist 4 997 93 5000 4.1 230 16:35 30.12.2020
4289 Rain 4 997 93 7000 6.2 220 15:48 30.12.2020
4290 Clouds 4 996 93 7000 5.7 230 15:26 30.12.2020
4291 Rain 4 996 93 7000 6.2 230 14:44 30.12.2020
4292 Rain 4 996 93 7000 6.2 230 14:25 30.12.2020
4293 Rain 4 996 93 7000 6.7 230 13:48 30.12.2020
4294 Clouds 4 996 93 7000 6.7 220 12:47 30.12.2020
4295 Clouds 4 996 93 7000 6.7 220 12:22 30.12.2020
4296 Mist 3 995 100 5000 5.7 220 11:39 30.12.2020
4297 Rain 3 995 100 5000 5.7 220 11:20 30.12.2020
4298 Mist 3 995 100 5000 5.7 220 10:54 30.12.2020
4299 Mist 3 995 100 3500 5.7 220 10:35 30.12.2020
4300 Mist 3 995 100 3500 5.7 220 09:53 30.12.2020
4301 Mist 3 994 100 4500 5.7 230 09:35 30.12.2020
4302 Rain 3 994 100 4500 6.2 230 08:35 30.12.2020
4303 Rain 4 993 93 8000 6.2 220 07:32 30.12.2020
4304 Rain 4 993 93 8000 6.7 220 06:53 30.12.2020
4305 Rain 4 992 93 10000 6.2 230 06:32 30.12.2020
4306 Rain 4 992 93 10000 6.2 230 05:45 30.12.2020
4307 Rain 4 992 93 7000 7.2 220 05:27 30.12.2020
4308 Clouds 4 992 93 6000 5.1 220 03:28 30.12.2020
4309 Rain 4 991 93 4400 5.7 220 02:45 30.12.2020
4310 Clouds 4 991 93 4400 5.7 220 02:25 30.12.2020
4311 Clouds 4 991 93 5000 4.6 230 01:34 30.12.2020
4312 Clouds 3 991 100 5000 4.1 220 00:51 30.12.2020
4313 Clouds 3 991 100 5000 4.1 220 00:32 30.12.2020
4314 Clouds 3 991 100 5000 4.1 220 23:57 29.12.2020
4315 Clouds 3 990 100 6000 4.6 220 23:39 29.12.2020
4316 Clouds 3 990 100 6000 4.6 220 23:18 29.12.2020
4317 Clouds 2 990 100 6000 4.1 220 22:43 29.12.2020
4318 Clouds 2 990 100 6000 4.1 220 22:23 29.12.2020
4319 Clouds 2 990 100 6000 4.1 220 21:50 29.12.2020
4320 Clouds 2 990 100 6000 4.1 220 21:32 29.12.2020
4321 Clouds 2 989 100 6000 5.7 220 20:54 29.12.2020
4322 Rain 1 988 100 5000 5.1 220 20:36 29.12.2020
4323 Drizzle 1 988 100 5000 5.1 220 20:18 29.12.2020
4324 Clouds 2 988 93 5000 5.1 220 19:37 29.12.2020
4325 Drizzle 2 988 93 5000 5.1 220 19:19 29.12.2020
4326 Clouds 2 988 100 5000 4.6 230 18:44 29.12.2020
4327 Mist 2 987 100 3000 4.1 220 18:24 29.12.2020
4328 Mist 2 987 100 3000 4.1 220 17:44 29.12.2020
4329 Clouds 2 986 93 8000 3.1 230 17:20 29.12.2020
4330 Clouds 2 986 93 8000 3.1 230 16:37 29.12.2020
4331 Clouds 2 986 93 8000 2.6 240 16:18 29.12.2020
4332 Clouds 2 985 93 6000 3.6 240 15:37 29.12.2020
4333 Clouds 2 985 93 6000 3.6 240 14:59 29.12.2020
4334 Clouds 2 985 93 6000 3.6 240 14:36 29.12.2020
4335 Mist 2 984 93 3800 3.1 240 14:18 29.12.2020
4336 Mist 1 984 100 2500 2.6 240 13:48 29.12.2020
4337 Rain 1 984 100 2200 2.1 220 13:21 29.12.2020
4338 Mist 1 983 100 2000 1 220 12:38 29.12.2020
4339 Rain 1 983 100 2000 1 220 12:20 29.12.2020
4340 Mist 1 983 100 2000 1 220 11:54 29.12.2020
4341 Mist 0 983 91 2100 1.5 190 11:31 29.12.2020
4342 Mist 0 982 90 1100 0.5 150 10:34 29.12.2020
4343 Snow 0 981 90 1300 1 70 09:49 29.12.2020
4344 Snow 0 981 91 1300 1 70 09:25 29.12.2020
4345 Snow 0 981 91 1300 1 70 08:54 29.12.2020
4346 Snow 0 981 91 1500 1 70 08:33 29.12.2020
4347 Snow 0 981 95 1500 1.5 70 07:27 29.12.2020
4348 Snow 0 981 94 2500 1.5 80 06:46 29.12.2020
4349 Snow 1 981 96 2700 2.1 70 05:32 29.12.2020
4350 Clouds 2 981 93 10000 2.6 60 00:56 29.12.2020
4351 Clouds 2 981 93 10000 2.1 70 00:23 29.12.2020
4352 Clouds 2 981 93 10000 2.1 100 23:36 28.12.2020
4353 Clouds 2 981 93 10000 2.1 80 22:30 28.12.2020
4354 Clouds 2 981 100 10000 1.5 100 21:47 28.12.2020
4355 Clouds 2 981 100 10000 1.5 100 21:28 28.12.2020
4356 Clouds 2 981 93 10000 2.1 80 20:46 28.12.2020
4357 Clouds 2 981 93 10000 2.1 80 20:28 28.12.2020
4358 Clouds 2 981 93 10000 2.1 80 19:58 28.12.2020
4359 Fog 2 980 100 10000 2.1 60 19:38 28.12.2020
4360 Fog 2 980 100 10000 2.1 60 19:20 28.12.2020
4361 Clouds 2 981 100 10000 3.38 144 18:43 28.12.2020
4362 Clouds 2 981 100 10000 4.93 151 18:21 28.12.2020
4363 Clouds 2 981 100 10000 4.93 151 17:39 28.12.2020
4364 Clouds 3 980 93 10000 1 130 17:18 28.12.2020
4365 Clouds 4 980 93 10000 1.5 180 16:32 28.12.2020
4366 Clouds 4 980 93 10000 1.5 180 15:58 28.12.2020
4367 Clouds 4 980 93 10000 1.5 180 15:36 28.12.2020
4368 Clouds 4 979 93 10000 3.1 190 14:43 28.12.2020
4369 Clouds 4 979 93 10000 2.6 160 13:51 28.12.2020
4370 Clouds 4 979 93 10000 2.6 160 13:23 28.12.2020
4371 Rain 4 979 93 10000 2.1 160 12:38 28.12.2020
4372 Rain 4 979 93 10000 2.1 160 12:18 28.12.2020
4373 Rain 3 979 100 10000 1.5 140 11:42 28.12.2020
4374 Clouds 3 979 100 10000 1.5 140 11:18 28.12.2020
4375 Drizzle 3 978 100 8000 2.1 140 10:41 28.12.2020
4376 Mist 3 978 100 4000 2.6 140 10:23 28.12.2020
4377 Mist 3 978 100 3200 2.6 150 09:45 28.12.2020
4378 Mist 3 978 100 3200 2.6 150 09:18 28.12.2020
4379 Drizzle 3 977 100 8000 3.1 150 06:55 28.12.2020
4380 Drizzle 3 977 100 8000 3.6 170 05:57 28.12.2020
4381 Clouds 3 976 93 7000 4.6 180 03:59 28.12.2020
4382 Rain 3 976 93 8000 4.6 180 01:57 28.12.2020
4383 Rain 3 976 93 6000 6.7 170 00:29 28.12.2020
4384 Rain 3 976 93 10000 6.7 170 23:45 27.12.2020
4385 Rain 3 976 93 10000 6.7 170 23:18 27.12.2020
4386 Clouds 3 976 93 10000 6.7 160 21:56 27.12.2020
4387 Rain 3 977 93 10000 7.7 170 21:25 27.12.2020
4388 Clouds 4 977 86 10000 7.7 170 20:42 27.12.2020
4389 Clouds 4 977 86 10000 8.7 170 19:25 27.12.2020
4390 Rain 4 977 86 10000 8.7 170 18:55 27.12.2020
4391 Rain 4 977 86 10000 8.2 180 18:37 27.12.2020
4392 Rain 4 977 86 10000 8.2 180 18:18 27.12.2020
4393 Drizzle 4 978 86 10000 9.3 180 17:43 27.12.2020
4394 Rain 4 978 86 10000 9.3 180 17:21 27.12.2020
4395 Rain 3 978 93 10000 9.3 170 16:32 27.12.2020
4396 Rain 3 979 93 8000 9.8 170 15:50 27.12.2020
4397 Rain 3 979 93 8000 9.8 170 14:59 27.12.2020
4398 Rain 3 979 93 8000 11.8 170 14:38 27.12.2020
4399 Rain 3 979 93 10000 9.8 170 13:55 27.12.2020
4400 Rain 4 981 86 9000 9.8 180 13:22 27.12.2020
4401 Rain 4 983 86 10000 10.8 180 12:43 27.12.2020
4402 Rain 4 983 86 10000 10.8 180 12:43 27.12.2020
4403 Rain 4 983 86 10000 10.8 180 11:56 27.12.2020
4404 Drizzle 5 984 80 9000 10.3 180 11:35 27.12.2020
4405 Drizzle 5 984 80 9000 10.3 180 10:51 27.12.2020
4406 Rain 4 985 86 10000 10.3 180 10:24 27.12.2020
4407 Rain 4 986 86 10000 11.3 180 09:46 27.12.2020
4408 Rain 3 989 86 9000 9.3 190 08:39 27.12.2020
4409 Rain 3 989 86 9000 9.3 190 08:20 27.12.2020
4410 Rain 4 990 80 10000 10.8 190 07:26 27.12.2020
4411 Rain 5 992 75 10000 10.8 190 05:44 27.12.2020
4412 Clouds 5 995 86 10000 8.7 200 03:59 27.12.2020
4413 Clouds 4 997 93 10000 8.7 200 03:19 27.12.2020
4414 Clouds 5 1000 86 10000 8.7 200 01:34 27.12.2020
4415 Clouds 5 1002 86 10000 9.3 210 00:20 27.12.2020
4416 Clouds 5 1003 86 10000 9.3 210 23:27 26.12.2020
4417 Drizzle 4 1005 100 6000 8.2 210 22:50 26.12.2020
4418 Drizzle 4 1005 100 6000 8.2 210 22:21 26.12.2020
4419 Drizzle 4 1005 100 6000 8.2 210 21:59 26.12.2020
4420 Clouds 4 1006 93 10000 8.7 210 21:40 26.12.2020
4421 Clouds 4 1006 93 10000 8.7 210 21:22 26.12.2020
4422 Drizzle 4 1008 93 8000 7.7 210 20:41 26.12.2020
4423 Drizzle 4 1008 93 8000 7.7 210 20:19 26.12.2020
4424 Clouds 4 1009 86 10000 7.7 210 19:27 26.12.2020
4425 Clouds 4 1010 86 10000 6.7 210 18:53 26.12.2020
4426 Clouds 4 1010 86 10000 6.7 210 18:29 26.12.2020
4427 Clouds 4 1011 86 10000 7.7 220 17:42 26.12.2020
4428 Clouds 4 1011 86 10000 7.7 220 17:21 26.12.2020
4429 Clouds 4 1012 86 10000 7.7 220 16:37 26.12.2020
4430 Clouds 5 1013 86 10000 7.2 220 15:38 26.12.2020
4431 Clouds 5 1013 86 10000 7.2 220 15:19 26.12.2020
4432 Clouds 4 1014 86 10000 7.2 220 14:29 26.12.2020
4433 Clouds 4 1014 86 10000 7.2 220 13:54 26.12.2020
4434 Clouds 3 1015 93 10000 7.7 220 13:32 26.12.2020
4435 Clouds 3 1016 93 10000 6.7 220 12:50 26.12.2020
4436 Clouds 3 1016 93 10000 6.7 220 12:30 26.12.2020
4437 Clouds 3 1017 93 10000 5.7 220 11:51 26.12.2020
4438 Clouds 3 1017 93 10000 5.7 220 11:24 26.12.2020
4439 Clouds 3 1017 93 10000 5.7 220 10:55 26.12.2020
4440 Clouds 3 1017 86 10000 5.1 220 10:28 26.12.2020
4441 Clouds 3 1017 86 10000 5.1 220 09:55 26.12.2020
4442 Clouds 2 1018 93 10000 4.6 230 09:32 26.12.2020
4443 Clouds 2 1018 93 10000 3.6 220 08:41 26.12.2020
4444 Clouds 2 1018 93 10000 3.6 220 08:18 26.12.2020
4445 Clouds 2 1018 93 10000 4.1 220 07:20 26.12.2020
4446 Clouds 2 1020 100 10000 3.1 250 03:53 26.12.2020
4447 Clouds 1 1020 72 10000 3.1 210 02:34 26.12.2020
4448 Clouds 0 1021 62 9000 3.1 210 00:28 26.12.2020
4449 Clouds 1 1021 62 10000 3.1 210 23:46 25.12.2020
4450 Clouds 1 1021 60 10000 3.1 210 23:27 25.12.2020
4451 Clouds 0 1021 60 10000 2.1 200 22:51 25.12.2020
4452 Clouds 0 1021 60 10000 2.1 200 22:25 25.12.2020
4453 Clouds 0 1021 60 10000 2.1 200 21:41 25.12.2020
4454 Clouds -1 1022 92 10000 2.6 220 21:23 25.12.2020
4455 Clouds -1 1022 92 10000 2.1 210 20:39 25.12.2020
4456 Clouds -1 1022 92 10000 2.1 210 19:54 25.12.2020
4457 Clouds 0 1022 60 10000 1.5 240 19:36 25.12.2020
4458 Clouds 0 1022 61 10000 1.5 250 18:43 25.12.2020
4459 Clouds 0 1022 60 10000 1.5 250 18:25 25.12.2020
4460 Clouds 1 1022 74 10000 1 250 17:35 25.12.2020
4461 Clouds 1 1022 74 10000 1 250 16:51 25.12.2020
4462 Clouds 4 1022 60 10000 1 340 16:21 25.12.2020
4463 Clouds 4 1021 60 10000 2.6 340 15:49 25.12.2020
4464 Clouds 4 1021 60 10000 2.6 340 15:26 25.12.2020
4465 Clouds 4 1021 60 10000 2.6 350 14:32 25.12.2020
4466 Clouds 3 1022 74 10000 1.5 270 13:49 25.12.2020
4467 Clouds 3 1022 74 10000 1.5 270 13:26 25.12.2020
4468 Clouds 3 1022 74 10000 1.5 270 12:58 25.12.2020
4469 Clouds 3 1022 74 10000 1 320 12:27 25.12.2020
4470 Clouds 1 1021 80 10000 4.26 17 11:48 25.12.2020
4471 Clouds 1 1021 80 10000 3.84 30 11:24 25.12.2020
4472 Clouds 1 1021 80 10000 3.84 30 11:24 25.12.2020
4473 Clouds -1 1021 92 10000 0.5 310 10:47 25.12.2020
4474 Clouds -1 1021 92 10000 0.5 310 10:19 25.12.2020
4475 Clouds -1 1020 92 10000 1 290 09:26 25.12.2020
4476 Clouds -1 1019 92 10000 0.5 330 08:40 25.12.2020
4477 Clouds -1 1019 92 10000 1.5 290 07:35 25.12.2020
4478 Clouds -1 1018 92 10000 1.5 310 06:44 25.12.2020
4479 Clear 2 1017 62 10000 4.1 10 02:36 25.12.2020
4480 Clear 2 1016 63 10000 5.1 10 00:38 25.12.2020
4481 Clear 2 1015 64 10000 4.6 10 23:40 24.12.2020
4482 Clear 2 1015 65 10000 4.6 10 23:21 24.12.2020
4483 Clear 2 1015 66 10000 4.6 10 22:26 24.12.2020
4484 Clear 3 1014 86 10000 5.1 10 21:54 24.12.2020
4485 Clear 3 1014 86 10000 5.1 10 21:32 24.12.2020
4486 Clouds 4 1013 86 10000 5.1 10 20:19 24.12.2020
4487 Clouds 4 1011 93 10000 4.6 30 18:22 24.12.2020
4488 Clouds 4 1011 93 10000 4.6 30 17:58 24.12.2020
4489 Clouds 4 1011 93 10000 4.6 30 17:36 24.12.2020
4490 Clouds 4 1009 86 10000 4.6 10 16:28 24.12.2020
4491 Clouds 4 1009 86 10000 4.6 10 15:58 24.12.2020
4492 Clouds 5 1008 86 10000 5.7 360 15:40 24.12.2020
4493 Clouds 5 1008 86 10000 5.7 360 15:18 24.12.2020
4494 Clouds 6 1007 87 10000 3.6 340 14:42 24.12.2020
4495 Clouds 6 1007 87 10000 3.6 340 14:23 24.12.2020
4496 Clouds 6 1007 87 10000 3.6 350 13:39 24.12.2020
4497 Clouds 6 1007 87 10000 3.6 350 13:20 24.12.2020
4498 Clouds 5 1007 86 10000 2.6 340 12:41 24.12.2020
4499 Clouds 5 1007 86 10000 2.6 340 12:20 24.12.2020
4500 Clouds 5 1006 86 10000 3.1 350 11:39 24.12.2020
4501 Clouds 5 1006 86 10000 3.1 350 11:20 24.12.2020
4502 Clouds 4 1006 100 10000 2.6 340 10:51 24.12.2020
4503 Clouds 4 1006 100 10000 2.6 340 10:32 24.12.2020
4504 Clouds 4 1005 100 10000 2.1 320 09:52 24.12.2020
4505 Clouds 4 1005 100 10000 2.1 320 09:24 24.12.2020
4506 Clouds 4 1005 93 10000 1 320 08:18 24.12.2020
4507 Clouds 4 1004 93 8000 1 320 07:39 24.12.2020
4508 Clouds 3 1004 100 8000 2.1 310 06:55 24.12.2020
4509 Clouds 4 1004 93 6000 5.1 20 04:28 24.12.2020
4510 Rain 4 1004 93 5000 5.7 30 01:54 24.12.2020
4511 Rain 4 1004 93 5000 5.7 30 01:32 24.12.2020
4512 Rain 4 1004 100 3200 6.7 40 00:56 24.12.2020
4513 Rain 4 1004 93 10000 7.7 50 00:21 24.12.2020
4514 Rain 4 1004 100 8000 6.7 60 23:44 23.12.2020
4515 Rain 4 1004 100 8000 6.7 60 23:23 23.12.2020
4516 Rain 4 1004 100 7000 7.2 60 22:52 23.12.2020
4517 Rain 4 1004 100 7000 7.2 60 22:29 23.12.2020
4518 Rain 4 1004 100 5000 7.7 60 21:49 23.12.2020
4519 Rain 4 1004 100 5000 7.7 60 21:25 23.12.2020
4520 Rain 5 1005 100 3700 6.7 50 20:50 23.12.2020
4521 Rain 5 1005 100 3700 6.7 50 20:31 23.12.2020
4522 Rain 5 1005 93 2800 6.2 60 19:59 23.12.2020
4523 Rain 5 1005 93 2800 6.2 60 19:38 23.12.2020
4524 Rain 5 1005 93 2800 6.2 60 19:19 23.12.2020
4525 Rain 5 1005 93 2800 6.2 60 18:46 23.12.2020
4526 Rain 4 1006 100 3000 5.7 70 18:21 23.12.2020
4527 Rain 4 1006 100 3000 5.7 70 17:39 23.12.2020
4528 Rain 4 1007 100 3700 5.7 70 17:20 23.12.2020
4529 Rain 4 1008 100 3000 4.1 70 16:43 23.12.2020
4530 Rain 4 1008 100 3000 4.1 70 16:25 23.12.2020
4531 Rain 4 1008 100 3000 4.1 70 15:54 23.12.2020
4532 Mist 4 1008 100 3000 4.1 70 15:29 23.12.2020
4533 Mist 4 1009 100 2800 2.6 60 14:59 23.12.2020
4534 Mist 4 1010 100 2000 2.1 70 14:39 23.12.2020
4535 Rain 4 1010 100 2000 2.1 70 14:20 23.12.2020
4536 Rain 2 1011 100 1500 2.6 80 13:43 23.12.2020
4537 Mist 2 1011 100 1500 2.6 80 13:19 23.12.2020
4538 Mist 2 1011 100 1500 2.6 80 12:52 23.12.2020
4539 Rain 1 1011 100 500 2.1 90 12:28 23.12.2020
4540 Fog 3 1012 100 500 3.6 140 11:49 23.12.2020
4541 Fog 3 1012 100 500 3.6 140 11:20 23.12.2020
4542 Mist 1 1012 100 2500 2.6 130 10:50 23.12.2020
4543 Snow 1 1012 100 2500 2.6 130 10:31 23.12.2020
4544 Fog 0 1012 83 300 1.5 110 09:36 23.12.2020
4545 Fog 1 1013 100 600 0.5 0 08:50 23.12.2020
4546 Fog 1 1013 100 600 0.5 0 08:21 23.12.2020
4547 Fog 2 1013 100 900 0.5 0 07:37 23.12.2020
4548 Fog 2 1013 100 900 0.5 0 07:37 23.12.2020
4549 Fog 3 1013 93 8000 2.1 200 06:41 23.12.2020
4550 Clouds 2 1013 100 3800 2.6 200 05:41 23.12.2020
4551 Clouds 2 1013 100 3800 2.6 200 04:59 23.12.2020
4552 Clear 3 1013 100 8000 2.1 210 01:32 23.12.2020
4553 Clouds 5 1014 93 9000 2.6 210 00:25 23.12.2020
4554 Clouds 5 1014 93 10000 3.1 210 23:38 22.12.2020
4555 Clouds 5 1014 93 10000 3.1 210 23:20 22.12.2020
4556 Clouds 6 1013 87 10000 3.1 220 22:42 22.12.2020
4557 Clouds 6 1013 87 10000 3.1 220 22:21 22.12.2020
4558 Clouds 6 1013 87 10000 2.6 240 21:45 22.12.2020
4559 Clouds 6 1013 87 10000 2.6 240 21:20 22.12.2020
4560 Clouds 6 1013 87 10000 2.6 240 20:50 22.12.2020
4561 Clouds 6 1013 87 10000 2.1 250 20:25 22.12.2020
4562 Clouds 7 1012 81 10000 2.6 260 19:50 22.12.2020
4563 Clouds 7 1012 81 10000 2.6 260 19:26 22.12.2020
4564 Clouds 7 1012 81 10000 2.6 260 18:57 22.12.2020
4565 Clouds 6 1012 87 10000 4.6 290 18:38 22.12.2020
4566 Clouds 6 1012 87 10000 4.6 290 18:19 22.12.2020
4567 Clouds 7 1012 93 10000 4.6 290 17:36 22.12.2020
4568 Clouds 7 1012 93 10000 4.6 290 17:36 22.12.2020
4569 Clouds 7 1012 93 10000 4.6 290 17:18 22.12.2020
4570 Clouds 8 1010 87 10000 5.7 290 16:46 22.12.2020
4571 Clouds 8 1010 87 10000 5.7 290 16:19 22.12.2020
4572 Clouds 8 1009 100 10000 7.2 290 15:45 22.12.2020
4573 Clouds 8 1009 100 10000 7.2 290 15:27 22.12.2020
4574 Clouds 8 1009 100 10000 7.2 290 14:56 22.12.2020
4575 Clouds 8 1009 100 10000 7.2 290 14:38 22.12.2020
4576 Clouds 8 1009 100 10000 6.2 290 14:18 22.12.2020
4577 Clouds 9 1008 93 4000 8.2 290 13:42 22.12.2020
4578 Mist 9 1007 93 3700 7.2 270 13:18 22.12.2020
4579 Clouds 9 1006 93 10000 7.7 290 12:43 22.12.2020
4580 Clouds 9 1006 93 10000 7.7 290 12:25 22.12.2020
4581 Clouds 9 1005 93 9000 7.2 290 11:57 22.12.2020
4582 Mist 9 1005 100 2000 7.2 290 11:38 22.12.2020
4583 Mist 9 1005 100 2000 7.2 290 11:19 22.12.2020
4584 Drizzle 10 1003 100 1700 6.7 270 10:47 22.12.2020
4585 Drizzle 10 1003 100 1700 6.7 270 10:24 22.12.2020
4586 Drizzle 10 1003 100 1700 6.7 270 09:55 22.12.2020
4587 Drizzle 11 1002 93 4000 6.7 260 09:23 22.12.2020
4588 Mist 11 1002 100 2800 6.7 250 08:51 22.12.2020
4589 Rain 11 1002 100 2800 6.7 250 08:29 22.12.2020
4590 Mist 11 1001 100 5000 7.2 250 07:47 22.12.2020
4591 Mist 11 1000 93 3700 5.7 220 06:48 22.12.2020
4592 Rain 10 1001 93 4800 4.6 200 05:44 22.12.2020
4593 Clouds 9 1002 93 5000 6.2 190 03:33 22.12.2020
4594 Clouds 7 1005 100 1700 6.2 170 00:46 22.12.2020
4595 Drizzle 7 1006 93 3000 6.2 160 23:54 21.12.2020
4596 Drizzle 7 1006 93 3000 6.2 160 23:36 21.12.2020
4597 Drizzle 7 1007 93 6000 5.7 150 22:38 21.12.2020
4598 Drizzle 7 1007 93 8000 5.7 160 22:20 21.12.2020
4599 Drizzle 7 1007 93 8000 5.7 160 21:59 21.12.2020
4600 Mist 7 1008 93 5000 7.2 150 21:39 21.12.2020
4601 Mist 7 1008 93 5000 7.2 150 21:39 21.12.2020
4602 Clouds 7 1009 93 10000 6.7 160 21:19 21.12.2020
4603 Clouds 7 1009 93 10000 5.1 150 20:36 21.12.2020
4604 Clouds 7 1010 93 10000 5.7 150 20:18 21.12.2020
4605 Clouds 7 1010 93 10000 5.7 150 20:18 21.12.2020
4606 Clouds 7 1011 87 8000 5.1 150 19:44 21.12.2020
4607 Rain 7 1011 87 8000 5.1 150 19:19 21.12.2020
4608 Rain 6 1012 93 8000 4.6 150 18:52 21.12.2020
4609 Clouds 6 1012 93 8000 4.6 150 18:34 21.12.2020
4610 Rain 7 1013 87 10000 5.1 170 17:43 21.12.2020
4611 Rain 7 1013 87 10000 5.1 170 17:24 21.12.2020
4612 Clouds 7 1013 87 10000 5.1 170 16:48 21.12.2020
4613 Clouds 7 1014 87 10000 4.1 170 16:27 21.12.2020
4614 Clouds 7 1014 87 10000 4.1 170 15:57 21.12.2020
4615 Clouds 7 1014 87 10000 4.1 170 15:37 21.12.2020
4616 Clouds 7 1015 81 10000 4.6 200 14:57 21.12.2020
4617 Clouds 7 1015 81 10000 4.6 200 14:21 21.12.2020
4618 Clouds 8 1016 81 10000 4.6 190 13:45 21.12.2020
4619 Clouds 8 1016 81 10000 4.6 190 13:26 21.12.2020
4620 Clouds 7 1017 87 10000 5.1 200 12:45 21.12.2020
4621 Clouds 7 1017 87 10000 5.1 200 12:25 21.12.2020
4622 Clouds 7 1017 87 10000 5.1 200 11:58 21.12.2020
4623 Clouds 6 1017 93 10000 4.6 200 11:40 21.12.2020
4624 Clouds 6 1017 93 10000 4.6 200 11:22 21.12.2020
4625 Clouds 5 1017 93 10000 4.6 200 10:48 21.12.2020
4626 Clouds 5 1017 93 10000 4.6 200 10:30 21.12.2020
4627 Clouds 5 1017 93 10000 4.6 200 09:47 21.12.2020
4628 Clouds 5 1017 93 10000 4.6 200 09:25 21.12.2020
4629 Clouds 5 1017 93 10000 4.6 200 08:52 21.12.2020
4630 Clouds 6 1017 87 10000 5.7 210 07:52 21.12.2020
4631 Clouds 7 1017 87 10000 5.1 220 06:47 21.12.2020
4632 Clouds 7 1017 87 10000 5.1 220 04:58 21.12.2020
4633 Clouds 7 1017 93 9000 4.6 200 02:31 21.12.2020
4634 Clouds 7 1017 93 9000 4.1 210 00:34 21.12.2020
4635 Clouds 8 1016 93 10000 3.1 200 23:37 20.12.2020
4636 Clouds 8 1016 93 10000 3.1 200 23:18 20.12.2020
4637 Clouds 8 1017 93 10000 4.1 190 22:42 20.12.2020
4638 Clouds 8 1017 93 10000 4.1 190 22:22 20.12.2020
4639 Clouds 8 1017 87 10000 3.6 200 21:40 20.12.2020
4640 Clouds 8 1017 87 10000 3.6 200 21:21 20.12.2020
4641 Clouds 9 1017 87 10000 2.6 200 20:52 20.12.2020
4642 Clouds 9 1017 87 10000 2.6 200 20:26 20.12.2020
4643 Clouds 9 1017 87 10000 2.6 200 19:56 20.12.2020
4644 Clouds 9 1016 87 10000 3.6 200 19:38 20.12.2020
4645 Clouds 9 1016 87 10000 3.6 200 19:19 20.12.2020
4646 Clouds 9 1016 87 10000 3.1 190 18:41 20.12.2020
4647 Clouds 8 1016 93 10000 2.6 170 18:22 20.12.2020
4648 Clouds 9 1016 87 9000 3.1 180 17:45 20.12.2020
4649 Clouds 9 1016 87 9000 3.1 180 17:27 20.12.2020
4650 Clouds 9 1016 87 9000 3.1 180 16:47 20.12.2020
4651 Clouds 9 1016 87 10000 2.6 180 16:27 20.12.2020
4652 Clouds 9 1015 87 10000 3.6 190 15:50 20.12.2020
4653 Clouds 9 1015 87 10000 3.6 190 15:25 20.12.2020
4654 Clouds 9 1015 87 10000 3.6 190 14:55 20.12.2020
4655 Clouds 9 1015 87 10000 4.1 200 14:34 20.12.2020
4656 Clouds 9 1015 87 10000 4.1 190 13:48 20.12.2020
4657 Clouds 9 1015 87 10000 4.1 190 13:29 20.12.2020
4658 Clouds 9 1015 87 10000 4.1 190 12:59 20.12.2020
4659 Clouds 9 1016 81 10000 3.6 180 12:39 20.12.2020
4660 Clouds 9 1016 81 10000 3.6 180 12:21 20.12.2020
4661 Clouds 8 1016 87 10000 3.6 170 11:44 20.12.2020
4662 Clouds 8 1016 87 10000 3.6 170 11:25 20.12.2020
4663 Clouds 8 1015 87 10000 3.6 180 10:48 20.12.2020
4664 Clouds 8 1015 87 10000 3.6 180 10:20 20.12.2020
4665 Clouds 8 1015 87 10000 3.6 180 09:46 20.12.2020
4666 Clouds 8 1015 87 10000 3.6 180 09:27 20.12.2020
4667 Clouds 8 1015 87 10000 3.6 180 08:59 20.12.2020
4668 Clouds 8 1015 87 10000 4.6 170 08:39 20.12.2020
4669 Clouds 7 1015 93 10000 3.6 170 07:28 20.12.2020
4670 Clouds 8 1015 87 10000 3.6 160 06:18 20.12.2020
4671 Clouds 8 1015 93 10000 3.1 160 02:24 20.12.2020
4672 Clouds 10 1014 87 10000 4.1 200 00:39 20.12.2020
4673 Clouds 10 1014 87 10000 4.6 200 23:22 19.12.2020
4674 Clouds 10 1014 87 10000 4.6 200 22:59 19.12.2020
4675 Clouds 10 1013 81 10000 4.6 190 22:40 19.12.2020
4676 Clouds 10 1013 81 10000 4.6 190 22:20 19.12.2020
4677 Clouds 10 1013 81 10000 5.1 210 21:43 19.12.2020
4678 Clouds 10 1013 81 10000 5.1 210 21:25 19.12.2020
4679 Clouds 10 1013 81 10000 5.1 210 20:55 19.12.2020
4680 Clouds 10 1012 76 10000 4.6 190 20:24 19.12.2020
4681 Clouds 10 1012 76 10000 4.6 190 19:58 19.12.2020
4682 Clouds 9 1012 81 10000 4.6 170 19:38 19.12.2020
4683 Clouds 9 1012 81 10000 4.6 170 19:19 19.12.2020
4684 Clouds 9 1012 81 10000 6.2 170 18:33 19.12.2020
4685 Clouds 9 1012 81 10000 5.7 170 17:56 19.12.2020
4686 Clouds 9 1012 81 10000 5.7 170 17:32 19.12.2020
4687 Clouds 9 1012 81 10000 5.7 170 16:59 19.12.2020
4688 Clouds 8 1011 87 10000 5.7 170 16:39 19.12.2020
4689 Clouds 8 1011 87 10000 5.7 170 16:21 19.12.2020
4690 Clouds 8 1011 87 10000 5.1 170 15:49 19.12.2020
4691 Clouds 8 1011 87 10000 5.1 170 15:20 19.12.2020
4692 Clouds 8 1012 81 10000 5.1 170 14:37 19.12.2020
4693 Clouds 8 1012 81 10000 5.1 170 13:58 19.12.2020
4694 Clouds 7 1013 87 10000 5.1 170 13:37 19.12.2020
4695 Clouds 7 1013 87 10000 5.1 170 13:18 19.12.2020
4696 Clouds 6 1013 87 10000 5.7 170 12:42 19.12.2020
4697 Clouds 6 1013 87 10000 5.7 170 12:24 19.12.2020
4698 Clouds 6 1013 87 10000 5.7 170 11:53 19.12.2020
4699 Clouds 5 1014 93 8000 5.1 160 11:33 19.12.2020
4700 Clouds 4 1014 93 6000 4.1 150 10:42 19.12.2020
4701 Clouds 4 1014 93 6000 4.1 150 10:20 19.12.2020
4702 Clouds 4 1014 93 6000 3.6 150 09:42 19.12.2020
4703 Clouds 4 1014 93 6000 3.6 150 08:59 19.12.2020
4704 Clouds 4 1014 93 10000 3.6 140 08:24 19.12.2020
4705 Clouds 5 1014 93 10000 4.6 160 07:23 19.12.2020
4706 Clouds 5 1014 86 10000 4.6 160 06:51 19.12.2020
4707 Clouds 5 1014 86 10000 4.6 160 06:18 19.12.2020
4708 Clouds 4 1015 93 9000 4.1 160 05:18 19.12.2020
4709 Clouds 6 1016 81 10000 4.1 170 01:36 19.12.2020
4710 Clouds 6 1016 81 10000 4.6 170 00:36 19.12.2020
4711 Clouds 6 1016 81 10000 4.6 170 00:18 19.12.2020
4712 Clouds 6 1017 87 10000 4.6 170 23:44 18.12.2020
4713 Clouds 6 1017 87 10000 4.6 170 23:22 18.12.2020
4714 Clouds 7 1017 81 10000 4.6 170 22:45 18.12.2020
4715 Clouds 7 1017 81 10000 4.6 170 22:21 18.12.2020
4716 Clouds 7 1017 81 10000 4.6 170 21:47 18.12.2020
4717 Clouds 7 1017 81 10000 4.1 170 21:28 18.12.2020
4718 Clouds 7 1017 81 10000 4.1 170 20:40 18.12.2020
4719 Clouds 8 1017 81 10000 5.1 190 20:19 18.12.2020
4720 Clouds 8 1018 81 10000 5.1 200 19:41 18.12.2020
4721 Clouds 8 1018 81 10000 5.1 200 19:20 18.12.2020
4722 Clouds 8 1018 81 10000 4.1 190 18:40 18.12.2020
4723 Clouds 8 1018 81 10000 4.1 190 18:22 18.12.2020
4724 Clouds 8 1017 87 10000 4.1 180 17:24 18.12.2020
4725 Clouds 8 1017 87 10000 4.1 180 16:49 18.12.2020
4726 Clouds 8 1017 87 10000 4.1 180 16:27 18.12.2020
4727 Clouds 8 1017 87 10000 5.1 200 15:59 18.12.2020
4728 Clouds 8 1018 87 10000 5.7 200 15:41 18.12.2020
4729 Clouds 8 1018 87 10000 5.7 200 15:22 18.12.2020
4730 Clouds 8 1018 87 10000 5.7 200 14:54 18.12.2020
4731 Clouds 8 1018 87 10000 6.7 200 14:21 18.12.2020
4732 Clouds 8 1019 87 10000 5.7 200 13:50 18.12.2020
4733 Clouds 8 1019 87 10000 5.7 200 13:30 18.12.2020
4734 Clouds 7 1019 87 10000 6.2 200 12:49 18.12.2020
4735 Clouds 7 1019 87 10000 6.2 200 12:21 18.12.2020
4736 Clouds 7 1019 87 10000 5.7 200 11:23 18.12.2020
4737 Clouds 6 1019 93 8000 5.7 200 10:40 18.12.2020
4738 Clouds 6 1019 93 7000 5.1 200 10:20 18.12.2020
4739 Clouds 6 1019 93 7000 5.1 190 09:39 18.12.2020
4740 Clouds 6 1019 93 7000 5.1 190 09:21 18.12.2020
4741 Clouds 6 1019 93 7000 5.1 190 08:55 18.12.2020
4742 Clouds 6 1019 93 6000 4.6 200 08:30 18.12.2020
4743 Clouds 6 1019 93 10000 4.1 200 07:47 18.12.2020
4744 Clouds 6 1019 93 10000 4.1 200 07:19 18.12.2020
4745 Clouds 6 1019 93 10000 4.1 200 06:58 18.12.2020
4746 Clouds 6 1020 93 9000 4.6 200 05:43 18.12.2020
4747 Clouds 6 1020 93 9000 4.6 200 04:51 18.12.2020
4748 Clouds 8 1019 87 8000 4.1 220 02:31 18.12.2020
4749 Clouds 7 1019 93 8000 4.6 210 01:41 18.12.2020
4750 Clear 7 1019 93 8000 4.1 220 00:28 18.12.2020
4751 Clouds 7 1019 93 10000 4.6 220 23:51 17.12.2020
4752 Clouds 7 1019 93 10000 4.6 220 23:20 17.12.2020
4753 Clouds 8 1018 93 10000 5.1 220 22:47 17.12.2020
4754 Clouds 8 1018 93 10000 5.1 220 22:27 17.12.2020
4755 Clouds 8 1018 93 10000 5.1 220 21:44 17.12.2020
4756 Clouds 8 1018 93 10000 5.1 220 21:44 17.12.2020
4757 Clouds 8 1018 93 10000 5.1 220 21:44 17.12.2020
4758 Clouds 8 1018 93 10000 5.1 220 21:44 17.12.2020
4759 Clouds 8 1018 93 10000 5.1 220 21:21 17.12.2020
4760 Clouds 8 1018 93 10000 5.1 220 20:45 17.12.2020
4761 Clouds 8 1018 87 10000 4.6 220 20:20 17.12.2020
4762 Clouds 8 1017 87 10000 4.6 220 19:56 17.12.2020
4763 Clouds 8 1017 87 10000 4.6 220 19:38 17.12.2020
4764 Clouds 8 1017 87 10000 4.6 220 19:19 17.12.2020
4765 Clouds 8 1017 87 10000 4.1 230 18:40 17.12.2020
4766 Clouds 8 1017 87 10000 4.1 230 18:19 17.12.2020
4767 Clouds 8 1016 100 8000 4.6 220 17:45 17.12.2020
4768 Clouds 8 1016 100 8000 4.6 220 17:27 17.12.2020
4769 Clouds 8 1016 100 8000 4.6 220 16:40 17.12.2020
4770 Clouds 9 1015 93 10000 5.1 220 16:20 17.12.2020
4771 Clouds 9 1015 93 10000 5.1 220 15:50 17.12.2020
4772 Clouds 8 1015 93 10000 3.6 220 15:28 17.12.2020
4773 Clouds 8 1015 93 10000 3.6 220 14:50 17.12.2020
4774 Clouds 9 1015 87 10000 3.6 240 14:28 17.12.2020
4775 Rain 8 1014 93 10000 4.1 250 13:50 17.12.2020
4776 Clouds 8 1014 93 6000 6.2 260 13:23 17.12.2020
4777 Mist 8 1014 100 4000 6.2 260 12:43 17.12.2020
4778 Mist 8 1014 100 4000 6.2 260 12:24 17.12.2020
4779 Rain 9 1013 93 3500 4.6 240 11:43 17.12.2020
4780 Mist 9 1013 93 3500 5.1 220 11:22 17.12.2020
4781 Rain 8 1012 93 4000 3.6 180 10:49 17.12.2020
4782 Rain 8 1012 93 6000 4.6 170 09:42 17.12.2020
4783 Rain 8 1012 93 6000 4.6 170 09:21 17.12.2020
4784 Rain 8 1012 93 8000 5.1 160 07:49 17.12.2020
4785 Clouds 8 1012 93 8000 5.1 160 07:28 17.12.2020
4786 Rain 8 1013 93 8000 4.6 160 06:51 17.12.2020
4787 Rain 8 1013 93 8000 4.6 160 06:32 17.12.2020
4788 Rain 8 1013 93 9000 5.1 170 03:55 17.12.2020
4789 Clouds 8 1014 93 7000 4.6 150 00:33 17.12.2020
4790 Clouds 8 1014 93 7000 4.6 150 23:51 16.12.2020
4791 Mist 8 1015 93 5000 4.1 140 23:19 16.12.2020
4792 Mist 7 1015 100 4500 3.6 130 22:52 16.12.2020
4793 Mist 7 1015 100 4500 3.6 130 22:32 16.12.2020
4794 Mist 7 1015 93 4000 3.6 130 21:47 16.12.2020
4795 Mist 7 1015 93 4000 3.6 130 21:27 16.12.2020
4796 Mist 7 1016 93 3000 3.6 130 20:54 16.12.2020
4797 Mist 7 1016 93 2500 5.1 130 20:21 16.12.2020
4798 Mist 6 1016 100 1500 4.6 130 19:52 16.12.2020
4799 Mist 6 1016 100 1500 3.1 120 19:19 16.12.2020
4800 Fog 6 1016 100 500 3.6 120 18:53 16.12.2020
4801 Fog 6 1016 100 500 3.6 120 18:27 16.12.2020
4802 Mist 6 1017 100 2200 3.1 120 17:43 16.12.2020
4803 Mist 6 1016 100 2000 3.1 120 17:18 16.12.2020
4804 Mist 7 1016 93 2800 3.6 120 16:39 16.12.2020
4805 Mist 7 1017 100 4000 3.1 130 16:20 16.12.2020
4806 Mist 7 1017 100 4000 3.1 130 15:49 16.12.2020
4807 Mist 8 1017 93 4500 3.1 130 15:26 16.12.2020
4808 Mist 7 1017 100 4000 3.6 140 14:47 16.12.2020
4809 Mist 7 1017 100 4000 3.6 140 14:28 16.12.2020
4810 Mist 7 1017 93 4000 4.6 140 13:46 16.12.2020
4811 Mist 7 1017 93 4000 4.6 140 13:27 16.12.2020
4812 Clouds 8 1017 87 9000 4.6 150 12:55 16.12.2020
4813 Clouds 8 1017 87 9000 4.6 150 12:34 16.12.2020
4814 Clouds 6 1018 93 10000 2.1 140 11:39 16.12.2020
4815 Clouds 6 1018 93 10000 2.1 140 11:20 16.12.2020
4816 Fog 6 1017 93 10000 2.6 160 10:43 16.12.2020
4817 Fog 6 1017 93 10000 2.6 160 10:22 16.12.2020
4818 Fog 6 1017 93 10000 2.6 160 09:40 16.12.2020
4819 Clouds 7 1017 93 10000 2.6 140 08:36 16.12.2020
4820 Clouds 7 1016 93 10000 2.1 140 07:52 16.12.2020
4821 Clouds 7 1016 93 10000 2.1 140 07:33 16.12.2020
4822 Clouds 8 1016 93 10000 3.1 160 06:41 16.12.2020
4823 Clear 8 1014 93 7000 2.6 220 02:26 16.12.2020
4824 Clouds 8 1014 93 7000 4.1 260 00:26 16.12.2020
4825 Clouds 8 1013 100 7000 3.1 250 23:44 15.12.2020
4826 Mist 8 1012 100 5000 3.1 250 22:47 15.12.2020
4827 Mist 8 1012 100 5000 3.1 250 22:25 15.12.2020
4828 Mist 8 1011 100 5000 2.6 250 21:57 15.12.2020
4829 Mist 8 1011 100 5000 2.6 250 21:37 15.12.2020
4830 Mist 8 1011 100 5000 2.6 250 21:18 15.12.2020
4831 Mist 8 1011 100 5000 2.6 250 20:42 15.12.2020
4832 Mist 8 1011 100 5000 2.1 240 20:23 15.12.2020
4833 Mist 8 1011 100 4500 2.6 240 19:42 15.12.2020
4834 Mist 8 1011 100 4500 2.6 240 19:23 15.12.2020
4835 Mist 8 1009 100 3500 3.1 220 18:39 15.12.2020
4836 Rain 8 1009 100 3500 3.1 220 18:21 15.12.2020
4837 Rain 8 1009 100 3500 3.1 220 18:21 15.12.2020
4838 Rain 8 1009 100 2000 2.6 210 17:44 15.12.2020
4839 Rain 8 1009 100 2000 2.6 210 17:23 15.12.2020
4840 Rain 8 1008 100 2800 2.6 200 16:39 15.12.2020
4841 Rain 8 1008 100 2800 2.6 200 16:21 15.12.2020
4842 Drizzle 8 1008 100 3500 2.6 210 15:37 15.12.2020
4843 Mist 8 1008 100 5000 3.1 190 15:18 15.12.2020
4844 Rain 8 1008 100 5000 3.1 190 14:41 15.12.2020
4845 Clouds 8 1008 100 6000 2.6 210 14:20 15.12.2020
4846 Clouds 8 1008 100 7000 2.6 210 13:49 15.12.2020
4847 Rain 8 1008 100 7000 2.6 210 13:25 15.12.2020
4848 Rain 8 1008 100 8000 2.6 200 12:46 15.12.2020
4849 Clouds 8 1008 100 8000 2.6 200 12:19 15.12.2020
4850 Clouds 8 1008 100 8000 2.6 200 11:52 15.12.2020
4851 Clouds 8 1008 93 6000 3.1 190 11:24 15.12.2020
4852 Clouds 7 1007 100 6000 3.6 190 10:49 15.12.2020
4853 Clouds 7 1007 100 6000 3.6 190 10:21 15.12.2020
4854 Clouds 7 1007 100 6000 3.1 190 09:45 15.12.2020
4855 Clouds 7 1007 100 6000 3.1 190 09:27 15.12.2020
4856 Clouds 7 1007 93 6000 3.6 180 08:47 15.12.2020
4857 Clouds 7 1007 93 6000 3.6 180 08:24 15.12.2020
4858 Clouds 7 1007 93 7000 3.6 180 07:49 15.12.2020
4859 Clouds 7 1007 93 7000 3.6 180 07:23 15.12.2020
4860 Rain 7 1006 93 6000 3.6 160 06:27 15.12.2020
4861 Clouds 8 1008 93 5000 4.1 160 01:27 15.12.2020
4862 Clouds 9 1008 93 9000 3.1 150 00:34 15.12.2020
4863 Clouds 9 1008 93 10000 3.1 160 23:23 14.12.2020
4864 Clouds 9 1008 93 10000 3.6 170 22:48 14.12.2020
4865 Clouds 9 1008 93 10000 3.6 170 22:27 14.12.2020
4866 Clouds 9 1007 93 10000 3.1 180 21:44 14.12.2020
4867 Clouds 9 1008 93 10000 3.6 180 21:22 14.12.2020
4868 Clouds 9 1007 93 10000 4.1 190 20:51 14.12.2020
4869 Clouds 9 1007 93 10000 4.1 190 20:51 14.12.2020
4870 Clouds 9 1007 93 10000 4.1 190 20:29 14.12.2020
4871 Clouds 9 1007 93 10000 4.1 190 19:53 14.12.2020
4872 Clouds 9 1007 93 10000 4.1 190 19:29 14.12.2020
4873 Clouds 9 1007 93 10000 4.6 190 18:44 14.12.2020
4874 Clouds 9 1007 93 10000 4.6 190 18:25 14.12.2020
4875 Clouds 9 1006 93 10000 4.6 200 17:46 14.12.2020
4876 Clouds 9 1006 93 10000 4.6 200 17:23 14.12.2020
4877 Clouds 9 1006 93 10000 3.6 200 16:50 14.12.2020
4878 Clouds 9 1006 93 10000 4.6 190 16:29 14.12.2020
4879 Clouds 9 1005 87 10000 5.7 190 15:39 14.12.2020
4880 Clouds 9 1005 87 10000 5.7 190 15:20 14.12.2020
4881 Clouds 8 1005 93 10000 6.7 190 14:42 14.12.2020
4882 Clouds 8 1005 93 10000 6.7 190 14:23 14.12.2020
4883 Clouds 7 1005 93 8000 5.1 190 13:42 14.12.2020
4884 Clouds 7 1005 93 8000 5.1 190 13:19 14.12.2020
4885 Mist 7 1005 93 2500 5.7 190 12:52 14.12.2020
4886 Mist 6 1005 100 5000 5.1 170 12:24 14.12.2020
4887 Clouds 6 1005 93 10000 6.2 170 11:35 14.12.2020
4888 Mist 6 1006 87 3000 5.1 170 10:38 14.12.2020
4889 Rain 6 1006 87 3000 5.1 170 10:19 14.12.2020
4890 Rain 6 1006 81 10000 5.7 170 09:31 14.12.2020
4891 Rain 6 1006 81 10000 5.1 170 08:47 14.12.2020
4892 Rain 6 1006 81 10000 5.1 170 08:28 14.12.2020
4893 Clouds 6 1006 81 10000 5.7 160 07:44 14.12.2020
4894 Clouds 6 1006 81 10000 5.1 160 06:47 14.12.2020
4895 Clouds 6 1006 81 10000 5.1 160 05:35 14.12.2020
4896 Clouds 6 1008 87 8000 4.1 150 02:26 14.12.2020
4897 Clouds 5 1009 100 7000 3.1 150 00:56 14.12.2020
4898 Clouds 5 1010 100 3500 3.1 140 00:33 14.12.2020
4899 Mist 8 1010 93 3500 3.6 140 23:50 13.12.2020
4900 Rain 8 1010 93 3500 3.6 140 23:30 13.12.2020
4901 Rain 9 1010 93 3000 2.6 150 22:47 13.12.2020
4902 Rain 8 1010 93 3000 2.6 150 22:20 13.12.2020
4903 Mist 8 1010 100 3500 2.6 160 21:47 13.12.2020
4904 Mist 8 1010 100 3500 2.6 160 21:27 13.12.2020
4905 Mist 5 1010 100 3500 2.6 140 20:38 13.12.2020
4906 Mist 6 1010 100 3500 2.6 140 20:20 13.12.2020
4907 Mist 8 1010 100 4000 2.6 140 19:42 13.12.2020
4908 Mist 8 1010 100 4000 2.6 140 19:20 13.12.2020
4909 Mist 8 1010 100 3800 2.6 140 18:43 13.12.2020
4910 Mist 8 1010 93 2800 2.6 150 18:21 13.12.2020
4911 Fog 8 1010 100 600 2.6 170 17:47 13.12.2020
4912 Fog 8 1010 100 600 2.6 170 17:47 13.12.2020
4913 Fog 8 1010 100 600 2.6 170 17:21 13.12.2020
4914 Fog 8 1010 100 600 2.6 170 16:58 13.12.2020
4915 Fog 6 1010 100 800 2.6 180 16:38 13.12.2020
4916 Fog 5 1010 100 800 2.6 180 16:19 13.12.2020
4917 Fog 6 1010 100 700 2.1 210 15:40 13.12.2020
4918 Fog 6 1010 100 700 2.1 210 15:22 13.12.2020
4919 Mist 6 1009 100 1500 1.5 0 14:44 13.12.2020
4920 Mist 6 1009 100 1500 1.5 0 14:21 13.12.2020
4921 Mist 6 1009 93 2500 3.1 200 13:43 13.12.2020
4922 Mist 9 1009 93 2500 3.1 200 13:25 13.12.2020
4923 Mist 9 1009 100 1800 2.6 180 12:49 13.12.2020
4924 Fog 4 1009 100 600 2.6 170 12:23 13.12.2020
4925 Fog 3 1009 100 600 2.6 140 11:42 13.12.2020
4926 Drizzle 3 1008 100 600 3.1 130 10:56 13.12.2020
4927 Fog 3 1008 100 600 3.1 130 10:38 13.12.2020
4928 Drizzle 3 1008 100 600 3.1 130 09:57 13.12.2020
4929 Drizzle 3 1007 100 800 3.6 120 09:28 13.12.2020
4930 Drizzle 3 1007 100 1200 3.1 130 08:35 13.12.2020
4931 Fog 3 1006 100 800 3.6 120 07:51 13.12.2020
4932 Clouds 3 1005 100 1200 4.1 120 04:48 13.12.2020
4933 Clouds 3 1005 100 2600 3.6 120 02:42 13.12.2020
4934 Clouds 3 1004 100 2200 3.1 110 01:58 13.12.2020
4935 Clouds 3 1004 100 1500 3.6 120 00:51 13.12.2020
4936 Clouds 3 1004 100 1500 3.6 120 00:33 13.12.2020
4937 Drizzle 3 1003 100 2000 3.6 120 23:33 12.12.2020
4938 Drizzle 3 1003 100 2000 3.6 120 22:57 12.12.2020
4939 Mist 3 1003 100 2000 2.6 110 22:25 12.12.2020
4940 Mist 3 1002 100 2000 3.6 110 21:44 12.12.2020
4941 Drizzle 3 1002 100 2000 3.6 110 21:18 12.12.2020
4942 Drizzle 3 1002 100 1500 3.1 110 20:43 12.12.2020
4943 Drizzle 3 1002 100 1500 3.1 110 20:19 12.12.2020
4944 Drizzle 3 1002 100 1500 3.1 110 19:47 12.12.2020
4945 Drizzle 3 1002 100 1500 3.1 110 19:29 12.12.2020
4946 Drizzle 3 1001 100 1500 2.6 110 18:48 12.12.2020
4947 Drizzle 3 1001 100 1500 2.6 110 18:30 12.12.2020
4948 Drizzle 3 1001 100 1500 2.6 110 17:51 12.12.2020
4949 Drizzle 3 1000 93 1200 3.1 120 17:32 12.12.2020
4950 Drizzle 3 999 93 1500 3.1 110 16:28 12.12.2020
4951 Drizzle 3 999 93 3500 3.1 120 15:53 12.12.2020
4952 Drizzle 3 999 93 3500 3.1 120 15:34 12.12.2020
4953 Drizzle 3 999 93 3500 3.1 120 14:53 12.12.2020
4954 Drizzle 2 998 100 3500 3.6 110 13:58 12.12.2020
4955 Mist 2 998 93 3500 3.6 110 13:38 12.12.2020
4956 Drizzle 2 998 93 3500 3.6 110 13:19 12.12.2020
4957 Mist 2 998 93 2500 3.6 110 12:32 12.12.2020
4958 Mist 2 998 93 2000 3.6 110 11:18 12.12.2020
4959 Mist 2 997 93 2000 4.1 90 10:42 12.12.2020
4960 Clouds 2 997 92 6000 4.6 110 09:20 12.12.2020
4961 Clouds 2 996 93 6000 4.6 100 07:26 12.12.2020
4962 Clouds 3 995 86 8000 4.6 110 00:50 12.12.2020
4963 Clouds 2 995 93 8000 5.1 100 23:19 11.12.2020
4964 Clouds 3 995 86 8000 5.1 110 20:55 11.12.2020
4965 Clouds 3 995 86 8000 5.1 110 19:42 11.12.2020
4966 Clouds 3 996 86 7000 4.1 120 16:49 11.12.2020
4967 Clouds 3 997 86 8000 5.1 120 14:29 11.12.2020
4968 Clouds 3 997 86 8000 5.1 120 13:26 11.12.2020
4969 Clouds 2 998 93 8000 4.6 130 12:22 11.12.2020
4970 Clouds 2 998 93 8000 4.6 130 11:52 11.12.2020
4971 Clouds 2 999 93 8000 5.1 130 11:30 11.12.2020
4972 Clouds 2 998 93 6000 5.7 120 10:40 11.12.2020
4973 Clouds 2 1000 93 6000 4.6 130 07:31 11.12.2020
4974 Clouds 2 1001 100 3300 3.1 130 05:36 11.12.2020
4975 Clouds 2 1003 100 1400 3.1 130 02:58 11.12.2020
4976 Clouds 2 1005 100 800 2.6 130 00:48 11.12.2020
4977 Mist 2 1005 100 3500 2.1 140 23:27 10.12.2020
4978 Mist 2 1006 100 3500 2.6 140 21:37 10.12.2020
4979 Drizzle 2 1006 100 2000 3.1 120 20:51 10.12.2020
4980 Mist 2 1006 100 3500 2.6 120 20:26 10.12.2020
4981 Mist 3 1006 93 3500 3.6 110 19:29 10.12.2020
4982 Mist 3 1007 93 3500 1.5 120 18:48 10.12.2020
4983 Mist 3 1007 93 3500 1.5 110 17:29 10.12.2020
4984 Mist 3 1007 93 3500 1.5 100 15:58 10.12.2020
4985 Mist 3 1007 93 3500 2.1 100 15:22 10.12.2020
4986 Rain 3 1007 93 3500 1 110 14:46 10.12.2020
4987 Rain 3 1008 93 4500 2.6 130 13:42 10.12.2020
4988 Mist 3 1008 93 4000 2.1 120 12:21 10.12.2020
4989 Mist 3 1008 93 4000 2.6 110 10:54 10.12.2020
4990 Rain 2 1009 100 3000 1 100 08:27 10.12.2020
4991 Rain 2 1008 100 2000 2.1 70 07:28 10.12.2020
4992 Clouds 2 1008 100 2100 1 190 05:51 10.12.2020
4993 Clouds 2 1009 93 4400 2.1 180 02:43 10.12.2020
4994 Clouds 3 1010 86 5000 2.6 160 01:33 10.12.2020
4995 Clouds 3 1010 86 6000 2.6 170 23:44 09.12.2020
4996 Mist 3 1010 93 3000 1 0 20:39 09.12.2020
4997 Mist 3 1010 93 4500 2.1 140 19:46 09.12.2020
4998 Mist 3 1010 93 5000 1 170 18:42 09.12.2020
4999 Mist 3 1010 93 5000 1.5 170 17:35 09.12.2020
5000 Mist 3 1009 93 5000 1.5 140 16:40 09.12.2020
5001 Mist 3 1009 93 5000 1.5 140 16:20 09.12.2020
5002 Mist 3 1009 93 4500 3.1 110 14:51 09.12.2020
5003 Mist 3 1009 93 4500 3.1 110 14:27 09.12.2020
5004 Mist 3 1010 93 4500 2.1 110 13:46 09.12.2020
5005 Mist 3 1010 93 4500 2.1 110 13:18 09.12.2020
5006 Mist 3 1010 93 3700 2.1 110 12:36 09.12.2020
5007 Mist 3 1010 93 3200 2.1 100 11:37 09.12.2020
5008 Rain 2 1010 100 3000 2.1 120 09:54 09.12.2020
5009 Mist 2 1009 93 4500 3.1 120 08:42 09.12.2020
5010 Mist 2 1009 100 3700 2.6 110 06:56 09.12.2020
5011 Clouds 3 1009 93 4800 3.6 130 05:33 09.12.2020
5012 Clouds 4 1008 86 5000 3.1 100 02:57 09.12.2020
5013 Clouds 4 1008 93 5000 2.1 80 00:52 09.12.2020
5014 Clouds 4 1008 93 5000 2.1 80 23:36 08.12.2020
5015 Clouds 4 1008 93 6000 1.5 90 22:27 08.12.2020
5016 Clouds 4 1007 93 6000 3.1 110 20:48 08.12.2020
5017 Clouds 4 1007 93 7000 3.6 100 19:31 08.12.2020
5018 Clouds 4 1007 93 7000 3.6 100 18:41 08.12.2020
5019 Clouds 3 1006 93 7000 2.6 80 17:20 08.12.2020
5020 Clouds 6 1005 81 10000 4.1 70 15:26 08.12.2020
5021 Clouds 5 1006 80 10000 2.6 100 13:53 08.12.2020
5022 Clouds 5 1006 80 10000 2.6 100 12:54 08.12.2020
5023 Clouds 4 1006 86 10000 2.1 90 12:20 08.12.2020
5024 Clouds 3 1006 93 10000 2.6 80 11:28 08.12.2020
5025 Clouds 3 1005 93 10000 2.6 110 10:42 08.12.2020
5026 Clouds 3 1005 93 8000 2.6 110 09:46 08.12.2020
5027 Clouds 3 1004 100 10000 1.5 140 07:47 08.12.2020
5028 Clouds 3 1004 100 10000 1.5 130 06:33 08.12.2020
5029 Clouds 3 1004 93 5000 2.1 130 02:59 08.12.2020
5030 Clouds 3 1003 100 4400 2.1 130 00:45 08.12.2020
5031 Mist 3 1003 100 4500 2.1 140 23:50 07.12.2020
5032 Clouds 4 1002 93 6000 3.6 160 22:32 07.12.2020
5033 Clouds 5 1001 93 8000 4.1 170 21:48 07.12.2020
5034 Clouds 5 999 93 9000 4.6 180 19:46 07.12.2020
5035 Clouds 5 998 93 9000 5.1 180 18:20 07.12.2020
5036 Clouds 5 998 93 8000 4.6 170 17:26 07.12.2020
5037 Mist 5 997 93 4500 5.1 160 16:48 07.12.2020
5038 Mist 4 995 100 5000 5.1 160 15:26 07.12.2020
5039 Drizzle 4 995 100 5000 5.1 160 14:44 07.12.2020
5040 Clouds 4 994 93 6000 4.1 160 13:44 07.12.2020
5041 Mist 4 995 100 3500 3.6 140 12:35 07.12.2020
5042 Mist 4 994 100 3500 2.6 140 11:43 07.12.2020
5043 Rain 4 994 100 3500 2.6 140 10:56 07.12.2020
5044 Mist 4 994 100 2500 2.1 140 09:40 07.12.2020
5045 Mist 4 994 100 2000 2.1 120 07:58 07.12.2020
5046 Rain 4 995 100 1600 2.1 100 05:43 07.12.2020
5047 Clouds 4 995 100 1700 1.5 90 04:48 07.12.2020
5048 Clouds 4 997 100 2000 1.5 90 01:48 07.12.2020
5049 Mist 4 997 100 4500 1.5 0 23:32 06.12.2020
5050 Mist 4 998 100 4500 1.5 110 22:19 06.12.2020
5051 Rain 5 998 93 4500 1.5 90 20:53 06.12.2020
5052 Mist 5 999 100 4500 3.1 100 20:34 06.12.2020
5053 Rain 5 999 100 4500 3.1 100 19:53 06.12.2020
5054 Fog 5 999 100 500 3.6 60 18:18 06.12.2020
5055 Rain 5 1000 100 200 5.1 30 16:44 06.12.2020
5056 Fog 5 1000 100 500 4.6 30 14:52 06.12.2020
5057 Rain 4 1001 100 1400 4.6 30 13:42 06.12.2020
5058 Rain 4 1001 100 1400 4.1 30 12:42 06.12.2020
5059 Rain 4 1002 100 2000 3.1 30 11:57 06.12.2020
5060 Rain 4 1002 93 2500 4.6 30 11:32 06.12.2020
5061 Rain 3 1003 100 3000 3.6 40 10:45 06.12.2020
5062 Rain 2 1003 93 3500 3.6 60 09:49 06.12.2020
5063 Rain 2 1003 93 4000 2.6 60 08:29 06.12.2020
5064 Mist 1 1004 100 4000 3.1 90 06:37 06.12.2020
5065 Clouds 1 1004 100 2300 2.6 130 00:58 06.12.2020
5066 Clouds 1 1003 100 200 2.1 120 00:39 06.12.2020
5067 Clouds 1 1003 100 200 2.1 120 00:21 06.12.2020
5068 Clouds 3 1003 93 8000 3.6 160 22:46 05.12.2020
5069 Clouds 3 1003 93 8000 3.6 160 22:20 05.12.2020
5070 Mist 3 1003 93 5000 4.1 170 21:48 05.12.2020
5071 Mist 3 1003 93 5000 4.1 170 21:25 05.12.2020
5072 Fog 2 1002 93 50 2.6 130 19:21 05.12.2020
5073 Mist 3 1001 93 5000 3.1 190 18:40 05.12.2020
5074 Fog 2 1000 100 4500 2.1 190 17:29 05.12.2020
5075 Mist 3 999 93 3500 2.1 190 16:30 05.12.2020
5076 Mist 2 998 100 1500 2.6 190 15:47 05.12.2020
5077 Mist 2 997 93 1300 3.1 190 14:27 05.12.2020
5078 Mist 2 997 93 1300 3.1 190 14:27 05.12.2020
5079 Snow 0 996 94 2000 2.6 200 12:20 05.12.2020
5080 Snow 0 995 94 1200 1.5 140 11:40 05.12.2020
5081 Snow 0 995 96 1000 2.1 140 10:31 05.12.2020
5082 Snow 1 994 87 7000 2.1 100 07:48 05.12.2020
5083 Snow 1 994 81 8000 3.1 80 06:40 05.12.2020
5084 Rain 2 993 76 10000 3.1 100 03:54 05.12.2020
5085 Clouds 2 993 84 9000 2.6 90 23:52 04.12.2020
5086 Clouds 2 993 93 10000 4.1 130 22:24 04.12.2020
5087 Clouds 2 992 82 10000 4.6 120 20:25 04.12.2020
5088 Clouds 2 991 79 10000 3.1 110 18:53 04.12.2020
5089 Clouds 3 990 86 10000 3.6 120 18:19 04.12.2020
5090 Clouds 4 989 86 10000 3.6 120 17:37 04.12.2020
5091 Clouds 5 988 80 10000 5.1 130 15:46 04.12.2020
5092 Clouds 3 987 86 10000 5.7 120 13:40 04.12.2020
5093 Clouds 3 987 86 10000 5.7 120 13:22 04.12.2020
5094 Clouds 3 987 86 10000 5.7 120 12:54 04.12.2020
5095 Rain 1 987 86 7000 6.2 120 10:41 04.12.2020
5096 Rain 1 987 86 8000 7.2 130 09:55 04.12.2020
5097 Clouds 1 986 80 10000 7.2 120 07:29 04.12.2020
5098 Clouds 1 987 80 10000 7.7 130 06:39 04.12.2020
5099 Clouds 2 989 80 10000 6.2 130 02:25 04.12.2020
5100 Clouds 3 991 93 10000 5.1 140 23:21 03.12.2020
5101 Clouds 3 992 93 10000 5.1 140 22:45 03.12.2020
5102 Rain 3 993 86 10000 5.7 150 20:49 03.12.2020
5103 Clouds 3 994 86 10000 6.7 150 19:38 03.12.2020
5104 Rain 3 994 86 10000 6.7 150 19:19 03.12.2020
5105 Clouds 4 995 86 10000 5.1 150 18:34 03.12.2020
5106 Clouds 4 995 86 10000 4.1 160 17:20 03.12.2020
5107 Clouds 4 996 86 9000 5.1 150 15:58 03.12.2020
5108 Clouds 4 997 93 8000 5.1 160 15:31 03.12.2020
5109 Clouds 4 998 86 7000 5.1 170 14:48 03.12.2020
5110 Mist 3 999 93 5000 5.1 160 13:49 03.12.2020
5111 Rain 3 1000 93 4500 5.1 160 12:33 03.12.2020
5112 Rain 3 1000 93 4500 5.1 160 11:55 03.12.2020
5113 Rain 2 1001 100 2800 5.1 160 10:36 03.12.2020
5114 Rain 2 1003 93 4500 4.6 160 08:21 03.12.2020
5115 Clouds 2 1007 93 7000 4.6 170 03:42 03.12.2020
5116 Clouds 2 1009 93 6000 4.1 160 01:39 03.12.2020
5117 Mist 2 1009 93 5000 3.6 170 23:51 02.12.2020
5118 Mist 2 1011 100 5000 3.1 160 22:41 02.12.2020
5119 Mist 2 1012 100 4500 2.6 150 21:37 02.12.2020
5120 Mist 2 1012 100 4500 2.6 150 20:49 02.12.2020
5121 Drizzle 2 1012 100 4500 2.6 140 20:30 02.12.2020
5122 Drizzle 3 1013 93 4500 2.1 150 19:40 02.12.2020
5123 Drizzle 3 1014 93 5000 2.1 140 17:49 02.12.2020
5124 Drizzle 3 1014 93 5000 2.1 140 17:30 02.12.2020
5125 Mist 3 1016 93 5000 1 130 15:43 02.12.2020
5126 Mist 3 1018 93 3800 2.1 130 13:26 02.12.2020
5127 Mist 3 1020 93 3700 2.6 120 11:30 02.12.2020
5128 Mist 3 1020 93 2800 2.1 100 10:24 02.12.2020
5129 Mist 2 1021 100 3500 1.5 90 07:46 02.12.2020
5130 Mist 4 1022 93 5000 3.6 80 23:30 01.12.2020
5131 Clouds 4 1021 93 6000 3.1 80 22:20 01.12.2020
5132 Clouds 4 1019 93 6000 3.1 80 19:37 01.12.2020
5133 Clouds 4 1019 93 6000 3.1 80 19:37 01.12.2020
5134 Clouds 4 1019 93 6000 3.1 80 18:56 01.12.2020
5135 Clouds 5 1017 93 7000 4.1 60 16:48 01.12.2020
5136 Clouds 5 1016 93 8000 4.1 60 14:53 01.12.2020
5137 Mist 5 1014 100 5000 3.6 50 12:48 01.12.2020
5138 Mist 5 1013 100 4000 4.1 70 11:41 01.12.2020
5139 Mist 5 1013 100 4000 4.1 70 10:54 01.12.2020
5140 Fog 4 1012 100 900 3.1 60 10:31 01.12.2020
5141 Rain 4 1009 100 500 1 90 07:47 01.12.2020
5142 Rain 4 1009 100 900 1 110 06:25 01.12.2020
5143 Clouds 3 1009 100 3000 4.6 200 01:36 01.12.2020
5144 Clouds 3 1009 93 6000 5.1 200 00:50 01.12.2020
5145 Mist 2 1010 100 5000 4.6 200 23:20 30.11.2020
5146 Mist 2 1010 100 5000 5.1 200 22:42 30.11.2020
5147 Mist 2 1011 100 4800 5.1 200 22:22 30.11.2020
5148 Drizzle 1 1012 100 3800 5.1 200 20:47 30.11.2020
5149 Drizzle 1 1014 95 3200 5.7 200 19:41 30.11.2020
5150 Rain 1 1015 94 2800 5.1 200 18:22 30.11.2020
5151 Drizzle 1 1016 86 3500 5.7 200 17:46 30.11.2020
5152 Rain 1 1016 86 5000 5.7 200 16:54 30.11.2020
5153 Rain 2 1018 74 8000 5.1 200 15:45 30.11.2020
5154 Clouds 2 1019 80 10000 4.6 190 14:21 30.11.2020
5155 Clouds 2 1021 74 10000 5.1 210 13:41 30.11.2020
5156 Clouds 2 1022 80 10000 3.6 190 12:26 30.11.2020
5157 Clouds 2 1022 80 10000 3.6 190 11:57 30.11.2020
5158 Clouds 1 1024 80 10000 2.1 190 10:25 30.11.2020
5159 Clouds 1 1024 80 10000 2.1 180 09:35 30.11.2020
5160 Clouds 1 1025 80 10000 2.1 200 06:48 30.11.2020
5161 Clouds 3 1027 69 10000 2.1 140 23:39 29.11.2020
5162 Clouds 3 1028 80 10000 0.5 360 21:49 29.11.2020
5163 Clouds 3 1028 80 10000 0.5 100 21:28 29.11.2020
5164 Clouds 3 1028 74 10000 0.5 10 19:49 29.11.2020
5165 Clouds 4 1028 74 10000 2.1 360 17:47 29.11.2020
5166 Clouds 5 1028 80 10000 1.5 10 14:54 29.11.2020
5167 Clouds 5 1028 69 10000 1.5 0 12:58 29.11.2020
5168 Clouds 2 1028 72 10000 1 60 11:41 29.11.2020
5169 Clouds 1 1028 73 10000 1 60 09:42 29.11.2020
5170 Clouds 0 1028 73 10000 1.5 50 08:37 29.11.2020
5171 Clouds -1 1028 100 9000 2.1 100 04:40 29.11.2020
5172 Clouds 2 1027 79 10000 4.6 110 23:48 28.11.2020
5173 Clouds 2 1027 79 10000 4.6 110 22:56 28.11.2020
5174 Clouds 1 1026 79 10000 5.1 100 20:44 28.11.2020
5175 Clouds 1 1026 100 6000 4.1 90 19:47 28.11.2020
5176 Clouds 1 1026 100 6000 4.1 90 19:21 28.11.2020
5177 Drizzle 1 1026 100 1200 5.1 120 18:27 28.11.2020
5178 Mist 1 1025 100 1000 4.1 100 17:47 28.11.2020
5179 Mist 1 1025 100 1200 4.1 120 16:40 28.11.2020
5180 Mist 2 1025 93 1500 5.1 90 14:52 28.11.2020
5181 Mist 2 1024 100 2000 3.6 110 11:31 28.11.2020
5182 Mist 2 1024 93 1200 3.6 110 10:36 28.11.2020
5183 Fog 0 1022 84 100 3.6 110 06:36 28.11.2020
5184 Clouds 1 1022 86 50 3.1 80 03:26 28.11.2020
5185 Clouds 2 1022 100 100 2.6 80 01:34 28.11.2020
5186 Fog 3 1022 100 700 2.6 90 22:56 27.11.2020
5187 Fog 3 1022 100 1500 2.1 80 21:33 27.11.2020
5188 Fog 4 1022 93 4000 1 100 20:31 27.11.2020
5189 Clouds 5 1021 100 8000 2.1 90 19:25 27.11.2020
5190 Clouds 6 1021 93 9000 3.1 100 18:44 27.11.2020
5191 Clouds 7 1021 93 10000 2.6 90 14:56 27.11.2020
5192 Clouds 7 1021 93 10000 2.1 100 13:29 27.11.2020
5193 Mist 5 1022 100 3700 2.1 110 12:48 27.11.2020
5194 Mist 5 1022 100 3700 2.1 110 11:50 27.11.2020
5195 Mist 5 1022 100 2000 2.6 120 10:51 27.11.2020
5196 Fog 4 1021 100 500 2.1 120 10:22 27.11.2020
5197 Clear 9 1021 72 10000 1.69 92 07:30 27.11.2020
5198 Clear 10 1021 73 10000 3.45 302 22:42 26.11.2020
5199 Clear 10 1020 74 10000 3.84 305 22:22 26.11.2020
5200 Clouds 5 1020 100 10000 1.5 240 21:25 26.11.2020
5201 Clouds 6 1020 93 10000 1.5 260 19:41 26.11.2020
5202 Clouds 6 1019 93 10000 2.1 250 18:31 26.11.2020
5203 Clouds 9 1019 81 10000 2.6 270 16:32 26.11.2020
5204 Clouds 10 1019 81 10000 3.6 320 13:43 26.11.2020
5205 Clouds 10 1019 87 10000 2.6 310 12:45 26.11.2020
5206 Clouds 10 1019 87 10000 2.6 310 12:23 26.11.2020
5207 Clouds 9 1018 93 8000 2.1 270 10:38 26.11.2020
5208 Mist 9 1018 93 1800 2.1 260 09:59 26.11.2020
5209 Mist 9 1017 93 1100 4.1 260 09:31 26.11.2020
5210 Drizzle 8 1017 100 1500 4.1 240 08:40 26.11.2020
5211 Drizzle 8 1017 100 1500 4.1 240 07:49 26.11.2020
5212 Clouds 7 1016 87 10000 3.6 220 00:46 26.11.2020
5213 Clouds 6 1016 93 10000 3.6 220 21:36 25.11.2020
5214 Clouds 6 1016 81 10000 4.1 210 20:19 25.11.2020
5215 Clouds 7 1015 81 10000 3.6 200 18:58 25.11.2020
5216 Clouds 7 1015 81 10000 2.6 190 17:24 25.11.2020
5217 Clouds 7 1015 75 10000 3.1 190 15:42 25.11.2020
5218 Clouds 8 1015 75 10000 3.1 200 14:46 25.11.2020
5219 Clouds 8 1016 75 10000 3.6 210 13:45 25.11.2020
5220 Clouds 7 1016 81 10000 3.1 200 12:47 25.11.2020
5221 Clouds 6 1016 80 10000 4.6 180 11:22 25.11.2020
5222 Clouds 3 1016 86 9000 4.1 180 09:20 25.11.2020
5223 Clouds 3 1015 93 10000 3.6 190 08:50 25.11.2020
5224 Clouds 3 1016 86 10000 3.6 190 07:21 25.11.2020
5225 Clouds 4 1017 93 8000 4.1 180 03:49 25.11.2020
5226 Clouds 5 1017 86 7000 3.1 170 01:48 25.11.2020
5227 Clouds 6 1018 87 8000 3.6 190 00:19 25.11.2020
5228 Clouds 7 1018 87 10000 3.6 190 23:35 24.11.2020
5229 Clouds 8 1019 81 10000 4.1 200 22:39 24.11.2020
5230 Clouds 8 1019 81 10000 4.1 200 22:39 24.11.2020
5231 Clouds 8 1019 81 10000 4.6 200 21:35 24.11.2020
5232 Clouds 8 1019 81 10000 4.6 200 20:58 24.11.2020
5233 Clouds 8 1019 87 10000 4.1 190 19:48 24.11.2020
5234 Clouds 8 1019 87 10000 3.6 200 17:32 24.11.2020
5235 Clouds 8 1019 87 10000 3.6 200 16:58 24.11.2020
5236 Clouds 8 1020 87 10000 4.1 200 16:38 24.11.2020
5237 Clouds 8 1020 87 10000 4.1 200 15:56 24.11.2020
5238 Clouds 8 1020 87 10000 5.7 210 15:20 24.11.2020
5239 Clouds 9 1020 81 8000 6.2 210 14:44 24.11.2020
5240 Clouds 9 1020 81 8000 6.2 210 13:36 24.11.2020
5241 Clouds 8 1021 87 7000 6.7 210 12:39 24.11.2020
5242 Clouds 8 1021 87 7000 6.7 210 12:18 24.11.2020
5243 Clouds 7 1021 93 7000 6.7 210 11:25 24.11.2020
5244 Clouds 7 1021 87 6000 6.2 220 10:25 24.11.2020
5245 Clouds 6 1021 93 6000 6.7 210 09:40 24.11.2020
5246 Clouds 6 1021 93 6000 6.7 210 08:59 24.11.2020
5247 Clouds 5 1021 93 7000 6.2 220 06:42 24.11.2020
5248 Clouds 5 1024 86 10000 5.1 210 01:24 24.11.2020
5249 Clouds 6 1025 87 10000 5.1 220 22:24 23.11.2020
5250 Clouds 6 1025 87 10000 5.1 220 22:24 23.11.2020
5251 Clouds 6 1025 87 10000 5.1 220 21:32 23.11.2020
5252 Clouds 6 1026 87 10000 3.6 230 20:32 23.11.2020
5253 Clouds 6 1026 87 10000 3.6 230 19:59 23.11.2020
5254 Clouds 7 1025 87 10000 3.6 230 17:58 23.11.2020
5255 Clouds 8 1025 81 10000 3.6 240 17:19 23.11.2020
5256 Clouds 9 1025 81 10000 4.6 250 15:44 23.11.2020
5257 Clouds 9 1024 81 10000 6.7 250 14:46 23.11.2020
5258 Clouds 8 1024 87 10000 2.6 270 12:42 23.11.2020
5259 Clouds 8 1024 87 10000 2.6 270 12:21 23.11.2020
5260 Clouds 7 1024 87 10000 4.1 230 11:43 23.11.2020
5261 Clouds 7 1023 87 10000 3.6 250 10:45 23.11.2020
5262 Clouds 7 1022 87 10000 4.6 280 09:31 23.11.2020
5263 Clouds 7 1022 87 10000 5.1 260 08:39 23.11.2020
5264 Clouds 7 1021 81 10000 7.2 260 06:57 23.11.2020
5265 Rain 6 1021 87 7000 4.1 240 00:23 23.11.2020
5266 Clouds 6 1021 93 10000 4.1 240 23:18 22.11.2020
5267 Clouds 7 1021 87 10000 3.6 230 21:40 22.11.2020
5268 Clouds 7 1021 87 10000 3.6 230 20:53 22.11.2020
5269 Clouds 7 1021 87 10000 3.6 240 19:53 22.11.2020
5270 Clouds 8 1021 81 10000 4.6 250 18:40 22.11.2020
5271 Clouds 9 1021 76 10000 6.2 260 16:52 22.11.2020
5272 Clouds 10 1020 76 10000 6.2 270 15:44 22.11.2020
5273 Clouds 10 1020 76 10000 6.7 270 14:34 22.11.2020
5274 Clouds 10 1020 76 10000 7.7 260 12:50 22.11.2020
5275 Clouds 9 1020 81 10000 7.7 250 11:57 22.11.2020
5276 Clouds 9 1020 81 10000 7.7 250 11:20 22.11.2020
5277 Clouds 9 1019 87 10000 7.2 250 10:45 22.11.2020
5278 Clouds 8 1019 100 10000 5.1 240 09:32 22.11.2020
5279 Rain 9 1019 93 2900 6.2 230 01:49 22.11.2020
5280 Mist 9 1020 93 5000 7.2 240 23:40 21.11.2020
5281 Drizzle 9 1020 93 4000 6.7 240 22:18 21.11.2020
5282 Drizzle 9 1020 93 4000 6.7 230 21:30 21.11.2020
5283 Drizzle 9 1020 93 4000 6.7 230 21:30 21.11.2020
5284 Clouds 8 1020 100 6000 6.7 230 20:35 21.11.2020
5285 Mist 9 1020 93 5000 6.7 230 19:57 21.11.2020
5286 Mist 8 1021 100 5000 7.2 230 19:36 21.11.2020
5287 Drizzle 8 1021 100 4500 6.7 230 18:28 21.11.2020
5288 Drizzle 8 1021 93 2000 7.7 220 17:26 21.11.2020
5289 Drizzle 8 1021 93 3700 7.7 220 16:39 21.11.2020
5290 Drizzle 7 1021 100 1500 7.7 220 15:22 21.11.2020
5291 Mist 7 1021 93 2800 7.7 220 14:48 21.11.2020
5292 Drizzle 7 1021 93 2800 7.7 220 14:22 21.11.2020
5293 Drizzle 6 1022 93 2500 7.7 210 12:42 21.11.2020
5294 Drizzle 6 1023 93 3500 8.2 220 12:20 21.11.2020
5295 Clouds 6 1023 93 6000 8.2 220 10:57 21.11.2020
5296 Clouds 5 1023 93 7000 8.2 210 10:26 21.11.2020
5297 Clouds 5 1024 86 10000 7.7 210 08:51 21.11.2020
5298 Clouds 5 1025 75 10000 6.7 210 06:51 21.11.2020
5299 Clouds 4 1027 80 7000 7.2 210 05:24 21.11.2020
5300 Clouds 4 1030 85 9000 5.1 210 01:43 21.11.2020
5301 Clouds 4 1031 80 10000 5.1 220 23:59 20.11.2020
5302 Clouds 4 1031 93 10000 4.1 210 22:31 20.11.2020
5303 Clouds 4 1031 93 10000 3.6 210 21:44 20.11.2020
5304 Clouds 4 1031 93 10000 3.6 210 21:21 20.11.2020
5305 Clouds 5 1031 93 10000 3.1 210 19:52 20.11.2020
5306 Clouds 6 1031 87 10000 3.6 220 18:53 20.11.2020
5307 Rain 5 1031 93 10000 3.1 220 17:58 20.11.2020
5308 Clouds 5 1031 86 10000 2.6 220 17:29 20.11.2020
5309 Clouds 6 1031 81 10000 3.1 220 16:40 20.11.2020
5310 Clouds 6 1031 81 10000 3.1 220 15:59 20.11.2020
5311 Clouds 7 1031 75 10000 3.6 220 15:34 20.11.2020
5312 Clouds 6 1031 81 10000 0.5 360 13:48 20.11.2020
5313 Clouds 6 1031 81 10000 0.5 360 13:19 20.11.2020
5314 Clouds 5 1031 86 10000 1.5 330 12:39 20.11.2020
5315 Clouds 6 1031 81 5000 4.6 280 11:46 20.11.2020
5316 Clouds 6 1030 81 10000 7.19 314 11:20 20.11.2020
5317 Clouds 4 1028 86 10000 2.1 290 09:31 20.11.2020
5318 Clouds 5 1028 80 10000 5.7 10 08:26 20.11.2020
5319 Clouds 5 1027 80 8000 5.7 310 07:34 20.11.2020
5320 Clouds 5 1026 75 10000 4.1 310 03:45 20.11.2020
5321 Clouds 6 1024 75 10000 5.7 320 23:25 19.11.2020
5322 Clouds 6 1023 60 10000 6.7 310 22:27 19.11.2020
5323 Clouds 6 1022 60 10000 6.7 310 21:49 19.11.2020
5324 Clouds 5 1022 59 8000 6.7 300 20:37 19.11.2020
5325 Clouds 6 1022 70 5000 9.3 310 20:18 19.11.2020
5326 Clouds 7 1021 70 6000 7.7 330 19:25 19.11.2020
5327 Clouds 7 1018 70 10000 8.7 300 17:50 19.11.2020
5328 Clouds 7 1018 70 10000 8.7 300 16:59 19.11.2020
5329 Clouds 8 1017 52 10000 10.3 320 15:59 19.11.2020
5330 Clouds 9 1015 57 10000 11.8 310 15:28 19.11.2020
5331 Clouds 8 1013 87 10000 12.9 300 13:47 19.11.2020
5332 Clouds 8 1013 87 10000 12.9 300 13:25 19.11.2020
5333 Clouds 9 1012 81 8000 12.9 310 12:51 19.11.2020
5334 Rain 9 1011 87 10000 12.3 260 12:25 19.11.2020
5335 Clouds 9 1010 81 10000 9.3 240 11:40 19.11.2020
5336 Clouds 9 1010 81 10000 9.3 240 11:00 19.11.2020
5337 Clouds 9 1009 76 10000 8.2 230 10:29 19.11.2020
5338 Clouds 8 1009 81 10000 7.7 230 09:45 19.11.2020
5339 Rain 8 1009 81 10000 7.7 230 09:26 19.11.2020
5340 Clouds 9 1009 76 10000 7.7 240 08:20 19.11.2020
5341 Clouds 9 1009 76 10000 8.7 250 06:54 19.11.2020
5342 Rain 12 1009 81 10000 8.2 220 01:46 19.11.2020
5343 Clouds 13 1009 71 10000 7.2 230 00:31 19.11.2020
5344 Clouds 13 1010 71 10000 7.7 220 23:30 18.11.2020
5345 Clouds 13 1010 71 10000 7.7 220 22:57 18.11.2020
5346 Clouds 13 1010 71 10000 7.2 210 22:27 18.11.2020
5347 Rain 12 1011 76 10000 7.7 200 21:41 18.11.2020
5348 Clouds 12 1011 76 10000 7.7 200 21:21 18.11.2020
5349 Clouds 12 1012 76 10000 6.2 200 19:54 18.11.2020
5350 Clouds 11 1014 81 10000 4.6 190 19:35 18.11.2020
5351 Clouds 11 1014 81 10000 4.6 190 18:57 18.11.2020
5352 Clouds 11 1015 81 10000 5.1 180 18:38 18.11.2020
5353 Clouds 11 1016 81 10000 5.1 190 17:38 18.11.2020
5354 Clouds 12 1017 76 10000 5.7 200 16:25 18.11.2020
5355 Clouds 12 1017 76 10000 5.7 200 15:57 18.11.2020
5356 Clouds 12 1015 87 10000 10.88 199 14:41 18.11.2020
5357 Clouds 11 1017 86 10000 10.9 210 13:46 18.11.2020
5358 Clouds 11 1018 87 10000 11.22 214 13:21 18.11.2020
5359 Clouds 11 1018 87 10000 11.22 214 12:42 18.11.2020
5360 Clouds 11 1019 88 10000 11.6 216 11:41 18.11.2020
5361 Clouds 11 1021 93 10000 5.7 220 10:54 18.11.2020
5362 Clouds 11 1021 93 10000 5.7 220 10:27 18.11.2020
5363 Clouds 11 1021 93 8000 4.6 220 08:23 18.11.2020
5364 Mist 11 1021 93 4000 5.1 220 06:36 18.11.2020
5365 Clouds 11 1021 100 1500 5.7 220 01:49 18.11.2020
5366 Clouds 11 1021 100 2600 5.1 230 23:53 17.11.2020
5367 Drizzle 11 1021 100 4000 6.2 220 22:53 17.11.2020
5368 Drizzle 11 1021 100 4000 5.7 220 22:29 17.11.2020
5369 Drizzle 11 1021 100 4000 5.7 220 21:58 17.11.2020
5370 Drizzle 11 1021 100 4500 5.7 220 21:39 17.11.2020
5371 Clouds 12 1020 87 8000 5.1 230 20:55 17.11.2020
5372 Drizzle 11 1020 93 7000 5.1 220 20:27 17.11.2020
5373 Drizzle 11 1020 93 7000 5.1 220 19:59 17.11.2020
5374 Drizzle 11 1019 93 6000 5.1 220 18:35 17.11.2020
5375 Drizzle 12 1019 87 7000 5.7 240 17:44 17.11.2020
5376 Clouds 12 1019 93 10000 6.2 230 16:59 17.11.2020
5377 Clouds 12 1019 93 10000 6.2 230 16:20 17.11.2020
5378 Clouds 13 1018 87 10000 5.7 240 15:45 17.11.2020
5379 Clouds 13 1018 87 10000 5.7 240 15:27 17.11.2020
5380 Clouds 13 1018 87 10000 5.7 240 14:56 17.11.2020
5381 Clouds 12 1018 93 10000 5.1 240 14:28 17.11.2020
5382 Drizzle 11 1018 100 8000 5.7 230 13:38 17.11.2020
5383 Drizzle 11 1018 100 8000 5.7 230 13:18 17.11.2020
5384 Drizzle 11 1017 100 3000 6.7 220 12:40 17.11.2020
5385 Drizzle 11 1017 93 4000 7.2 220 11:44 17.11.2020
5386 Mist 10 1016 100 3500 6.7 210 10:49 17.11.2020
5387 Mist 10 1016 100 3500 6.7 210 10:23 17.11.2020
5388 Mist 10 1016 100 3500 6.7 210 09:50 17.11.2020
5389 Mist 10 1016 93 3000 5.7 210 09:27 17.11.2020
5390 Clouds 10 1016 93 8000 6.2 210 08:22 17.11.2020
5391 Clouds 9 1016 93 9000 6.2 210 07:44 17.11.2020
5392 Rain 9 1016 87 10000 5.1 210 06:34 17.11.2020
5393 Clouds 8 1017 93 7000 4.6 210 03:31 17.11.2020
5394 Clouds 8 1017 93 7000 4.6 210 02:53 17.11.2020
5395 Clouds 9 1016 87 7000 4.6 230 01:23 17.11.2020
5396 Clouds 9 1016 87 7000 4.6 230 00:53 17.11.2020
5397 Clouds 10 1015 87 10000 4.6 230 23:48 16.11.2020
5398 Clouds 10 1015 87 10000 4.6 230 23:29 16.11.2020
5399 Clouds 10 1015 87 10000 4.6 240 22:43 16.11.2020
5400 Clouds 10 1015 87 10000 4.6 240 22:20 16.11.2020
5401 Clouds 10 1014 87 10000 4.6 240 21:45 16.11.2020
5402 Clouds 10 1014 87 10000 4.6 240 21:24 16.11.2020
5403 Clouds 11 1013 87 10000 4.6 240 20:38 16.11.2020
5404 Clouds 11 1013 87 10000 4.6 240 20:20 16.11.2020
5405 Clouds 11 1013 87 10000 6.2 250 19:38 16.11.2020
5406 Clouds 11 1013 87 10000 6.2 250 19:19 16.11.2020
5407 Clouds 11 1012 87 10000 6.7 250 18:31 16.11.2020
5408 Clouds 11 1011 93 10000 5.1 240 17:50 16.11.2020
5409 Clouds 11 1011 93 10000 5.1 240 17:21 16.11.2020
5410 Clouds 11 1011 93 10000 5.1 240 16:53 16.11.2020
5411 Clouds 11 1010 93 6000 5.7 230 16:28 16.11.2020
5412 Clouds 11 1010 93 6000 5.7 230 15:52 16.11.2020
5413 Rain 10 1009 93 8000 5.7 230 15:31 16.11.2020
5414 Clouds 10 1009 93 7000 6.7 220 14:57 16.11.2020
5415 Rain 10 1008 93 6000 6.7 220 14:28 16.11.2020
5416 Mist 10 1008 87 4000 7.2 220 13:31 16.11.2020
5417 Rain 10 1007 87 4500 7.2 220 12:33 16.11.2020
5418 Clouds 10 1006 81 10000 7.2 220 11:44 16.11.2020
5419 Clouds 10 1006 81 10000 7.2 220 11:25 16.11.2020
5420 Clouds 10 1005 81 10000 7.2 230 10:48 16.11.2020
5421 Clouds 10 1005 81 10000 7.2 230 10:26 16.11.2020
5422 Clouds 9 1005 87 10000 6.7 220 09:56 16.11.2020
5423 Clouds 9 1004 81 10000 8.2 220 09:37 16.11.2020
5424 Clouds 9 1003 81 10000 7.7 210 08:49 16.11.2020
5425 Rain 9 1003 81 10000 7.7 210 08:26 16.11.2020
5426 Clouds 9 1003 81 10000 7.7 200 07:43 16.11.2020
5427 Clouds 8 1002 81 10000 6.2 200 06:47 16.11.2020
5428 Clouds 8 1002 81 10000 6.2 200 05:50 16.11.2020
5429 Rain 9 1001 81 8000 6.2 200 04:33 16.11.2020
5430 Clouds 8 1001 87 7000 4.6 200 01:47 16.11.2020
5431 Clouds 8 1001 87 7000 4.6 200 01:21 16.11.2020
5432 Clouds 8 1000 93 9000 3.6 190 23:43 15.11.2020
5433 Clouds 8 1000 93 9000 3.6 190 23:21 15.11.2020
5434 Rain 8 1000 93 5000 5.7 250 22:37 15.11.2020
5435 Mist 8 1000 93 5000 5.7 250 22:18 15.11.2020
5436 Rain 10 999 87 2500 9.3 210 21:41 15.11.2020
5437 Rain 13 998 82 10000 7.2 160 21:20 15.11.2020
5438 Rain 14 999 76 9000 6.2 180 20:40 15.11.2020
5439 Clouds 14 999 76 9000 6.2 180 20:18 15.11.2020
5440 Rain 15 1000 67 10000 6.7 160 19:43 15.11.2020
5441 Rain 15 1000 67 10000 6.7 160 19:22 15.11.2020
5442 Rain 15 1000 67 10000 6.7 160 18:55 15.11.2020
5443 Rain 14 1000 76 10000 6.2 160 18:37 15.11.2020
5444 Rain 14 1000 76 10000 6.2 160 18:18 15.11.2020
5445 Rain 14 1001 76 10000 6.2 160 17:42 15.11.2020
5446 Rain 14 1001 76 10000 6.2 160 17:22 15.11.2020
5447 Clouds 15 1002 72 10000 5.1 160 16:45 15.11.2020
5448 Clouds 15 1002 72 10000 5.1 160 16:20 15.11.2020
5449 Clouds 15 1002 72 10000 5.1 160 15:49 15.11.2020
5450 Clouds 15 1003 72 10000 6.7 170 15:26 15.11.2020
5451 Clouds 15 1003 72 10000 6.7 170 14:55 15.11.2020
5452 Clouds 15 1004 72 10000 6.7 160 14:29 15.11.2020
5453 Clouds 15 1004 72 10000 6.7 160 13:56 15.11.2020
5454 Clouds 15 1005 67 10000 6.2 180 13:36 15.11.2020
5455 Clouds 15 1005 67 10000 6.2 180 12:50 15.11.2020
5456 Clouds 14 1005 71 10000 6.7 190 12:22 15.11.2020
5457 Clouds 14 1006 71 10000 6.7 180 11:46 15.11.2020
5458 Clouds 14 1006 71 10000 6.7 180 11:19 15.11.2020
5459 Clouds 14 1006 71 10000 6.7 180 10:53 15.11.2020
5460 Clouds 12 1007 81 10000 5.7 170 10:32 15.11.2020
5461 Clouds 12 1007 81 10000 5.7 170 09:57 15.11.2020
5462 Clouds 12 1007 81 10000 4.6 180 09:37 15.11.2020
5463 Clouds 12 1007 81 10000 4.6 180 09:18 15.11.2020
5464 Clouds 12 1007 81 10000 4.6 190 08:45 15.11.2020
5465 Clouds 12 1008 81 10000 5.1 200 07:47 15.11.2020
5466 Clouds 13 1008 76 9000 4.6 190 06:49 15.11.2020
5467 Clouds 12 1008 81 8000 4.6 190 04:56 15.11.2020
5468 Rain 12 1010 81 8000 4.6 180 02:31 15.11.2020
5469 Clouds 11 1010 87 7000 3.6 180 00:37 15.11.2020
5470 Clouds 11 1010 87 7000 3.6 180 00:18 15.11.2020
5471 Clouds 12 1011 87 10000 4.1 180 23:30 14.11.2020
5472 Clouds 12 1011 87 10000 4.1 170 22:46 14.11.2020
5473 Clouds 12 1011 87 10000 4.1 170 22:27 14.11.2020
5474 Clouds 13 1011 82 10000 3.6 180 21:40 14.11.2020
5475 Clouds 13 1011 82 10000 3.6 180 21:21 14.11.2020
5476 Clouds 13 1011 82 10000 3.6 180 20:48 14.11.2020
5477 Clouds 13 1012 87 10000 3.6 180 20:26 14.11.2020
5478 Clouds 12 1012 93 9000 4.1 180 19:46 14.11.2020
5479 Clouds 12 1012 93 9000 4.1 180 19:27 14.11.2020
5480 Clouds 12 1012 93 6000 3.6 170 18:43 14.11.2020
5481 Clouds 12 1012 93 6000 3.6 170 18:23 14.11.2020
5482 Mist 12 1013 93 3000 3.6 160 17:49 14.11.2020
5483 Mist 12 1013 93 3000 3.6 160 17:31 14.11.2020
5484 Mist 12 1013 93 3000 4.1 160 16:56 14.11.2020
5485 Drizzle 12 1013 93 2800 3.1 140 16:36 14.11.2020
5486 Drizzle 12 1013 93 2800 2.6 140 16:18 14.11.2020
5487 Mist 12 1014 87 2000 2.6 160 15:44 14.11.2020
5488 Mist 12 1014 87 4000 2.6 160 15:18 14.11.2020
5489 Mist 12 1014 87 5000 2.1 190 14:38 14.11.2020
5490 Rain 12 1014 87 5000 2.1 190 14:20 14.11.2020
5491 Mist 11 1015 93 4000 2.6 210 13:40 14.11.2020
5492 Mist 11 1015 93 4000 2.6 210 13:21 14.11.2020
5493 Rain 11 1015 93 1800 2.6 210 12:43 14.11.2020
5494 Mist 11 1015 93 1800 2.6 210 12:23 14.11.2020
5495 Mist 10 1015 100 1300 2.6 190 11:41 14.11.2020
5496 Mist 10 1015 100 1300 2.6 190 11:41 14.11.2020
5497 Mist 10 1015 100 1300 2.6 190 11:22 14.11.2020
5498 Mist 9 1015 100 2800 2.6 180 10:42 14.11.2020
5499 Rain 9 1015 100 2800 2.6 180 10:23 14.11.2020
5500 Fog 8 1015 100 900 1.5 200 09:46 14.11.2020
5501 Fog 8 1015 100 900 1.5 200 09:28 14.11.2020
5502 Fog 8 1015 100 1200 2.1 200 08:48 14.11.2020
5503 Fog 8 1015 100 1200 2.1 200 08:26 14.11.2020
5504 Fog 8 1015 100 900 2.1 210 07:43 14.11.2020
5505 Fog 8 1015 100 900 2.1 210 07:22 14.11.2020
5506 Fog 8 1015 100 400 2.1 210 06:30 14.11.2020
5507 Fog 8 1015 100 300 2.1 220 05:27 14.11.2020
5508 Fog 9 1015 100 2500 2.1 240 03:52 14.11.2020
5509 Clouds 11 1014 100 4900 4.6 220 00:54 14.11.2020
5510 Clouds 11 1014 93 7000 4.1 210 23:46 13.11.2020
5511 Clouds 11 1014 93 7000 4.1 210 23:23 13.11.2020
5512 Clouds 11 1014 93 7000 3.6 210 22:44 13.11.2020
5513 Clouds 11 1014 93 7000 3.6 210 22:25 13.11.2020
5514 Clouds 11 1013 87 8000 4.1 210 21:51 13.11.2020
5515 Clouds 10 1013 87 9000 4.6 190 21:33 13.11.2020
5516 Clouds 10 1013 87 9000 4.6 190 20:59 13.11.2020
5517 Clouds 10 1013 87 9000 3.6 190 20:40 13.11.2020
5518 Clouds 10 1013 87 9000 3.6 190 20:20 13.11.2020
5519 Clouds 9 1013 87 10000 3.6 180 19:45 13.11.2020
5520 Rain 9 1013 87 10000 3.6 180 19:23 13.11.2020
5521 Clouds 9 1013 87 10000 3.6 180 18:53 13.11.2020
5522 Drizzle 10 1013 81 7000 3.6 190 18:00 13.11.2020
5523 Clouds 10 1013 81 10000 4.1 160 17:39 13.11.2020
5524 Clouds 10 1013 81 10000 4.1 160 17:18 13.11.2020
5525 Clouds 10 1013 81 10000 4.1 150 16:47 13.11.2020
5526 Clouds 10 1013 81 10000 4.1 150 16:21 13.11.2020
5527 Clouds 10 1014 81 10000 4.1 160 15:42 13.11.2020
5528 Clouds 10 1014 81 10000 4.1 160 15:23 13.11.2020
5529 Clouds 11 1014 76 10000 4.1 160 14:41 13.11.2020
5530 Clouds 11 1014 76 10000 4.1 160 14:20 13.11.2020
5531 Clouds 10 1015 81 10000 4.1 190 13:45 13.11.2020
5532 Clouds 10 1015 81 10000 4.1 190 13:21 13.11.2020
5533 Clouds 9 1016 81 10000 3.6 190 12:45 13.11.2020
5534 Clouds 9 1016 81 10000 3.6 190 12:24 13.11.2020
5535 Clouds 8 1016 87 9000 3.6 180 11:48 13.11.2020
5536 Clouds 8 1016 87 9000 3.6 180 11:25 13.11.2020
5537 Clouds 8 1016 87 9000 3.6 180 10:55 13.11.2020
5538 Clouds 7 1016 93 6000 4.1 190 10:34 13.11.2020
5539 Clouds 7 1016 93 6000 4.1 190 09:56 13.11.2020
5540 Clouds 7 1016 93 6000 4.1 190 09:56 13.11.2020
5541 Mist 6 1016 100 5000 3.6 190 09:34 13.11.2020
5542 Mist 6 1016 93 4000 4.1 190 09:00 13.11.2020
5543 Mist 6 1016 93 3000 3.1 180 08:34 13.11.2020
5544 Mist 6 1016 93 3000 3.1 180 07:58 13.11.2020
5545 Mist 6 1016 100 5000 3.1 200 07:39 13.11.2020
5546 Mist 6 1016 100 5000 3.1 200 07:21 13.11.2020
5547 Clouds 6 1016 100 7000 3.1 210 06:48 13.11.2020
5548 Clear 7 1016 93 6000 3.6 210 05:43 13.11.2020
5549 Clouds 7 1016 93 6000 3.6 210 04:59 13.11.2020
5550 Clear 9 1017 93 7000 4.1 220 01:45 13.11.2020
5551 Clouds 9 1017 93 5000 3.6 220 00:38 13.11.2020
5552 Clouds 9 1017 93 5000 3.6 220 00:18 13.11.2020
5553 Clouds 9 1017 93 9000 3.6 220 23:38 12.11.2020
5554 Clouds 9 1017 93 8000 3.6 220 23:19 12.11.2020
5555 Clouds 9 1017 93 8000 3.6 220 22:50 12.11.2020
5556 Clouds 9 1016 93 8000 4.6 220 22:30 12.11.2020
5557 Clouds 8 1016 100 10000 3.6 210 21:43 12.11.2020
5558 Clouds 8 1016 100 10000 3.6 210 21:24 12.11.2020
5559 Clouds 8 1016 100 10000 3.6 210 20:58 12.11.2020
5560 Clouds 8 1016 93 10000 2.6 210 20:39 12.11.2020
5561 Clouds 8 1016 93 10000 3.6 200 20:20 12.11.2020
5562 Rain 8 1015 87 10000 2.6 180 19:45 12.11.2020
5563 Clouds 8 1015 87 10000 2.6 180 19:27 12.11.2020
5564 Clouds 8 1015 93 10000 4.6 190 18:49 12.11.2020
5565 Clouds 8 1015 93 10000 4.6 190 18:24 12.11.2020
5566 Clouds 10 1014 93 10000 3.1 190 17:46 12.11.2020
5567 Clouds 10 1014 93 10000 3.1 190 17:27 12.11.2020
5568 Clouds 11 1014 87 10000 3.1 180 16:47 12.11.2020
5569 Clouds 11 1014 87 10000 3.1 180 16:27 12.11.2020
5570 Clouds 11 1014 87 10000 3.1 180 15:59 12.11.2020
5571 Clouds 10 1014 93 10000 4.6 190 15:40 12.11.2020
5572 Clouds 10 1014 93 10000 4.6 190 15:20 12.11.2020
5573 Clouds 10 1014 87 10000 3.6 190 14:46 12.11.2020
5574 Clouds 9 1014 93 8000 4.6 180 14:25 12.11.2020
5575 Mist 8 1014 100 5000 4.6 170 13:49 12.11.2020
5576 Mist 8 1014 93 4500 4.1 170 13:21 12.11.2020
5577 Mist 8 1014 93 4500 4.1 170 12:59 12.11.2020
5578 Rain 8 1014 93 4500 4.6 170 12:39 12.11.2020
5579 Rain 8 1015 93 5000 4.1 160 12:18 12.11.2020
5580 Rain 7 1015 93 4000 5.1 160 11:45 12.11.2020
5581 Mist 7 1015 93 4000 5.1 160 11:26 12.11.2020
5582 Mist 7 1015 93 4000 3.6 150 10:41 12.11.2020
5583 Mist 7 1015 93 4000 3.6 150 10:23 12.11.2020
5584 Mist 6 1015 100 2500 3.6 140 09:46 12.11.2020
5585 Mist 6 1015 100 2500 3.6 140 09:22 12.11.2020
5586 Rain 6 1015 100 2500 3.6 140 08:57 12.11.2020
5587 Mist 7 1016 93 2000 3.6 130 08:37 12.11.2020
5588 Mist 7 1016 93 2000 3.6 130 08:19 12.11.2020
5589 Mist 7 1016 100 3000 4.1 140 07:42 12.11.2020
5590 Mist 7 1016 100 3000 4.1 140 07:19 12.11.2020
5591 Mist 8 1016 100 3000 3.6 150 06:49 12.11.2020
5592 Clouds 8 1017 100 2200 3.6 150 05:23 12.11.2020
5593 Clouds 8 1018 100 250 3.6 130 03:21 12.11.2020
5594 Clouds 8 1019 100 500 2.6 130 02:24 12.11.2020
5595 Clouds 8 1020 100 700 2.6 120 23:59 11.11.2020
5596 Fog 8 1021 93 450 3.1 130 23:25 11.11.2020
5597 Fog 8 1021 93 450 3.1 130 22:59 11.11.2020
5598 Fog 7 1021 100 500 2.6 130 22:39 11.11.2020
5599 Fog 7 1021 100 500 2.6 130 22:21 11.11.2020
5600 Fog 7 1022 100 500 3.1 120 21:43 11.11.2020
5601 Fog 7 1022 100 500 3.1 120 21:25 11.11.2020
5602 Fog 7 1022 100 500 3.1 120 20:59 11.11.2020
5603 Fog 7 1022 100 300 2.1 130 20:40 11.11.2020
5604 Fog 7 1022 100 300 2.1 130 20:21 11.11.2020
5605 Fog 7 1022 100 300 2.1 130 19:49 11.11.2020
5606 Fog 7 1022 100 400 2.1 120 19:31 11.11.2020
5607 Fog 7 1022 100 400 2.1 120 18:54 11.11.2020
5608 Fog 7 1023 100 300 1 0 18:33 11.11.2020
5609 Fog 7 1023 100 400 3.1 120 17:43 11.11.2020
5610 Fog 7 1023 100 400 3.1 120 17:23 11.11.2020
5611 Fog 7 1023 100 400 3.1 120 16:55 11.11.2020
5612 Fog 7 1023 100 400 2.6 110 16:34 11.11.2020
5613 Fog 7 1023 100 400 2.6 110 15:52 11.11.2020
5614 Fog 7 1023 100 300 2.1 120 15:27 11.11.2020
5615 Fog 7 1023 100 300 2.1 120 14:59 11.11.2020
5616 Fog 7 1024 93 300 1 120 14:38 11.11.2020
5617 Fog 7 1024 93 300 1 120 13:57 11.11.2020
5618 Fog 7 1024 93 300 1 120 13:57 11.11.2020
5619 Fog 6 1024 100 700 1 0 13:38 11.11.2020
5620 Fog 6 1024 100 700 1 0 12:52 11.11.2020
5621 Fog 6 1025 100 500 2.1 150 12:21 11.11.2020
5622 Fog 6 1025 100 500 2.1 150 11:50 11.11.2020
5623 Fog 6 1025 100 500 2.1 150 11:50 11.11.2020
5624 Fog 6 1025 93 800 2.1 130 11:30 11.11.2020
5625 Fog 5 1026 100 300 2.1 140 10:43 11.11.2020
5626 Fog 5 1026 100 300 2.1 140 10:25 11.11.2020
5627 Drizzle 5 1026 100 300 2.1 130 09:52 11.11.2020
5628 Drizzle 5 1026 100 300 2.1 130 09:29 11.11.2020
5629 Drizzle 5 1026 100 300 2.1 130 08:57 11.11.2020
5630 Drizzle 5 1025 100 400 1.5 100 08:36 11.11.2020
5631 Drizzle 5 1025 100 400 1.5 100 08:18 11.11.2020
5632 Drizzle 5 1026 100 600 0.5 100 07:41 11.11.2020
5633 Drizzle 5 1026 100 500 1.5 120 06:30 11.11.2020
5634 Clouds 5 1026 100 400 2.1 110 04:49 11.11.2020
5635 Clouds 4 1027 100 2800 2.6 180 01:36 11.11.2020
5636 Clouds 4 1027 100 2800 2.6 180 01:36 11.11.2020
5637 Clouds 4 1027 100 2800 2.6 180 00:56 11.11.2020
5638 Clouds 4 1027 100 1700 3.1 140 00:22 11.11.2020
5639 Fog 5 1027 93 800 3.6 160 23:36 10.11.2020
5640 Fog 5 1027 93 800 3.6 160 23:18 10.11.2020
5641 Fog 6 1027 93 800 2.1 130 22:43 10.11.2020
5642 Fog 6 1027 93 800 2.1 130 22:21 10.11.2020
5643 Fog 6 1027 100 800 2.6 170 21:41 10.11.2020
5644 Fog 6 1027 100 800 2.6 170 21:23 10.11.2020
5645 Fog 6 1027 100 800 2.6 170 20:55 10.11.2020
5646 Fog 6 1027 93 800 3.1 130 20:37 10.11.2020
5647 Fog 6 1027 93 800 3.1 130 20:19 10.11.2020
5648 Fog 6 1027 100 500 3.6 140 19:42 10.11.2020
5649 Fog 6 1027 100 500 3.6 140 19:23 10.11.2020
5650 Fog 6 1027 100 600 2.6 130 18:43 10.11.2020
5651 Fog 6 1027 100 600 2.6 130 18:24 10.11.2020
5652 Fog 6 1027 100 600 2.6 130 17:57 10.11.2020
5653 Mist 6 1026 100 1200 3.1 120 17:38 10.11.2020
5654 Mist 6 1026 100 1200 3.1 120 17:20 10.11.2020
5655 Mist 6 1026 93 1300 3.1 120 16:41 10.11.2020
5656 Mist 6 1026 93 1300 3.1 120 16:22 10.11.2020
5657 Mist 6 1027 93 1400 2.6 130 15:48 10.11.2020
5658 Mist 6 1027 93 1400 2.6 130 15:27 10.11.2020
5659 Mist 6 1027 93 1400 2.6 130 14:56 10.11.2020
5660 Mist 6 1027 100 1400 3.6 120 14:37 10.11.2020
5661 Mist 6 1027 100 1400 3.6 120 14:37 10.11.2020
5662 Mist 6 1027 100 1400 3.6 120 14:18 10.11.2020
5663 Mist 6 1027 100 1300 3.6 120 13:38 10.11.2020
5664 Mist 7 1027 100 1000 3.1 130 13:19 10.11.2020
5665 Fog 7 1027 93 900 3.1 110 12:46 10.11.2020
5666 Fog 7 1027 93 900 3.1 110 12:25 10.11.2020
5667 Fog 7 1027 93 500 3.6 140 11:43 10.11.2020
5668 Fog 6 1027 93 500 3.6 140 11:22 10.11.2020
5669 Fog 6 1027 93 500 3.6 140 10:57 10.11.2020
5670 Fog 6 1027 93 600 3.6 120 10:38 10.11.2020
5671 Fog 6 1027 93 600 3.6 120 10:20 10.11.2020
5672 Fog 5 1026 93 600 4.1 130 09:45 10.11.2020
5673 Fog 5 1026 93 600 4.1 130 09:25 10.11.2020
5674 Fog 5 1026 93 600 4.1 130 08:55 10.11.2020
5675 Fog 5 1026 100 600 2.6 120 08:27 10.11.2020
5676 Fog 5 1026 93 600 3.1 120 07:44 10.11.2020
5677 Fog 5 1026 93 600 3.1 120 07:24 10.11.2020
5678 Mist 5 1026 100 1500 2.6 110 06:41 10.11.2020
5679 Clouds 5 1026 100 1800 3.1 120 05:44 10.11.2020
5680 Clouds 5 1026 100 1800 3.1 120 04:59 10.11.2020
5681 Clouds 5 1026 100 1800 3.1 120 04:59 10.11.2020
5682 Clouds 6 1026 93 3700 3.1 120 02:37 10.11.2020
5683 Clouds 6 1026 93 3900 2.6 110 01:31 10.11.2020
5684 Clouds 5 1026 100 4300 3.1 130 23:57 09.11.2020
5685 Mist 5 1026 93 4000 3.6 110 23:36 09.11.2020
5686 Mist 5 1026 93 4000 3.6 110 22:49 09.11.2020
5687 Mist 5 1026 100 3500 3.6 110 22:25 09.11.2020
5688 Mist 5 1026 100 3500 3.6 110 21:59 09.11.2020
5689 Mist 5 1026 93 3500 2.1 120 21:38 09.11.2020
5690 Mist 5 1026 93 3500 2.1 120 21:19 09.11.2020
5691 Mist 5 1026 93 4000 3.6 120 20:39 09.11.2020
5692 Mist 5 1026 93 4000 3.6 120 20:20 09.11.2020
5693 Mist 6 1026 93 4000 4.1 110 19:42 09.11.2020
5694 Mist 6 1026 93 4000 4.1 110 19:22 09.11.2020
5695 Mist 6 1025 93 3500 3.1 130 18:42 09.11.2020
5696 Mist 6 1025 93 3500 3.1 130 18:20 09.11.2020
5697 Mist 6 1025 93 3500 3.1 130 17:56 09.11.2020
5698 Mist 6 1025 93 3500 2.6 110 17:38 09.11.2020
5699 Mist 6 1025 93 3500 2.6 110 17:20 09.11.2020
5700 Mist 6 1025 93 2500 3.6 100 16:37 09.11.2020
5701 Mist 6 1025 93 2500 3.6 100 16:18 09.11.2020
5702 Mist 6 1025 100 1500 3.6 100 15:42 09.11.2020
5703 Mist 6 1025 100 1500 3.6 100 15:23 09.11.2020
5704 Mist 6 1025 100 1000 4.1 120 14:44 09.11.2020
5705 Mist 6 1025 100 1000 4.1 120 14:26 09.11.2020
5706 Fog 6 1025 93 600 3.1 130 13:48 09.11.2020
5707 Fog 6 1025 93 600 3.1 130 13:20 09.11.2020
5708 Fog 6 1025 93 600 4.1 130 12:47 09.11.2020
5709 Fog 6 1025 93 600 4.1 130 12:26 09.11.2020
5710 Fog 6 1025 93 400 3.1 110 11:57 09.11.2020
5711 Fog 5 1025 100 300 3.6 120 11:39 09.11.2020
5712 Fog 5 1025 100 300 3.6 120 11:20 09.11.2020
5713 Fog 5 1025 100 300 2.6 130 10:42 09.11.2020
5714 Fog 5 1025 100 300 2.6 130 10:23 09.11.2020
5715 Fog 5 1025 100 300 3.1 120 09:45 09.11.2020
5716 Fog 5 1025 100 300 3.1 120 09:24 09.11.2020
5717 Fog 5 1024 100 300 3.1 120 08:44 09.11.2020
5718 Fog 5 1024 100 300 3.1 120 08:21 09.11.2020
5719 Fog 5 1024 100 800 3.1 110 07:41 09.11.2020
5720 Mist 5 1024 100 1000 4.6 120 07:21 09.11.2020
5721 Mist 6 1024 100 1000 3.6 110 06:42 09.11.2020
5722 Clear 5 1024 100 100 2.6 100 03:32 09.11.2020
5723 Clear 5 1024 93 50 3.1 90 01:55 09.11.2020
5724 Clear 5 1024 100 50 3.1 90 01:36 09.11.2020
5725 Clear 6 1024 93 50 3.1 100 23:55 08.11.2020
5726 Fog 6 1024 93 600 3.1 90 23:37 08.11.2020
5727 Fog 6 1024 93 600 3.1 90 23:18 08.11.2020
5728 Fog 6 1024 93 800 3.6 80 22:41 08.11.2020
5729 Fog 6 1024 100 6000 3.1 90 22:20 08.11.2020
5730 Clear 7 1024 93 10000 2.6 90 21:41 08.11.2020
5731 Clear 7 1024 93 10000 2.6 90 21:20 08.11.2020
5732 Clear 8 1024 87 10000 2.6 100 20:55 08.11.2020
5733 Clear 8 1024 87 10000 2.6 100 20:36 08.11.2020
5734 Clear 8 1024 87 10000 2.6 100 20:18 08.11.2020
5735 Clear 7 1024 100 10000 2.1 80 19:42 08.11.2020
5736 Clear 7 1024 100 10000 2.1 80 19:21 08.11.2020
5737 Clear 9 1023 87 8000 3.1 90 18:48 08.11.2020
5738 Clear 7 1024 100 10000 2.1 80 18:48 08.11.2020
5739 Clear 9 1023 87 8000 3.1 90 18:22 08.11.2020
5740 Clear 9 1023 87 8000 3.1 90 17:58 08.11.2020
5741 Clear 10 1023 81 10000 3.6 90 17:39 08.11.2020
5742 Clear 10 1023 81 10000 3.6 90 17:19 08.11.2020
5743 Clear 10 1023 81 10000 3.6 90 16:56 08.11.2020
5744 Clear 11 1023 81 10000 5.1 70 16:36 08.11.2020
5745 Clear 11 1023 81 10000 5.1 70 16:18 08.11.2020
5746 Clear 12 1023 71 10000 3.1 90 15:43 08.11.2020
5747 Clear 12 1023 71 10000 3.1 90 15:22 08.11.2020
5748 Clear 12 1023 71 10000 2.6 120 14:42 08.11.2020
5749 Clear 12 1023 71 10000 2.6 120 14:22 08.11.2020
5750 Clear 11 1023 76 10000 3.1 110 13:47 08.11.2020
5751 Clear 11 1023 76 10000 3.1 110 13:24 08.11.2020
5752 Clouds 10 1024 76 10000 3.1 110 12:47 08.11.2020
5753 Clouds 10 1024 76 10000 3.1 110 12:29 08.11.2020
5754 Clouds 10 1024 76 10000 3.1 110 11:58 08.11.2020
5755 Clouds 7 1024 93 9000 3.6 90 11:40 08.11.2020
5756 Clouds 7 1024 93 9000 3.6 90 11:21 08.11.2020
5757 Clouds 7 1024 93 9000 3.6 90 10:50 08.11.2020
5758 Clouds 5 1024 93 6000 3.1 80 10:20 08.11.2020
5759 Clouds 5 1024 93 6000 3.1 80 09:59 08.11.2020
5760 Mist 5 1024 93 4500 3.1 100 09:40 08.11.2020
5761 Mist 5 1024 93 4500 3.1 100 09:18 08.11.2020
5762 Mist 4 1024 100 3000 3.1 90 08:40 08.11.2020
5763 Fog 4 1024 100 3000 3.1 90 08:20 08.11.2020
5764 Fog 4 1024 100 3000 3.1 90 07:52 08.11.2020
5765 Fog 4 1024 100 3500 2.6 70 07:29 08.11.2020
5766 Mist 4 1024 100 4000 2.6 70 06:24 08.11.2020
5767 Mist 4 1023 100 5000 3.1 80 05:53 08.11.2020
5768 Clouds 3 1023 100 100 2.6 80 04:50 08.11.2020
5769 Clouds 5 1023 93 150 1.5 80 01:53 08.11.2020
5770 Clear 5 1024 93 250 2.1 80 01:19 08.11.2020
5771 Clear 5 1024 93 100 1.5 70 00:30 08.11.2020
5772 Clear 4 1024 93 10000 1 80 23:47 07.11.2020
5773 Clear 4 1024 93 10000 1 80 23:29 07.11.2020
5774 Clear 5 1024 93 10000 1.5 70 22:47 07.11.2020
5775 Clear 5 1024 93 10000 1.5 70 22:27 07.11.2020
5776 Clear 5 1024 93 10000 1.5 70 21:56 07.11.2020
5777 Clear 6 1024 93 10000 0.5 60 21:38 07.11.2020
5778 Clear 6 1024 93 10000 0.5 60 21:18 07.11.2020
5779 Clear 6 1024 93 10000 1 90 20:44 07.11.2020
5780 Clear 6 1024 93 10000 1 90 20:25 07.11.2020
5781 Clouds 6 1024 93 10000 0.29 170 19:45 07.11.2020
5782 Clouds 6 1024 93 10000 0.48 233 19:26 07.11.2020
5783 Clouds 7 1023 87 10000 0.5 0 18:43 07.11.2020
5784 Clouds 7 1023 87 10000 0.5 0 18:24 07.11.2020
5785 Clouds 9 1023 81 10000 1.5 140 17:47 07.11.2020
5786 Clouds 9 1023 81 10000 1.5 140 17:28 07.11.2020
5787 Clouds 12 1024 62 10000 1.5 260 16:46 07.11.2020
5788 Clouds 12 1024 62 10000 1.5 260 16:25 07.11.2020
5789 Clouds 12 1024 62 10000 1.5 260 15:57 07.11.2020
5790 Clouds 12 1024 66 10000 0.5 0 15:39 07.11.2020
5791 Clouds 12 1024 66 10000 0.5 0 15:19 07.11.2020
5792 Clouds 11 1024 66 10000 2.1 210 14:41 07.11.2020
5793 Clouds 11 1024 66 10000 2.1 210 14:41 07.11.2020
5794 Clouds 11 1024 66 10000 2.1 210 14:41 07.11.2020
5795 Clouds 11 1024 66 10000 2.1 210 14:21 07.11.2020
5796 Clouds 11 1024 66 10000 2.1 210 13:50 07.11.2020
5797 Clear 10 1024 66 10000 2.6 180 13:29 07.11.2020
5798 Clear 9 1025 70 10000 2.6 190 12:42 07.11.2020
5799 Clear 9 1025 70 10000 2.6 190 12:19 07.11.2020
5800 Clear 8 1025 75 10000 3.1 180 11:41 07.11.2020
5801 Clear 8 1025 75 10000 3.1 180 11:22 07.11.2020
5802 Clear 6 1025 93 8000 2.6 140 10:45 07.11.2020
5803 Clear 6 1025 93 8000 2.6 140 10:25 07.11.2020
5804 Clear 6 1025 93 8000 2.6 140 09:49 07.11.2020
5805 Clouds 5 1025 100 6000 3.1 140 09:26 07.11.2020
5806 Clouds 5 1025 100 6000 3.1 140 08:53 07.11.2020
5807 Mist 5 1025 100 4500 3.1 130 08:34 07.11.2020
5808 Clouds 6 1026 93 7000 3.1 130 07:49 07.11.2020
5809 Clouds 6 1026 93 7000 3.1 130 07:18 07.11.2020
5810 Clouds 7 1026 93 10000 4.6 130 06:47 07.11.2020
5811 Clouds 9 1027 87 7000 4.6 140 04:43 07.11.2020
5812 Clouds 9 1028 93 6000 3.6 130 03:23 07.11.2020
5813 Clouds 10 1029 87 5000 3.6 120 01:28 07.11.2020
5814 Clear 10 1029 93 6000 2.6 140 00:43 07.11.2020
5815 Clear 10 1029 93 6000 2.6 140 23:50 06.11.2020
5816 Clouds 10 1030 93 7000 2.6 140 23:20 06.11.2020
5817 Clouds 11 1030 87 7000 2.1 160 22:41 06.11.2020
5818 Clouds 11 1030 87 7000 2.1 160 22:19 06.11.2020
5819 Clouds 11 1031 87 7000 1 140 21:46 06.11.2020
5820 Clouds 11 1031 87 7000 1 140 21:21 06.11.2020
5821 Clouds 11 1031 87 7000 1 140 20:56 06.11.2020
5822 Clouds 11 1031 93 7000 1.5 150 20:38 06.11.2020
5823 Clouds 11 1031 93 8000 3.46 159 20:18 06.11.2020
5824 Clouds 10 1032 93 8000 0.5 190 19:44 06.11.2020
5825 Clouds 10 1032 93 8000 0.5 190 19:26 06.11.2020
5826 Clouds 10 1032 93 7000 0.5 340 18:45 06.11.2020
5827 Clouds 10 1032 93 7000 0.5 340 18:23 06.11.2020
5828 Clouds 11 1032 93 8000 1 260 17:51 06.11.2020
5829 Clouds 12 1032 87 9000 1 230 17:26 06.11.2020
5830 Clouds 12 1032 87 10000 1 240 16:50 06.11.2020
5831 Clouds 12 1032 87 10000 1 240 16:31 06.11.2020
5832 Clouds 12 1033 87 10000 1.5 0 15:53 06.11.2020
5833 Clouds 12 1033 87 10000 1.5 0 15:33 06.11.2020
5834 Clouds 12 1033 87 10000 1.5 0 14:54 06.11.2020
5835 Clouds 12 1033 87 9000 2.1 250 14:27 06.11.2020
5836 Clouds 12 1033 87 9000 2.1 250 13:49 06.11.2020
5837 Clouds 12 1033 87 9000 2.6 250 13:25 06.11.2020
5838 Clouds 11 1034 93 9000 3.1 260 12:47 06.11.2020
5839 Clouds 11 1034 93 9000 3.1 260 12:25 06.11.2020
5840 Clouds 11 1034 93 9000 3.1 260 11:58 06.11.2020
5841 Clouds 11 1034 93 9000 3.1 250 11:36 06.11.2020
5842 Clouds 10 1034 93 7000 3.6 250 10:51 06.11.2020
5843 Clouds 10 1034 93 7000 3.6 250 10:30 06.11.2020
5844 Clouds 10 1034 93 7000 3.6 250 09:50 06.11.2020
5845 Clouds 10 1034 93 7000 3.6 250 09:23 06.11.2020
5846 Clouds 10 1034 93 7000 3.6 250 08:53 06.11.2020
5847 Clouds 10 1034 93 8000 4.1 260 08:31 06.11.2020
5848 Clouds 10 1034 93 8000 4.1 260 07:56 06.11.2020
5849 Clouds 10 1034 93 8000 3.6 250 07:37 06.11.2020
5850 Clouds 10 1034 93 8000 4.1 260 07:18 06.11.2020
5851 Clouds 10 1034 93 9000 3.1 260 06:39 06.11.2020
5852 Clouds 10 1034 93 6000 4.1 260 05:36 06.11.2020
5853 Clouds 10 1034 100 4800 5.1 260 01:56 06.11.2020
5854 Clouds 10 1034 100 5000 5.7 250 00:24 06.11.2020
5855 Clouds 10 1035 100 8000 4.1 260 23:50 05.11.2020
5856 Clouds 10 1035 100 8000 4.1 260 23:20 05.11.2020
5857 Clouds 10 1035 100 8000 4.1 260 22:44 05.11.2020
5858 Mist 10 1035 93 4500 5.1 260 22:25 05.11.2020
5859 Mist 10 1035 93 4500 5.1 260 21:56 05.11.2020
5860 Drizzle 10 1034 93 2500 5.1 260 21:38 05.11.2020
5861 Drizzle 10 1034 93 2500 5.1 260 21:18 05.11.2020
5862 Drizzle 10 1034 93 4500 5.1 260 20:42 05.11.2020
5863 Drizzle 10 1034 87 4500 6.2 260 20:21 05.11.2020
5864 Drizzle 10 1034 87 4500 6.7 260 19:44 05.11.2020
5865 Clouds 10 1034 87 10000 6.2 260 19:26 05.11.2020
5866 Clouds 10 1034 87 10000 6.2 260 18:56 05.11.2020
5867 Clouds 10 1034 87 10000 6.7 250 18:38 05.11.2020
5868 Clouds 10 1034 87 10000 6.2 250 18:20 05.11.2020
5869 Clouds 10 1034 87 10000 6.7 260 17:42 05.11.2020
5870 Clouds 10 1034 87 10000 6.7 260 17:23 05.11.2020
5871 Clouds 10 1035 87 10000 6.7 260 16:46 05.11.2020
5872 Clouds 10 1035 87 10000 6.7 260 16:26 05.11.2020
5873 Clouds 10 1035 87 10000 6.7 260 15:50 05.11.2020
5874 Clouds 10 1035 87 10000 6.7 260 15:50 05.11.2020
5875 Clouds 10 1035 87 10000 6.7 250 15:27 05.11.2020
5876 Clouds 10 1035 87 10000 6.7 250 14:50 05.11.2020
5877 Clouds 10 1035 81 10000 5.7 250 14:31 05.11.2020
5878 Rain 10 1035 81 10000 5.7 250 13:59 05.11.2020
5879 Clouds 10 1035 81 10000 5.7 250 13:39 05.11.2020
5880 Clouds 10 1035 81 10000 5.7 250 12:56 05.11.2020
5881 Clouds 10 1035 81 10000 6.7 250 12:37 05.11.2020
5882 Clouds 10 1035 81 10000 6.7 250 11:59 05.11.2020
5883 Rain 9 1036 87 10000 4.1 240 11:41 05.11.2020
5884 Rain 9 1036 87 10000 4.1 240 11:22 05.11.2020
5885 Rain 8 1036 93 10000 3.6 230 10:47 05.11.2020
5886 Rain 8 1036 93 10000 3.6 230 10:26 05.11.2020
5887 Clouds 8 1036 93 10000 3.6 230 09:49 05.11.2020
5888 Clouds 6 1035 100 10000 4.1 220 09:24 05.11.2020
5889 Clouds 7 1035 93 10000 3.1 220 08:49 05.11.2020
5890 Clouds 7 1035 93 10000 3.1 220 08:30 05.11.2020
5891 Rain 7 1035 93 10000 3.1 220 07:55 05.11.2020
5892 Clouds 7 1035 93 10000 3.6 220 07:27 05.11.2020
5893 Clouds 7 1035 93 10000 3.6 230 06:43 05.11.2020
5894 Clouds 7 1035 93 10000 3.6 230 05:59 05.11.2020
5895 Clouds 7 1034 93 7000 2.6 240 03:27 05.11.2020
5896 Clouds 6 1034 100 7000 2.6 230 00:37 05.11.2020
5897 Clouds 6 1034 100 7000 2.6 230 23:53 04.11.2020
5898 Clouds 7 1033 93 10000 3.6 240 23:27 04.11.2020
5899 Clouds 7 1033 93 10000 3.6 240 22:57 04.11.2020
5900 Clouds 8 1033 93 10000 4.6 300 22:38 04.11.2020
5901 Clouds 8 1033 93 10000 4.6 300 22:19 04.11.2020
5902 Clouds 9 1033 81 10000 4.6 250 21:46 04.11.2020
5903 Clouds 9 1033 81 10000 4.6 250 21:27 04.11.2020
5904 Clouds 9 1033 81 10000 4.6 250 20:53 04.11.2020
5905 Clouds 8 1032 87 10000 3.6 240 20:35 04.11.2020
5906 Clouds 8 1032 87 10000 3.6 240 19:58 04.11.2020
5907 Clouds 9 1032 81 10000 5.1 260 19:40 04.11.2020
5908 Clouds 9 1032 81 10000 5.1 260 19:21 04.11.2020
5909 Clouds 9 1031 81 10000 4.6 250 18:40 04.11.2020
5910 Clouds 9 1031 81 10000 4.6 250 18:22 04.11.2020
5911 Clouds 11 1030 71 10000 5.7 260 17:46 04.11.2020
5912 Rain 11 1030 71 10000 5.7 260 17:26 04.11.2020
5913 Clouds 11 1029 71 10000 5.7 260 16:46 04.11.2020
5914 Clouds 11 1029 71 10000 5.7 260 16:27 04.11.2020
5915 Rain 11 1029 71 10000 5.7 260 15:57 04.11.2020
5916 Clouds 11 1029 76 10000 6.2 250 15:39 04.11.2020
5917 Clouds 11 1029 76 10000 6.2 250 15:20 04.11.2020
5918 Clouds 11 1029 76 10000 6.2 250 15:20 04.11.2020
5919 Clouds 11 1028 76 10000 5.7 250 14:43 04.11.2020
5920 Clouds 11 1028 76 10000 5.7 250 14:24 04.11.2020
5921 Clouds 11 1028 76 10000 5.7 250 13:51 04.11.2020
5922 Rain 10 1028 81 10000 6.2 250 13:21 04.11.2020
5923 Rain 10 1028 81 10000 6.2 250 12:58 04.11.2020
5924 Rain 9 1028 87 10000 5.7 250 12:39 04.11.2020
5925 Rain 9 1028 87 10000 5.7 250 12:39 04.11.2020
5926 Rain 9 1028 87 10000 5.7 250 12:21 04.11.2020
5927 Clouds 9 1027 81 10000 5.7 250 11:44 04.11.2020
5928 Clouds 9 1027 81 10000 5.7 250 11:21 04.11.2020
5929 Rain 8 1026 87 10000 6.2 250 10:48 04.11.2020
5930 Rain 8 1026 87 10000 6.2 250 10:23 04.11.2020
5931 Rain 7 1025 93 9000 5.1 240 09:55 04.11.2020
5932 Rain 7 1025 93 9000 5.1 240 09:28 04.11.2020
5933 Rain 7 1025 93 9000 5.1 240 08:48 04.11.2020
5934 Rain 7 1024 93 10000 5.1 250 08:23 04.11.2020
5935 Clouds 7 1024 93 10000 5.1 250 07:57 04.11.2020
5936 Clouds 8 1024 87 5000 6.2 250 07:31 04.11.2020
5937 Clouds 8 1023 87 9000 7.7 250 06:59 04.11.2020
5938 Clouds 8 1022 81 10000 6.7 230 06:39 04.11.2020
5939 Rain 7 1021 87 9000 6.7 230 04:59 04.11.2020
5940 Clear 8 1020 81 9000 6.7 230 02:31 04.11.2020
5941 Clouds 7 1019 87 9000 5.7 220 01:38 04.11.2020
5942 Rain 7 1019 87 9000 5.7 220 00:25 04.11.2020
5943 Clouds 8 1019 81 10000 6.2 230 23:28 03.11.2020
5944 Clouds 8 1019 81 10000 6.2 230 22:57 03.11.2020
5945 Rain 8 1018 81 10000 7.2 250 22:38 03.11.2020
5946 Rain 8 1018 81 10000 7.2 250 22:19 03.11.2020
5947 Rain 9 1018 76 8000 7.2 230 21:43 03.11.2020
5948 Clouds 9 1018 76 8000 7.2 230 21:24 03.11.2020
5949 Clouds 9 1018 76 8000 7.2 230 21:24 03.11.2020
5950 Clouds 9 1018 76 8000 7.2 230 20:49 03.11.2020
5951 Clouds 9 1017 76 10000 8.2 220 20:27 03.11.2020
5952 Clouds 9 1016 70 10000 6.7 170 19:57 03.11.2020
5953 Clouds 9 1017 70 10000 5.7 160 19:38 03.11.2020
5954 Rain 9 1017 70 10000 5.7 160 19:19 03.11.2020
5955 Clouds 9 1018 66 10000 3.1 190 18:41 03.11.2020
5956 Clouds 9 1018 66 10000 3.1 190 18:19 03.11.2020
5957 Clouds 10 1017 66 10000 4.6 150 17:47 03.11.2020
5958 Clouds 10 1017 66 10000 4.6 150 17:29 03.11.2020
5959 Clouds 10 1017 66 10000 4.6 150 16:51 03.11.2020
5960 Clouds 11 1018 62 10000 4.6 190 16:31 03.11.2020
5961 Clouds 11 1018 62 10000 4.6 190 15:58 03.11.2020
5962 Clouds 12 1019 62 10000 4.1 210 15:40 03.11.2020
5963 Clouds 12 1019 62 10000 4.1 210 15:19 03.11.2020
5964 Clouds 11 1020 66 10000 5.7 220 14:43 03.11.2020
5965 Clouds 11 1020 66 10000 5.7 220 14:25 03.11.2020
5966 Clouds 11 1020 66 10000 6.7 230 13:42 03.11.2020
5967 Clouds 11 1020 66 10000 6.7 230 13:21 03.11.2020
5968 Clouds 11 1019 71 10000 6.7 230 12:47 03.11.2020
5969 Clouds 11 1019 71 10000 6.7 230 12:26 03.11.2020
5970 Clouds 11 1019 71 10000 6.7 230 11:55 03.11.2020
5971 Clouds 10 1019 76 10000 5.7 230 11:36 03.11.2020
5972 Clouds 10 1019 76 10000 5.7 230 11:18 03.11.2020
5973 Clouds 9 1018 81 10000 5.1 240 10:38 03.11.2020
5974 Clouds 9 1018 81 10000 5.1 240 10:19 03.11.2020
5975 Clouds 9 1018 81 10000 5.1 240 09:47 03.11.2020
5976 Clouds 9 1017 81 10000 5.1 230 09:26 03.11.2020
5977 Clouds 9 1017 81 10000 5.1 230 08:51 03.11.2020
5978 Clouds 9 1016 81 10000 6.2 240 08:33 03.11.2020
5979 Clouds 9 1016 81 10000 6.2 240 07:48 03.11.2020
5980 Clouds 10 1015 81 10000 6.2 230 07:22 03.11.2020
5981 Clouds 10 1014 81 10000 6.2 240 06:43 03.11.2020
5982 Clouds 10 1013 87 8000 5.7 230 04:40 03.11.2020
5983 Clear 11 1011 81 9000 5.1 230 00:53 03.11.2020
5984 Clouds 11 1010 81 9000 5.1 230 00:30 03.11.2020
5985 Clouds 12 1010 87 10000 4.6 220 23:47 02.11.2020
5986 Clouds 12 1010 87 10000 4.6 220 23:28 02.11.2020
5987 Clouds 12 1009 81 10000 6.2 250 22:48 02.11.2020
5988 Clouds 12 1009 81 10000 6.2 250 22:30 02.11.2020
5989 Clouds 12 1009 81 10000 6.2 250 22:30 02.11.2020
5990 Rain 12 1009 81 10000 6.2 250 21:58 02.11.2020
5991 Clouds 12 1008 81 10000 7.2 260 21:37 02.11.2020
5992 Clouds 12 1008 81 10000 7.2 260 21:19 02.11.2020
5993 Clouds 13 1007 76 10000 8.2 260 20:39 02.11.2020
5994 Clouds 13 1007 71 10000 7.7 260 20:19 02.11.2020
5995 Clouds 13 1005 82 10000 8.2 280 19:44 02.11.2020
5996 Clouds 13 1005 82 10000 8.2 280 19:26 02.11.2020
5997 Clouds 13 1005 82 10000 8.2 280 18:55 02.11.2020
5998 Clouds 18 1003 72 10000 7.7 230 18:36 02.11.2020
5999 Clouds 18 1003 72 10000 7.7 230 18:18 02.11.2020
6000 Clouds 18 1003 77 10000 6.7 230 17:40 02.11.2020
6001 Clouds 18 1003 77 10000 6.7 230 17:21 02.11.2020
6002 Clouds 19 1002 72 10000 6.7 230 16:49 02.11.2020
6003 Clouds 19 1002 72 10000 6.7 230 16:28 02.11.2020
6004 Clouds 19 1002 72 10000 6.7 230 15:55 02.11.2020
6005 Clouds 19 1002 68 10000 9.3 230 15:37 02.11.2020
6006 Clouds 19 1001 72 10000 10.3 220 15:19 02.11.2020
6007 Clouds 18 1002 77 10000 9.3 220 14:42 02.11.2020
6008 Clouds 18 1002 77 10000 9.3 220 14:19 02.11.2020
6009 Clouds 18 1002 82 10000 8.7 220 13:47 02.11.2020
6010 Rain 18 1002 82 10000 8.7 220 13:22 02.11.2020
6011 Clouds 18 1002 82 10000 8.7 220 12:50 02.11.2020
6012 Clouds 17 1002 93 6000 8.2 220 12:26 02.11.2020
6013 Clouds 19 1001 72 10000 9.3 220 11:46 02.11.2020
6014 Clouds 19 1001 72 10000 9.3 220 11:20 02.11.2020
6015 Clouds 19 1001 77 10000 9.3 220 10:48 02.11.2020
6016 Clouds 19 1001 77 10000 9.3 220 10:25 02.11.2020
6017 Clouds 18 1001 82 10000 8.7 220 09:55 02.11.2020
6018 Clouds 18 1001 82 10000 7.7 210 09:29 02.11.2020
6019 Clouds 18 1001 82 10000 7.7 210 08:59 02.11.2020
6020 Clouds 17 1001 88 10000 8.2 210 08:38 02.11.2020
6021 Clouds 17 1001 93 10000 8.2 220 08:19 02.11.2020
6022 Drizzle 17 1001 93 10000 7.2 220 07:39 02.11.2020
6023 Clouds 17 1000 93 10000 8.7 210 06:45 02.11.2020
6024 Clouds 17 1001 93 8000 8.7 220 05:22 02.11.2020
6025 Clouds 17 1002 88 8000 7.2 210 01:34 02.11.2020
6026 Clouds 16 1002 87 8000 5.7 210 00:39 02.11.2020
6027 Rain 16 1002 87 8000 5.7 210 00:20 02.11.2020
6028 Clouds 15 1003 87 10000 3.6 210 23:39 01.11.2020
6029 Rain 15 1003 87 10000 3.6 210 23:21 01.11.2020
6030 Rain 15 1004 87 9000 5.7 230 22:43 01.11.2020
6031 Rain 15 1004 87 9000 5.7 230 22:22 01.11.2020
6032 Clouds 15 1004 93 10000 5.1 230 21:43 01.11.2020
6033 Clouds 15 1004 93 10000 5.1 230 21:25 01.11.2020
6034 Rain 15 1004 93 10000 5.1 230 20:50 01.11.2020
6035 Drizzle 15 1003 93 7000 5.7 200 20:28 01.11.2020
6036 Drizzle 15 1003 93 7000 5.7 200 19:56 01.11.2020
6037 Drizzle 15 1003 87 7000 6.2 200 19:37 01.11.2020
6038 Drizzle 15 1003 87 7000 6.2 200 19:19 01.11.2020
6039 Clouds 14 1004 93 9000 7.2 200 18:40 01.11.2020
6040 Clouds 14 1004 93 9000 7.2 200 18:40 01.11.2020
6041 Clouds 13 1004 93 7000 5.1 190 18:19 01.11.2020
6042 Clouds 13 1004 93 7000 5.1 190 18:19 01.11.2020
6043 Clouds 14 1005 76 10000 7.2 200 17:47 01.11.2020
6044 Clouds 14 1005 76 10000 7.2 200 17:29 01.11.2020
6045 Clouds 14 1005 76 10000 7.2 200 16:59 01.11.2020
6046 Clouds 14 1005 71 10000 6.7 200 16:39 01.11.2020
6047 Clouds 14 1005 71 10000 6.7 200 16:18 01.11.2020
6048 Clouds 14 1006 71 10000 5.7 200 15:39 01.11.2020
6049 Clouds 14 1006 71 10000 5.7 200 15:21 01.11.2020
6050 Clouds 14 1006 71 10000 5.7 200 14:48 01.11.2020
6051 Clouds 14 1007 67 10000 5.1 190 14:24 01.11.2020
6052 Clouds 14 1007 67 10000 5.1 190 13:59 01.11.2020
6053 Clouds 13 1008 71 10000 5.1 190 13:40 01.11.2020
6054 Clouds 13 1008 71 10000 5.1 190 13:40 01.11.2020
6055 Clouds 13 1008 71 10000 5.1 190 13:22 01.11.2020
6056 Clouds 13 1009 71 10000 4.6 200 12:43 01.11.2020
6057 Clouds 13 1009 71 10000 4.6 200 12:22 01.11.2020
6058 Clouds 13 1009 71 10000 4.6 200 11:49 01.11.2020
6059 Clouds 12 1009 76 10000 4.6 190 11:18 01.11.2020
6060 Clouds 11 1010 87 10000 4.1 200 10:43 01.11.2020
6061 Clouds 11 1010 87 10000 4.1 200 10:24 01.11.2020
6062 Clouds 11 1010 87 10000 4.1 200 09:53 01.11.2020
6063 Clouds 11 1011 87 10000 4.1 210 09:34 01.11.2020
6064 Clouds 10 1011 93 10000 3.6 210 08:46 01.11.2020
6065 Clouds 10 1011 93 10000 3.6 210 08:19 01.11.2020
6066 Clouds 10 1011 93 10000 3.6 210 07:35 01.11.2020
6067 Clouds 12 1011 87 7000 4.6 230 03:54 01.11.2020
6068 Clouds 12 1011 93 7000 5.1 210 01:49 01.11.2020
6069 Clouds 12 1011 93 5000 4.6 200 00:26 01.11.2020
6070 Clouds 12 1011 87 10000 4.6 190 23:25 31.10.2020
6071 Clouds 12 1011 87 10000 4.6 190 22:57 31.10.2020
6072 Rain 12 1011 87 10000 5.7 160 22:37 31.10.2020
6073 Clouds 12 1011 87 10000 5.7 160 22:19 31.10.2020
6074 Rain 12 1012 87 10000 6.2 160 21:43 31.10.2020
6075 Rain 12 1012 87 10000 6.2 160 21:19 31.10.2020
6076 Clouds 13 1013 82 10000 5.1 170 20:38 31.10.2020
6077 Clouds 13 1013 82 10000 5.1 170 20:18 31.10.2020
6078 Clouds 13 1013 87 10000 5.1 170 19:41 31.10.2020
6079 Clouds 13 1013 87 10000 5.1 170 19:22 31.10.2020
6080 Clouds 14 1014 82 10000 4.1 170 18:47 31.10.2020
6081 Clouds 14 1014 82 10000 4.1 170 18:28 31.10.2020
6082 Clouds 14 1015 87 10000 4.1 160 17:41 31.10.2020
6083 Clouds 14 1015 87 10000 4.1 160 17:22 31.10.2020
6084 Clouds 14 1016 87 10000 3.1 180 16:46 31.10.2020
6085 Clouds 14 1016 87 10000 3.1 180 16:27 31.10.2020
6086 Clouds 14 1016 87 10000 3.1 180 15:54 31.10.2020
6087 Clouds 14 1017 87 10000 4.1 210 15:25 31.10.2020
6088 Clouds 14 1017 87 10000 4.1 210 14:53 31.10.2020
6089 Clouds 14 1017 93 10000 5.1 200 14:31 31.10.2020
6090 Clouds 14 1017 93 10000 5.1 200 13:52 31.10.2020
6091 Clouds 14 1018 93 10000 3.6 200 13:28 31.10.2020
6092 Clouds 14 1018 93 10000 3.6 200 12:48 31.10.2020
6093 Clouds 14 1018 93 8000 3.6 200 12:21 31.10.2020
6094 Drizzle 14 1019 100 4500 4.6 210 11:40 31.10.2020
6095 Drizzle 14 1019 100 4500 4.6 210 11:21 31.10.2020
6096 Drizzle 14 1019 93 3500 4.1 210 10:40 31.10.2020
6097 Mist 14 1019 100 4800 3.6 220 09:57 31.10.2020
6098 Mist 14 1020 100 4500 4.1 220 09:37 31.10.2020
6099 Drizzle 14 1020 93 2500 2.6 220 09:19 31.10.2020
6100 Drizzle 14 1019 100 800 0.5 250 08:26 31.10.2020
6101 Drizzle 14 1019 100 600 1 260 07:42 31.10.2020
6102 Drizzle 14 1019 100 600 1 260 07:23 31.10.2020
6103 Mist 14 1020 100 1400 3.1 270 06:36 31.10.2020
6104 Clouds 14 1019 93 6000 4.6 260 03:49 31.10.2020
6105 Clouds 13 1019 93 5000 4.6 250 02:39 31.10.2020
6106 Clouds 14 1019 93 5000 5.7 260 00:55 31.10.2020
6107 Clouds 14 1018 93 1100 4.1 250 23:58 30.10.2020
6108 Drizzle 13 1018 93 1600 4.1 240 23:38 30.10.2020
6109 Drizzle 14 1018 93 1600 4.1 240 23:20 30.10.2020
6110 Drizzle 13 1017 100 1400 4.1 240 22:39 30.10.2020
6111 Mist 13 1017 100 1400 4.1 240 22:20 30.10.2020
6112 Mist 14 1017 93 2500 4.6 250 21:49 30.10.2020
6113 Mist 13 1017 93 2500 4.6 250 21:27 30.10.2020
6114 Mist 14 1017 93 2500 4.6 250 20:48 30.10.2020
6115 Mist 14 1016 93 2000 5.1 250 20:28 30.10.2020
6116 Mist 14 1016 93 3000 5.1 250 19:59 30.10.2020
6117 Drizzle 14 1016 93 3000 5.7 250 19:41 30.10.2020
6118 Drizzle 14 1016 93 3000 5.7 250 19:18 30.10.2020
6119 Drizzle 14 1015 100 2800 6.2 260 18:44 30.10.2020
6120 Drizzle 14 1015 100 2800 6.2 260 18:24 30.10.2020
6121 Mist 14 1015 100 2500 5.7 260 17:47 30.10.2020
6122 Drizzle 14 1015 100 2500 5.7 260 17:22 30.10.2020
6123 Drizzle 14 1015 100 2500 5.7 260 16:55 30.10.2020
6124 Mist 14 1014 100 2500 6.7 260 16:25 30.10.2020
6125 Mist 14 1014 100 2200 7.2 260 15:58 30.10.2020
6126 Drizzle 13 1014 100 2800 7.2 260 15:40 30.10.2020
6127 Drizzle 14 1014 100 2500 8.2 260 15:18 30.10.2020
6128 Drizzle 14 1013 93 2800 8.2 250 14:44 30.10.2020
6129 Drizzle 14 1013 93 2800 8.2 250 14:25 30.10.2020
6130 Clouds 14 1013 93 10000 7.2 260 13:44 30.10.2020
6131 Clouds 13 1013 100 6000 7.7 260 13:21 30.10.2020
6132 Clouds 13 1013 100 6000 7.7 260 12:49 30.10.2020
6133 Mist 13 1012 100 2500 8.2 260 12:22 30.10.2020
6134 Drizzle 13 1012 100 2500 7.7 260 11:56 30.10.2020
6135 Mist 13 1011 100 1700 6.7 250 11:23 30.10.2020
6136 Mist 13 1011 100 1700 6.2 250 10:52 30.10.2020
6137 Mist 13 1011 100 1700 6.2 250 10:26 30.10.2020
6138 Mist 13 1011 93 1700 6.7 250 09:57 30.10.2020
6139 Mist 13 1011 93 1700 6.2 240 09:38 30.10.2020
6140 Mist 13 1011 93 1700 6.2 240 09:19 30.10.2020
6141 Mist 13 1010 93 1700 6.2 240 08:32 30.10.2020
6142 Mist 13 1010 93 1700 6.2 240 07:54 30.10.2020
6143 Mist 13 1010 93 2000 6.2 250 07:36 30.10.2020
6144 Mist 13 1010 93 2000 5.1 240 07:18 30.10.2020
6145 Mist 13 1009 93 1500 5.1 240 05:59 30.10.2020
6146 Clouds 11 1009 100 2000 5.1 210 03:59 30.10.2020
6147 Rain 10 1011 93 4800 4.6 190 01:26 30.10.2020
6148 Rain 10 1011 93 4500 4.1 180 00:26 30.10.2020
6149 Rain 10 1012 93 4000 4.1 190 23:43 29.10.2020
6150 Drizzle 10 1012 93 4000 4.1 190 23:25 29.10.2020
6151 Drizzle 9 1013 93 8000 3.1 200 22:45 29.10.2020
6152 Rain 9 1013 93 8000 3.1 200 22:27 29.10.2020
6153 Drizzle 9 1013 93 6000 4.6 210 21:50 29.10.2020
6154 Rain 9 1013 93 10000 4.6 220 21:26 29.10.2020
6155 Rain 9 1013 93 10000 4.6 220 20:57 29.10.2020
6156 Rain 9 1013 87 10000 4.1 220 20:39 29.10.2020
6157 Rain 9 1013 87 10000 4.1 220 20:18 29.10.2020
6158 Rain 10 1013 81 10000 4.1 220 19:39 29.10.2020
6159 Rain 10 1013 81 10000 4.1 220 19:19 29.10.2020
6160 Clouds 10 1013 81 10000 4.6 240 18:46 29.10.2020
6161 Clouds 10 1013 81 10000 4.6 240 18:26 29.10.2020
6162 Clouds 11 1012 76 10000 7.2 250 17:43 29.10.2020
6163 Clouds 11 1012 76 10000 7.2 250 17:24 29.10.2020
6164 Clouds 11 1012 76 10000 7.2 250 16:55 29.10.2020
6165 Clouds 11 1012 76 10000 8.2 260 16:37 29.10.2020
6166 Clouds 11 1012 76 10000 8.2 260 16:18 29.10.2020
6167 Clouds 11 1012 76 10000 9.3 260 15:41 29.10.2020
6168 Clouds 11 1012 76 10000 9.3 260 15:22 29.10.2020
6169 Clouds 10 1011 87 10000 6.7 250 14:59 29.10.2020
6170 Clouds 10 1011 87 10000 6.7 250 14:40 29.10.2020
6171 Clouds 10 1011 87 10000 6.7 250 14:19 29.10.2020
6172 Rain 10 1011 81 9000 7.2 260 13:45 29.10.2020
6173 Rain 10 1011 81 9000 7.2 260 13:24 29.10.2020
6174 Clouds 11 1009 76 10000 7.7 250 12:43 29.10.2020
6175 Rain 11 1009 76 10000 7.7 250 12:19 29.10.2020
6176 Clouds 10 1008 81 10000 7.7 250 11:48 29.10.2020
6177 Clouds 10 1008 81 10000 7.7 250 11:26 29.10.2020
6178 Rain 10 1008 81 10000 7.7 250 10:57 29.10.2020
6179 Rain 9 1008 87 9000 4.6 240 10:36 29.10.2020
6180 Rain 9 1008 87 9000 4.6 240 10:18 29.10.2020
6181 Clouds 8 1006 93 8000 6.2 240 09:42 29.10.2020
6182 Clouds 8 1006 93 8000 6.2 240 09:19 29.10.2020
6183 Rain 8 1005 93 10000 5.1 250 08:40 29.10.2020
6184 Clouds 8 1005 93 10000 5.1 250 08:19 29.10.2020
6185 Rain 8 1005 93 10000 5.1 250 07:48 29.10.2020
6186 Rain 7 1005 93 10000 7.7 270 06:58 29.10.2020
6187 Clouds 9 1004 81 10000 6.7 260 06:24 29.10.2020
6188 Rain 10 1002 87 9000 6.2 220 04:47 29.10.2020
6189 Rain 11 1001 90 3843 10.45 234 02:18 29.10.2020
6190 Clouds 11 1001 86 10000 9.08 212 00:38 29.10.2020
6191 Rain 11 1001 84 10000 10.62 211 00:18 29.10.2020
6192 Clouds 11 1001 84 10000 11.04 206 23:23 28.10.2020
6193 Clouds 9 1004 87 10000 5.1 190 22:59 28.10.2020
6194 Clouds 9 1004 87 10000 5.1 190 22:41 28.10.2020
6195 Clouds 9 1004 87 10000 5.1 190 22:22 28.10.2020
6196 Rain 10 1004 81 10000 5.1 200 21:43 28.10.2020
6197 Rain 10 1004 81 10000 5.1 200 21:25 28.10.2020
6198 Clouds 10 1004 76 10000 4.6 190 20:43 28.10.2020
6199 Clouds 10 1004 76 10000 4.6 190 20:23 28.10.2020
6200 Clouds 10 1004 76 10000 4.6 190 19:53 28.10.2020
6201 Clouds 10 1004 76 10000 5.7 200 19:31 28.10.2020
6202 Clouds 11 1004 71 10000 5.7 210 18:52 28.10.2020
6203 Clouds 11 1004 71 10000 5.7 210 18:22 28.10.2020
6204 Clouds 11 1004 71 10000 5.7 210 17:59 28.10.2020
6205 Clouds 12 1004 71 10000 5.1 210 17:41 28.10.2020
6206 Clouds 12 1004 71 10000 5.1 210 17:21 28.10.2020
6207 Clouds 13 1004 66 10000 6.2 220 16:47 28.10.2020
6208 Clouds 13 1004 66 10000 6.2 220 16:28 28.10.2020
6209 Clouds 13 1004 66 10000 8.2 220 15:42 28.10.2020
6210 Rain 12 1004 75 10000 13.01 223 15:19 28.10.2020
6211 Clouds 13 1004 71 10000 7.7 220 14:49 28.10.2020
6212 Clouds 13 1004 71 10000 7.7 220 14:31 28.10.2020
6213 Clouds 12 1003 77 10000 12.53 219 13:59 28.10.2020
6214 Clouds 12 1003 76 10000 12.84 221 12:37 28.10.2020
6215 Clouds 12 1003 75 10000 12.67 220 12:19 28.10.2020
6216 Clouds 12 1003 75 10000 12.67 220 11:42 28.10.2020
6217 Clouds 12 1003 76 10000 11.97 219 11:22 28.10.2020
6218 Drizzle 10 1004 93 10000 4.6 220 10:53 28.10.2020
6219 Drizzle 10 1004 93 10000 4.6 220 10:34 28.10.2020
6220 Clouds 10 1003 93 10000 5.7 210 09:56 28.10.2020
6221 Clouds 10 1003 93 10000 5.7 210 09:38 28.10.2020
6222 Clouds 10 1003 93 10000 5.7 210 09:20 28.10.2020
6223 Rain 10 1002 87 10000 5.1 210 08:45 28.10.2020
6224 Clouds 10 1002 87 10000 5.1 210 08:24 28.10.2020
6225 Clouds 9 1002 100 10000 4.6 220 07:47 28.10.2020
6226 Clouds 9 1002 100 10000 4.6 220 07:29 28.10.2020
6227 Clouds 10 1001 93 10000 4.6 220 06:40 28.10.2020
6228 Clouds 10 1000 93 8000 6.2 220 05:49 28.10.2020
6229 Clouds 10 1000 93 8000 6.2 220 04:52 28.10.2020
6230 Clouds 10 999 93 7000 6.2 210 04:25 28.10.2020
6231 Rain 10 999 81 3000 7.2 200 02:25 28.10.2020
6232 Clouds 10 999 76 10000 6.2 180 01:26 28.10.2020
6233 Clouds 11 1000 66 10000 7.2 190 23:52 27.10.2020
6234 Clouds 11 1000 66 10000 7.2 190 23:25 27.10.2020
6235 Clouds 11 1000 66 10000 7.2 190 22:55 27.10.2020
6236 Rain 11 1000 71 10000 6.2 180 22:37 27.10.2020
6237 Rain 11 1000 71 10000 6.2 180 22:18 27.10.2020
6238 Rain 10 1001 76 10000 5.1 180 21:55 27.10.2020
6239 Rain 10 1001 76 10000 5.1 180 21:36 27.10.2020
6240 Clouds 10 1001 76 10000 5.1 180 21:18 27.10.2020
6241 Clouds 10 1001 76 10000 5.1 180 21:18 27.10.2020
6242 Clouds 10 1001 76 10000 5.1 180 21:18 27.10.2020
6243 Clouds 10 1001 81 10000 4.6 190 20:39 27.10.2020
6244 Clouds 10 1001 81 10000 4.6 190 20:21 27.10.2020
6245 Clouds 10 1002 81 10000 4.6 200 19:39 27.10.2020
6246 Clouds 10 1002 81 10000 4.6 200 19:21 27.10.2020
6247 Clouds 10 1002 81 10000 4.6 200 18:58 27.10.2020
6248 Rain 10 1002 81 10000 3.1 200 18:40 27.10.2020
6249 Rain 10 1002 81 10000 3.1 200 18:19 27.10.2020
6250 Clouds 10 1002 81 10000 4.6 210 17:43 27.10.2020
6251 Clouds 10 1002 81 10000 4.6 210 17:21 27.10.2020
6252 Clouds 12 1002 71 10000 4.1 200 16:49 27.10.2020
6253 Clouds 12 1002 71 10000 4.1 200 16:30 27.10.2020
6254 Clouds 12 1002 71 10000 4.1 200 15:55 27.10.2020
6255 Clouds 11 1002 71 10000 6.7 210 15:37 27.10.2020
6256 Clouds 11 1002 71 10000 6.7 210 15:18 27.10.2020
6257 Clouds 12 1002 71 10000 5.1 210 14:42 27.10.2020
6258 Clouds 12 1002 71 10000 5.1 210 14:23 27.10.2020
6259 Clouds 12 1002 71 10000 5.1 210 13:52 27.10.2020
6260 Clouds 12 1002 71 10000 6.7 210 13:22 27.10.2020
6261 Clouds 11 1003 76 10000 7.2 210 12:42 27.10.2020
6262 Clouds 11 1003 76 10000 7.2 210 12:23 27.10.2020
6263 Clouds 10 1002 81 10000 6.2 210 11:43 27.10.2020
6264 Clouds 10 1002 81 10000 6.2 210 11:25 27.10.2020
6265 Clouds 10 1002 81 10000 6.2 210 10:48 27.10.2020
6266 Clouds 10 1002 81 10000 6.2 210 10:30 27.10.2020
6267 Clouds 9 1002 87 10000 5.1 200 09:47 27.10.2020
6268 Clouds 9 1002 87 10000 5.1 200 09:27 27.10.2020
6269 Clouds 9 1002 87 10000 5.1 200 08:49 27.10.2020
6270 Clouds 8 1001 87 10000 4.6 200 08:26 27.10.2020
6271 Clouds 9 1001 87 10000 5.7 210 07:47 27.10.2020
6272 Clouds 9 1001 87 10000 5.7 210 07:29 27.10.2020
6273 Clouds 9 1001 87 10000 5.1 200 06:39 27.10.2020
6274 Clouds 8 1000 87 10000 4.6 200 06:19 27.10.2020
6275 Clouds 11 999 82 10000 11.74 217 05:44 27.10.2020
6276 Clouds 11 999 83 10000 11.35 214 04:57 27.10.2020
6277 Clouds 11 999 84 10000 11.44 214 02:40 27.10.2020
6278 Clouds 9 1000 76 10000 5.7 200 00:59 27.10.2020
6279 Clouds 9 1000 76 10000 4.6 200 23:57 26.10.2020
6280 Clouds 9 1000 76 10000 4.6 200 23:36 26.10.2020
6281 Clouds 9 1000 76 10000 4.6 200 23:36 26.10.2020
6282 Clouds 9 1000 76 10000 4.6 200 22:55 26.10.2020
6283 Clouds 9 1000 76 10000 5.1 200 22:29 26.10.2020
6284 Clouds 9 1000 76 10000 5.1 200 21:56 26.10.2020
6285 Clouds 8 1000 81 10000 3.1 170 21:36 26.10.2020
6286 Clouds 8 1000 81 10000 3.1 170 21:18 26.10.2020
6287 Clouds 9 1000 76 10000 3.6 190 20:46 26.10.2020
6288 Clouds 9 1000 76 10000 3.6 190 20:26 26.10.2020
6289 Clouds 9 1000 76 10000 3.6 190 19:49 26.10.2020
6290 Clouds 9 1000 76 10000 4.6 210 19:28 26.10.2020
6291 Clouds 9 1000 76 10000 4.6 210 18:57 26.10.2020
6292 Clouds 10 1000 71 10000 3.6 210 18:36 26.10.2020
6293 Clouds 10 1000 71 10000 3.6 210 18:18 26.10.2020
6294 Clouds 11 1000 76 10000 3.6 210 17:41 26.10.2020
6295 Clouds 11 1000 76 10000 3.6 210 17:23 26.10.2020
6296 Clouds 12 999 66 10000 5.1 220 16:45 26.10.2020
6297 Clouds 12 999 66 10000 5.1 220 16:22 26.10.2020
6298 Clouds 11 999 81 10000 4.6 210 15:46 26.10.2020
6299 Clouds 11 999 81 10000 4.6 210 15:28 26.10.2020
6300 Clouds 11 999 81 10000 4.6 210 14:59 26.10.2020
6301 Clouds 11 999 81 10000 4.1 200 14:38 26.10.2020
6302 Clouds 11 999 81 10000 4.1 200 14:18 26.10.2020
6303 Clouds 11 1000 81 10000 5.1 220 13:38 26.10.2020
6304 Clouds 11 1000 81 10000 5.1 220 13:20 26.10.2020
6305 Clouds 11 1000 81 10000 4.6 210 12:42 26.10.2020
6306 Clouds 11 1000 81 10000 4.6 210 12:23 26.10.2020
6307 Clouds 11 1000 87 10000 2.6 190 11:47 26.10.2020
6308 Clouds 11 1000 87 10000 2.6 190 11:25 26.10.2020
6309 Clouds 11 1000 87 10000 2.6 190 10:58 26.10.2020
6310 Clouds 11 1000 87 10000 2.6 190 10:58 26.10.2020
6311 Clouds 10 1000 93 10000 3.1 190 10:40 26.10.2020
6312 Clouds 10 1000 93 10000 3.1 190 10:19 26.10.2020
6313 Clouds 10 999 87 10000 2.6 190 09:43 26.10.2020
6314 Clouds 10 999 87 10000 2.6 190 09:21 26.10.2020
6315 Clouds 10 999 87 10000 2.6 180 08:29 26.10.2020
6316 Clouds 10 999 87 10000 2.6 180 07:53 26.10.2020
6317 Clouds 10 999 87 10000 3.1 180 07:34 26.10.2020
6318 Clouds 9 999 93 10000 3.1 180 06:37 26.10.2020
6319 Clouds 9 999 93 8000 2.6 170 04:22 26.10.2020
6320 Rain 10 1000 87 10000 4.1 210 03:33 26.10.2020
6321 Clouds 10 1000 93 9000 3.6 190 01:38 26.10.2020
6322 Clouds 10 1000 93 9000 3.6 190 00:54 26.10.2020
6323 Clouds 11 1000 87 9000 3.6 200 00:31 26.10.2020
6324 Clouds 11 1000 93 10000 3.6 200 23:39 25.10.2020
6325 Clouds 11 1000 93 10000 3.6 200 23:21 25.10.2020
6326 Clouds 11 1000 93 10000 3.1 190 22:40 25.10.2020
6327 Clouds 11 1000 93 10000 3.6 200 22:20 25.10.2020
6328 Clouds 11 1001 93 10000 3.6 200 21:41 25.10.2020
6329 Clouds 11 1001 93 10000 3.6 200 21:22 25.10.2020
6330 Clouds 11 1000 93 10000 4.1 190 20:46 25.10.2020
6331 Clouds 11 1000 93 10000 4.1 190 20:28 25.10.2020
6332 Clouds 11 1000 93 10000 4.1 190 19:59 25.10.2020
6333 Clouds 10 1001 93 10000 3.1 200 19:41 25.10.2020
6334 Clouds 10 1001 93 10000 3.1 200 19:21 25.10.2020
6335 Clouds 10 1001 93 10000 3.1 200 18:55 25.10.2020
6336 Clouds 10 1000 93 8000 4.6 220 18:36 25.10.2020
6337 Clouds 10 1000 93 8000 4.6 220 18:18 25.10.2020
6338 Mist 10 1000 93 5000 3.1 210 17:39 25.10.2020
6339 Mist 12 1000 93 3000 2.6 190 17:20 25.10.2020
6340 Mist 12 1000 93 3000 2.6 190 16:55 25.10.2020
6341 Clouds 13 1000 87 10000 4.1 210 16:37 25.10.2020
6342 Clouds 13 1000 87 10000 4.1 210 16:18 25.10.2020
6343 Clouds 12 1000 93 10000 4.1 220 15:41 25.10.2020
6344 Clouds 12 1000 93 10000 4.1 220 15:23 25.10.2020
6345 Clouds 12 1001 87 9000 6.2 210 14:40 25.10.2020
6346 Rain 12 1001 87 9000 6.2 210 14:21 25.10.2020
6347 Rain 12 1001 87 5000 6.7 210 13:42 25.10.2020
6348 Mist 12 1001 87 5000 6.7 210 13:20 25.10.2020
6349 Clouds 11 1001 93 8000 3.6 210 12:47 25.10.2020
6350 Clouds 11 1001 93 8000 3.6 210 12:26 25.10.2020
6351 Clouds 11 1001 93 8000 3.6 210 11:55 25.10.2020
6352 Clouds 11 1001 93 6000 3.6 210 11:36 25.10.2020
6353 Mist 11 1001 93 5000 5.1 240 11:18 25.10.2020
6354 Clouds 11 1001 87 6000 7.2 270 10:44 25.10.2020
6355 Rain 11 1001 87 6000 7.2 270 10:24 25.10.2020
6356 Rain 15 1000 72 10000 6.7 190 09:46 25.10.2020
6357 Clouds 15 1000 72 10000 6.7 190 09:19 25.10.2020
6358 Rain 15 1000 72 10000 6.7 190 08:47 25.10.2020
6359 Clouds 15 1000 72 10000 6.7 190 08:29 25.10.2020
6360 Clouds 15 1000 72 10000 6.7 190 07:50 25.10.2020
6361 Rain 15 1000 72 10000 6.2 180 07:32 25.10.2020
6362 Clouds 15 1001 72 10000 7.2 190 06:50 25.10.2020
6363 Clouds 15 1001 72 10000 7.2 190 05:59 25.10.2020
6364 Clouds 15 1001 72 10000 6.2 180 04:52 25.10.2020
6365 Clouds 14 1003 76 10000 6.7 190 03:44 25.10.2020
6366 Clouds 14 1003 76 10000 6.7 190 02:18 25.10.2020
6367 Clouds 14 1004 76 10000 6.2 190 00:49 25.10.2020
6368 Clouds 13 1005 82 10000 6.7 180 00:20 25.10.2020
6369 Clouds 13 1005 82 10000 6.7 180 23:54 24.10.2020
6370 Clouds 13 1005 87 10000 5.7 190 23:26 24.10.2020
6371 Clouds 13 1005 87 10000 5.7 190 22:57 24.10.2020
6372 Clouds 13 1005 82 10000 5.7 180 22:38 24.10.2020
6373 Clouds 13 1005 82 10000 5.7 180 22:20 24.10.2020
6374 Clouds 13 1006 82 10000 5.7 190 21:42 24.10.2020
6375 Clouds 13 1006 82 10000 5.7 190 21:21 24.10.2020
6376 Clouds 12 1007 87 10000 4.6 200 20:48 24.10.2020
6377 Clouds 12 1007 87 10000 4.6 200 20:23 24.10.2020
6378 Clouds 12 1007 87 10000 4.6 200 19:57 24.10.2020
6379 Clouds 12 1007 93 10000 4.6 200 19:37 24.10.2020
6380 Clouds 12 1007 93 10000 4.6 200 19:19 24.10.2020
6381 Clouds 13 1008 87 10000 4.1 200 18:46 24.10.2020
6382 Clouds 13 1008 87 10000 4.1 200 18:26 24.10.2020
6383 Clouds 13 1008 87 10000 5.1 200 17:41 24.10.2020
6384 Clouds 13 1008 87 10000 5.1 200 17:22 24.10.2020
6385 Clouds 13 1008 87 10000 5.1 210 16:45 24.10.2020
6386 Clouds 13 1008 87 10000 5.1 210 16:26 24.10.2020
6387 Drizzle 13 1008 82 7000 4.1 200 15:41 24.10.2020
6388 Drizzle 13 1008 82 7000 4.1 200 15:20 24.10.2020
6389 Clouds 13 1009 76 10000 4.1 220 14:56 24.10.2020
6390 Clouds 14 1009 71 10000 5.7 220 14:29 24.10.2020
6391 Clouds 13 1009 76 10000 6.2 230 13:49 24.10.2020
6392 Clouds 13 1009 76 10000 6.2 230 13:31 24.10.2020
6393 Clouds 13 1009 76 10000 6.2 230 12:58 24.10.2020
6394 Clouds 13 1009 76 10000 6.2 240 12:37 24.10.2020
6395 Clouds 13 1009 76 10000 6.2 240 12:19 24.10.2020
6396 Clouds 12 1009 87 10000 6.2 230 11:43 24.10.2020
6397 Clouds 12 1009 87 10000 6.2 230 11:18 24.10.2020
6398 Clouds 12 1009 87 10000 4.6 230 10:39 24.10.2020
6399 Clouds 12 1009 87 10000 4.6 230 10:18 24.10.2020
6400 Clouds 12 1008 87 10000 4.6 230 09:44 24.10.2020
6401 Clouds 12 1008 87 10000 4.6 230 09:25 24.10.2020
6402 Clouds 12 1008 87 10000 4.6 230 08:54 24.10.2020
6403 Clouds 12 1008 87 10000 4.1 220 08:18 24.10.2020
6404 Clouds 12 1008 87 10000 4.1 220 07:50 24.10.2020
6405 Clouds 12 1008 87 10000 4.6 220 07:20 24.10.2020
6406 Clouds 12 1007 87 10000 5.1 230 06:49 24.10.2020
6407 Clouds 12 1007 87 8000 4.6 230 05:27 24.10.2020
6408 Clouds 13 1007 87 6000 5.1 220 02:20 24.10.2020
6409 Clouds 12 1007 93 5000 4.6 210 00:55 24.10.2020
6410 Clouds 12 1007 93 5000 4.1 210 00:37 24.10.2020
6411 Clouds 12 1007 93 5000 4.1 210 00:19 24.10.2020
6412 Mist 12 1007 93 4000 4.6 210 23:40 23.10.2020
6413 Mist 12 1007 93 4000 4.6 210 23:22 23.10.2020
6414 Clouds 12 1007 93 6000 4.1 200 22:42 23.10.2020
6415 Clouds 12 1007 93 6000 4.1 200 22:21 23.10.2020
6416 Clouds 12 1007 93 6000 4.1 200 21:56 23.10.2020
6417 Clouds 12 1008 87 8000 3.1 190 21:38 23.10.2020
6418 Clouds 12 1008 87 8000 3.1 190 21:20 23.10.2020
6419 Rain 13 1008 82 7000 3.6 180 20:39 23.10.2020
6420 Rain 13 1008 82 7000 3.6 180 20:19 23.10.2020
6421 Clouds 13 1008 82 7000 2.6 190 19:45 23.10.2020
6422 Clouds 13 1008 82 7000 2.6 190 19:26 23.10.2020
6423 Clouds 14 1008 76 10000 3.1 190 18:47 23.10.2020
6424 Clouds 14 1008 76 10000 3.1 190 18:29 23.10.2020
6425 Clouds 15 1008 72 10000 3.6 200 17:46 23.10.2020
6426 Clouds 15 1008 72 10000 3.6 200 17:22 23.10.2020
6427 Clouds 15 1008 72 10000 3.6 200 16:51 23.10.2020
6428 Clouds 14 1009 76 10000 3.1 200 16:33 23.10.2020
6429 Clouds 14 1009 76 10000 3.1 200 15:58 23.10.2020
6430 Clouds 13 1009 82 10000 3.1 200 15:39 23.10.2020
6431 Clouds 13 1009 82 10000 3.1 200 15:19 23.10.2020
6432 Clouds 11 1010 93 6000 3.6 220 14:47 23.10.2020
6433 Clouds 11 1010 93 6000 3.6 220 14:29 23.10.2020
6434 Clouds 11 1010 93 6000 3.1 220 13:42 23.10.2020
6435 Clouds 11 1010 93 6000 3.1 220 13:23 23.10.2020
6436 Clouds 11 1010 93 6000 3.1 220 12:50 23.10.2020
6437 Mist 10 1010 100 5000 3.1 220 12:30 23.10.2020
6438 Mist 10 1010 100 2500 3.6 210 11:50 23.10.2020
6439 Mist 10 1010 100 3000 4.1 220 11:27 23.10.2020
6440 Mist 10 1010 100 3000 4.1 220 10:54 23.10.2020
6441 Mist 10 1010 93 3000 3.6 220 10:26 23.10.2020
6442 Mist 10 1010 93 1100 4.1 220 09:57 23.10.2020
6443 Fog 9 1010 100 450 4.6 220 09:39 23.10.2020
6444 Mist 9 1010 100 1100 4.1 220 09:20 23.10.2020
6445 Fog 9 1009 100 2500 3.6 210 08:50 23.10.2020
6446 Fog 9 1009 100 2500 3.6 210 08:24 23.10.2020
6447 Fog 9 1009 100 4500 3.6 220 07:26 23.10.2020
6448 Fog 9 1009 100 4500 3.6 220 07:26 23.10.2020
6449 Clouds 10 1009 93 6000 4.1 220 06:49 23.10.2020
6450 Clouds 10 1009 93 9000 3.6 220 06:20 23.10.2020
6451 Clear 12 1009 87 9000 4.1 240 03:38 23.10.2020
6452 Clouds 11 1009 93 9000 5.1 230 02:26 23.10.2020
6453 Clouds 12 1009 87 10000 5.1 230 00:49 23.10.2020
6454 Clouds 12 1009 87 10000 5.1 230 00:29 23.10.2020
6455 Clouds 12 1008 87 10000 5.1 230 23:37 22.10.2020
6456 Clouds 12 1008 87 10000 5.1 230 23:18 22.10.2020
6457 Clouds 13 1008 76 10000 5.1 220 22:44 22.10.2020
6458 Clouds 13 1008 76 10000 5.1 220 22:22 22.10.2020
6459 Clouds 13 1008 76 10000 5.1 220 21:49 22.10.2020
6460 Clouds 13 1008 76 10000 5.1 220 21:31 22.10.2020
6461 Clouds 13 1008 76 10000 5.1 220 20:59 22.10.2020
6462 Clouds 14 1008 71 10000 4.6 230 20:41 22.10.2020
6463 Clouds 14 1008 71 10000 4.6 230 20:21 22.10.2020
6464 Clouds 14 1008 76 10000 3.6 220 19:42 22.10.2020
6465 Clouds 14 1008 76 10000 3.6 220 19:20 22.10.2020
6466 Clouds 15 1008 72 10000 2.6 230 18:44 22.10.2020
6467 Clouds 15 1008 72 10000 2.6 230 18:22 22.10.2020
6468 Clouds 16 1008 67 10000 5.1 240 17:48 22.10.2020
6469 Clouds 16 1008 67 10000 5.1 240 17:26 22.10.2020
6470 Clouds 16 1008 67 10000 5.1 240 16:59 22.10.2020
6471 Clouds 15 1008 72 10000 5.1 230 16:41 22.10.2020
6472 Clouds 15 1008 72 10000 5.1 230 16:23 22.10.2020
6473 Clouds 15 1008 72 10000 5.1 230 15:48 22.10.2020
6474 Clouds 16 1008 67 10000 6.2 230 15:26 22.10.2020
6475 Clouds 16 1008 67 10000 6.2 230 14:50 22.10.2020
6476 Clouds 15 1008 77 10000 6.7 230 14:27 22.10.2020
6477 Clouds 15 1008 77 10000 6.7 230 13:57 22.10.2020
6478 Clouds 16 1008 72 10000 6.7 230 13:38 22.10.2020
6479 Clouds 16 1008 72 10000 6.7 230 13:20 22.10.2020
6480 Clouds 15 1008 82 10000 6.2 230 12:28 22.10.2020
6481 Clouds 15 1008 82 10000 6.2 230 11:51 22.10.2020
6482 Clouds 14 1008 82 10000 6.7 220 11:21 22.10.2020
6483 Clouds 14 1008 82 10000 6.7 220 10:56 22.10.2020
6484 Clouds 13 1007 87 10000 5.7 230 10:38 22.10.2020
6485 Clouds 13 1007 87 10000 5.7 230 10:18 22.10.2020
6486 Clouds 13 1006 87 10000 5.7 210 09:42 22.10.2020
6487 Clouds 13 1006 87 10000 5.7 210 09:18 22.10.2020
6488 Clouds 13 1006 93 10000 5.1 220 08:39 22.10.2020
6489 Clouds 13 1006 93 10000 5.1 220 08:19 22.10.2020
6490 Clouds 13 1006 93 10000 5.1 220 07:43 22.10.2020
6491 Clouds 13 1006 93 10000 5.1 220 06:59 22.10.2020
6492 Clouds 13 1005 93 10000 5.7 230 06:37 22.10.2020
6493 Clouds 14 1005 87 10000 6.2 240 05:43 22.10.2020
6494 Clouds 14 1005 87 10000 6.2 240 05:22 22.10.2020
6495 Clouds 14 1003 82 10000 11.8 260 02:55 22.10.2020
6496 Clouds 18 998 68 10000 8.2 230 00:50 22.10.2020
6497 Clouds 18 998 68 10000 8.2 230 00:18 22.10.2020
6498 Clouds 17 998 72 10000 8.7 220 23:38 21.10.2020
6499 Clouds 17 998 72 10000 8.7 220 22:59 21.10.2020
6500 Clouds 17 997 72 10000 8.7 210 22:37 21.10.2020
6501 Clouds 17 997 72 10000 8.7 210 22:19 21.10.2020
6502 Rain 17 997 67 10000 6.2 190 21:45 21.10.2020
6503 Clouds 17 997 67 10000 6.2 190 21:19 21.10.2020
6504 Clouds 17 997 67 10000 6.2 190 20:57 21.10.2020
6505 Rain 16 997 72 10000 6.7 190 20:39 21.10.2020
6506 Clouds 16 997 72 10000 6.7 190 20:18 21.10.2020
6507 Clouds 15 997 77 10000 6.7 180 19:40 21.10.2020
6508 Clouds 15 997 77 10000 6.7 180 19:22 21.10.2020
6509 Clouds 14 998 87 10000 5.1 170 18:49 21.10.2020
6510 Clouds 14 998 87 10000 5.1 170 18:27 21.10.2020
6511 Rain 14 998 87 10000 5.1 170 17:50 21.10.2020
6512 Rain 14 999 93 10000 5.7 160 17:22 21.10.2020
6513 Drizzle 14 999 93 10000 5.7 160 16:58 21.10.2020
6514 Drizzle 13 1000 93 8000 5.1 170 16:37 21.10.2020
6515 Drizzle 13 1000 93 8000 5.1 170 16:18 21.10.2020
6516 Rain 13 1000 93 8000 5.1 170 15:44 21.10.2020
6517 Rain 13 1000 93 5000 5.1 180 15:21 21.10.2020
6518 Rain 13 1001 93 5000 5.7 170 14:49 21.10.2020
6519 Mist 12 1002 100 4000 5.1 170 14:28 21.10.2020
6520 Mist 12 1002 93 5000 5.7 180 13:56 21.10.2020
6521 Drizzle 12 1002 93 5000 4.6 170 13:38 21.10.2020
6522 Rain 12 1003 93 3200 4.6 170 13:19 21.10.2020
6523 Mist 12 1004 100 3000 4.1 180 12:38 21.10.2020
6524 Rain 12 1004 100 3000 4.1 180 12:19 21.10.2020
6525 Mist 12 1004 100 3000 4.1 180 11:41 21.10.2020
6526 Rain 12 1004 100 4000 3.1 180 11:20 21.10.2020
6527 Rain 12 1004 100 3300 4.1 180 10:47 21.10.2020
6528 Rain 12 1004 100 3500 3.1 170 10:26 21.10.2020
6529 Rain 12 1004 100 4500 3.6 170 09:57 21.10.2020
6530 Rain 12 1004 93 6000 3.1 170 09:34 21.10.2020
6531 Rain 12 1004 93 6000 3.1 170 08:57 21.10.2020
6532 Drizzle 12 1004 100 7000 2.6 160 08:38 21.10.2020
6533 Drizzle 12 1004 100 7000 2.6 160 08:19 21.10.2020
6534 Drizzle 12 1005 100 7000 2.6 160 07:38 21.10.2020
6535 Drizzle 12 1005 100 7000 2.6 160 06:55 21.10.2020
6536 Clouds 13 1005 87 10000 3.1 180 06:32 21.10.2020
6537 Clouds 13 1006 93 8000 3.6 190 04:47 21.10.2020
6538 Clouds 13 1006 93 8000 3.6 200 02:26 21.10.2020
6539 Clouds 12 1007 93 8000 4.1 200 23:51 20.10.2020
6540 Clouds 12 1006 87 10000 4.6 200 23:20 20.10.2020
6541 Clouds 12 1006 87 10000 4.6 200 22:36 20.10.2020
6542 Clouds 12 1006 87 10000 4.6 200 22:18 20.10.2020
6543 Clouds 12 1006 87 10000 4.6 200 21:45 20.10.2020
6544 Clouds 12 1007 87 10000 5.1 200 21:18 20.10.2020
6545 Clouds 12 1007 87 10000 5.1 200 20:42 20.10.2020
6546 Clouds 11 1007 87 10000 4.6 200 20:23 20.10.2020
6547 Clouds 11 1006 87 9000 4.6 190 19:44 20.10.2020
6548 Clouds 11 1006 87 9000 4.6 190 19:22 20.10.2020
6549 Clouds 11 1006 87 9000 4.6 190 18:56 20.10.2020
6550 Clouds 10 1007 93 10000 4.1 190 18:37 20.10.2020
6551 Clouds 10 1007 93 10000 4.1 190 17:51 20.10.2020
6552 Clouds 10 1008 87 10000 3.6 190 17:32 20.10.2020
6553 Rain 10 1008 87 10000 3.6 190 16:56 20.10.2020
6554 Clouds 10 1007 81 10000 4.1 160 16:38 20.10.2020
6555 Rain 10 1007 81 10000 4.1 160 16:20 20.10.2020
6556 Rain 10 1007 81 10000 4.1 160 15:44 20.10.2020
6557 Rain 10 1008 76 10000 4.1 170 15:23 20.10.2020
6558 Rain 10 1008 76 10000 4.1 170 14:44 20.10.2020
6559 Rain 10 1008 71 10000 3.6 170 14:25 20.10.2020
6560 Clouds 10 1008 71 10000 3.6 170 13:58 20.10.2020
6561 Clouds 9 1009 76 10000 4.1 170 13:39 20.10.2020
6562 Rain 9 1009 76 10000 4.1 170 13:19 20.10.2020
6563 Clouds 9 1009 76 10000 4.1 170 12:47 20.10.2020
6564 Clouds 8 1009 75 10000 4.6 150 12:29 20.10.2020
6565 Clouds 8 1009 75 10000 4.6 150 11:47 20.10.2020
6566 Clouds 7 1010 81 10000 4.1 150 11:27 20.10.2020
6567 Clouds 7 1010 81 10000 4.1 150 10:40 20.10.2020
6568 Clouds 7 1009 75 10000 5.1 130 10:22 20.10.2020
6569 Clouds 7 1009 75 10000 5.1 130 09:44 20.10.2020
6570 Clouds 6 1010 87 10000 4.6 130 09:19 20.10.2020
6571 Clouds 6 1010 87 10000 4.6 130 08:39 20.10.2020
6572 Clouds 6 1011 87 10000 4.1 120 08:19 20.10.2020
6573 Clouds 6 1011 87 10000 4.1 120 07:42 20.10.2020
6574 Clouds 6 1013 87 10000 2.6 120 07:21 20.10.2020
6575 Clouds 6 1013 87 10000 3.6 130 06:19 20.10.2020
6576 Clouds 7 1015 87 8000 2.6 150 04:27 20.10.2020
6577 Clouds 8 1016 87 6000 2.6 140 02:30 20.10.2020
6578 Clouds 8 1017 87 6000 1 140 01:22 20.10.2020
6579 Clouds 8 1017 87 6000 1 140 00:51 20.10.2020
6580 Clouds 9 1017 87 8000 3.1 150 00:26 20.10.2020
6581 Clouds 9 1017 87 8000 3.1 150 23:51 19.10.2020
6582 Tornado 9 1018 87 10000 2.1 160 23:26 19.10.2020
6583 Clouds 9 1018 87 10000 2.1 180 22:54 19.10.2020
6584 Clouds 10 1018 81 10000 2.6 180 22:26 19.10.2020
6585 Clouds 10 1018 81 10000 2.6 180 21:57 19.10.2020
6586 Clouds 10 1018 81 10000 2.6 180 21:39 19.10.2020
6587 Clouds 10 1018 81 10000 2.6 180 21:18 19.10.2020
6588 Clouds 10 1018 81 10000 2.6 180 20:42 19.10.2020
6589 Clouds 9 1019 87 10000 2.1 200 20:24 19.10.2020
6590 Clouds 10 1018 81 10000 2.1 190 19:45 19.10.2020
6591 Clouds 10 1018 81 10000 2.1 190 19:19 19.10.2020
6592 Clouds 10 1018 81 10000 2.1 190 18:50 19.10.2020
6593 Clouds 11 1019 76 10000 3.1 210 18:28 19.10.2020
6594 Clouds 11 1019 76 10000 3.1 210 17:47 19.10.2020
6595 Clouds 11 1019 71 10000 4.6 220 17:27 19.10.2020
6596 Clouds 11 1019 71 10000 4.6 220 16:54 19.10.2020
6597 Clouds 12 1019 71 10000 3.6 230 16:30 19.10.2020
6598 Clouds 12 1019 72 10000 6.46 242 15:50 19.10.2020
6599 Rain 12 1019 72 10000 6.97 252 15:26 19.10.2020
6600 Clouds 12 1019 72 10000 6.97 252 14:59 19.10.2020
6601 Clouds 12 1019 72 10000 6.97 252 14:40 19.10.2020
6602 Clouds 12 1020 71 10000 7.56 258 14:21 19.10.2020
6603 Rain 12 1020 68 10000 6.6 253 13:44 19.10.2020
6604 Clouds 12 1020 68 10000 6.07 257 13:26 19.10.2020
6605 Clouds 12 1020 68 10000 6.07 257 12:45 19.10.2020
6606 Rain 12 1020 73 10000 6 247 12:26 19.10.2020
6607 Clouds 9 1020 87 10000 3.6 220 11:51 19.10.2020
6608 Clouds 9 1020 87 10000 3.6 220 11:24 19.10.2020
6609 Rain 8 1020 93 10000 3.1 220 10:45 19.10.2020
6610 Rain 8 1020 93 10000 3.1 220 10:25 19.10.2020
6611 Clouds 8 1020 93 10000 3.1 220 09:58 19.10.2020
6612 Clouds 7 1019 100 10000 2.6 210 09:37 19.10.2020
6613 Clouds 7 1019 100 10000 2.6 210 09:18 19.10.2020
6614 Clouds 7 1019 93 10000 2.1 210 08:44 19.10.2020
6615 Clouds 7 1019 93 10000 2.1 210 08:21 19.10.2020
6616 Clouds 7 1019 93 10000 2.1 220 07:21 19.10.2020
6617 Clouds 8 1019 87 10000 3.1 240 06:40 19.10.2020
6618 Clouds 8 1019 93 10000 3.6 260 05:36 19.10.2020
6619 Clouds 8 1019 93 10000 2.6 240 03:46 19.10.2020
6620 Clouds 8 1019 93 10000 2.1 240 01:43 19.10.2020
6621 Clouds 9 1019 81 10000 3.1 260 00:42 19.10.2020
6622 Clouds 9 1019 81 10000 3.1 260 23:57 18.10.2020
6623 Clouds 8 1019 87 10000 2.6 210 23:38 18.10.2020
6624 Clouds 8 1019 87 10000 2.6 210 23:19 18.10.2020
6625 Clouds 9 1019 81 10000 3.1 270 22:44 18.10.2020
6626 Clouds 9 1019 81 10000 3.1 270 22:19 18.10.2020
6627 Clouds 8 1019 93 10000 1.5 280 21:43 18.10.2020
6628 Clouds 8 1019 93 10000 1.5 280 21:21 18.10.2020
6629 Clouds 8 1019 93 10000 3.1 320 20:45 18.10.2020
6630 Clouds 8 1019 93 10000 3.1 320 20:24 18.10.2020
6631 Clouds 8 1019 93 10000 3.1 320 19:50 18.10.2020
6632 Clouds 9 1018 81 6000 5.1 320 19:27 18.10.2020
6633 Rain 9 1018 81 10000 3.6 280 18:55 18.10.2020
6634 Rain 10 1018 76 10000 5.7 330 18:36 18.10.2020
6635 Rain 10 1018 76 10000 5.7 330 18:18 18.10.2020
6636 Clouds 11 1018 71 10000 4.1 280 17:41 18.10.2020
6637 Clouds 11 1018 71 10000 4.1 280 17:22 18.10.2020
6638 Clouds 11 1018 71 10000 6.2 310 16:44 18.10.2020
6639 Clouds 11 1018 71 10000 6.2 310 16:25 18.10.2020
6640 Clouds 12 1018 66 10000 5.7 300 15:45 18.10.2020
6641 Rain 12 1018 66 10000 5.7 300 15:27 18.10.2020
6642 Clouds 12 1018 66 10000 5.7 300 14:58 18.10.2020
6643 Clouds 12 1017 62 10000 6.2 320 14:39 18.10.2020
6644 Clouds 12 1017 62 10000 6.2 320 14:39 18.10.2020
6645 Clouds 12 1017 62 10000 6.2 320 14:21 18.10.2020
6646 Clouds 12 1017 62 10000 5.7 320 13:43 18.10.2020
6647 Clouds 12 1017 62 10000 5.7 320 13:25 18.10.2020
6648 Clouds 11 1017 81 10000 5.1 300 12:43 18.10.2020
6649 Clouds 11 1017 81 10000 5.1 300 12:24 18.10.2020
6650 Clouds 11 1017 81 10000 5.1 300 11:55 18.10.2020
6651 Clouds 10 1017 81 10000 5.1 320 11:37 18.10.2020
6652 Clouds 10 1017 81 10000 5.1 320 11:18 18.10.2020
6653 Clouds 10 1017 81 10000 5.7 310 10:39 18.10.2020
6654 Clouds 10 1017 81 10000 5.7 310 10:19 18.10.2020
6655 Clouds 9 1017 100 10000 5.7 300 09:47 18.10.2020
6656 Clouds 9 1016 93 8000 5.7 310 09:21 18.10.2020
6657 Clouds 9 1016 93 8000 5.7 310 08:56 18.10.2020
6658 Clouds 10 1016 87 10000 5.1 290 08:36 18.10.2020
6659 Clouds 10 1016 87 10000 5.1 290 08:18 18.10.2020
6660 Clouds 10 1016 87 10000 5.7 260 05:59 18.10.2020
6661 Clouds 10 1017 81 10000 7.7 260 03:59 18.10.2020
6662 Clouds 10 1017 87 10000 5.7 260 02:54 18.10.2020
6663 Clouds 8 1018 93 10000 2.6 240 01:38 18.10.2020
6664 Clouds 8 1018 93 10000 2.6 230 00:48 18.10.2020
6665 Clouds 8 1018 93 10000 2.6 230 00:24 18.10.2020
6666 Clouds 8 1019 93 10000 2.6 230 23:43 17.10.2020
6667 Clouds 8 1019 93 10000 2.6 230 23:22 17.10.2020
6668 Clouds 8 1019 93 10000 2.6 230 22:59 17.10.2020
6669 Clouds 6 1019 100 10000 1.5 250 22:40 17.10.2020
6670 Clouds 6 1019 100 10000 1.5 250 22:19 17.10.2020
6671 Clouds 6 1019 100 10000 1.5 260 21:44 17.10.2020
6672 Clouds 6 1019 100 10000 1.5 260 21:23 17.10.2020
6673 Clouds 6 1019 100 10000 1.5 260 20:49 17.10.2020
6674 Clouds 7 1019 93 10000 1.5 290 20:21 17.10.2020
6675 Clouds 7 1019 93 10000 1.5 290 19:59 17.10.2020
6676 Clouds 9 1019 81 10000 0.5 290 19:40 17.10.2020
6677 Clouds 9 1019 81 10000 0.5 290 19:18 17.10.2020
6678 Clouds 11 1019 71 10000 3.1 320 18:41 17.10.2020
6679 Clouds 11 1019 71 10000 3.1 320 18:19 17.10.2020
6680 Clouds 11 1019 71 10000 2.1 350 17:42 17.10.2020
6681 Clouds 11 1019 71 10000 2.1 350 17:21 17.10.2020
6682 Clouds 11 1019 71 10000 2.1 350 16:48 17.10.2020
6683 Clouds 12 1019 66 10000 2.6 40 16:23 17.10.2020
6684 Clouds 12 1019 66 10000 2.6 40 15:56 17.10.2020
6685 Clouds 12 1020 71 10000 2.1 50 15:37 17.10.2020
6686 Clouds 12 1020 71 10000 2.1 50 15:19 17.10.2020
6687 Clouds 12 1020 71 10000 3.6 50 14:40 17.10.2020
6688 Clouds 12 1020 71 10000 3.6 50